<?xml version="1.0" encoding="UTF-8" standalone="no" ?>
<gpx xmlns="http://www.topografix.com/GPX/1/1" xmlns:xsi="http://www.w3.org/2001/XMLSchema-instance" xsi:schemaLocation="http://www.topografix.com/GPX/1/1 http://www.topografix.com/GPX/1/1/gpx.xsd" version="1.1" creator="VisuGPX - https://www.visugpx.com">
  <metadata>
    <name>ainsa</name>
  </metadata>
  <trk>
    <name><![CDATA[Boltana 15]]></name>
    <extensions>
      <line xmlns="http://www.topografix.com/GPX/gpx_style/0/2">
        <color>FF00FF</color>
        <width>4</width>
      </line>
    </extensions>
    <trkseg>
      <trkpt lat="42.44336" lon="0.06573">
        <ele>607.3</ele>
        <time>2017-07-31T07:59:05Z</time>
      </trkpt>
      <trkpt lat="42.44338" lon="0.0657">
        <ele>606.9</ele>
        <time>2017-07-31T08:07:23Z</time>
      </trkpt>
      <trkpt lat="42.44338" lon="0.06566">
        <ele>606.6</ele>
        <time>2017-07-31T08:07:39Z</time>
      </trkpt>
      <trkpt lat="42.44341" lon="0.06563">
        <ele>606.2</ele>
        <time>2017-07-31T08:08:35Z</time>
      </trkpt>
      <trkpt lat="42.44344" lon="0.0656">
        <ele>605.8</ele>
        <time>2017-07-31T08:08:37Z</time>
      </trkpt>
      <trkpt lat="42.44347" lon="0.06558">
        <ele>605.5</ele>
        <time>2017-07-31T08:08:39Z</time>
      </trkpt>
      <trkpt lat="42.4435" lon="0.06555">
        <ele>605</ele>
        <time>2017-07-31T08:08:41Z</time>
      </trkpt>
      <trkpt lat="42.44355" lon="0.06552">
        <ele>604.5</ele>
        <time>2017-07-31T08:08:43Z</time>
      </trkpt>
      <trkpt lat="42.4436" lon="0.06549">
        <ele>604</ele>
        <time>2017-07-31T08:08:45Z</time>
      </trkpt>
      <trkpt lat="42.44362" lon="0.06547">
        <ele>603.7</ele>
        <time>2017-07-31T08:08:46Z</time>
      </trkpt>
      <trkpt lat="42.44365" lon="0.06545">
        <ele>603.4</ele>
        <time>2017-07-31T08:08:47Z</time>
      </trkpt>
      <trkpt lat="42.44367" lon="0.06543">
        <ele>603.1</ele>
        <time>2017-07-31T08:08:48Z</time>
      </trkpt>
      <trkpt lat="42.4437" lon="0.06542">
        <ele>602.9</ele>
        <time>2017-07-31T08:08:49Z</time>
      </trkpt>
      <trkpt lat="42.44372" lon="0.06541">
        <ele>602.6</ele>
        <time>2017-07-31T08:08:50Z</time>
      </trkpt>
      <trkpt lat="42.44375" lon="0.06541">
        <ele>602.4</ele>
        <time>2017-07-31T08:08:51Z</time>
      </trkpt>
      <trkpt lat="42.4438" lon="0.0654">
        <ele>602</ele>
        <time>2017-07-31T08:08:53Z</time>
      </trkpt>
      <trkpt lat="42.44384" lon="0.0654">
        <ele>602</ele>
        <time>2017-07-31T08:08:55Z</time>
      </trkpt>
      <trkpt lat="42.44386" lon="0.06538">
        <ele>602.3</ele>
        <time>2017-07-31T08:09:41Z</time>
      </trkpt>
      <trkpt lat="42.44389" lon="0.06532">
        <ele>602.7</ele>
        <time>2017-07-31T08:09:43Z</time>
      </trkpt>
      <trkpt lat="42.44391" lon="0.06529">
        <ele>602.8</ele>
        <time>2017-07-31T08:09:44Z</time>
      </trkpt>
      <trkpt lat="42.44393" lon="0.06525">
        <ele>603</ele>
        <time>2017-07-31T08:09:45Z</time>
      </trkpt>
      <trkpt lat="42.44396" lon="0.06522">
        <ele>603.1</ele>
        <time>2017-07-31T08:09:46Z</time>
      </trkpt>
      <trkpt lat="42.44398" lon="0.06518">
        <ele>603.2</ele>
        <time>2017-07-31T08:09:47Z</time>
      </trkpt>
      <trkpt lat="42.44401" lon="0.06514">
        <ele>603.3</ele>
        <time>2017-07-31T08:09:48Z</time>
      </trkpt>
      <trkpt lat="42.44404" lon="0.06509">
        <ele>603.3</ele>
        <time>2017-07-31T08:09:49Z</time>
      </trkpt>
      <trkpt lat="42.44406" lon="0.06505">
        <ele>603.2</ele>
        <time>2017-07-31T08:09:50Z</time>
      </trkpt>
      <trkpt lat="42.44409" lon="0.06501">
        <ele>603</ele>
        <time>2017-07-31T08:09:51Z</time>
      </trkpt>
      <trkpt lat="42.44411" lon="0.06497">
        <ele>602.8</ele>
        <time>2017-07-31T08:09:52Z</time>
      </trkpt>
      <trkpt lat="42.44414" lon="0.06492">
        <ele>602.6</ele>
        <time>2017-07-31T08:09:53Z</time>
      </trkpt>
      <trkpt lat="42.44416" lon="0.06488">
        <ele>602.6</ele>
        <time>2017-07-31T08:09:54Z</time>
      </trkpt>
      <trkpt lat="42.44418" lon="0.06483">
        <ele>602.7</ele>
        <time>2017-07-31T08:09:55Z</time>
      </trkpt>
      <trkpt lat="42.4442" lon="0.06479">
        <ele>602.8</ele>
        <time>2017-07-31T08:09:56Z</time>
      </trkpt>
      <trkpt lat="42.44422" lon="0.06474">
        <ele>603</ele>
        <time>2017-07-31T08:09:57Z</time>
      </trkpt>
      <trkpt lat="42.44424" lon="0.0647">
        <ele>603.3</ele>
        <time>2017-07-31T08:09:58Z</time>
      </trkpt>
      <trkpt lat="42.44426" lon="0.06465">
        <ele>603.6</ele>
        <time>2017-07-31T08:09:59Z</time>
      </trkpt>
      <trkpt lat="42.44428" lon="0.0646">
        <ele>604.1</ele>
        <time>2017-07-31T08:10:00Z</time>
      </trkpt>
      <trkpt lat="42.4443" lon="0.06456">
        <ele>604.5</ele>
        <time>2017-07-31T08:10:01Z</time>
      </trkpt>
      <trkpt lat="42.44433" lon="0.06451">
        <ele>605</ele>
        <time>2017-07-31T08:10:02Z</time>
      </trkpt>
      <trkpt lat="42.44435" lon="0.06447">
        <ele>605.4</ele>
        <time>2017-07-31T08:10:03Z</time>
      </trkpt>
      <trkpt lat="42.44437" lon="0.06443">
        <ele>605.7</ele>
        <time>2017-07-31T08:10:04Z</time>
      </trkpt>
      <trkpt lat="42.44439" lon="0.06439">
        <ele>606.1</ele>
        <time>2017-07-31T08:10:05Z</time>
      </trkpt>
      <trkpt lat="42.4444" lon="0.06434">
        <ele>606.5</ele>
        <time>2017-07-31T08:10:06Z</time>
      </trkpt>
      <trkpt lat="42.44442" lon="0.0643">
        <ele>606.9</ele>
        <time>2017-07-31T08:10:07Z</time>
      </trkpt>
      <trkpt lat="42.44444" lon="0.06425">
        <ele>607.4</ele>
        <time>2017-07-31T08:10:08Z</time>
      </trkpt>
      <trkpt lat="42.44446" lon="0.0642">
        <ele>607.8</ele>
        <time>2017-07-31T08:10:09Z</time>
      </trkpt>
      <trkpt lat="42.44448" lon="0.06416">
        <ele>608</ele>
        <time>2017-07-31T08:10:10Z</time>
      </trkpt>
      <trkpt lat="42.44449" lon="0.06412">
        <ele>608.2</ele>
        <time>2017-07-31T08:10:11Z</time>
      </trkpt>
      <trkpt lat="42.44451" lon="0.06407">
        <ele>608.5</ele>
        <time>2017-07-31T08:10:13Z</time>
      </trkpt>
      <trkpt lat="42.44454" lon="0.064">
        <ele>609</ele>
        <time>2017-07-31T08:10:15Z</time>
      </trkpt>
      <trkpt lat="42.44455" lon="0.06395">
        <ele>609.2</ele>
        <time>2017-07-31T08:10:16Z</time>
      </trkpt>
      <trkpt lat="42.44456" lon="0.06391">
        <ele>609.4</ele>
        <time>2017-07-31T08:10:17Z</time>
      </trkpt>
      <trkpt lat="42.44457" lon="0.06386">
        <ele>609.8</ele>
        <time>2017-07-31T08:10:18Z</time>
      </trkpt>
      <trkpt lat="42.44458" lon="0.06382">
        <ele>610.2</ele>
        <time>2017-07-31T08:10:19Z</time>
      </trkpt>
      <trkpt lat="42.44459" lon="0.06378">
        <ele>610.6</ele>
        <time>2017-07-31T08:10:20Z</time>
      </trkpt>
      <trkpt lat="42.4446" lon="0.06374">
        <ele>611</ele>
        <time>2017-07-31T08:10:21Z</time>
      </trkpt>
      <trkpt lat="42.44461" lon="0.06369">
        <ele>611.4</ele>
        <time>2017-07-31T08:10:22Z</time>
      </trkpt>
      <trkpt lat="42.44462" lon="0.06365">
        <ele>611.7</ele>
        <time>2017-07-31T08:10:23Z</time>
      </trkpt>
      <trkpt lat="42.44463" lon="0.0636">
        <ele>612</ele>
        <time>2017-07-31T08:10:24Z</time>
      </trkpt>
      <trkpt lat="42.44465" lon="0.06355">
        <ele>612.4</ele>
        <time>2017-07-31T08:10:25Z</time>
      </trkpt>
      <trkpt lat="42.44466" lon="0.0635">
        <ele>613</ele>
        <time>2017-07-31T08:10:26Z</time>
      </trkpt>
      <trkpt lat="42.44468" lon="0.06345">
        <ele>613.5</ele>
        <time>2017-07-31T08:10:27Z</time>
      </trkpt>
      <trkpt lat="42.44469" lon="0.06341">
        <ele>613.8</ele>
        <time>2017-07-31T08:10:28Z</time>
      </trkpt>
      <trkpt lat="42.44471" lon="0.06336">
        <ele>614.1</ele>
        <time>2017-07-31T08:10:29Z</time>
      </trkpt>
      <trkpt lat="42.44473" lon="0.06331">
        <ele>614.4</ele>
        <time>2017-07-31T08:10:30Z</time>
      </trkpt>
      <trkpt lat="42.44474" lon="0.06327">
        <ele>614.7</ele>
        <time>2017-07-31T08:10:31Z</time>
      </trkpt>
      <trkpt lat="42.44476" lon="0.06322">
        <ele>614.8</ele>
        <time>2017-07-31T08:10:32Z</time>
      </trkpt>
      <trkpt lat="42.44477" lon="0.06317">
        <ele>614.7</ele>
        <time>2017-07-31T08:10:33Z</time>
      </trkpt>
      <trkpt lat="42.44478" lon="0.06312">
        <ele>614.6</ele>
        <time>2017-07-31T08:10:34Z</time>
      </trkpt>
      <trkpt lat="42.44479" lon="0.06308">
        <ele>614.4</ele>
        <time>2017-07-31T08:10:35Z</time>
      </trkpt>
      <trkpt lat="42.4448" lon="0.06303">
        <ele>614.2</ele>
        <time>2017-07-31T08:10:36Z</time>
      </trkpt>
      <trkpt lat="42.44482" lon="0.06298">
        <ele>614.6</ele>
        <time>2017-07-31T08:10:37Z</time>
      </trkpt>
      <trkpt lat="42.44483" lon="0.06293">
        <ele>614.9</ele>
        <time>2017-07-31T08:10:38Z</time>
      </trkpt>
      <trkpt lat="42.44485" lon="0.06289">
        <ele>615.1</ele>
        <time>2017-07-31T08:10:39Z</time>
      </trkpt>
      <trkpt lat="42.44486" lon="0.06286">
        <ele>615.2</ele>
        <time>2017-07-31T08:10:40Z</time>
      </trkpt>
      <trkpt lat="42.44487" lon="0.06282">
        <ele>615.3</ele>
        <time>2017-07-31T08:10:41Z</time>
      </trkpt>
      <trkpt lat="42.44488" lon="0.06278">
        <ele>615.8</ele>
        <time>2017-07-31T08:10:42Z</time>
      </trkpt>
      <trkpt lat="42.44489" lon="0.06274">
        <ele>616.4</ele>
        <time>2017-07-31T08:10:43Z</time>
      </trkpt>
      <trkpt lat="42.4449" lon="0.0627">
        <ele>617</ele>
        <time>2017-07-31T08:10:44Z</time>
      </trkpt>
      <trkpt lat="42.44491" lon="0.06266">
        <ele>618.1</ele>
        <time>2017-07-31T08:10:45Z</time>
      </trkpt>
      <trkpt lat="42.44492" lon="0.06262">
        <ele>619.1</ele>
        <time>2017-07-31T08:10:46Z</time>
      </trkpt>
      <trkpt lat="42.44493" lon="0.06256">
        <ele>620.5</ele>
        <time>2017-07-31T08:10:48Z</time>
      </trkpt>
      <trkpt lat="42.44494" lon="0.06252">
        <ele>621</ele>
        <time>2017-07-31T08:10:49Z</time>
      </trkpt>
      <trkpt lat="42.44496" lon="0.06249">
        <ele>621.5</ele>
        <time>2017-07-31T08:10:50Z</time>
      </trkpt>
      <trkpt lat="42.44498" lon="0.06242">
        <ele>623.9</ele>
        <time>2017-07-31T08:10:52Z</time>
      </trkpt>
      <trkpt lat="42.44499" lon="0.06238">
        <ele>625.5</ele>
        <time>2017-07-31T08:10:53Z</time>
      </trkpt>
      <trkpt lat="42.44501" lon="0.06234">
        <ele>626.9</ele>
        <time>2017-07-31T08:10:54Z</time>
      </trkpt>
      <trkpt lat="42.44504" lon="0.06229">
        <ele>628.4</ele>
        <time>2017-07-31T08:10:55Z</time>
      </trkpt>
      <trkpt lat="42.44507" lon="0.06222">
        <ele>631.1</ele>
        <time>2017-07-31T08:10:56Z</time>
      </trkpt>
      <trkpt lat="42.44509" lon="0.06216">
        <ele>633.6</ele>
        <time>2017-07-31T08:10:57Z</time>
      </trkpt>
      <trkpt lat="42.44509" lon="0.0621">
        <ele>635</ele>
        <time>2017-07-31T08:10:58Z</time>
      </trkpt>
      <trkpt lat="42.4451" lon="0.06206">
        <ele>635.8</ele>
        <time>2017-07-31T08:10:59Z</time>
      </trkpt>
      <trkpt lat="42.44511" lon="0.06201">
        <ele>636.3</ele>
        <time>2017-07-31T08:11:01Z</time>
      </trkpt>
      <trkpt lat="42.44512" lon="0.06197">
        <ele>636.6</ele>
        <time>2017-07-31T08:11:03Z</time>
      </trkpt>
      <trkpt lat="42.44513" lon="0.06193">
        <ele>636.9</ele>
        <time>2017-07-31T08:11:09Z</time>
      </trkpt>
      <trkpt lat="42.44514" lon="0.0619">
        <ele>637.6</ele>
        <time>2017-07-31T08:11:11Z</time>
      </trkpt>
      <trkpt lat="42.44515" lon="0.06183">
        <ele>638.5</ele>
        <time>2017-07-31T08:11:13Z</time>
      </trkpt>
      <trkpt lat="42.44515" lon="0.06178">
        <ele>638.1</ele>
        <time>2017-07-31T08:11:15Z</time>
      </trkpt>
      <trkpt lat="42.44515" lon="0.06174">
        <ele>638.4</ele>
        <time>2017-07-31T08:11:17Z</time>
      </trkpt>
      <trkpt lat="42.44516" lon="0.06169">
        <ele>639.6</ele>
        <time>2017-07-31T08:11:20Z</time>
      </trkpt>
      <trkpt lat="42.44519" lon="0.06165">
        <ele>639.2</ele>
        <time>2017-07-31T08:11:22Z</time>
      </trkpt>
      <trkpt lat="42.4452" lon="0.06161">
        <ele>637.9</ele>
        <time>2017-07-31T08:11:28Z</time>
      </trkpt>
      <trkpt lat="42.44521" lon="0.06157">
        <ele>636.9</ele>
        <time>2017-07-31T08:11:33Z</time>
      </trkpt>
      <trkpt lat="42.44522" lon="0.06153">
        <ele>636.5</ele>
        <time>2017-07-31T08:11:36Z</time>
      </trkpt>
      <trkpt lat="42.44522" lon="0.06149">
        <ele>636.1</ele>
        <time>2017-07-31T08:11:40Z</time>
      </trkpt>
      <trkpt lat="42.44524" lon="0.06145">
        <ele>634.5</ele>
        <time>2017-07-31T08:11:46Z</time>
      </trkpt>
      <trkpt lat="42.44524" lon="0.0614">
        <ele>632.9</ele>
        <time>2017-07-31T08:11:51Z</time>
      </trkpt>
      <trkpt lat="42.44526" lon="0.06137">
        <ele>631.4</ele>
        <time>2017-07-31T08:11:55Z</time>
      </trkpt>
      <trkpt lat="42.44528" lon="0.06134">
        <ele>629.8</ele>
        <time>2017-07-31T08:12:00Z</time>
      </trkpt>
      <trkpt lat="42.44529" lon="0.0613">
        <ele>628.3</ele>
        <time>2017-07-31T08:12:08Z</time>
      </trkpt>
      <trkpt lat="42.4453" lon="0.06127">
        <ele>628.5</ele>
        <time>2017-07-31T08:12:14Z</time>
      </trkpt>
      <trkpt lat="42.4453" lon="0.06123">
        <ele>628.6</ele>
        <time>2017-07-31T08:12:19Z</time>
      </trkpt>
      <trkpt lat="42.44531" lon="0.06119">
        <ele>628.7</ele>
        <time>2017-07-31T08:12:22Z</time>
      </trkpt>
      <trkpt lat="42.44532" lon="0.06115">
        <ele>628.8</ele>
        <time>2017-07-31T08:12:30Z</time>
      </trkpt>
      <trkpt lat="42.44532" lon="0.06111">
        <ele>628.5</ele>
        <time>2017-07-31T08:12:35Z</time>
      </trkpt>
      <trkpt lat="42.44532" lon="0.06106">
        <ele>627.7</ele>
        <time>2017-07-31T08:12:39Z</time>
      </trkpt>
      <trkpt lat="42.44532" lon="0.06101">
        <ele>627.9</ele>
        <time>2017-07-31T08:12:43Z</time>
      </trkpt>
      <trkpt lat="42.44534" lon="0.06097">
        <ele>628.8</ele>
        <time>2017-07-31T08:12:45Z</time>
      </trkpt>
      <trkpt lat="42.44535" lon="0.06093">
        <ele>629.7</ele>
        <time>2017-07-31T08:12:49Z</time>
      </trkpt>
      <trkpt lat="42.44536" lon="0.06089">
        <ele>630.4</ele>
        <time>2017-07-31T08:12:53Z</time>
      </trkpt>
      <trkpt lat="42.44536" lon="0.06086">
        <ele>631</ele>
        <time>2017-07-31T08:12:56Z</time>
      </trkpt>
      <trkpt lat="42.44537" lon="0.06082">
        <ele>631.4</ele>
        <time>2017-07-31T08:12:59Z</time>
      </trkpt>
      <trkpt lat="42.44538" lon="0.06077">
        <ele>631.5</ele>
        <time>2017-07-31T08:13:02Z</time>
      </trkpt>
      <trkpt lat="42.44539" lon="0.06073">
        <ele>631.4</ele>
        <time>2017-07-31T08:13:05Z</time>
      </trkpt>
      <trkpt lat="42.44538" lon="0.0607">
        <ele>631</ele>
        <time>2017-07-31T08:13:09Z</time>
      </trkpt>
      <trkpt lat="42.44539" lon="0.06066">
        <ele>630.7</ele>
        <time>2017-07-31T08:13:13Z</time>
      </trkpt>
      <trkpt lat="42.4454" lon="0.06062">
        <ele>630.2</ele>
        <time>2017-07-31T08:13:18Z</time>
      </trkpt>
      <trkpt lat="42.44541" lon="0.06058">
        <ele>629.9</ele>
        <time>2017-07-31T08:13:23Z</time>
      </trkpt>
      <trkpt lat="42.44541" lon="0.06055">
        <ele>629.5</ele>
        <time>2017-07-31T08:13:29Z</time>
      </trkpt>
      <trkpt lat="42.44542" lon="0.06047">
        <ele>628.9</ele>
        <time>2017-07-31T08:14:00Z</time>
      </trkpt>
      <trkpt lat="42.44543" lon="0.06043">
        <ele>628.7</ele>
        <time>2017-07-31T08:14:07Z</time>
      </trkpt>
      <trkpt lat="42.44544" lon="0.0604">
        <ele>628.6</ele>
        <time>2017-07-31T08:14:13Z</time>
      </trkpt>
      <trkpt lat="42.44545" lon="0.06036">
        <ele>629</ele>
        <time>2017-07-31T08:14:22Z</time>
      </trkpt>
      <trkpt lat="42.44547" lon="0.06032">
        <ele>629.4</ele>
        <time>2017-07-31T08:14:27Z</time>
      </trkpt>
      <trkpt lat="42.44548" lon="0.06027">
        <ele>629.6</ele>
        <time>2017-07-31T08:14:34Z</time>
      </trkpt>
      <trkpt lat="42.44547" lon="0.06023">
        <ele>629.6</ele>
        <time>2017-07-31T08:14:40Z</time>
      </trkpt>
      <trkpt lat="42.44548" lon="0.0602">
        <ele>629.5</ele>
        <time>2017-07-31T08:14:52Z</time>
      </trkpt>
      <trkpt lat="42.4455" lon="0.06017">
        <ele>629.1</ele>
        <time>2017-07-31T08:15:00Z</time>
      </trkpt>
      <trkpt lat="42.44552" lon="0.06013">
        <ele>629.1</ele>
        <time>2017-07-31T08:15:04Z</time>
      </trkpt>
      <trkpt lat="42.44554" lon="0.06009">
        <ele>629.5</ele>
        <time>2017-07-31T08:15:10Z</time>
      </trkpt>
      <trkpt lat="42.44558" lon="0.06005">
        <ele>629.9</ele>
        <time>2017-07-31T08:15:12Z</time>
      </trkpt>
      <trkpt lat="42.4456" lon="0.06">
        <ele>630.1</ele>
        <time>2017-07-31T08:15:14Z</time>
      </trkpt>
      <trkpt lat="42.44561" lon="0.05996">
        <ele>629.9</ele>
        <time>2017-07-31T08:15:16Z</time>
      </trkpt>
      <trkpt lat="42.44563" lon="0.05993">
        <ele>630</ele>
        <time>2017-07-31T08:15:21Z</time>
      </trkpt>
      <trkpt lat="42.44565" lon="0.05989">
        <ele>630.5</ele>
        <time>2017-07-31T08:15:24Z</time>
      </trkpt>
      <trkpt lat="42.44566" lon="0.05984">
        <ele>630.2</ele>
        <time>2017-07-31T08:15:27Z</time>
      </trkpt>
      <trkpt lat="42.44568" lon="0.05981">
        <ele>629.5</ele>
        <time>2017-07-31T08:15:31Z</time>
      </trkpt>
      <trkpt lat="42.44571" lon="0.05978">
        <ele>628.7</ele>
        <time>2017-07-31T08:15:35Z</time>
      </trkpt>
      <trkpt lat="42.44573" lon="0.05975">
        <ele>627.9</ele>
        <time>2017-07-31T08:15:38Z</time>
      </trkpt>
      <trkpt lat="42.44575" lon="0.05972">
        <ele>627.1</ele>
        <time>2017-07-31T08:15:43Z</time>
      </trkpt>
      <trkpt lat="42.44578" lon="0.05969">
        <ele>626.2</ele>
        <time>2017-07-31T08:15:46Z</time>
      </trkpt>
      <trkpt lat="42.4458" lon="0.05964">
        <ele>625.8</ele>
        <time>2017-07-31T08:15:48Z</time>
      </trkpt>
      <trkpt lat="42.44582" lon="0.05961">
        <ele>625.5</ele>
        <time>2017-07-31T08:15:50Z</time>
      </trkpt>
      <trkpt lat="42.44585" lon="0.05958">
        <ele>625.4</ele>
        <time>2017-07-31T08:15:52Z</time>
      </trkpt>
      <trkpt lat="42.44587" lon="0.05953">
        <ele>625.5</ele>
        <time>2017-07-31T08:15:54Z</time>
      </trkpt>
      <trkpt lat="42.4459" lon="0.05948">
        <ele>624.5</ele>
        <time>2017-07-31T08:15:56Z</time>
      </trkpt>
      <trkpt lat="42.44593" lon="0.05943">
        <ele>623.7</ele>
        <time>2017-07-31T08:15:58Z</time>
      </trkpt>
      <trkpt lat="42.44595" lon="0.0594">
        <ele>623.6</ele>
        <time>2017-07-31T08:16:04Z</time>
      </trkpt>
      <trkpt lat="42.44597" lon="0.05938">
        <ele>623.6</ele>
        <time>2017-07-31T08:16:10Z</time>
      </trkpt>
      <trkpt lat="42.44599" lon="0.05935">
        <ele>623.4</ele>
        <time>2017-07-31T08:16:14Z</time>
      </trkpt>
      <trkpt lat="42.446" lon="0.05932">
        <ele>623.2</ele>
        <time>2017-07-31T08:16:19Z</time>
      </trkpt>
      <trkpt lat="42.44603" lon="0.05929">
        <ele>623</ele>
        <time>2017-07-31T08:16:23Z</time>
      </trkpt>
      <trkpt lat="42.44606" lon="0.05926">
        <ele>623.1</ele>
        <time>2017-07-31T08:16:27Z</time>
      </trkpt>
      <trkpt lat="42.44608" lon="0.05924">
        <ele>623.2</ele>
        <time>2017-07-31T08:16:32Z</time>
      </trkpt>
      <trkpt lat="42.4461" lon="0.0592">
        <ele>623.6</ele>
        <time>2017-07-31T08:16:36Z</time>
      </trkpt>
      <trkpt lat="42.44612" lon="0.05916">
        <ele>624.1</ele>
        <time>2017-07-31T08:16:40Z</time>
      </trkpt>
      <trkpt lat="42.44613" lon="0.05913">
        <ele>624.7</ele>
        <time>2017-07-31T08:16:45Z</time>
      </trkpt>
      <trkpt lat="42.44615" lon="0.0591">
        <ele>625.4</ele>
        <time>2017-07-31T08:16:49Z</time>
      </trkpt>
      <trkpt lat="42.44617" lon="0.05906">
        <ele>626.2</ele>
        <time>2017-07-31T08:16:54Z</time>
      </trkpt>
      <trkpt lat="42.44619" lon="0.05902">
        <ele>626.7</ele>
        <time>2017-07-31T08:16:57Z</time>
      </trkpt>
      <trkpt lat="42.44623" lon="0.05898">
        <ele>628.2</ele>
        <time>2017-07-31T08:16:59Z</time>
      </trkpt>
      <trkpt lat="42.44625" lon="0.05895">
        <ele>629.3</ele>
        <time>2017-07-31T08:17:00Z</time>
      </trkpt>
      <trkpt lat="42.44627" lon="0.05893">
        <ele>629.1</ele>
        <time>2017-07-31T08:17:01Z</time>
      </trkpt>
      <trkpt lat="42.4463" lon="0.05889">
        <ele>628.6</ele>
        <time>2017-07-31T08:17:03Z</time>
      </trkpt>
      <trkpt lat="42.44632" lon="0.05885">
        <ele>628.3</ele>
        <time>2017-07-31T08:17:11Z</time>
      </trkpt>
      <trkpt lat="42.44635" lon="0.05883">
        <ele>628</ele>
        <time>2017-07-31T08:17:15Z</time>
      </trkpt>
      <trkpt lat="42.44637" lon="0.05882">
        <ele>627.5</ele>
        <time>2017-07-31T08:17:18Z</time>
      </trkpt>
      <trkpt lat="42.4464" lon="0.05879">
        <ele>627.8</ele>
        <time>2017-07-31T08:17:21Z</time>
      </trkpt>
      <trkpt lat="42.44643" lon="0.05878">
        <ele>628.2</ele>
        <time>2017-07-31T08:17:24Z</time>
      </trkpt>
      <trkpt lat="42.44645" lon="0.05877">
        <ele>628.5</ele>
        <time>2017-07-31T08:17:31Z</time>
      </trkpt>
      <trkpt lat="42.44646" lon="0.05873">
        <ele>628.6</ele>
        <time>2017-07-31T08:17:38Z</time>
      </trkpt>
      <trkpt lat="42.44649" lon="0.05871">
        <ele>628.4</ele>
        <time>2017-07-31T08:17:46Z</time>
      </trkpt>
      <trkpt lat="42.44651" lon="0.0587">
        <ele>628.2</ele>
        <time>2017-07-31T08:17:54Z</time>
      </trkpt>
      <trkpt lat="42.44653" lon="0.05866">
        <ele>628.8</ele>
        <time>2017-07-31T08:17:59Z</time>
      </trkpt>
      <trkpt lat="42.44657" lon="0.05862">
        <ele>629.3</ele>
        <time>2017-07-31T08:18:02Z</time>
      </trkpt>
      <trkpt lat="42.4466" lon="0.05857">
        <ele>629.7</ele>
        <time>2017-07-31T08:18:04Z</time>
      </trkpt>
      <trkpt lat="42.44662" lon="0.05854">
        <ele>630</ele>
        <time>2017-07-31T08:18:05Z</time>
      </trkpt>
      <trkpt lat="42.44664" lon="0.05852">
        <ele>630.1</ele>
        <time>2017-07-31T08:18:06Z</time>
      </trkpt>
      <trkpt lat="42.44666" lon="0.05849">
        <ele>630.3</ele>
        <time>2017-07-31T08:18:07Z</time>
      </trkpt>
      <trkpt lat="42.44669" lon="0.05847">
        <ele>630.5</ele>
        <time>2017-07-31T08:18:08Z</time>
      </trkpt>
      <trkpt lat="42.44672" lon="0.05845">
        <ele>631</ele>
        <time>2017-07-31T08:18:09Z</time>
      </trkpt>
      <trkpt lat="42.44674" lon="0.05844">
        <ele>631.5</ele>
        <time>2017-07-31T08:18:10Z</time>
      </trkpt>
      <trkpt lat="42.44679" lon="0.05841">
        <ele>631.8</ele>
        <time>2017-07-31T08:18:12Z</time>
      </trkpt>
      <trkpt lat="42.44682" lon="0.0584">
        <ele>631.9</ele>
        <time>2017-07-31T08:18:13Z</time>
      </trkpt>
      <trkpt lat="42.44685" lon="0.05838">
        <ele>631.8</ele>
        <time>2017-07-31T08:18:14Z</time>
      </trkpt>
      <trkpt lat="42.44687" lon="0.05836">
        <ele>631.8</ele>
        <time>2017-07-31T08:18:15Z</time>
      </trkpt>
      <trkpt lat="42.4469" lon="0.05834">
        <ele>631.7</ele>
        <time>2017-07-31T08:18:16Z</time>
      </trkpt>
      <trkpt lat="42.44693" lon="0.05831">
        <ele>632.4</ele>
        <time>2017-07-31T08:18:17Z</time>
      </trkpt>
      <trkpt lat="42.44695" lon="0.05828">
        <ele>633</ele>
        <time>2017-07-31T08:18:18Z</time>
      </trkpt>
      <trkpt lat="42.44697" lon="0.05826">
        <ele>633.2</ele>
        <time>2017-07-31T08:18:19Z</time>
      </trkpt>
      <trkpt lat="42.447" lon="0.05821">
        <ele>633.2</ele>
        <time>2017-07-31T08:18:21Z</time>
      </trkpt>
      <trkpt lat="42.44702" lon="0.05818">
        <ele>633.7</ele>
        <time>2017-07-31T08:18:23Z</time>
      </trkpt>
      <trkpt lat="42.44703" lon="0.05814">
        <ele>634.1</ele>
        <time>2017-07-31T08:18:25Z</time>
      </trkpt>
      <trkpt lat="42.44705" lon="0.05811">
        <ele>634.8</ele>
        <time>2017-07-31T08:18:27Z</time>
      </trkpt>
      <trkpt lat="42.44706" lon="0.05807">
        <ele>635.6</ele>
        <time>2017-07-31T08:18:33Z</time>
      </trkpt>
      <trkpt lat="42.4471" lon="0.05806">
        <ele>635.8</ele>
        <time>2017-07-31T08:18:39Z</time>
      </trkpt>
      <trkpt lat="42.44712" lon="0.05804">
        <ele>635.6</ele>
        <time>2017-07-31T08:18:42Z</time>
      </trkpt>
      <trkpt lat="42.44714" lon="0.05799">
        <ele>635.4</ele>
        <time>2017-07-31T08:18:45Z</time>
      </trkpt>
      <trkpt lat="42.44717" lon="0.05795">
        <ele>635.1</ele>
        <time>2017-07-31T08:18:47Z</time>
      </trkpt>
      <trkpt lat="42.44721" lon="0.0579">
        <ele>635</ele>
        <time>2017-07-31T08:18:49Z</time>
      </trkpt>
      <trkpt lat="42.44723" lon="0.05788">
        <ele>635.1</ele>
        <time>2017-07-31T08:18:50Z</time>
      </trkpt>
      <trkpt lat="42.44725" lon="0.05785">
        <ele>635.2</ele>
        <time>2017-07-31T08:18:51Z</time>
      </trkpt>
      <trkpt lat="42.44726" lon="0.05781">
        <ele>635.4</ele>
        <time>2017-07-31T08:18:52Z</time>
      </trkpt>
      <trkpt lat="42.44728" lon="0.05778">
        <ele>635.6</ele>
        <time>2017-07-31T08:18:53Z</time>
      </trkpt>
      <trkpt lat="42.4473" lon="0.05775">
        <ele>635.9</ele>
        <time>2017-07-31T08:18:54Z</time>
      </trkpt>
      <trkpt lat="42.44731" lon="0.05772">
        <ele>636.1</ele>
        <time>2017-07-31T08:18:55Z</time>
      </trkpt>
      <trkpt lat="42.44733" lon="0.05768">
        <ele>636.1</ele>
        <time>2017-07-31T08:18:56Z</time>
      </trkpt>
      <trkpt lat="42.44735" lon="0.05762">
        <ele>635.5</ele>
        <time>2017-07-31T08:18:58Z</time>
      </trkpt>
      <trkpt lat="42.44737" lon="0.05756">
        <ele>637.6</ele>
        <time>2017-07-31T08:19:00Z</time>
      </trkpt>
      <trkpt lat="42.44739" lon="0.0575">
        <ele>639.1</ele>
        <time>2017-07-31T08:19:02Z</time>
      </trkpt>
      <trkpt lat="42.44742" lon="0.05746">
        <ele>639.9</ele>
        <time>2017-07-31T08:19:04Z</time>
      </trkpt>
      <trkpt lat="42.44744" lon="0.05743">
        <ele>640</ele>
        <time>2017-07-31T08:19:08Z</time>
      </trkpt>
      <trkpt lat="42.44744" lon="0.05739">
        <ele>640</ele>
        <time>2017-07-31T08:19:23Z</time>
      </trkpt>
      <trkpt lat="42.44743" lon="0.05735">
        <ele>640</ele>
        <time>2017-07-31T08:19:26Z</time>
      </trkpt>
      <trkpt lat="42.44742" lon="0.05731">
        <ele>636.7</ele>
        <time>2017-07-31T08:19:30Z</time>
      </trkpt>
      <trkpt lat="42.44744" lon="0.05729">
        <ele>630.8</ele>
        <time>2017-07-31T08:19:36Z</time>
      </trkpt>
      <trkpt lat="42.44747" lon="0.05729">
        <ele>624.6</ele>
        <time>2017-07-31T08:19:43Z</time>
      </trkpt>
      <trkpt lat="42.4475" lon="0.05728">
        <ele>618.5</ele>
        <time>2017-07-31T08:19:54Z</time>
      </trkpt>
      <trkpt lat="42.44753" lon="0.05727">
        <ele>613</ele>
        <time>2017-07-31T08:19:59Z</time>
      </trkpt>
      <trkpt lat="42.44755" lon="0.05723">
        <ele>613</ele>
        <time>2017-07-31T08:20:03Z</time>
      </trkpt>
      <trkpt lat="42.44756" lon="0.0572">
        <ele>613</ele>
        <time>2017-07-31T08:20:07Z</time>
      </trkpt>
      <trkpt lat="42.44756" lon="0.05715">
        <ele>613.1</ele>
        <time>2017-07-31T08:20:12Z</time>
      </trkpt>
      <trkpt lat="42.44759" lon="0.05713">
        <ele>613.1</ele>
        <time>2017-07-31T08:20:16Z</time>
      </trkpt>
      <trkpt lat="42.44761" lon="0.05716">
        <ele>613.1</ele>
        <time>2017-07-31T08:20:19Z</time>
      </trkpt>
      <trkpt lat="42.44763" lon="0.05719">
        <ele>613.1</ele>
        <time>2017-07-31T08:20:22Z</time>
      </trkpt>
      <trkpt lat="42.44764" lon="0.05723">
        <ele>613.1</ele>
        <time>2017-07-31T08:20:26Z</time>
      </trkpt>
      <trkpt lat="42.44766" lon="0.05726">
        <ele>613.1</ele>
        <time>2017-07-31T08:20:31Z</time>
      </trkpt>
      <trkpt lat="42.44769" lon="0.05725">
        <ele>613.1</ele>
        <time>2017-07-31T08:20:35Z</time>
      </trkpt>
      <trkpt lat="42.44771" lon="0.05725">
        <ele>613.1</ele>
        <time>2017-07-31T08:20:41Z</time>
      </trkpt>
      <trkpt lat="42.44774" lon="0.05727">
        <ele>613.1</ele>
        <time>2017-07-31T08:20:46Z</time>
      </trkpt>
      <trkpt lat="42.44778" lon="0.05728">
        <ele>613.1</ele>
        <time>2017-07-31T08:20:50Z</time>
      </trkpt>
      <trkpt lat="42.44781" lon="0.05729">
        <ele>613.1</ele>
        <time>2017-07-31T08:20:54Z</time>
      </trkpt>
      <trkpt lat="42.44784" lon="0.05729">
        <ele>613.1</ele>
        <time>2017-07-31T08:20:59Z</time>
      </trkpt>
      <trkpt lat="42.44784" lon="0.05725">
        <ele>613.1</ele>
        <time>2017-07-31T08:21:03Z</time>
      </trkpt>
      <trkpt lat="42.44782" lon="0.05722">
        <ele>613.1</ele>
        <time>2017-07-31T08:21:07Z</time>
      </trkpt>
      <trkpt lat="42.44784" lon="0.05718">
        <ele>613.1</ele>
        <time>2017-07-31T08:21:13Z</time>
      </trkpt>
      <trkpt lat="42.44786" lon="0.05717">
        <ele>613.1</ele>
        <time>2017-07-31T08:21:17Z</time>
      </trkpt>
      <trkpt lat="42.44788" lon="0.05713">
        <ele>613.1</ele>
        <time>2017-07-31T08:21:20Z</time>
      </trkpt>
      <trkpt lat="42.44787" lon="0.0571">
        <ele>613.1</ele>
        <time>2017-07-31T08:21:28Z</time>
      </trkpt>
      <trkpt lat="42.44789" lon="0.05708">
        <ele>613.1</ele>
        <time>2017-07-31T08:21:34Z</time>
      </trkpt>
      <trkpt lat="42.44793" lon="0.05708">
        <ele>613.1</ele>
        <time>2017-07-31T08:21:39Z</time>
      </trkpt>
      <trkpt lat="42.44796" lon="0.05706">
        <ele>613.1</ele>
        <time>2017-07-31T08:21:42Z</time>
      </trkpt>
      <trkpt lat="42.44798" lon="0.05704">
        <ele>613.1</ele>
        <time>2017-07-31T08:21:47Z</time>
      </trkpt>
      <trkpt lat="42.44801" lon="0.05701">
        <ele>613</ele>
        <time>2017-07-31T08:21:52Z</time>
      </trkpt>
      <trkpt lat="42.44802" lon="0.05697">
        <ele>613</ele>
        <time>2017-07-31T08:21:57Z</time>
      </trkpt>
      <trkpt lat="42.44803" lon="0.05694">
        <ele>613</ele>
        <time>2017-07-31T08:22:04Z</time>
      </trkpt>
      <trkpt lat="42.44801" lon="0.0569">
        <ele>613</ele>
        <time>2017-07-31T08:22:28Z</time>
      </trkpt>
      <trkpt lat="42.44799" lon="0.05687">
        <ele>613</ele>
        <time>2017-07-31T08:22:30Z</time>
      </trkpt>
      <trkpt lat="42.44795" lon="0.05684">
        <ele>613.3</ele>
        <time>2017-07-31T08:22:32Z</time>
      </trkpt>
      <trkpt lat="42.44793" lon="0.05681">
        <ele>613.5</ele>
        <time>2017-07-31T08:22:33Z</time>
      </trkpt>
      <trkpt lat="42.44791" lon="0.05679">
        <ele>613.7</ele>
        <time>2017-07-31T08:22:34Z</time>
      </trkpt>
      <trkpt lat="42.44789" lon="0.05677">
        <ele>613.9</ele>
        <time>2017-07-31T08:22:35Z</time>
      </trkpt>
      <trkpt lat="42.44786" lon="0.05674">
        <ele>614.1</ele>
        <time>2017-07-31T08:22:36Z</time>
      </trkpt>
      <trkpt lat="42.44784" lon="0.05671">
        <ele>614.3</ele>
        <time>2017-07-31T08:22:37Z</time>
      </trkpt>
      <trkpt lat="42.44782" lon="0.05667">
        <ele>614.5</ele>
        <time>2017-07-31T08:22:38Z</time>
      </trkpt>
      <trkpt lat="42.44781" lon="0.05663">
        <ele>614.7</ele>
        <time>2017-07-31T08:22:39Z</time>
      </trkpt>
      <trkpt lat="42.44779" lon="0.05659">
        <ele>614.9</ele>
        <time>2017-07-31T08:22:40Z</time>
      </trkpt>
      <trkpt lat="42.44778" lon="0.05655">
        <ele>615.2</ele>
        <time>2017-07-31T08:22:41Z</time>
      </trkpt>
      <trkpt lat="42.44777" lon="0.0565">
        <ele>615.3</ele>
        <time>2017-07-31T08:22:42Z</time>
      </trkpt>
      <trkpt lat="42.44776" lon="0.05645">
        <ele>615.5</ele>
        <time>2017-07-31T08:22:43Z</time>
      </trkpt>
      <trkpt lat="42.44776" lon="0.0564">
        <ele>615.7</ele>
        <time>2017-07-31T08:22:44Z</time>
      </trkpt>
      <trkpt lat="42.44775" lon="0.05634">
        <ele>615.9</ele>
        <time>2017-07-31T08:22:45Z</time>
      </trkpt>
      <trkpt lat="42.44774" lon="0.05629">
        <ele>616.1</ele>
        <time>2017-07-31T08:22:46Z</time>
      </trkpt>
      <trkpt lat="42.44773" lon="0.05623">
        <ele>616.4</ele>
        <time>2017-07-31T08:22:47Z</time>
      </trkpt>
      <trkpt lat="42.44772" lon="0.05618">
        <ele>616.7</ele>
        <time>2017-07-31T08:22:48Z</time>
      </trkpt>
      <trkpt lat="42.44771" lon="0.05612">
        <ele>617.1</ele>
        <time>2017-07-31T08:22:49Z</time>
      </trkpt>
      <trkpt lat="42.4477" lon="0.05607">
        <ele>617.4</ele>
        <time>2017-07-31T08:22:50Z</time>
      </trkpt>
      <trkpt lat="42.44768" lon="0.05602">
        <ele>617.7</ele>
        <time>2017-07-31T08:22:51Z</time>
      </trkpt>
      <trkpt lat="42.44766" lon="0.05596">
        <ele>618.1</ele>
        <time>2017-07-31T08:22:52Z</time>
      </trkpt>
      <trkpt lat="42.44764" lon="0.05592">
        <ele>618.5</ele>
        <time>2017-07-31T08:22:53Z</time>
      </trkpt>
      <trkpt lat="42.44761" lon="0.05587">
        <ele>618.9</ele>
        <time>2017-07-31T08:22:54Z</time>
      </trkpt>
      <trkpt lat="42.44759" lon="0.05583">
        <ele>619.3</ele>
        <time>2017-07-31T08:22:55Z</time>
      </trkpt>
      <trkpt lat="42.44756" lon="0.05579">
        <ele>619.7</ele>
        <time>2017-07-31T08:22:56Z</time>
      </trkpt>
      <trkpt lat="42.44752" lon="0.05575">
        <ele>620.1</ele>
        <time>2017-07-31T08:22:57Z</time>
      </trkpt>
      <trkpt lat="42.44749" lon="0.05572">
        <ele>620.5</ele>
        <time>2017-07-31T08:22:58Z</time>
      </trkpt>
      <trkpt lat="42.44746" lon="0.05569">
        <ele>620.9</ele>
        <time>2017-07-31T08:22:59Z</time>
      </trkpt>
      <trkpt lat="42.44743" lon="0.05566">
        <ele>621.3</ele>
        <time>2017-07-31T08:23:00Z</time>
      </trkpt>
      <trkpt lat="42.4474" lon="0.05563">
        <ele>621.6</ele>
        <time>2017-07-31T08:23:01Z</time>
      </trkpt>
      <trkpt lat="42.44737" lon="0.05561">
        <ele>621.9</ele>
        <time>2017-07-31T08:23:02Z</time>
      </trkpt>
      <trkpt lat="42.44734" lon="0.05558">
        <ele>622.3</ele>
        <time>2017-07-31T08:23:03Z</time>
      </trkpt>
      <trkpt lat="42.44732" lon="0.05556">
        <ele>622.6</ele>
        <time>2017-07-31T08:23:04Z</time>
      </trkpt>
      <trkpt lat="42.4473" lon="0.05553">
        <ele>622.9</ele>
        <time>2017-07-31T08:23:05Z</time>
      </trkpt>
      <trkpt lat="42.44727" lon="0.0555">
        <ele>623.2</ele>
        <time>2017-07-31T08:23:06Z</time>
      </trkpt>
      <trkpt lat="42.44725" lon="0.05547">
        <ele>623.5</ele>
        <time>2017-07-31T08:23:07Z</time>
      </trkpt>
      <trkpt lat="42.44723" lon="0.05544">
        <ele>623.8</ele>
        <time>2017-07-31T08:23:08Z</time>
      </trkpt>
      <trkpt lat="42.44721" lon="0.05541">
        <ele>624.1</ele>
        <time>2017-07-31T08:23:09Z</time>
      </trkpt>
      <trkpt lat="42.44719" lon="0.05538">
        <ele>624.3</ele>
        <time>2017-07-31T08:23:10Z</time>
      </trkpt>
      <trkpt lat="42.44717" lon="0.05535">
        <ele>624.6</ele>
        <time>2017-07-31T08:23:11Z</time>
      </trkpt>
      <trkpt lat="42.44715" lon="0.05531">
        <ele>624.9</ele>
        <time>2017-07-31T08:23:12Z</time>
      </trkpt>
      <trkpt lat="42.44714" lon="0.05528">
        <ele>625.2</ele>
        <time>2017-07-31T08:23:13Z</time>
      </trkpt>
      <trkpt lat="42.44712" lon="0.05524">
        <ele>625.5</ele>
        <time>2017-07-31T08:23:14Z</time>
      </trkpt>
      <trkpt lat="42.44711" lon="0.0552">
        <ele>625.8</ele>
        <time>2017-07-31T08:23:15Z</time>
      </trkpt>
      <trkpt lat="42.44709" lon="0.05516">
        <ele>626.1</ele>
        <time>2017-07-31T08:23:16Z</time>
      </trkpt>
      <trkpt lat="42.44708" lon="0.05513">
        <ele>626.3</ele>
        <time>2017-07-31T08:23:17Z</time>
      </trkpt>
      <trkpt lat="42.44706" lon="0.0551">
        <ele>626.6</ele>
        <time>2017-07-31T08:23:18Z</time>
      </trkpt>
      <trkpt lat="42.44705" lon="0.05507">
        <ele>626.9</ele>
        <time>2017-07-31T08:23:19Z</time>
      </trkpt>
      <trkpt lat="42.44703" lon="0.05503">
        <ele>627.1</ele>
        <time>2017-07-31T08:23:20Z</time>
      </trkpt>
      <trkpt lat="42.44702" lon="0.055">
        <ele>627.3</ele>
        <time>2017-07-31T08:23:21Z</time>
      </trkpt>
      <trkpt lat="42.44701" lon="0.05496">
        <ele>627.6</ele>
        <time>2017-07-31T08:23:22Z</time>
      </trkpt>
      <trkpt lat="42.44699" lon="0.05493">
        <ele>627.8</ele>
        <time>2017-07-31T08:23:23Z</time>
      </trkpt>
      <trkpt lat="42.44697" lon="0.05487">
        <ele>628.3</ele>
        <time>2017-07-31T08:23:25Z</time>
      </trkpt>
      <trkpt lat="42.44695" lon="0.05484">
        <ele>628.5</ele>
        <time>2017-07-31T08:23:26Z</time>
      </trkpt>
      <trkpt lat="42.44694" lon="0.05481">
        <ele>628.7</ele>
        <time>2017-07-31T08:23:27Z</time>
      </trkpt>
      <trkpt lat="42.44692" lon="0.05477">
        <ele>629</ele>
        <time>2017-07-31T08:23:28Z</time>
      </trkpt>
      <trkpt lat="42.44691" lon="0.05474">
        <ele>629.2</ele>
        <time>2017-07-31T08:23:29Z</time>
      </trkpt>
      <trkpt lat="42.4469" lon="0.0547">
        <ele>629.5</ele>
        <time>2017-07-31T08:23:30Z</time>
      </trkpt>
      <trkpt lat="42.44689" lon="0.05467">
        <ele>629.7</ele>
        <time>2017-07-31T08:23:31Z</time>
      </trkpt>
      <trkpt lat="42.44688" lon="0.05464">
        <ele>629.9</ele>
        <time>2017-07-31T08:23:32Z</time>
      </trkpt>
      <trkpt lat="42.44686" lon="0.0546">
        <ele>630.1</ele>
        <time>2017-07-31T08:23:33Z</time>
      </trkpt>
      <trkpt lat="42.44685" lon="0.05457">
        <ele>630.4</ele>
        <time>2017-07-31T08:23:34Z</time>
      </trkpt>
      <trkpt lat="42.44682" lon="0.05451">
        <ele>630.8</ele>
        <time>2017-07-31T08:23:36Z</time>
      </trkpt>
      <trkpt lat="42.4468" lon="0.05445">
        <ele>631.3</ele>
        <time>2017-07-31T08:23:38Z</time>
      </trkpt>
      <trkpt lat="42.44677" lon="0.05439">
        <ele>631.8</ele>
        <time>2017-07-31T08:23:40Z</time>
      </trkpt>
      <trkpt lat="42.44676" lon="0.05435">
        <ele>632</ele>
        <time>2017-07-31T08:23:41Z</time>
      </trkpt>
      <trkpt lat="42.44675" lon="0.05432">
        <ele>632.2</ele>
        <time>2017-07-31T08:23:42Z</time>
      </trkpt>
      <trkpt lat="42.44674" lon="0.05428">
        <ele>632.5</ele>
        <time>2017-07-31T08:23:43Z</time>
      </trkpt>
      <trkpt lat="42.44672" lon="0.05421">
        <ele>632.9</ele>
        <time>2017-07-31T08:23:45Z</time>
      </trkpt>
      <trkpt lat="42.4467" lon="0.05415">
        <ele>633.4</ele>
        <time>2017-07-31T08:23:47Z</time>
      </trkpt>
      <trkpt lat="42.44669" lon="0.05408">
        <ele>633.9</ele>
        <time>2017-07-31T08:23:49Z</time>
      </trkpt>
      <trkpt lat="42.44669" lon="0.05401">
        <ele>634.3</ele>
        <time>2017-07-31T08:23:51Z</time>
      </trkpt>
      <trkpt lat="42.44668" lon="0.05394">
        <ele>634.8</ele>
        <time>2017-07-31T08:23:53Z</time>
      </trkpt>
      <trkpt lat="42.44667" lon="0.05387">
        <ele>635.3</ele>
        <time>2017-07-31T08:23:55Z</time>
      </trkpt>
      <trkpt lat="42.44666" lon="0.0538">
        <ele>635.7</ele>
        <time>2017-07-31T08:23:57Z</time>
      </trkpt>
      <trkpt lat="42.44667" lon="0.05374">
        <ele>636.2</ele>
        <time>2017-07-31T08:23:59Z</time>
      </trkpt>
      <trkpt lat="42.44667" lon="0.05367">
        <ele>636.7</ele>
        <time>2017-07-31T08:24:01Z</time>
      </trkpt>
      <trkpt lat="42.44666" lon="0.0536">
        <ele>637.2</ele>
        <time>2017-07-31T08:24:03Z</time>
      </trkpt>
      <trkpt lat="42.44666" lon="0.05353">
        <ele>637.7</ele>
        <time>2017-07-31T08:24:05Z</time>
      </trkpt>
      <trkpt lat="42.44666" lon="0.05347">
        <ele>638.2</ele>
        <time>2017-07-31T08:24:07Z</time>
      </trkpt>
      <trkpt lat="42.44667" lon="0.0534">
        <ele>638.6</ele>
        <time>2017-07-31T08:24:09Z</time>
      </trkpt>
      <trkpt lat="42.44667" lon="0.05333">
        <ele>639.1</ele>
        <time>2017-07-31T08:24:11Z</time>
      </trkpt>
      <trkpt lat="42.44667" lon="0.05326">
        <ele>639.6</ele>
        <time>2017-07-31T08:24:13Z</time>
      </trkpt>
      <trkpt lat="42.44668" lon="0.05319">
        <ele>640.1</ele>
        <time>2017-07-31T08:24:15Z</time>
      </trkpt>
      <trkpt lat="42.44668" lon="0.05312">
        <ele>640.6</ele>
        <time>2017-07-31T08:24:17Z</time>
      </trkpt>
      <trkpt lat="42.44668" lon="0.05305">
        <ele>641.1</ele>
        <time>2017-07-31T08:24:19Z</time>
      </trkpt>
      <trkpt lat="42.44669" lon="0.05298">
        <ele>641.6</ele>
        <time>2017-07-31T08:24:21Z</time>
      </trkpt>
      <trkpt lat="42.44669" lon="0.05292">
        <ele>642.1</ele>
        <time>2017-07-31T08:24:23Z</time>
      </trkpt>
      <trkpt lat="42.4467" lon="0.05285">
        <ele>642.6</ele>
        <time>2017-07-31T08:24:25Z</time>
      </trkpt>
      <trkpt lat="42.4467" lon="0.05278">
        <ele>643.1</ele>
        <time>2017-07-31T08:24:27Z</time>
      </trkpt>
      <trkpt lat="42.4467" lon="0.05271">
        <ele>643.6</ele>
        <time>2017-07-31T08:24:29Z</time>
      </trkpt>
      <trkpt lat="42.4467" lon="0.05263">
        <ele>644.1</ele>
        <time>2017-07-31T08:24:31Z</time>
      </trkpt>
      <trkpt lat="42.4467" lon="0.05256">
        <ele>644.6</ele>
        <time>2017-07-31T08:24:33Z</time>
      </trkpt>
      <trkpt lat="42.4467" lon="0.05249">
        <ele>645.1</ele>
        <time>2017-07-31T08:24:35Z</time>
      </trkpt>
      <trkpt lat="42.44669" lon="0.05242">
        <ele>645.6</ele>
        <time>2017-07-31T08:24:37Z</time>
      </trkpt>
      <trkpt lat="42.44669" lon="0.05236">
        <ele>646</ele>
        <time>2017-07-31T08:24:39Z</time>
      </trkpt>
      <trkpt lat="42.44669" lon="0.05229">
        <ele>646.5</ele>
        <time>2017-07-31T08:24:41Z</time>
      </trkpt>
      <trkpt lat="42.44669" lon="0.05222">
        <ele>646.9</ele>
        <time>2017-07-31T08:24:43Z</time>
      </trkpt>
      <trkpt lat="42.4467" lon="0.05216">
        <ele>647.3</ele>
        <time>2017-07-31T08:24:45Z</time>
      </trkpt>
      <trkpt lat="42.44671" lon="0.05209">
        <ele>647.7</ele>
        <time>2017-07-31T08:24:47Z</time>
      </trkpt>
      <trkpt lat="42.44672" lon="0.05202">
        <ele>648.1</ele>
        <time>2017-07-31T08:24:49Z</time>
      </trkpt>
      <trkpt lat="42.44673" lon="0.05195">
        <ele>648.5</ele>
        <time>2017-07-31T08:24:51Z</time>
      </trkpt>
      <trkpt lat="42.44675" lon="0.05189">
        <ele>648.9</ele>
        <time>2017-07-31T08:24:53Z</time>
      </trkpt>
      <trkpt lat="42.44677" lon="0.05182">
        <ele>649.3</ele>
        <time>2017-07-31T08:24:55Z</time>
      </trkpt>
      <trkpt lat="42.44679" lon="0.05176">
        <ele>649.7</ele>
        <time>2017-07-31T08:24:57Z</time>
      </trkpt>
      <trkpt lat="42.44681" lon="0.05169">
        <ele>650.1</ele>
        <time>2017-07-31T08:24:59Z</time>
      </trkpt>
      <trkpt lat="42.44683" lon="0.05162">
        <ele>650.5</ele>
        <time>2017-07-31T08:25:01Z</time>
      </trkpt>
      <trkpt lat="42.44684" lon="0.05155">
        <ele>650.9</ele>
        <time>2017-07-31T08:25:03Z</time>
      </trkpt>
      <trkpt lat="42.44685" lon="0.05149">
        <ele>651.3</ele>
        <time>2017-07-31T08:25:05Z</time>
      </trkpt>
      <trkpt lat="42.44686" lon="0.05142">
        <ele>651.6</ele>
        <time>2017-07-31T08:25:07Z</time>
      </trkpt>
      <trkpt lat="42.44686" lon="0.05135">
        <ele>652</ele>
        <time>2017-07-31T08:25:09Z</time>
      </trkpt>
      <trkpt lat="42.44685" lon="0.05129">
        <ele>652.3</ele>
        <time>2017-07-31T08:25:11Z</time>
      </trkpt>
      <trkpt lat="42.44685" lon="0.05122">
        <ele>652.7</ele>
        <time>2017-07-31T08:25:13Z</time>
      </trkpt>
      <trkpt lat="42.44685" lon="0.05116">
        <ele>653</ele>
        <time>2017-07-31T08:25:15Z</time>
      </trkpt>
      <trkpt lat="42.44686" lon="0.05109">
        <ele>653.3</ele>
        <time>2017-07-31T08:25:17Z</time>
      </trkpt>
      <trkpt lat="42.44686" lon="0.05103">
        <ele>653.6</ele>
        <time>2017-07-31T08:25:19Z</time>
      </trkpt>
      <trkpt lat="42.44687" lon="0.05097">
        <ele>653.9</ele>
        <time>2017-07-31T08:25:21Z</time>
      </trkpt>
      <trkpt lat="42.44689" lon="0.05091">
        <ele>654.2</ele>
        <time>2017-07-31T08:25:23Z</time>
      </trkpt>
      <trkpt lat="42.44691" lon="0.05086">
        <ele>654.4</ele>
        <time>2017-07-31T08:25:25Z</time>
      </trkpt>
      <trkpt lat="42.44694" lon="0.05081">
        <ele>654.7</ele>
        <time>2017-07-31T08:25:27Z</time>
      </trkpt>
      <trkpt lat="42.44697" lon="0.05076">
        <ele>654.9</ele>
        <time>2017-07-31T08:25:29Z</time>
      </trkpt>
      <trkpt lat="42.447" lon="0.05072">
        <ele>655.1</ele>
        <time>2017-07-31T08:25:31Z</time>
      </trkpt>
      <trkpt lat="42.44704" lon="0.05068">
        <ele>655.2</ele>
        <time>2017-07-31T08:25:33Z</time>
      </trkpt>
      <trkpt lat="42.44708" lon="0.05064">
        <ele>655.3</ele>
        <time>2017-07-31T08:25:35Z</time>
      </trkpt>
      <trkpt lat="42.44712" lon="0.0506">
        <ele>655.4</ele>
        <time>2017-07-31T08:25:37Z</time>
      </trkpt>
      <trkpt lat="42.44716" lon="0.05055">
        <ele>655.5</ele>
        <time>2017-07-31T08:25:39Z</time>
      </trkpt>
      <trkpt lat="42.44719" lon="0.0505">
        <ele>655.6</ele>
        <time>2017-07-31T08:25:41Z</time>
      </trkpt>
      <trkpt lat="42.44722" lon="0.05045">
        <ele>655.7</ele>
        <time>2017-07-31T08:25:43Z</time>
      </trkpt>
      <trkpt lat="42.44724" lon="0.05038">
        <ele>655.7</ele>
        <time>2017-07-31T08:25:45Z</time>
      </trkpt>
      <trkpt lat="42.44725" lon="0.05035">
        <ele>655.7</ele>
        <time>2017-07-31T08:25:46Z</time>
      </trkpt>
      <trkpt lat="42.44725" lon="0.05031">
        <ele>655.8</ele>
        <time>2017-07-31T08:25:47Z</time>
      </trkpt>
      <trkpt lat="42.44726" lon="0.05027">
        <ele>655.8</ele>
        <time>2017-07-31T08:25:48Z</time>
      </trkpt>
      <trkpt lat="42.44726" lon="0.05023">
        <ele>655.8</ele>
        <time>2017-07-31T08:25:49Z</time>
      </trkpt>
      <trkpt lat="42.44727" lon="0.05019">
        <ele>655.9</ele>
        <time>2017-07-31T08:25:50Z</time>
      </trkpt>
      <trkpt lat="42.44727" lon="0.05015">
        <ele>655.9</ele>
        <time>2017-07-31T08:25:51Z</time>
      </trkpt>
      <trkpt lat="42.44728" lon="0.05011">
        <ele>655.9</ele>
        <time>2017-07-31T08:25:52Z</time>
      </trkpt>
      <trkpt lat="42.44728" lon="0.05007">
        <ele>656</ele>
        <time>2017-07-31T08:25:53Z</time>
      </trkpt>
      <trkpt lat="42.44728" lon="0.05003">
        <ele>656</ele>
        <time>2017-07-31T08:25:54Z</time>
      </trkpt>
      <trkpt lat="42.44728" lon="0.05">
        <ele>656.1</ele>
        <time>2017-07-31T08:25:55Z</time>
      </trkpt>
      <trkpt lat="42.44728" lon="0.04996">
        <ele>656.1</ele>
        <time>2017-07-31T08:25:56Z</time>
      </trkpt>
      <trkpt lat="42.44728" lon="0.04992">
        <ele>656.1</ele>
        <time>2017-07-31T08:25:57Z</time>
      </trkpt>
      <trkpt lat="42.44728" lon="0.04987">
        <ele>656.2</ele>
        <time>2017-07-31T08:25:58Z</time>
      </trkpt>
      <trkpt lat="42.44727" lon="0.04983">
        <ele>656.2</ele>
        <time>2017-07-31T08:25:59Z</time>
      </trkpt>
      <trkpt lat="42.44726" lon="0.0498">
        <ele>656.3</ele>
        <time>2017-07-31T08:26:00Z</time>
      </trkpt>
      <trkpt lat="42.44725" lon="0.04976">
        <ele>656.3</ele>
        <time>2017-07-31T08:26:01Z</time>
      </trkpt>
      <trkpt lat="42.44723" lon="0.04972">
        <ele>656.4</ele>
        <time>2017-07-31T08:26:02Z</time>
      </trkpt>
      <trkpt lat="42.44721" lon="0.04968">
        <ele>656.5</ele>
        <time>2017-07-31T08:26:03Z</time>
      </trkpt>
      <trkpt lat="42.44718" lon="0.04964">
        <ele>656.7</ele>
        <time>2017-07-31T08:26:04Z</time>
      </trkpt>
      <trkpt lat="42.44716" lon="0.04961">
        <ele>656.8</ele>
        <time>2017-07-31T08:26:05Z</time>
      </trkpt>
      <trkpt lat="42.44713" lon="0.04958">
        <ele>657</ele>
        <time>2017-07-31T08:26:06Z</time>
      </trkpt>
      <trkpt lat="42.4471" lon="0.04955">
        <ele>657.2</ele>
        <time>2017-07-31T08:26:07Z</time>
      </trkpt>
      <trkpt lat="42.44707" lon="0.04952">
        <ele>657.4</ele>
        <time>2017-07-31T08:26:08Z</time>
      </trkpt>
      <trkpt lat="42.44703" lon="0.0495">
        <ele>657.6</ele>
        <time>2017-07-31T08:26:09Z</time>
      </trkpt>
      <trkpt lat="42.447" lon="0.04948">
        <ele>657.8</ele>
        <time>2017-07-31T08:26:10Z</time>
      </trkpt>
      <trkpt lat="42.44696" lon="0.04946">
        <ele>658</ele>
        <time>2017-07-31T08:26:11Z</time>
      </trkpt>
      <trkpt lat="42.44693" lon="0.04945">
        <ele>658.2</ele>
        <time>2017-07-31T08:26:12Z</time>
      </trkpt>
      <trkpt lat="42.44689" lon="0.04943">
        <ele>658.4</ele>
        <time>2017-07-31T08:26:13Z</time>
      </trkpt>
      <trkpt lat="42.44685" lon="0.04942">
        <ele>658.5</ele>
        <time>2017-07-31T08:26:14Z</time>
      </trkpt>
      <trkpt lat="42.44681" lon="0.0494">
        <ele>658.6</ele>
        <time>2017-07-31T08:26:15Z</time>
      </trkpt>
      <trkpt lat="42.44677" lon="0.04939">
        <ele>658.7</ele>
        <time>2017-07-31T08:26:16Z</time>
      </trkpt>
      <trkpt lat="42.44673" lon="0.04938">
        <ele>658.8</ele>
        <time>2017-07-31T08:26:17Z</time>
      </trkpt>
      <trkpt lat="42.44669" lon="0.04937">
        <ele>658.9</ele>
        <time>2017-07-31T08:26:18Z</time>
      </trkpt>
      <trkpt lat="42.44665" lon="0.04935">
        <ele>659.1</ele>
        <time>2017-07-31T08:26:19Z</time>
      </trkpt>
      <trkpt lat="42.44661" lon="0.04934">
        <ele>659.3</ele>
        <time>2017-07-31T08:26:20Z</time>
      </trkpt>
      <trkpt lat="42.44658" lon="0.04932">
        <ele>659.5</ele>
        <time>2017-07-31T08:26:21Z</time>
      </trkpt>
      <trkpt lat="42.44654" lon="0.04931">
        <ele>659.7</ele>
        <time>2017-07-31T08:26:22Z</time>
      </trkpt>
      <trkpt lat="42.4465" lon="0.04929">
        <ele>659.9</ele>
        <time>2017-07-31T08:26:23Z</time>
      </trkpt>
      <trkpt lat="42.44646" lon="0.04927">
        <ele>660.1</ele>
        <time>2017-07-31T08:26:24Z</time>
      </trkpt>
      <trkpt lat="42.44642" lon="0.04926">
        <ele>660.3</ele>
        <time>2017-07-31T08:26:25Z</time>
      </trkpt>
      <trkpt lat="42.44639" lon="0.04924">
        <ele>660.4</ele>
        <time>2017-07-31T08:26:26Z</time>
      </trkpt>
      <trkpt lat="42.44635" lon="0.04922">
        <ele>660.5</ele>
        <time>2017-07-31T08:26:27Z</time>
      </trkpt>
      <trkpt lat="42.44631" lon="0.0492">
        <ele>660.7</ele>
        <time>2017-07-31T08:26:28Z</time>
      </trkpt>
      <trkpt lat="42.44627" lon="0.04917">
        <ele>660.8</ele>
        <time>2017-07-31T08:26:29Z</time>
      </trkpt>
      <trkpt lat="42.44623" lon="0.04915">
        <ele>660.8</ele>
        <time>2017-07-31T08:26:30Z</time>
      </trkpt>
      <trkpt lat="42.4462" lon="0.04911">
        <ele>660.9</ele>
        <time>2017-07-31T08:26:31Z</time>
      </trkpt>
      <trkpt lat="42.44616" lon="0.04908">
        <ele>660.9</ele>
        <time>2017-07-31T08:26:32Z</time>
      </trkpt>
      <trkpt lat="42.44613" lon="0.04904">
        <ele>661</ele>
        <time>2017-07-31T08:26:33Z</time>
      </trkpt>
      <trkpt lat="42.4461" lon="0.04899">
        <ele>661</ele>
        <time>2017-07-31T08:26:34Z</time>
      </trkpt>
      <trkpt lat="42.44609" lon="0.04891">
        <ele>661.1</ele>
        <time>2017-07-31T08:26:35Z</time>
      </trkpt>
      <trkpt lat="42.44607" lon="0.04885">
        <ele>661.2</ele>
        <time>2017-07-31T08:26:36Z</time>
      </trkpt>
      <trkpt lat="42.44605" lon="0.04879">
        <ele>661.2</ele>
        <time>2017-07-31T08:26:37Z</time>
      </trkpt>
      <trkpt lat="42.44604" lon="0.04873">
        <ele>661.3</ele>
        <time>2017-07-31T08:26:38Z</time>
      </trkpt>
      <trkpt lat="42.44603" lon="0.04866">
        <ele>661.3</ele>
        <time>2017-07-31T08:26:39Z</time>
      </trkpt>
      <trkpt lat="42.44602" lon="0.04859">
        <ele>661.4</ele>
        <time>2017-07-31T08:26:40Z</time>
      </trkpt>
      <trkpt lat="42.44602" lon="0.04852">
        <ele>661.4</ele>
        <time>2017-07-31T08:26:41Z</time>
      </trkpt>
      <trkpt lat="42.44603" lon="0.04845">
        <ele>661.4</ele>
        <time>2017-07-31T08:26:42Z</time>
      </trkpt>
      <trkpt lat="42.44604" lon="0.04838">
        <ele>661.5</ele>
        <time>2017-07-31T08:26:43Z</time>
      </trkpt>
      <trkpt lat="42.44605" lon="0.04831">
        <ele>661.5</ele>
        <time>2017-07-31T08:26:44Z</time>
      </trkpt>
      <trkpt lat="42.44606" lon="0.04824">
        <ele>661.5</ele>
        <time>2017-07-31T08:26:45Z</time>
      </trkpt>
      <trkpt lat="42.44606" lon="0.04817">
        <ele>661.6</ele>
        <time>2017-07-31T08:26:46Z</time>
      </trkpt>
      <trkpt lat="42.44608" lon="0.04811">
        <ele>661.6</ele>
        <time>2017-07-31T08:26:47Z</time>
      </trkpt>
      <trkpt lat="42.4461" lon="0.04806">
        <ele>661.6</ele>
        <time>2017-07-31T08:26:48Z</time>
      </trkpt>
      <trkpt lat="42.4461" lon="0.048">
        <ele>661.7</ele>
        <time>2017-07-31T08:26:49Z</time>
      </trkpt>
      <trkpt lat="42.44612" lon="0.04794">
        <ele>661.7</ele>
        <time>2017-07-31T08:26:50Z</time>
      </trkpt>
      <trkpt lat="42.44612" lon="0.04788">
        <ele>661.7</ele>
        <time>2017-07-31T08:26:51Z</time>
      </trkpt>
      <trkpt lat="42.44613" lon="0.04782">
        <ele>661.7</ele>
        <time>2017-07-31T08:26:52Z</time>
      </trkpt>
      <trkpt lat="42.44614" lon="0.04776">
        <ele>661.8</ele>
        <time>2017-07-31T08:26:53Z</time>
      </trkpt>
      <trkpt lat="42.44615" lon="0.0477">
        <ele>661.8</ele>
        <time>2017-07-31T08:26:54Z</time>
      </trkpt>
      <trkpt lat="42.44617" lon="0.04763">
        <ele>661.8</ele>
        <time>2017-07-31T08:26:55Z</time>
      </trkpt>
      <trkpt lat="42.44617" lon="0.04756">
        <ele>661.8</ele>
        <time>2017-07-31T08:26:56Z</time>
      </trkpt>
      <trkpt lat="42.44618" lon="0.0475">
        <ele>661.9</ele>
        <time>2017-07-31T08:26:57Z</time>
      </trkpt>
      <trkpt lat="42.44618" lon="0.04744">
        <ele>661.9</ele>
        <time>2017-07-31T08:26:58Z</time>
      </trkpt>
      <trkpt lat="42.44619" lon="0.04738">
        <ele>661.9</ele>
        <time>2017-07-31T08:26:59Z</time>
      </trkpt>
      <trkpt lat="42.44619" lon="0.04732">
        <ele>661.9</ele>
        <time>2017-07-31T08:27:00Z</time>
      </trkpt>
      <trkpt lat="42.44618" lon="0.04726">
        <ele>662</ele>
        <time>2017-07-31T08:27:01Z</time>
      </trkpt>
      <trkpt lat="42.44617" lon="0.0472">
        <ele>662</ele>
        <time>2017-07-31T08:27:02Z</time>
      </trkpt>
      <trkpt lat="42.44616" lon="0.04714">
        <ele>662.3</ele>
        <time>2017-07-31T08:27:03Z</time>
      </trkpt>
      <trkpt lat="42.44613" lon="0.04709">
        <ele>662.7</ele>
        <time>2017-07-31T08:27:04Z</time>
      </trkpt>
      <trkpt lat="42.44611" lon="0.04704">
        <ele>663</ele>
        <time>2017-07-31T08:27:05Z</time>
      </trkpt>
      <trkpt lat="42.44607" lon="0.047">
        <ele>663.4</ele>
        <time>2017-07-31T08:27:06Z</time>
      </trkpt>
      <trkpt lat="42.44603" lon="0.04697">
        <ele>663.7</ele>
        <time>2017-07-31T08:27:07Z</time>
      </trkpt>
      <trkpt lat="42.446" lon="0.04694">
        <ele>664</ele>
        <time>2017-07-31T08:27:08Z</time>
      </trkpt>
      <trkpt lat="42.44596" lon="0.04692">
        <ele>664.3</ele>
        <time>2017-07-31T08:27:09Z</time>
      </trkpt>
      <trkpt lat="42.44592" lon="0.04691">
        <ele>664.6</ele>
        <time>2017-07-31T08:27:10Z</time>
      </trkpt>
      <trkpt lat="42.44587" lon="0.04689">
        <ele>665</ele>
        <time>2017-07-31T08:27:11Z</time>
      </trkpt>
      <trkpt lat="42.44583" lon="0.04688">
        <ele>665.3</ele>
        <time>2017-07-31T08:27:12Z</time>
      </trkpt>
      <trkpt lat="42.44578" lon="0.04687">
        <ele>665.6</ele>
        <time>2017-07-31T08:27:13Z</time>
      </trkpt>
      <trkpt lat="42.44574" lon="0.04685">
        <ele>665.9</ele>
        <time>2017-07-31T08:27:14Z</time>
      </trkpt>
      <trkpt lat="42.4457" lon="0.04685">
        <ele>666.2</ele>
        <time>2017-07-31T08:27:15Z</time>
      </trkpt>
      <trkpt lat="42.44565" lon="0.04683">
        <ele>666.3</ele>
        <time>2017-07-31T08:27:16Z</time>
      </trkpt>
      <trkpt lat="42.44561" lon="0.04683">
        <ele>666.5</ele>
        <time>2017-07-31T08:27:17Z</time>
      </trkpt>
      <trkpt lat="42.44556" lon="0.04682">
        <ele>666.7</ele>
        <time>2017-07-31T08:27:18Z</time>
      </trkpt>
      <trkpt lat="42.44552" lon="0.0468">
        <ele>666.9</ele>
        <time>2017-07-31T08:27:19Z</time>
      </trkpt>
      <trkpt lat="42.44548" lon="0.04679">
        <ele>667.1</ele>
        <time>2017-07-31T08:27:20Z</time>
      </trkpt>
      <trkpt lat="42.44543" lon="0.04678">
        <ele>667.3</ele>
        <time>2017-07-31T08:27:21Z</time>
      </trkpt>
      <trkpt lat="42.44539" lon="0.04676">
        <ele>667.6</ele>
        <time>2017-07-31T08:27:22Z</time>
      </trkpt>
      <trkpt lat="42.44534" lon="0.04675">
        <ele>667.8</ele>
        <time>2017-07-31T08:27:23Z</time>
      </trkpt>
      <trkpt lat="42.4453" lon="0.04674">
        <ele>668</ele>
        <time>2017-07-31T08:27:24Z</time>
      </trkpt>
      <trkpt lat="42.44526" lon="0.04673">
        <ele>668.2</ele>
        <time>2017-07-31T08:27:25Z</time>
      </trkpt>
      <trkpt lat="42.44522" lon="0.04672">
        <ele>668.4</ele>
        <time>2017-07-31T08:27:26Z</time>
      </trkpt>
      <trkpt lat="42.44517" lon="0.04671">
        <ele>668.7</ele>
        <time>2017-07-31T08:27:27Z</time>
      </trkpt>
      <trkpt lat="42.44513" lon="0.0467">
        <ele>668.9</ele>
        <time>2017-07-31T08:27:28Z</time>
      </trkpt>
      <trkpt lat="42.44509" lon="0.04669">
        <ele>669.2</ele>
        <time>2017-07-31T08:27:29Z</time>
      </trkpt>
      <trkpt lat="42.44505" lon="0.04667">
        <ele>669.4</ele>
        <time>2017-07-31T08:27:30Z</time>
      </trkpt>
      <trkpt lat="42.445" lon="0.04666">
        <ele>669.7</ele>
        <time>2017-07-31T08:27:31Z</time>
      </trkpt>
      <trkpt lat="42.44496" lon="0.04665">
        <ele>669.9</ele>
        <time>2017-07-31T08:27:32Z</time>
      </trkpt>
      <trkpt lat="42.44492" lon="0.04664">
        <ele>669.9</ele>
        <time>2017-07-31T08:27:33Z</time>
      </trkpt>
      <trkpt lat="42.44489" lon="0.04663">
        <ele>669.9</ele>
        <time>2017-07-31T08:27:34Z</time>
      </trkpt>
      <trkpt lat="42.44486" lon="0.04662">
        <ele>669.8</ele>
        <time>2017-07-31T08:27:35Z</time>
      </trkpt>
      <trkpt lat="42.44483" lon="0.04662">
        <ele>669.7</ele>
        <time>2017-07-31T08:27:36Z</time>
      </trkpt>
      <trkpt lat="42.4448" lon="0.04661">
        <ele>669.7</ele>
        <time>2017-07-31T08:27:37Z</time>
      </trkpt>
      <trkpt lat="42.44477" lon="0.04661">
        <ele>669.7</ele>
        <time>2017-07-31T08:27:38Z</time>
      </trkpt>
      <trkpt lat="42.44474" lon="0.0466">
        <ele>669.6</ele>
        <time>2017-07-31T08:27:39Z</time>
      </trkpt>
      <trkpt lat="42.44471" lon="0.0466">
        <ele>669.6</ele>
        <time>2017-07-31T08:27:40Z</time>
      </trkpt>
      <trkpt lat="42.44466" lon="0.04659">
        <ele>669.6</ele>
        <time>2017-07-31T08:27:42Z</time>
      </trkpt>
      <trkpt lat="42.44461" lon="0.04657">
        <ele>669.5</ele>
        <time>2017-07-31T08:27:44Z</time>
      </trkpt>
      <trkpt lat="42.44456" lon="0.04658">
        <ele>669.5</ele>
        <time>2017-07-31T08:27:46Z</time>
      </trkpt>
      <trkpt lat="42.44453" lon="0.04658">
        <ele>669.6</ele>
        <time>2017-07-31T08:27:47Z</time>
      </trkpt>
      <trkpt lat="42.4445" lon="0.04659">
        <ele>669.6</ele>
        <time>2017-07-31T08:27:48Z</time>
      </trkpt>
      <trkpt lat="42.44448" lon="0.04659">
        <ele>669.6</ele>
        <time>2017-07-31T08:27:49Z</time>
      </trkpt>
      <trkpt lat="42.44445" lon="0.04659">
        <ele>669.6</ele>
        <time>2017-07-31T08:27:50Z</time>
      </trkpt>
      <trkpt lat="42.44442" lon="0.0466">
        <ele>669.6</ele>
        <time>2017-07-31T08:27:51Z</time>
      </trkpt>
      <trkpt lat="42.44439" lon="0.0466">
        <ele>669.6</ele>
        <time>2017-07-31T08:27:52Z</time>
      </trkpt>
      <trkpt lat="42.44437" lon="0.04661">
        <ele>669.7</ele>
        <time>2017-07-31T08:27:53Z</time>
      </trkpt>
      <trkpt lat="42.44432" lon="0.04662">
        <ele>669.7</ele>
        <time>2017-07-31T08:27:55Z</time>
      </trkpt>
      <trkpt lat="42.44427" lon="0.04663">
        <ele>669.8</ele>
        <time>2017-07-31T08:27:57Z</time>
      </trkpt>
      <trkpt lat="42.44421" lon="0.04663">
        <ele>669.8</ele>
        <time>2017-07-31T08:27:59Z</time>
      </trkpt>
      <trkpt lat="42.44419" lon="0.04663">
        <ele>669.9</ele>
        <time>2017-07-31T08:28:00Z</time>
      </trkpt>
      <trkpt lat="42.44416" lon="0.04663">
        <ele>669.9</ele>
        <time>2017-07-31T08:28:01Z</time>
      </trkpt>
      <trkpt lat="42.4441" lon="0.04663">
        <ele>670</ele>
        <time>2017-07-31T08:28:03Z</time>
      </trkpt>
      <trkpt lat="42.44405" lon="0.04663">
        <ele>670.7</ele>
        <time>2017-07-31T08:28:05Z</time>
      </trkpt>
      <trkpt lat="42.444" lon="0.04663">
        <ele>671.4</ele>
        <time>2017-07-31T08:28:07Z</time>
      </trkpt>
      <trkpt lat="42.44395" lon="0.04662">
        <ele>672.1</ele>
        <time>2017-07-31T08:28:09Z</time>
      </trkpt>
      <trkpt lat="42.44391" lon="0.04661">
        <ele>672.7</ele>
        <time>2017-07-31T08:28:11Z</time>
      </trkpt>
      <trkpt lat="42.44386" lon="0.04659">
        <ele>673.3</ele>
        <time>2017-07-31T08:28:13Z</time>
      </trkpt>
      <trkpt lat="42.44382" lon="0.04656">
        <ele>673.9</ele>
        <time>2017-07-31T08:28:15Z</time>
      </trkpt>
      <trkpt lat="42.44377" lon="0.04653">
        <ele>674.5</ele>
        <time>2017-07-31T08:28:17Z</time>
      </trkpt>
      <trkpt lat="42.44373" lon="0.0465">
        <ele>675</ele>
        <time>2017-07-31T08:28:19Z</time>
      </trkpt>
      <trkpt lat="42.44369" lon="0.04648">
        <ele>675.5</ele>
        <time>2017-07-31T08:28:21Z</time>
      </trkpt>
      <trkpt lat="42.44364" lon="0.04646">
        <ele>676</ele>
        <time>2017-07-31T08:28:23Z</time>
      </trkpt>
      <trkpt lat="42.4436" lon="0.04644">
        <ele>676.5</ele>
        <time>2017-07-31T08:28:25Z</time>
      </trkpt>
      <trkpt lat="42.44356" lon="0.04642">
        <ele>677</ele>
        <time>2017-07-31T08:28:27Z</time>
      </trkpt>
      <trkpt lat="42.44352" lon="0.0464">
        <ele>677.5</ele>
        <time>2017-07-31T08:28:29Z</time>
      </trkpt>
      <trkpt lat="42.44347" lon="0.04637">
        <ele>677.9</ele>
        <time>2017-07-31T08:28:31Z</time>
      </trkpt>
      <trkpt lat="42.44343" lon="0.04636">
        <ele>678.5</ele>
        <time>2017-07-31T08:28:33Z</time>
      </trkpt>
      <trkpt lat="42.44338" lon="0.04636">
        <ele>679</ele>
        <time>2017-07-31T08:28:35Z</time>
      </trkpt>
      <trkpt lat="42.44333" lon="0.04635">
        <ele>679.5</ele>
        <time>2017-07-31T08:28:37Z</time>
      </trkpt>
      <trkpt lat="42.44329" lon="0.04635">
        <ele>680</ele>
        <time>2017-07-31T08:28:39Z</time>
      </trkpt>
      <trkpt lat="42.44324" lon="0.04634">
        <ele>680.5</ele>
        <time>2017-07-31T08:28:41Z</time>
      </trkpt>
      <trkpt lat="42.4432" lon="0.04632">
        <ele>681</ele>
        <time>2017-07-31T08:28:43Z</time>
      </trkpt>
      <trkpt lat="42.44315" lon="0.04631">
        <ele>681.5</ele>
        <time>2017-07-31T08:28:45Z</time>
      </trkpt>
      <trkpt lat="42.44311" lon="0.0463">
        <ele>682</ele>
        <time>2017-07-31T08:28:47Z</time>
      </trkpt>
      <trkpt lat="42.44307" lon="0.04629">
        <ele>682.4</ele>
        <time>2017-07-31T08:28:49Z</time>
      </trkpt>
      <trkpt lat="42.44302" lon="0.04627">
        <ele>682.9</ele>
        <time>2017-07-31T08:28:51Z</time>
      </trkpt>
      <trkpt lat="42.44298" lon="0.04625">
        <ele>683.4</ele>
        <time>2017-07-31T08:28:53Z</time>
      </trkpt>
      <trkpt lat="42.44294" lon="0.04623">
        <ele>683.8</ele>
        <time>2017-07-31T08:28:55Z</time>
      </trkpt>
      <trkpt lat="42.4429" lon="0.04622">
        <ele>684.2</ele>
        <time>2017-07-31T08:28:57Z</time>
      </trkpt>
      <trkpt lat="42.44285" lon="0.04621">
        <ele>684.7</ele>
        <time>2017-07-31T08:28:59Z</time>
      </trkpt>
      <trkpt lat="42.44281" lon="0.0462">
        <ele>685.1</ele>
        <time>2017-07-31T08:29:01Z</time>
      </trkpt>
      <trkpt lat="42.44277" lon="0.04619">
        <ele>685.5</ele>
        <time>2017-07-31T08:29:03Z</time>
      </trkpt>
      <trkpt lat="42.44272" lon="0.04619">
        <ele>686</ele>
        <time>2017-07-31T08:29:05Z</time>
      </trkpt>
      <trkpt lat="42.44268" lon="0.04618">
        <ele>686.4</ele>
        <time>2017-07-31T08:29:07Z</time>
      </trkpt>
      <trkpt lat="42.44264" lon="0.04616">
        <ele>686.8</ele>
        <time>2017-07-31T08:29:09Z</time>
      </trkpt>
      <trkpt lat="42.44259" lon="0.04614">
        <ele>687.2</ele>
        <time>2017-07-31T08:29:11Z</time>
      </trkpt>
      <trkpt lat="42.44255" lon="0.04612">
        <ele>687.7</ele>
        <time>2017-07-31T08:29:13Z</time>
      </trkpt>
      <trkpt lat="42.4425" lon="0.04611">
        <ele>688.2</ele>
        <time>2017-07-31T08:29:15Z</time>
      </trkpt>
      <trkpt lat="42.44246" lon="0.0461">
        <ele>688.6</ele>
        <time>2017-07-31T08:29:17Z</time>
      </trkpt>
      <trkpt lat="42.44241" lon="0.04608">
        <ele>689.1</ele>
        <time>2017-07-31T08:29:19Z</time>
      </trkpt>
      <trkpt lat="42.44237" lon="0.04606">
        <ele>689.6</ele>
        <time>2017-07-31T08:29:21Z</time>
      </trkpt>
      <trkpt lat="42.44232" lon="0.04605">
        <ele>690.2</ele>
        <time>2017-07-31T08:29:23Z</time>
      </trkpt>
      <trkpt lat="42.44227" lon="0.04604">
        <ele>690.7</ele>
        <time>2017-07-31T08:29:25Z</time>
      </trkpt>
      <trkpt lat="42.44222" lon="0.04602">
        <ele>691.2</ele>
        <time>2017-07-31T08:29:27Z</time>
      </trkpt>
      <trkpt lat="42.44218" lon="0.046">
        <ele>691.7</ele>
        <time>2017-07-31T08:29:29Z</time>
      </trkpt>
      <trkpt lat="42.44213" lon="0.04598">
        <ele>692.3</ele>
        <time>2017-07-31T08:29:31Z</time>
      </trkpt>
      <trkpt lat="42.44209" lon="0.04597">
        <ele>692.8</ele>
        <time>2017-07-31T08:29:33Z</time>
      </trkpt>
      <trkpt lat="42.44204" lon="0.04597">
        <ele>693.4</ele>
        <time>2017-07-31T08:29:35Z</time>
      </trkpt>
      <trkpt lat="42.44199" lon="0.04599">
        <ele>693.9</ele>
        <time>2017-07-31T08:29:37Z</time>
      </trkpt>
      <trkpt lat="42.44195" lon="0.04599">
        <ele>694.5</ele>
        <time>2017-07-31T08:29:39Z</time>
      </trkpt>
      <trkpt lat="42.4419" lon="0.04601">
        <ele>695</ele>
        <time>2017-07-31T08:29:41Z</time>
      </trkpt>
      <trkpt lat="42.44186" lon="0.04604">
        <ele>695.6</ele>
        <time>2017-07-31T08:29:43Z</time>
      </trkpt>
      <trkpt lat="42.44182" lon="0.04607">
        <ele>696.1</ele>
        <time>2017-07-31T08:29:45Z</time>
      </trkpt>
      <trkpt lat="42.44177" lon="0.0461">
        <ele>696.7</ele>
        <time>2017-07-31T08:29:47Z</time>
      </trkpt>
      <trkpt lat="42.44173" lon="0.04613">
        <ele>697.2</ele>
        <time>2017-07-31T08:29:49Z</time>
      </trkpt>
      <trkpt lat="42.44169" lon="0.04616">
        <ele>697.8</ele>
        <time>2017-07-31T08:29:51Z</time>
      </trkpt>
      <trkpt lat="42.44164" lon="0.04619">
        <ele>698.3</ele>
        <time>2017-07-31T08:29:53Z</time>
      </trkpt>
      <trkpt lat="42.4416" lon="0.04622">
        <ele>698.8</ele>
        <time>2017-07-31T08:29:55Z</time>
      </trkpt>
      <trkpt lat="42.44156" lon="0.04624">
        <ele>699.3</ele>
        <time>2017-07-31T08:29:57Z</time>
      </trkpt>
      <trkpt lat="42.44151" lon="0.04626">
        <ele>699.9</ele>
        <time>2017-07-31T08:29:59Z</time>
      </trkpt>
      <trkpt lat="42.44147" lon="0.04627">
        <ele>700.4</ele>
        <time>2017-07-31T08:30:01Z</time>
      </trkpt>
      <trkpt lat="42.44142" lon="0.04629">
        <ele>701</ele>
        <time>2017-07-31T08:30:03Z</time>
      </trkpt>
      <trkpt lat="42.44138" lon="0.04628">
        <ele>701.5</ele>
        <time>2017-07-31T08:30:05Z</time>
      </trkpt>
      <trkpt lat="42.44133" lon="0.04627">
        <ele>702.1</ele>
        <time>2017-07-31T08:30:07Z</time>
      </trkpt>
      <trkpt lat="42.44129" lon="0.04626">
        <ele>702.7</ele>
        <time>2017-07-31T08:30:09Z</time>
      </trkpt>
      <trkpt lat="42.44124" lon="0.04624">
        <ele>703.3</ele>
        <time>2017-07-31T08:30:11Z</time>
      </trkpt>
      <trkpt lat="42.4412" lon="0.04622">
        <ele>703.8</ele>
        <time>2017-07-31T08:30:13Z</time>
      </trkpt>
      <trkpt lat="42.44116" lon="0.04621">
        <ele>704.4</ele>
        <time>2017-07-31T08:30:15Z</time>
      </trkpt>
      <trkpt lat="42.44112" lon="0.04619">
        <ele>704.9</ele>
        <time>2017-07-31T08:30:17Z</time>
      </trkpt>
      <trkpt lat="42.44108" lon="0.04617">
        <ele>705.4</ele>
        <time>2017-07-31T08:30:19Z</time>
      </trkpt>
      <trkpt lat="42.44104" lon="0.04614">
        <ele>705.9</ele>
        <time>2017-07-31T08:30:21Z</time>
      </trkpt>
      <trkpt lat="42.441" lon="0.04612">
        <ele>706.4</ele>
        <time>2017-07-31T08:30:23Z</time>
      </trkpt>
      <trkpt lat="42.44095" lon="0.04611">
        <ele>706.9</ele>
        <time>2017-07-31T08:30:25Z</time>
      </trkpt>
      <trkpt lat="42.44091" lon="0.04609">
        <ele>707.4</ele>
        <time>2017-07-31T08:30:27Z</time>
      </trkpt>
      <trkpt lat="42.44087" lon="0.04607">
        <ele>707.8</ele>
        <time>2017-07-31T08:30:29Z</time>
      </trkpt>
      <trkpt lat="42.44083" lon="0.04605">
        <ele>712.3</ele>
        <time>2017-07-31T08:30:31Z</time>
      </trkpt>
      <trkpt lat="42.44079" lon="0.04603">
        <ele>719.4</ele>
        <time>2017-07-31T08:30:33Z</time>
      </trkpt>
      <trkpt lat="42.44076" lon="0.04602">
        <ele>727</ele>
        <time>2017-07-31T08:30:35Z</time>
      </trkpt>
      <trkpt lat="42.44072" lon="0.046">
        <ele>731.9</ele>
        <time>2017-07-31T08:30:37Z</time>
      </trkpt>
      <trkpt lat="42.44068" lon="0.04598">
        <ele>731.5</ele>
        <time>2017-07-31T08:30:39Z</time>
      </trkpt>
      <trkpt lat="42.44064" lon="0.04597">
        <ele>731</ele>
        <time>2017-07-31T08:30:41Z</time>
      </trkpt>
      <trkpt lat="42.4406" lon="0.04596">
        <ele>730.6</ele>
        <time>2017-07-31T08:30:43Z</time>
      </trkpt>
      <trkpt lat="42.44056" lon="0.04594">
        <ele>730.2</ele>
        <time>2017-07-31T08:30:45Z</time>
      </trkpt>
      <trkpt lat="42.44052" lon="0.04592">
        <ele>729.8</ele>
        <time>2017-07-31T08:30:47Z</time>
      </trkpt>
      <trkpt lat="42.44048" lon="0.04591">
        <ele>729.5</ele>
        <time>2017-07-31T08:30:49Z</time>
      </trkpt>
      <trkpt lat="42.44045" lon="0.04588">
        <ele>729.1</ele>
        <time>2017-07-31T08:30:51Z</time>
      </trkpt>
      <trkpt lat="42.44041" lon="0.04586">
        <ele>728.8</ele>
        <time>2017-07-31T08:30:53Z</time>
      </trkpt>
      <trkpt lat="42.44037" lon="0.04584">
        <ele>728.4</ele>
        <time>2017-07-31T08:30:55Z</time>
      </trkpt>
      <trkpt lat="42.44033" lon="0.04582">
        <ele>728.1</ele>
        <time>2017-07-31T08:30:57Z</time>
      </trkpt>
      <trkpt lat="42.4403" lon="0.0458">
        <ele>727.8</ele>
        <time>2017-07-31T08:30:59Z</time>
      </trkpt>
      <trkpt lat="42.44026" lon="0.04577">
        <ele>727.5</ele>
        <time>2017-07-31T08:31:01Z</time>
      </trkpt>
      <trkpt lat="42.44022" lon="0.04574">
        <ele>727.1</ele>
        <time>2017-07-31T08:31:03Z</time>
      </trkpt>
      <trkpt lat="42.44019" lon="0.0457">
        <ele>726.7</ele>
        <time>2017-07-31T08:31:05Z</time>
      </trkpt>
      <trkpt lat="42.44017" lon="0.04566">
        <ele>726.4</ele>
        <time>2017-07-31T08:31:07Z</time>
      </trkpt>
      <trkpt lat="42.44015" lon="0.04561">
        <ele>726</ele>
        <time>2017-07-31T08:31:09Z</time>
      </trkpt>
      <trkpt lat="42.44012" lon="0.04556">
        <ele>725.6</ele>
        <time>2017-07-31T08:31:11Z</time>
      </trkpt>
      <trkpt lat="42.4401" lon="0.04551">
        <ele>725.2</ele>
        <time>2017-07-31T08:31:13Z</time>
      </trkpt>
      <trkpt lat="42.44009" lon="0.04544">
        <ele>724.7</ele>
        <time>2017-07-31T08:31:15Z</time>
      </trkpt>
      <trkpt lat="42.44009" lon="0.04537">
        <ele>724.3</ele>
        <time>2017-07-31T08:31:17Z</time>
      </trkpt>
      <trkpt lat="42.4401" lon="0.0453">
        <ele>724</ele>
        <time>2017-07-31T08:31:19Z</time>
      </trkpt>
      <trkpt lat="42.44011" lon="0.04524">
        <ele>724</ele>
        <time>2017-07-31T08:31:21Z</time>
      </trkpt>
      <trkpt lat="42.44013" lon="0.04517">
        <ele>724.1</ele>
        <time>2017-07-31T08:31:23Z</time>
      </trkpt>
      <trkpt lat="42.44016" lon="0.04512">
        <ele>725</ele>
        <time>2017-07-31T08:31:25Z</time>
      </trkpt>
      <trkpt lat="42.44021" lon="0.04509">
        <ele>726</ele>
        <time>2017-07-31T08:31:27Z</time>
      </trkpt>
      <trkpt lat="42.44026" lon="0.04507">
        <ele>726.9</ele>
        <time>2017-07-31T08:31:29Z</time>
      </trkpt>
      <trkpt lat="42.44031" lon="0.04506">
        <ele>727.8</ele>
        <time>2017-07-31T08:31:31Z</time>
      </trkpt>
      <trkpt lat="42.44036" lon="0.04506">
        <ele>728.7</ele>
        <time>2017-07-31T08:31:33Z</time>
      </trkpt>
      <trkpt lat="42.44041" lon="0.04507">
        <ele>729.6</ele>
        <time>2017-07-31T08:31:35Z</time>
      </trkpt>
      <trkpt lat="42.44045" lon="0.04509">
        <ele>730.5</ele>
        <time>2017-07-31T08:31:37Z</time>
      </trkpt>
      <trkpt lat="42.4405" lon="0.04512">
        <ele>731.4</ele>
        <time>2017-07-31T08:31:39Z</time>
      </trkpt>
      <trkpt lat="42.44054" lon="0.04515">
        <ele>732.3</ele>
        <time>2017-07-31T08:31:41Z</time>
      </trkpt>
      <trkpt lat="42.44059" lon="0.04517">
        <ele>733.1</ele>
        <time>2017-07-31T08:31:43Z</time>
      </trkpt>
      <trkpt lat="42.44063" lon="0.0452">
        <ele>733.8</ele>
        <time>2017-07-31T08:31:45Z</time>
      </trkpt>
      <trkpt lat="42.44068" lon="0.04522">
        <ele>734.5</ele>
        <time>2017-07-31T08:31:47Z</time>
      </trkpt>
      <trkpt lat="42.44072" lon="0.04523">
        <ele>735.2</ele>
        <time>2017-07-31T08:31:49Z</time>
      </trkpt>
      <trkpt lat="42.44077" lon="0.04524">
        <ele>735.9</ele>
        <time>2017-07-31T08:31:51Z</time>
      </trkpt>
      <trkpt lat="42.44081" lon="0.04525">
        <ele>736.5</ele>
        <time>2017-07-31T08:31:53Z</time>
      </trkpt>
      <trkpt lat="42.44085" lon="0.04525">
        <ele>737.1</ele>
        <time>2017-07-31T08:31:55Z</time>
      </trkpt>
      <trkpt lat="42.4409" lon="0.04525">
        <ele>737.6</ele>
        <time>2017-07-31T08:31:57Z</time>
      </trkpt>
      <trkpt lat="42.44094" lon="0.04524">
        <ele>738.2</ele>
        <time>2017-07-31T08:31:59Z</time>
      </trkpt>
      <trkpt lat="42.44098" lon="0.04522">
        <ele>738.7</ele>
        <time>2017-07-31T08:32:01Z</time>
      </trkpt>
      <trkpt lat="42.44102" lon="0.04521">
        <ele>739.2</ele>
        <time>2017-07-31T08:32:03Z</time>
      </trkpt>
      <trkpt lat="42.44106" lon="0.04519">
        <ele>739.7</ele>
        <time>2017-07-31T08:32:05Z</time>
      </trkpt>
      <trkpt lat="42.44111" lon="0.04518">
        <ele>740.1</ele>
        <time>2017-07-31T08:32:07Z</time>
      </trkpt>
      <trkpt lat="42.44115" lon="0.04517">
        <ele>740.6</ele>
        <time>2017-07-31T08:32:09Z</time>
      </trkpt>
      <trkpt lat="42.44119" lon="0.04516">
        <ele>741.1</ele>
        <time>2017-07-31T08:32:11Z</time>
      </trkpt>
      <trkpt lat="42.44123" lon="0.04514">
        <ele>741.5</ele>
        <time>2017-07-31T08:32:13Z</time>
      </trkpt>
      <trkpt lat="42.44127" lon="0.04514">
        <ele>741.9</ele>
        <time>2017-07-31T08:32:15Z</time>
      </trkpt>
      <trkpt lat="42.44132" lon="0.04513">
        <ele>742.3</ele>
        <time>2017-07-31T08:32:17Z</time>
      </trkpt>
      <trkpt lat="42.44136" lon="0.04511">
        <ele>742.7</ele>
        <time>2017-07-31T08:32:19Z</time>
      </trkpt>
      <trkpt lat="42.4414" lon="0.04509">
        <ele>743.2</ele>
        <time>2017-07-31T08:32:21Z</time>
      </trkpt>
      <trkpt lat="42.44145" lon="0.04509">
        <ele>743.6</ele>
        <time>2017-07-31T08:32:23Z</time>
      </trkpt>
      <trkpt lat="42.4415" lon="0.04508">
        <ele>744</ele>
        <time>2017-07-31T08:32:25Z</time>
      </trkpt>
      <trkpt lat="42.44154" lon="0.04506">
        <ele>744.4</ele>
        <time>2017-07-31T08:32:27Z</time>
      </trkpt>
      <trkpt lat="42.44159" lon="0.04505">
        <ele>744.8</ele>
        <time>2017-07-31T08:32:29Z</time>
      </trkpt>
      <trkpt lat="42.44163" lon="0.04503">
        <ele>745.2</ele>
        <time>2017-07-31T08:32:31Z</time>
      </trkpt>
      <trkpt lat="42.44168" lon="0.04502">
        <ele>745.6</ele>
        <time>2017-07-31T08:32:33Z</time>
      </trkpt>
      <trkpt lat="42.44173" lon="0.04501">
        <ele>746.1</ele>
        <time>2017-07-31T08:32:35Z</time>
      </trkpt>
      <trkpt lat="42.44178" lon="0.04499">
        <ele>746.5</ele>
        <time>2017-07-31T08:32:37Z</time>
      </trkpt>
      <trkpt lat="42.44183" lon="0.04497">
        <ele>747</ele>
        <time>2017-07-31T08:32:39Z</time>
      </trkpt>
      <trkpt lat="42.44188" lon="0.04496">
        <ele>747.5</ele>
        <time>2017-07-31T08:32:41Z</time>
      </trkpt>
      <trkpt lat="42.44192" lon="0.04494">
        <ele>748</ele>
        <time>2017-07-31T08:32:43Z</time>
      </trkpt>
      <trkpt lat="42.44197" lon="0.04492">
        <ele>748.4</ele>
        <time>2017-07-31T08:32:45Z</time>
      </trkpt>
      <trkpt lat="42.44201" lon="0.04491">
        <ele>748.9</ele>
        <time>2017-07-31T08:32:47Z</time>
      </trkpt>
      <trkpt lat="42.44206" lon="0.0449">
        <ele>749.3</ele>
        <time>2017-07-31T08:32:49Z</time>
      </trkpt>
      <trkpt lat="42.4421" lon="0.04488">
        <ele>749.8</ele>
        <time>2017-07-31T08:32:51Z</time>
      </trkpt>
      <trkpt lat="42.44215" lon="0.04486">
        <ele>750.2</ele>
        <time>2017-07-31T08:32:53Z</time>
      </trkpt>
      <trkpt lat="42.44219" lon="0.04485">
        <ele>750.6</ele>
        <time>2017-07-31T08:32:55Z</time>
      </trkpt>
      <trkpt lat="42.44223" lon="0.04483">
        <ele>751</ele>
        <time>2017-07-31T08:32:57Z</time>
      </trkpt>
      <trkpt lat="42.44227" lon="0.04482">
        <ele>751.4</ele>
        <time>2017-07-31T08:32:59Z</time>
      </trkpt>
      <trkpt lat="42.44231" lon="0.04481">
        <ele>751.8</ele>
        <time>2017-07-31T08:33:01Z</time>
      </trkpt>
      <trkpt lat="42.44236" lon="0.0448">
        <ele>752.2</ele>
        <time>2017-07-31T08:33:03Z</time>
      </trkpt>
      <trkpt lat="42.44241" lon="0.04479">
        <ele>752.5</ele>
        <time>2017-07-31T08:33:05Z</time>
      </trkpt>
      <trkpt lat="42.44245" lon="0.04478">
        <ele>752.9</ele>
        <time>2017-07-31T08:33:07Z</time>
      </trkpt>
      <trkpt lat="42.4425" lon="0.04478">
        <ele>753.3</ele>
        <time>2017-07-31T08:33:09Z</time>
      </trkpt>
      <trkpt lat="42.44255" lon="0.04477">
        <ele>753.7</ele>
        <time>2017-07-31T08:33:11Z</time>
      </trkpt>
      <trkpt lat="42.44259" lon="0.04478">
        <ele>754</ele>
        <time>2017-07-31T08:33:13Z</time>
      </trkpt>
      <trkpt lat="42.44264" lon="0.04478">
        <ele>754.4</ele>
        <time>2017-07-31T08:33:15Z</time>
      </trkpt>
      <trkpt lat="42.44269" lon="0.04478">
        <ele>754.8</ele>
        <time>2017-07-31T08:33:17Z</time>
      </trkpt>
      <trkpt lat="42.44273" lon="0.04478">
        <ele>755.1</ele>
        <time>2017-07-31T08:33:19Z</time>
      </trkpt>
      <trkpt lat="42.44278" lon="0.04479">
        <ele>755.5</ele>
        <time>2017-07-31T08:33:21Z</time>
      </trkpt>
      <trkpt lat="42.44282" lon="0.0448">
        <ele>755.9</ele>
        <time>2017-07-31T08:33:23Z</time>
      </trkpt>
      <trkpt lat="42.44287" lon="0.0448">
        <ele>756.2</ele>
        <time>2017-07-31T08:33:25Z</time>
      </trkpt>
      <trkpt lat="42.44291" lon="0.04481">
        <ele>756.5</ele>
        <time>2017-07-31T08:33:27Z</time>
      </trkpt>
      <trkpt lat="42.44295" lon="0.04481">
        <ele>756.9</ele>
        <time>2017-07-31T08:33:29Z</time>
      </trkpt>
      <trkpt lat="42.44299" lon="0.04482">
        <ele>757.2</ele>
        <time>2017-07-31T08:33:31Z</time>
      </trkpt>
      <trkpt lat="42.44304" lon="0.04481">
        <ele>757.6</ele>
        <time>2017-07-31T08:33:33Z</time>
      </trkpt>
      <trkpt lat="42.44308" lon="0.04481">
        <ele>757.9</ele>
        <time>2017-07-31T08:33:35Z</time>
      </trkpt>
      <trkpt lat="42.44313" lon="0.0448">
        <ele>758</ele>
        <time>2017-07-31T08:33:37Z</time>
      </trkpt>
      <trkpt lat="42.44318" lon="0.04479">
        <ele>758.1</ele>
        <time>2017-07-31T08:33:39Z</time>
      </trkpt>
      <trkpt lat="42.44323" lon="0.04478">
        <ele>758.1</ele>
        <time>2017-07-31T08:33:41Z</time>
      </trkpt>
      <trkpt lat="42.44327" lon="0.04477">
        <ele>758.2</ele>
        <time>2017-07-31T08:33:43Z</time>
      </trkpt>
      <trkpt lat="42.44332" lon="0.04476">
        <ele>758.2</ele>
        <time>2017-07-31T08:33:45Z</time>
      </trkpt>
      <trkpt lat="42.44336" lon="0.04475">
        <ele>758.3</ele>
        <time>2017-07-31T08:33:47Z</time>
      </trkpt>
      <trkpt lat="42.44341" lon="0.04474">
        <ele>758.3</ele>
        <time>2017-07-31T08:33:49Z</time>
      </trkpt>
      <trkpt lat="42.44346" lon="0.04474">
        <ele>758.4</ele>
        <time>2017-07-31T08:33:51Z</time>
      </trkpt>
      <trkpt lat="42.4435" lon="0.04473">
        <ele>758.5</ele>
        <time>2017-07-31T08:33:53Z</time>
      </trkpt>
      <trkpt lat="42.44354" lon="0.04472">
        <ele>758.5</ele>
        <time>2017-07-31T08:33:55Z</time>
      </trkpt>
      <trkpt lat="42.44359" lon="0.04471">
        <ele>758.6</ele>
        <time>2017-07-31T08:33:57Z</time>
      </trkpt>
      <trkpt lat="42.44363" lon="0.0447">
        <ele>758.7</ele>
        <time>2017-07-31T08:33:59Z</time>
      </trkpt>
      <trkpt lat="42.44368" lon="0.04469">
        <ele>758.7</ele>
        <time>2017-07-31T08:34:01Z</time>
      </trkpt>
      <trkpt lat="42.44372" lon="0.04469">
        <ele>758.8</ele>
        <time>2017-07-31T08:34:03Z</time>
      </trkpt>
      <trkpt lat="42.44376" lon="0.04468">
        <ele>758.8</ele>
        <time>2017-07-31T08:34:05Z</time>
      </trkpt>
      <trkpt lat="42.4438" lon="0.04467">
        <ele>758.9</ele>
        <time>2017-07-31T08:34:07Z</time>
      </trkpt>
      <trkpt lat="42.44385" lon="0.04468">
        <ele>758.9</ele>
        <time>2017-07-31T08:34:09Z</time>
      </trkpt>
      <trkpt lat="42.44389" lon="0.04468">
        <ele>759</ele>
        <time>2017-07-31T08:34:11Z</time>
      </trkpt>
      <trkpt lat="42.44394" lon="0.04468">
        <ele>759.1</ele>
        <time>2017-07-31T08:34:13Z</time>
      </trkpt>
      <trkpt lat="42.44399" lon="0.04468">
        <ele>759.1</ele>
        <time>2017-07-31T08:34:15Z</time>
      </trkpt>
      <trkpt lat="42.44404" lon="0.04468">
        <ele>759.2</ele>
        <time>2017-07-31T08:34:17Z</time>
      </trkpt>
      <trkpt lat="42.44409" lon="0.04469">
        <ele>759.3</ele>
        <time>2017-07-31T08:34:19Z</time>
      </trkpt>
      <trkpt lat="42.44414" lon="0.04469">
        <ele>759.4</ele>
        <time>2017-07-31T08:34:21Z</time>
      </trkpt>
      <trkpt lat="42.44419" lon="0.04469">
        <ele>759.4</ele>
        <time>2017-07-31T08:34:23Z</time>
      </trkpt>
      <trkpt lat="42.44424" lon="0.04468">
        <ele>759.5</ele>
        <time>2017-07-31T08:34:25Z</time>
      </trkpt>
      <trkpt lat="42.44429" lon="0.04467">
        <ele>759.6</ele>
        <time>2017-07-31T08:34:27Z</time>
      </trkpt>
      <trkpt lat="42.44433" lon="0.04466">
        <ele>759.7</ele>
        <time>2017-07-31T08:34:29Z</time>
      </trkpt>
      <trkpt lat="42.44438" lon="0.04463">
        <ele>759.8</ele>
        <time>2017-07-31T08:34:31Z</time>
      </trkpt>
      <trkpt lat="42.44442" lon="0.04459">
        <ele>759.9</ele>
        <time>2017-07-31T08:34:33Z</time>
      </trkpt>
      <trkpt lat="42.44446" lon="0.04455">
        <ele>759.9</ele>
        <time>2017-07-31T08:34:35Z</time>
      </trkpt>
      <trkpt lat="42.44449" lon="0.0445">
        <ele>760</ele>
        <time>2017-07-31T08:34:37Z</time>
      </trkpt>
      <trkpt lat="42.44452" lon="0.04444">
        <ele>761.8</ele>
        <time>2017-07-31T08:34:39Z</time>
      </trkpt>
      <trkpt lat="42.44453" lon="0.04437">
        <ele>763.6</ele>
        <time>2017-07-31T08:34:41Z</time>
      </trkpt>
      <trkpt lat="42.44453" lon="0.0443">
        <ele>765.8</ele>
        <time>2017-07-31T08:34:43Z</time>
      </trkpt>
      <trkpt lat="42.44453" lon="0.04424">
        <ele>768</ele>
        <time>2017-07-31T08:34:45Z</time>
      </trkpt>
      <trkpt lat="42.44451" lon="0.04417">
        <ele>770.1</ele>
        <time>2017-07-31T08:34:47Z</time>
      </trkpt>
      <trkpt lat="42.44449" lon="0.04411">
        <ele>772</ele>
        <time>2017-07-31T08:34:49Z</time>
      </trkpt>
      <trkpt lat="42.44446" lon="0.04406">
        <ele>774</ele>
        <time>2017-07-31T08:34:51Z</time>
      </trkpt>
      <trkpt lat="42.44444" lon="0.04403">
        <ele>775</ele>
        <time>2017-07-31T08:34:52Z</time>
      </trkpt>
      <trkpt lat="42.44442" lon="0.04401">
        <ele>776</ele>
        <time>2017-07-31T08:34:53Z</time>
      </trkpt>
      <trkpt lat="42.44438" lon="0.04396">
        <ele>777.9</ele>
        <time>2017-07-31T08:34:55Z</time>
      </trkpt>
      <trkpt lat="42.44433" lon="0.04393">
        <ele>779.8</ele>
        <time>2017-07-31T08:34:57Z</time>
      </trkpt>
      <trkpt lat="42.44429" lon="0.04392">
        <ele>781.5</ele>
        <time>2017-07-31T08:34:59Z</time>
      </trkpt>
      <trkpt lat="42.44423" lon="0.04392">
        <ele>783.4</ele>
        <time>2017-07-31T08:35:01Z</time>
      </trkpt>
      <trkpt lat="42.4442" lon="0.04392">
        <ele>784.6</ele>
        <time>2017-07-31T08:35:02Z</time>
      </trkpt>
      <trkpt lat="42.44417" lon="0.04393">
        <ele>785.8</ele>
        <time>2017-07-31T08:35:03Z</time>
      </trkpt>
      <trkpt lat="42.44414" lon="0.04394">
        <ele>787.2</ele>
        <time>2017-07-31T08:35:04Z</time>
      </trkpt>
      <trkpt lat="42.4441" lon="0.04396">
        <ele>788</ele>
        <time>2017-07-31T08:35:05Z</time>
      </trkpt>
      <trkpt lat="42.44408" lon="0.04398">
        <ele>788</ele>
        <time>2017-07-31T08:35:06Z</time>
      </trkpt>
      <trkpt lat="42.44405" lon="0.044">
        <ele>788</ele>
        <time>2017-07-31T08:35:07Z</time>
      </trkpt>
      <trkpt lat="42.44403" lon="0.04402">
        <ele>787.4</ele>
        <time>2017-07-31T08:35:08Z</time>
      </trkpt>
      <trkpt lat="42.444" lon="0.04404">
        <ele>785.6</ele>
        <time>2017-07-31T08:35:09Z</time>
      </trkpt>
      <trkpt lat="42.44396" lon="0.04408">
        <ele>782.4</ele>
        <time>2017-07-31T08:35:11Z</time>
      </trkpt>
      <trkpt lat="42.44392" lon="0.04412">
        <ele>780.2</ele>
        <time>2017-07-31T08:35:13Z</time>
      </trkpt>
      <trkpt lat="42.44389" lon="0.04416">
        <ele>778</ele>
        <time>2017-07-31T08:35:15Z</time>
      </trkpt>
      <trkpt lat="42.44384" lon="0.04419">
        <ele>775.9</ele>
        <time>2017-07-31T08:35:17Z</time>
      </trkpt>
      <trkpt lat="42.44379" lon="0.04422">
        <ele>773.5</ele>
        <time>2017-07-31T08:35:19Z</time>
      </trkpt>
      <trkpt lat="42.44374" lon="0.04423">
        <ele>771.4</ele>
        <time>2017-07-31T08:35:21Z</time>
      </trkpt>
      <trkpt lat="42.44369" lon="0.04424">
        <ele>769.7</ele>
        <time>2017-07-31T08:35:23Z</time>
      </trkpt>
      <trkpt lat="42.44364" lon="0.04425">
        <ele>767.9</ele>
        <time>2017-07-31T08:35:25Z</time>
      </trkpt>
      <trkpt lat="42.4436" lon="0.04424">
        <ele>766.1</ele>
        <time>2017-07-31T08:35:27Z</time>
      </trkpt>
      <trkpt lat="42.44355" lon="0.04422">
        <ele>764.1</ele>
        <time>2017-07-31T08:35:29Z</time>
      </trkpt>
      <trkpt lat="42.4435" lon="0.0442">
        <ele>763.1</ele>
        <time>2017-07-31T08:35:31Z</time>
      </trkpt>
      <trkpt lat="42.44345" lon="0.04419">
        <ele>763.7</ele>
        <time>2017-07-31T08:35:33Z</time>
      </trkpt>
      <trkpt lat="42.44341" lon="0.04419">
        <ele>764.2</ele>
        <time>2017-07-31T08:35:35Z</time>
      </trkpt>
      <trkpt lat="42.44336" lon="0.04418">
        <ele>764.7</ele>
        <time>2017-07-31T08:35:37Z</time>
      </trkpt>
      <trkpt lat="42.44332" lon="0.04416">
        <ele>765.1</ele>
        <time>2017-07-31T08:35:39Z</time>
      </trkpt>
      <trkpt lat="42.44328" lon="0.04415">
        <ele>765.6</ele>
        <time>2017-07-31T08:35:41Z</time>
      </trkpt>
      <trkpt lat="42.44323" lon="0.04412">
        <ele>766</ele>
        <time>2017-07-31T08:35:43Z</time>
      </trkpt>
      <trkpt lat="42.44319" lon="0.04411">
        <ele>766.4</ele>
        <time>2017-07-31T08:35:45Z</time>
      </trkpt>
      <trkpt lat="42.44315" lon="0.0441">
        <ele>766.8</ele>
        <time>2017-07-31T08:35:47Z</time>
      </trkpt>
      <trkpt lat="42.4431" lon="0.04408">
        <ele>767.2</ele>
        <time>2017-07-31T08:35:49Z</time>
      </trkpt>
      <trkpt lat="42.44306" lon="0.04407">
        <ele>767.6</ele>
        <time>2017-07-31T08:35:51Z</time>
      </trkpt>
      <trkpt lat="42.44301" lon="0.04405">
        <ele>767.9</ele>
        <time>2017-07-31T08:35:53Z</time>
      </trkpt>
      <trkpt lat="42.44297" lon="0.04403">
        <ele>768.3</ele>
        <time>2017-07-31T08:35:55Z</time>
      </trkpt>
      <trkpt lat="42.44292" lon="0.04402">
        <ele>768.7</ele>
        <time>2017-07-31T08:35:57Z</time>
      </trkpt>
      <trkpt lat="42.44288" lon="0.04401">
        <ele>769</ele>
        <time>2017-07-31T08:35:59Z</time>
      </trkpt>
      <trkpt lat="42.44283" lon="0.044">
        <ele>769.4</ele>
        <time>2017-07-31T08:36:01Z</time>
      </trkpt>
      <trkpt lat="42.44278" lon="0.04398">
        <ele>769.8</ele>
        <time>2017-07-31T08:36:03Z</time>
      </trkpt>
      <trkpt lat="42.44274" lon="0.04397">
        <ele>770.1</ele>
        <time>2017-07-31T08:36:05Z</time>
      </trkpt>
      <trkpt lat="42.44269" lon="0.04395">
        <ele>770.4</ele>
        <time>2017-07-31T08:36:07Z</time>
      </trkpt>
      <trkpt lat="42.44265" lon="0.04394">
        <ele>770.8</ele>
        <time>2017-07-31T08:36:09Z</time>
      </trkpt>
      <trkpt lat="42.4426" lon="0.04392">
        <ele>771.1</ele>
        <time>2017-07-31T08:36:11Z</time>
      </trkpt>
      <trkpt lat="42.44256" lon="0.04391">
        <ele>771.4</ele>
        <time>2017-07-31T08:36:13Z</time>
      </trkpt>
      <trkpt lat="42.44251" lon="0.04389">
        <ele>771.7</ele>
        <time>2017-07-31T08:36:15Z</time>
      </trkpt>
      <trkpt lat="42.44247" lon="0.04388">
        <ele>772.1</ele>
        <time>2017-07-31T08:36:17Z</time>
      </trkpt>
      <trkpt lat="42.44242" lon="0.04387">
        <ele>772.4</ele>
        <time>2017-07-31T08:36:19Z</time>
      </trkpt>
      <trkpt lat="42.44238" lon="0.04386">
        <ele>772.7</ele>
        <time>2017-07-31T08:36:21Z</time>
      </trkpt>
      <trkpt lat="42.44233" lon="0.04384">
        <ele>773</ele>
        <time>2017-07-31T08:36:23Z</time>
      </trkpt>
      <trkpt lat="42.44229" lon="0.04382">
        <ele>773.4</ele>
        <time>2017-07-31T08:36:25Z</time>
      </trkpt>
      <trkpt lat="42.44224" lon="0.04381">
        <ele>773.7</ele>
        <time>2017-07-31T08:36:27Z</time>
      </trkpt>
      <trkpt lat="42.4422" lon="0.0438">
        <ele>774</ele>
        <time>2017-07-31T08:36:29Z</time>
      </trkpt>
      <trkpt lat="42.44215" lon="0.04378">
        <ele>774.4</ele>
        <time>2017-07-31T08:36:31Z</time>
      </trkpt>
      <trkpt lat="42.44211" lon="0.04377">
        <ele>774.7</ele>
        <time>2017-07-31T08:36:33Z</time>
      </trkpt>
      <trkpt lat="42.44207" lon="0.04375">
        <ele>775.1</ele>
        <time>2017-07-31T08:36:35Z</time>
      </trkpt>
      <trkpt lat="42.44202" lon="0.04374">
        <ele>775.5</ele>
        <time>2017-07-31T08:36:37Z</time>
      </trkpt>
      <trkpt lat="42.44198" lon="0.04372">
        <ele>775.8</ele>
        <time>2017-07-31T08:36:39Z</time>
      </trkpt>
      <trkpt lat="42.44193" lon="0.0437">
        <ele>776.2</ele>
        <time>2017-07-31T08:36:41Z</time>
      </trkpt>
      <trkpt lat="42.44189" lon="0.04369">
        <ele>776.7</ele>
        <time>2017-07-31T08:36:43Z</time>
      </trkpt>
      <trkpt lat="42.44185" lon="0.04367">
        <ele>777.1</ele>
        <time>2017-07-31T08:36:45Z</time>
      </trkpt>
      <trkpt lat="42.4418" lon="0.04366">
        <ele>777.5</ele>
        <time>2017-07-31T08:36:47Z</time>
      </trkpt>
      <trkpt lat="42.44176" lon="0.04364">
        <ele>777.9</ele>
        <time>2017-07-31T08:36:49Z</time>
      </trkpt>
      <trkpt lat="42.44171" lon="0.04363">
        <ele>778.2</ele>
        <time>2017-07-31T08:36:51Z</time>
      </trkpt>
      <trkpt lat="42.44167" lon="0.0436">
        <ele>778.6</ele>
        <time>2017-07-31T08:36:53Z</time>
      </trkpt>
      <trkpt lat="42.44163" lon="0.04358">
        <ele>779</ele>
        <time>2017-07-31T08:36:55Z</time>
      </trkpt>
      <trkpt lat="42.44159" lon="0.04356">
        <ele>779.4</ele>
        <time>2017-07-31T08:36:57Z</time>
      </trkpt>
      <trkpt lat="42.44155" lon="0.04355">
        <ele>779.7</ele>
        <time>2017-07-31T08:36:59Z</time>
      </trkpt>
      <trkpt lat="42.44151" lon="0.04353">
        <ele>780.1</ele>
        <time>2017-07-31T08:37:01Z</time>
      </trkpt>
      <trkpt lat="42.44146" lon="0.04351">
        <ele>780.4</ele>
        <time>2017-07-31T08:37:03Z</time>
      </trkpt>
      <trkpt lat="42.44142" lon="0.0435">
        <ele>780.8</ele>
        <time>2017-07-31T08:37:05Z</time>
      </trkpt>
      <trkpt lat="42.44138" lon="0.04348">
        <ele>781.1</ele>
        <time>2017-07-31T08:37:07Z</time>
      </trkpt>
      <trkpt lat="42.44133" lon="0.04347">
        <ele>781.5</ele>
        <time>2017-07-31T08:37:09Z</time>
      </trkpt>
      <trkpt lat="42.44129" lon="0.04345">
        <ele>781.8</ele>
        <time>2017-07-31T08:37:11Z</time>
      </trkpt>
      <trkpt lat="42.44125" lon="0.04344">
        <ele>782.1</ele>
        <time>2017-07-31T08:37:13Z</time>
      </trkpt>
      <trkpt lat="42.44121" lon="0.04343">
        <ele>782.5</ele>
        <time>2017-07-31T08:37:15Z</time>
      </trkpt>
      <trkpt lat="42.44116" lon="0.04342">
        <ele>782.8</ele>
        <time>2017-07-31T08:37:17Z</time>
      </trkpt>
      <trkpt lat="42.44112" lon="0.0434">
        <ele>783.2</ele>
        <time>2017-07-31T08:37:19Z</time>
      </trkpt>
      <trkpt lat="42.44107" lon="0.04339">
        <ele>783.6</ele>
        <time>2017-07-31T08:37:21Z</time>
      </trkpt>
      <trkpt lat="42.44102" lon="0.04337">
        <ele>783.9</ele>
        <time>2017-07-31T08:37:23Z</time>
      </trkpt>
      <trkpt lat="42.44098" lon="0.04335">
        <ele>784.3</ele>
        <time>2017-07-31T08:37:25Z</time>
      </trkpt>
      <trkpt lat="42.44093" lon="0.04334">
        <ele>784.7</ele>
        <time>2017-07-31T08:37:27Z</time>
      </trkpt>
      <trkpt lat="42.44089" lon="0.04332">
        <ele>785</ele>
        <time>2017-07-31T08:37:29Z</time>
      </trkpt>
      <trkpt lat="42.44085" lon="0.0433">
        <ele>785.4</ele>
        <time>2017-07-31T08:37:31Z</time>
      </trkpt>
      <trkpt lat="42.4408" lon="0.04327">
        <ele>785.8</ele>
        <time>2017-07-31T08:37:33Z</time>
      </trkpt>
      <trkpt lat="42.44076" lon="0.04325">
        <ele>786.2</ele>
        <time>2017-07-31T08:37:35Z</time>
      </trkpt>
      <trkpt lat="42.44071" lon="0.04323">
        <ele>786.5</ele>
        <time>2017-07-31T08:37:37Z</time>
      </trkpt>
      <trkpt lat="42.44067" lon="0.04322">
        <ele>786.9</ele>
        <time>2017-07-31T08:37:39Z</time>
      </trkpt>
      <trkpt lat="42.44062" lon="0.0432">
        <ele>787.2</ele>
        <time>2017-07-31T08:37:41Z</time>
      </trkpt>
      <trkpt lat="42.44058" lon="0.04319">
        <ele>787.5</ele>
        <time>2017-07-31T08:37:43Z</time>
      </trkpt>
      <trkpt lat="42.44054" lon="0.04317">
        <ele>787.9</ele>
        <time>2017-07-31T08:37:45Z</time>
      </trkpt>
      <trkpt lat="42.44049" lon="0.04316">
        <ele>788.3</ele>
        <time>2017-07-31T08:37:47Z</time>
      </trkpt>
      <trkpt lat="42.44044" lon="0.04314">
        <ele>788.6</ele>
        <time>2017-07-31T08:37:49Z</time>
      </trkpt>
      <trkpt lat="42.4404" lon="0.04312">
        <ele>788.9</ele>
        <time>2017-07-31T08:37:51Z</time>
      </trkpt>
      <trkpt lat="42.44035" lon="0.04309">
        <ele>789.3</ele>
        <time>2017-07-31T08:37:53Z</time>
      </trkpt>
      <trkpt lat="42.44031" lon="0.04307">
        <ele>789.6</ele>
        <time>2017-07-31T08:37:55Z</time>
      </trkpt>
      <trkpt lat="42.44027" lon="0.04304">
        <ele>790</ele>
        <time>2017-07-31T08:37:57Z</time>
      </trkpt>
      <trkpt lat="42.44023" lon="0.04302">
        <ele>790.3</ele>
        <time>2017-07-31T08:37:59Z</time>
      </trkpt>
      <trkpt lat="42.44018" lon="0.04299">
        <ele>790.7</ele>
        <time>2017-07-31T08:38:01Z</time>
      </trkpt>
      <trkpt lat="42.44014" lon="0.04295">
        <ele>791</ele>
        <time>2017-07-31T08:38:03Z</time>
      </trkpt>
      <trkpt lat="42.4401" lon="0.04291">
        <ele>791.4</ele>
        <time>2017-07-31T08:38:05Z</time>
      </trkpt>
      <trkpt lat="42.44006" lon="0.04288">
        <ele>791.8</ele>
        <time>2017-07-31T08:38:07Z</time>
      </trkpt>
      <trkpt lat="42.44003" lon="0.04285">
        <ele>792.1</ele>
        <time>2017-07-31T08:38:09Z</time>
      </trkpt>
      <trkpt lat="42.43999" lon="0.04282">
        <ele>792.4</ele>
        <time>2017-07-31T08:38:11Z</time>
      </trkpt>
      <trkpt lat="42.43995" lon="0.04278">
        <ele>792.8</ele>
        <time>2017-07-31T08:38:13Z</time>
      </trkpt>
      <trkpt lat="42.43991" lon="0.04275">
        <ele>793.1</ele>
        <time>2017-07-31T08:38:15Z</time>
      </trkpt>
      <trkpt lat="42.43988" lon="0.04271">
        <ele>793.4</ele>
        <time>2017-07-31T08:38:17Z</time>
      </trkpt>
      <trkpt lat="42.43984" lon="0.04267">
        <ele>793.7</ele>
        <time>2017-07-31T08:38:19Z</time>
      </trkpt>
      <trkpt lat="42.4398" lon="0.04264">
        <ele>794</ele>
        <time>2017-07-31T08:38:21Z</time>
      </trkpt>
      <trkpt lat="42.43976" lon="0.04261">
        <ele>794.3</ele>
        <time>2017-07-31T08:38:23Z</time>
      </trkpt>
      <trkpt lat="42.43972" lon="0.04258">
        <ele>794.6</ele>
        <time>2017-07-31T08:38:25Z</time>
      </trkpt>
      <trkpt lat="42.43968" lon="0.04255">
        <ele>794.9</ele>
        <time>2017-07-31T08:38:27Z</time>
      </trkpt>
      <trkpt lat="42.43964" lon="0.04252">
        <ele>795.2</ele>
        <time>2017-07-31T08:38:29Z</time>
      </trkpt>
      <trkpt lat="42.4396" lon="0.04248">
        <ele>795.5</ele>
        <time>2017-07-31T08:38:31Z</time>
      </trkpt>
      <trkpt lat="42.43956" lon="0.04244">
        <ele>795.8</ele>
        <time>2017-07-31T08:38:33Z</time>
      </trkpt>
      <trkpt lat="42.43951" lon="0.04241">
        <ele>796</ele>
        <time>2017-07-31T08:38:35Z</time>
      </trkpt>
      <trkpt lat="42.43947" lon="0.04238">
        <ele>796.3</ele>
        <time>2017-07-31T08:38:37Z</time>
      </trkpt>
      <trkpt lat="42.43943" lon="0.04234">
        <ele>796.6</ele>
        <time>2017-07-31T08:38:39Z</time>
      </trkpt>
      <trkpt lat="42.4394" lon="0.04231">
        <ele>796.9</ele>
        <time>2017-07-31T08:38:41Z</time>
      </trkpt>
      <trkpt lat="42.43936" lon="0.04227">
        <ele>797.1</ele>
        <time>2017-07-31T08:38:43Z</time>
      </trkpt>
      <trkpt lat="42.43932" lon="0.04224">
        <ele>797.4</ele>
        <time>2017-07-31T08:38:45Z</time>
      </trkpt>
      <trkpt lat="42.43929" lon="0.0422">
        <ele>797.7</ele>
        <time>2017-07-31T08:38:47Z</time>
      </trkpt>
      <trkpt lat="42.43925" lon="0.04217">
        <ele>798</ele>
        <time>2017-07-31T08:38:49Z</time>
      </trkpt>
      <trkpt lat="42.43921" lon="0.04214">
        <ele>798.3</ele>
        <time>2017-07-31T08:38:51Z</time>
      </trkpt>
      <trkpt lat="42.43918" lon="0.0421">
        <ele>798.6</ele>
        <time>2017-07-31T08:38:53Z</time>
      </trkpt>
      <trkpt lat="42.43914" lon="0.04207">
        <ele>799</ele>
        <time>2017-07-31T08:38:55Z</time>
      </trkpt>
      <trkpt lat="42.4391" lon="0.04204">
        <ele>799.3</ele>
        <time>2017-07-31T08:38:57Z</time>
      </trkpt>
      <trkpt lat="42.43906" lon="0.04201">
        <ele>799.7</ele>
        <time>2017-07-31T08:38:59Z</time>
      </trkpt>
      <trkpt lat="42.43903" lon="0.04198">
        <ele>800</ele>
        <time>2017-07-31T08:39:01Z</time>
      </trkpt>
      <trkpt lat="42.43899" lon="0.04194">
        <ele>800.5</ele>
        <time>2017-07-31T08:39:03Z</time>
      </trkpt>
      <trkpt lat="42.43895" lon="0.04191">
        <ele>800.9</ele>
        <time>2017-07-31T08:39:05Z</time>
      </trkpt>
      <trkpt lat="42.43891" lon="0.04188">
        <ele>801.3</ele>
        <time>2017-07-31T08:39:07Z</time>
      </trkpt>
      <trkpt lat="42.43887" lon="0.04184">
        <ele>801.7</ele>
        <time>2017-07-31T08:39:09Z</time>
      </trkpt>
      <trkpt lat="42.43883" lon="0.04181">
        <ele>802.2</ele>
        <time>2017-07-31T08:39:11Z</time>
      </trkpt>
      <trkpt lat="42.43879" lon="0.04177">
        <ele>802.6</ele>
        <time>2017-07-31T08:39:13Z</time>
      </trkpt>
      <trkpt lat="42.43875" lon="0.04174">
        <ele>803</ele>
        <time>2017-07-31T08:39:15Z</time>
      </trkpt>
      <trkpt lat="42.43872" lon="0.0417">
        <ele>803.3</ele>
        <time>2017-07-31T08:39:17Z</time>
      </trkpt>
      <trkpt lat="42.43868" lon="0.04167">
        <ele>803.7</ele>
        <time>2017-07-31T08:39:19Z</time>
      </trkpt>
      <trkpt lat="42.43865" lon="0.04165">
        <ele>804</ele>
        <time>2017-07-31T08:39:21Z</time>
      </trkpt>
      <trkpt lat="42.43861" lon="0.04161">
        <ele>804.3</ele>
        <time>2017-07-31T08:39:23Z</time>
      </trkpt>
      <trkpt lat="42.43857" lon="0.04159">
        <ele>804.7</ele>
        <time>2017-07-31T08:39:25Z</time>
      </trkpt>
      <trkpt lat="42.43853" lon="0.04158">
        <ele>805</ele>
        <time>2017-07-31T08:39:27Z</time>
      </trkpt>
      <trkpt lat="42.43849" lon="0.04156">
        <ele>805.4</ele>
        <time>2017-07-31T08:39:29Z</time>
      </trkpt>
      <trkpt lat="42.43845" lon="0.04153">
        <ele>805.7</ele>
        <time>2017-07-31T08:39:31Z</time>
      </trkpt>
      <trkpt lat="42.43841" lon="0.04151">
        <ele>806.1</ele>
        <time>2017-07-31T08:39:33Z</time>
      </trkpt>
      <trkpt lat="42.43837" lon="0.0415">
        <ele>806.4</ele>
        <time>2017-07-31T08:39:35Z</time>
      </trkpt>
      <trkpt lat="42.43833" lon="0.04148">
        <ele>806.7</ele>
        <time>2017-07-31T08:39:37Z</time>
      </trkpt>
      <trkpt lat="42.43829" lon="0.04147">
        <ele>807.1</ele>
        <time>2017-07-31T08:39:39Z</time>
      </trkpt>
      <trkpt lat="42.43824" lon="0.04146">
        <ele>807.5</ele>
        <time>2017-07-31T08:39:41Z</time>
      </trkpt>
      <trkpt lat="42.4382" lon="0.04145">
        <ele>807.9</ele>
        <time>2017-07-31T08:39:43Z</time>
      </trkpt>
      <trkpt lat="42.43816" lon="0.04144">
        <ele>808.3</ele>
        <time>2017-07-31T08:39:45Z</time>
      </trkpt>
      <trkpt lat="42.43812" lon="0.04141">
        <ele>808.7</ele>
        <time>2017-07-31T08:39:47Z</time>
      </trkpt>
      <trkpt lat="42.43808" lon="0.04138">
        <ele>809.1</ele>
        <time>2017-07-31T08:39:49Z</time>
      </trkpt>
      <trkpt lat="42.43805" lon="0.04133">
        <ele>809.5</ele>
        <time>2017-07-31T08:39:51Z</time>
      </trkpt>
      <trkpt lat="42.43802" lon="0.04128">
        <ele>810</ele>
        <time>2017-07-31T08:39:53Z</time>
      </trkpt>
      <trkpt lat="42.43799" lon="0.04123">
        <ele>810.5</ele>
        <time>2017-07-31T08:39:55Z</time>
      </trkpt>
      <trkpt lat="42.43797" lon="0.04117">
        <ele>810.9</ele>
        <time>2017-07-31T08:39:57Z</time>
      </trkpt>
      <trkpt lat="42.43795" lon="0.04111">
        <ele>811.4</ele>
        <time>2017-07-31T08:39:59Z</time>
      </trkpt>
      <trkpt lat="42.43793" lon="0.04105">
        <ele>811.8</ele>
        <time>2017-07-31T08:40:01Z</time>
      </trkpt>
      <trkpt lat="42.4379" lon="0.041">
        <ele>812.2</ele>
        <time>2017-07-31T08:40:03Z</time>
      </trkpt>
      <trkpt lat="42.43787" lon="0.04096">
        <ele>812.6</ele>
        <time>2017-07-31T08:40:05Z</time>
      </trkpt>
      <trkpt lat="42.43785" lon="0.04091">
        <ele>812.9</ele>
        <time>2017-07-31T08:40:07Z</time>
      </trkpt>
      <trkpt lat="42.43782" lon="0.04087">
        <ele>813.3</ele>
        <time>2017-07-31T08:40:09Z</time>
      </trkpt>
      <trkpt lat="42.43779" lon="0.04082">
        <ele>813.7</ele>
        <time>2017-07-31T08:40:11Z</time>
      </trkpt>
      <trkpt lat="42.43776" lon="0.04078">
        <ele>814.1</ele>
        <time>2017-07-31T08:40:13Z</time>
      </trkpt>
      <trkpt lat="42.43773" lon="0.04074">
        <ele>814.5</ele>
        <time>2017-07-31T08:40:15Z</time>
      </trkpt>
      <trkpt lat="42.4377" lon="0.04071">
        <ele>814.8</ele>
        <time>2017-07-31T08:40:17Z</time>
      </trkpt>
      <trkpt lat="42.43766" lon="0.04067">
        <ele>815.2</ele>
        <time>2017-07-31T08:40:19Z</time>
      </trkpt>
      <trkpt lat="42.43762" lon="0.04064">
        <ele>815.7</ele>
        <time>2017-07-31T08:40:21Z</time>
      </trkpt>
      <trkpt lat="42.43758" lon="0.04061">
        <ele>816.1</ele>
        <time>2017-07-31T08:40:23Z</time>
      </trkpt>
      <trkpt lat="42.43754" lon="0.04059">
        <ele>816.5</ele>
        <time>2017-07-31T08:40:25Z</time>
      </trkpt>
      <trkpt lat="42.4375" lon="0.04056">
        <ele>816.9</ele>
        <time>2017-07-31T08:40:27Z</time>
      </trkpt>
      <trkpt lat="42.43747" lon="0.04053">
        <ele>817.3</ele>
        <time>2017-07-31T08:40:29Z</time>
      </trkpt>
      <trkpt lat="42.43743" lon="0.04051">
        <ele>817.7</ele>
        <time>2017-07-31T08:40:31Z</time>
      </trkpt>
      <trkpt lat="42.43739" lon="0.04048">
        <ele>818.1</ele>
        <time>2017-07-31T08:40:33Z</time>
      </trkpt>
      <trkpt lat="42.43736" lon="0.04045">
        <ele>818.5</ele>
        <time>2017-07-31T08:40:35Z</time>
      </trkpt>
      <trkpt lat="42.43733" lon="0.04041">
        <ele>818.9</ele>
        <time>2017-07-31T08:40:37Z</time>
      </trkpt>
      <trkpt lat="42.4373" lon="0.04036">
        <ele>819.3</ele>
        <time>2017-07-31T08:40:39Z</time>
      </trkpt>
      <trkpt lat="42.43728" lon="0.04032">
        <ele>819.6</ele>
        <time>2017-07-31T08:40:41Z</time>
      </trkpt>
      <trkpt lat="42.43726" lon="0.04027">
        <ele>820</ele>
        <time>2017-07-31T08:40:43Z</time>
      </trkpt>
      <trkpt lat="42.43724" lon="0.04022">
        <ele>820.4</ele>
        <time>2017-07-31T08:40:45Z</time>
      </trkpt>
      <trkpt lat="42.43722" lon="0.04018">
        <ele>820.7</ele>
        <time>2017-07-31T08:40:47Z</time>
      </trkpt>
      <trkpt lat="42.43719" lon="0.04013">
        <ele>821.1</ele>
        <time>2017-07-31T08:40:49Z</time>
      </trkpt>
      <trkpt lat="42.43716" lon="0.04009">
        <ele>821.5</ele>
        <time>2017-07-31T08:40:51Z</time>
      </trkpt>
      <trkpt lat="42.43714" lon="0.04005">
        <ele>821.9</ele>
        <time>2017-07-31T08:40:53Z</time>
      </trkpt>
      <trkpt lat="42.43712" lon="0.03999">
        <ele>822.3</ele>
        <time>2017-07-31T08:40:55Z</time>
      </trkpt>
      <trkpt lat="42.4371" lon="0.03994">
        <ele>822.6</ele>
        <time>2017-07-31T08:40:57Z</time>
      </trkpt>
      <trkpt lat="42.43709" lon="0.0399">
        <ele>822.9</ele>
        <time>2017-07-31T08:40:59Z</time>
      </trkpt>
      <trkpt lat="42.43707" lon="0.03986">
        <ele>823.2</ele>
        <time>2017-07-31T08:41:01Z</time>
      </trkpt>
      <trkpt lat="42.43705" lon="0.03982">
        <ele>823.5</ele>
        <time>2017-07-31T08:41:03Z</time>
      </trkpt>
      <trkpt lat="42.43702" lon="0.03978">
        <ele>823.9</ele>
        <time>2017-07-31T08:41:05Z</time>
      </trkpt>
      <trkpt lat="42.43699" lon="0.03975">
        <ele>824.2</ele>
        <time>2017-07-31T08:41:07Z</time>
      </trkpt>
      <trkpt lat="42.43696" lon="0.03973">
        <ele>824.5</ele>
        <time>2017-07-31T08:41:09Z</time>
      </trkpt>
      <trkpt lat="42.43692" lon="0.0397">
        <ele>824.9</ele>
        <time>2017-07-31T08:41:11Z</time>
      </trkpt>
      <trkpt lat="42.43689" lon="0.03968">
        <ele>825.2</ele>
        <time>2017-07-31T08:41:13Z</time>
      </trkpt>
      <trkpt lat="42.43685" lon="0.03966">
        <ele>825.6</ele>
        <time>2017-07-31T08:41:15Z</time>
      </trkpt>
      <trkpt lat="42.43682" lon="0.03964">
        <ele>825.9</ele>
        <time>2017-07-31T08:41:17Z</time>
      </trkpt>
      <trkpt lat="42.43678" lon="0.03961">
        <ele>826.3</ele>
        <time>2017-07-31T08:41:19Z</time>
      </trkpt>
      <trkpt lat="42.43675" lon="0.03958">
        <ele>826.7</ele>
        <time>2017-07-31T08:41:21Z</time>
      </trkpt>
      <trkpt lat="42.43671" lon="0.03955">
        <ele>827.1</ele>
        <time>2017-07-31T08:41:23Z</time>
      </trkpt>
      <trkpt lat="42.43668" lon="0.03951">
        <ele>827.5</ele>
        <time>2017-07-31T08:41:25Z</time>
      </trkpt>
      <trkpt lat="42.43665" lon="0.03948">
        <ele>827.9</ele>
        <time>2017-07-31T08:41:27Z</time>
      </trkpt>
      <trkpt lat="42.43662" lon="0.03945">
        <ele>828.3</ele>
        <time>2017-07-31T08:41:29Z</time>
      </trkpt>
      <trkpt lat="42.43659" lon="0.03942">
        <ele>828.7</ele>
        <time>2017-07-31T08:41:31Z</time>
      </trkpt>
      <trkpt lat="42.43657" lon="0.03937">
        <ele>829.1</ele>
        <time>2017-07-31T08:41:33Z</time>
      </trkpt>
      <trkpt lat="42.43654" lon="0.03933">
        <ele>829.4</ele>
        <time>2017-07-31T08:41:35Z</time>
      </trkpt>
      <trkpt lat="42.43652" lon="0.03928">
        <ele>829.8</ele>
        <time>2017-07-31T08:41:37Z</time>
      </trkpt>
      <trkpt lat="42.43651" lon="0.03923">
        <ele>830.2</ele>
        <time>2017-07-31T08:41:39Z</time>
      </trkpt>
      <trkpt lat="42.43649" lon="0.03918">
        <ele>830.6</ele>
        <time>2017-07-31T08:41:41Z</time>
      </trkpt>
      <trkpt lat="42.43647" lon="0.03912">
        <ele>831</ele>
        <time>2017-07-31T08:41:43Z</time>
      </trkpt>
      <trkpt lat="42.43646" lon="0.03907">
        <ele>831.4</ele>
        <time>2017-07-31T08:41:45Z</time>
      </trkpt>
      <trkpt lat="42.43644" lon="0.03901">
        <ele>831.7</ele>
        <time>2017-07-31T08:41:47Z</time>
      </trkpt>
      <trkpt lat="42.43642" lon="0.03895">
        <ele>832.1</ele>
        <time>2017-07-31T08:41:49Z</time>
      </trkpt>
      <trkpt lat="42.4364" lon="0.03889">
        <ele>832.5</ele>
        <time>2017-07-31T08:41:51Z</time>
      </trkpt>
      <trkpt lat="42.43639" lon="0.03884">
        <ele>832.8</ele>
        <time>2017-07-31T08:41:53Z</time>
      </trkpt>
      <trkpt lat="42.43637" lon="0.03879">
        <ele>833.2</ele>
        <time>2017-07-31T08:41:55Z</time>
      </trkpt>
      <trkpt lat="42.43635" lon="0.03873">
        <ele>833.5</ele>
        <time>2017-07-31T08:41:57Z</time>
      </trkpt>
      <trkpt lat="42.43634" lon="0.03867">
        <ele>833.9</ele>
        <time>2017-07-31T08:41:59Z</time>
      </trkpt>
      <trkpt lat="42.43632" lon="0.03862">
        <ele>834.2</ele>
        <time>2017-07-31T08:42:01Z</time>
      </trkpt>
      <trkpt lat="42.43632" lon="0.03856">
        <ele>834.6</ele>
        <time>2017-07-31T08:42:03Z</time>
      </trkpt>
      <trkpt lat="42.43632" lon="0.0385">
        <ele>835</ele>
        <time>2017-07-31T08:42:05Z</time>
      </trkpt>
      <trkpt lat="42.43632" lon="0.03844">
        <ele>835.4</ele>
        <time>2017-07-31T08:42:07Z</time>
      </trkpt>
      <trkpt lat="42.43633" lon="0.03839">
        <ele>835.8</ele>
        <time>2017-07-31T08:42:09Z</time>
      </trkpt>
      <trkpt lat="42.43635" lon="0.03833">
        <ele>836.2</ele>
        <time>2017-07-31T08:42:11Z</time>
      </trkpt>
      <trkpt lat="42.43635" lon="0.03827">
        <ele>836.6</ele>
        <time>2017-07-31T08:42:13Z</time>
      </trkpt>
      <trkpt lat="42.43635" lon="0.03821">
        <ele>837</ele>
        <time>2017-07-31T08:42:15Z</time>
      </trkpt>
      <trkpt lat="42.43634" lon="0.03815">
        <ele>837.4</ele>
        <time>2017-07-31T08:42:17Z</time>
      </trkpt>
      <trkpt lat="42.43633" lon="0.03809">
        <ele>837.9</ele>
        <time>2017-07-31T08:42:19Z</time>
      </trkpt>
      <trkpt lat="42.4363" lon="0.03803">
        <ele>838.4</ele>
        <time>2017-07-31T08:42:21Z</time>
      </trkpt>
      <trkpt lat="42.43628" lon="0.03797">
        <ele>838.9</ele>
        <time>2017-07-31T08:42:23Z</time>
      </trkpt>
      <trkpt lat="42.43626" lon="0.03792">
        <ele>839.3</ele>
        <time>2017-07-31T08:42:25Z</time>
      </trkpt>
      <trkpt lat="42.43623" lon="0.03787">
        <ele>839.7</ele>
        <time>2017-07-31T08:42:27Z</time>
      </trkpt>
      <trkpt lat="42.4362" lon="0.03783">
        <ele>840.2</ele>
        <time>2017-07-31T08:42:29Z</time>
      </trkpt>
      <trkpt lat="42.43616" lon="0.0378">
        <ele>840.6</ele>
        <time>2017-07-31T08:42:31Z</time>
      </trkpt>
      <trkpt lat="42.43613" lon="0.03776">
        <ele>840.9</ele>
        <time>2017-07-31T08:42:33Z</time>
      </trkpt>
      <trkpt lat="42.43609" lon="0.03772">
        <ele>841.3</ele>
        <time>2017-07-31T08:42:35Z</time>
      </trkpt>
      <trkpt lat="42.43606" lon="0.03768">
        <ele>841.7</ele>
        <time>2017-07-31T08:42:37Z</time>
      </trkpt>
      <trkpt lat="42.43603" lon="0.03763">
        <ele>842.1</ele>
        <time>2017-07-31T08:42:39Z</time>
      </trkpt>
      <trkpt lat="42.436" lon="0.03759">
        <ele>842.5</ele>
        <time>2017-07-31T08:42:41Z</time>
      </trkpt>
      <trkpt lat="42.43597" lon="0.03754">
        <ele>842.8</ele>
        <time>2017-07-31T08:42:43Z</time>
      </trkpt>
      <trkpt lat="42.43594" lon="0.03749">
        <ele>843.2</ele>
        <time>2017-07-31T08:42:45Z</time>
      </trkpt>
      <trkpt lat="42.43591" lon="0.03744">
        <ele>843.5</ele>
        <time>2017-07-31T08:42:47Z</time>
      </trkpt>
      <trkpt lat="42.43589" lon="0.03739">
        <ele>843.9</ele>
        <time>2017-07-31T08:42:49Z</time>
      </trkpt>
      <trkpt lat="42.43587" lon="0.03734">
        <ele>844.3</ele>
        <time>2017-07-31T08:42:51Z</time>
      </trkpt>
      <trkpt lat="42.43584" lon="0.03729">
        <ele>844.6</ele>
        <time>2017-07-31T08:42:53Z</time>
      </trkpt>
      <trkpt lat="42.43582" lon="0.03725">
        <ele>845</ele>
        <time>2017-07-31T08:42:55Z</time>
      </trkpt>
      <trkpt lat="42.43579" lon="0.0372">
        <ele>845.4</ele>
        <time>2017-07-31T08:42:57Z</time>
      </trkpt>
      <trkpt lat="42.43578" lon="0.03714">
        <ele>845.9</ele>
        <time>2017-07-31T08:42:59Z</time>
      </trkpt>
      <trkpt lat="42.43576" lon="0.03709">
        <ele>846.3</ele>
        <time>2017-07-31T08:43:01Z</time>
      </trkpt>
      <trkpt lat="42.43575" lon="0.03703">
        <ele>846.7</ele>
        <time>2017-07-31T08:43:03Z</time>
      </trkpt>
      <trkpt lat="42.43574" lon="0.03697">
        <ele>847.2</ele>
        <time>2017-07-31T08:43:05Z</time>
      </trkpt>
      <trkpt lat="42.43574" lon="0.03691">
        <ele>847.6</ele>
        <time>2017-07-31T08:43:07Z</time>
      </trkpt>
      <trkpt lat="42.43574" lon="0.03685">
        <ele>848.1</ele>
        <time>2017-07-31T08:43:09Z</time>
      </trkpt>
      <trkpt lat="42.43574" lon="0.03679">
        <ele>848.6</ele>
        <time>2017-07-31T08:43:11Z</time>
      </trkpt>
      <trkpt lat="42.43575" lon="0.03673">
        <ele>849</ele>
        <time>2017-07-31T08:43:13Z</time>
      </trkpt>
      <trkpt lat="42.43578" lon="0.03667">
        <ele>849.4</ele>
        <time>2017-07-31T08:43:15Z</time>
      </trkpt>
      <trkpt lat="42.4358" lon="0.03662">
        <ele>849.9</ele>
        <time>2017-07-31T08:43:17Z</time>
      </trkpt>
      <trkpt lat="42.43582" lon="0.03657">
        <ele>850.4</ele>
        <time>2017-07-31T08:43:19Z</time>
      </trkpt>
      <trkpt lat="42.43585" lon="0.03652">
        <ele>850.9</ele>
        <time>2017-07-31T08:43:21Z</time>
      </trkpt>
      <trkpt lat="42.43588" lon="0.03648">
        <ele>851.3</ele>
        <time>2017-07-31T08:43:23Z</time>
      </trkpt>
      <trkpt lat="42.4359" lon="0.03643">
        <ele>851.8</ele>
        <time>2017-07-31T08:43:25Z</time>
      </trkpt>
      <trkpt lat="42.43593" lon="0.03638">
        <ele>852.3</ele>
        <time>2017-07-31T08:43:27Z</time>
      </trkpt>
      <trkpt lat="42.43595" lon="0.03633">
        <ele>852.7</ele>
        <time>2017-07-31T08:43:29Z</time>
      </trkpt>
      <trkpt lat="42.43596" lon="0.03628">
        <ele>853.1</ele>
        <time>2017-07-31T08:43:31Z</time>
      </trkpt>
      <trkpt lat="42.43597" lon="0.03622">
        <ele>853.5</ele>
        <time>2017-07-31T08:43:33Z</time>
      </trkpt>
      <trkpt lat="42.43597" lon="0.03617">
        <ele>853.9</ele>
        <time>2017-07-31T08:43:35Z</time>
      </trkpt>
      <trkpt lat="42.43597" lon="0.03611">
        <ele>854.3</ele>
        <time>2017-07-31T08:43:37Z</time>
      </trkpt>
      <trkpt lat="42.43596" lon="0.03605">
        <ele>854.7</ele>
        <time>2017-07-31T08:43:39Z</time>
      </trkpt>
      <trkpt lat="42.43596" lon="0.03599">
        <ele>855.1</ele>
        <time>2017-07-31T08:43:41Z</time>
      </trkpt>
      <trkpt lat="42.43595" lon="0.03593">
        <ele>855.5</ele>
        <time>2017-07-31T08:43:43Z</time>
      </trkpt>
      <trkpt lat="42.43594" lon="0.03588">
        <ele>855.9</ele>
        <time>2017-07-31T08:43:45Z</time>
      </trkpt>
      <trkpt lat="42.43591" lon="0.03583">
        <ele>856.3</ele>
        <time>2017-07-31T08:43:47Z</time>
      </trkpt>
      <trkpt lat="42.43588" lon="0.03578">
        <ele>856.6</ele>
        <time>2017-07-31T08:43:49Z</time>
      </trkpt>
      <trkpt lat="42.43585" lon="0.03574">
        <ele>857</ele>
        <time>2017-07-31T08:43:51Z</time>
      </trkpt>
      <trkpt lat="42.43581" lon="0.0357">
        <ele>857.3</ele>
        <time>2017-07-31T08:43:53Z</time>
      </trkpt>
      <trkpt lat="42.43578" lon="0.03566">
        <ele>857.6</ele>
        <time>2017-07-31T08:43:55Z</time>
      </trkpt>
      <trkpt lat="42.43574" lon="0.03563">
        <ele>857.9</ele>
        <time>2017-07-31T08:43:57Z</time>
      </trkpt>
      <trkpt lat="42.4357" lon="0.0356">
        <ele>858.2</ele>
        <time>2017-07-31T08:43:59Z</time>
      </trkpt>
      <trkpt lat="42.43566" lon="0.03557">
        <ele>858.5</ele>
        <time>2017-07-31T08:44:01Z</time>
      </trkpt>
      <trkpt lat="42.43562" lon="0.03554">
        <ele>858.8</ele>
        <time>2017-07-31T08:44:03Z</time>
      </trkpt>
      <trkpt lat="42.43558" lon="0.0355">
        <ele>859</ele>
        <time>2017-07-31T08:44:05Z</time>
      </trkpt>
      <trkpt lat="42.43554" lon="0.03547">
        <ele>859.2</ele>
        <time>2017-07-31T08:44:07Z</time>
      </trkpt>
      <trkpt lat="42.4355" lon="0.03545">
        <ele>859.5</ele>
        <time>2017-07-31T08:44:09Z</time>
      </trkpt>
      <trkpt lat="42.43547" lon="0.03541">
        <ele>859.7</ele>
        <time>2017-07-31T08:44:11Z</time>
      </trkpt>
      <trkpt lat="42.43543" lon="0.03537">
        <ele>859.9</ele>
        <time>2017-07-31T08:44:13Z</time>
      </trkpt>
      <trkpt lat="42.4354" lon="0.03532">
        <ele>860.1</ele>
        <time>2017-07-31T08:44:15Z</time>
      </trkpt>
      <trkpt lat="42.43536" lon="0.03527">
        <ele>860.3</ele>
        <time>2017-07-31T08:44:17Z</time>
      </trkpt>
      <trkpt lat="42.43533" lon="0.03522">
        <ele>860.5</ele>
        <time>2017-07-31T08:44:19Z</time>
      </trkpt>
      <trkpt lat="42.43531" lon="0.03516">
        <ele>860.7</ele>
        <time>2017-07-31T08:44:21Z</time>
      </trkpt>
      <trkpt lat="42.43528" lon="0.03511">
        <ele>860.9</ele>
        <time>2017-07-31T08:44:23Z</time>
      </trkpt>
      <trkpt lat="42.43527" lon="0.03506">
        <ele>861.1</ele>
        <time>2017-07-31T08:44:25Z</time>
      </trkpt>
      <trkpt lat="42.43525" lon="0.03499">
        <ele>861.3</ele>
        <time>2017-07-31T08:44:27Z</time>
      </trkpt>
      <trkpt lat="42.43523" lon="0.03494">
        <ele>861.5</ele>
        <time>2017-07-31T08:44:29Z</time>
      </trkpt>
      <trkpt lat="42.43521" lon="0.03488">
        <ele>861.8</ele>
        <time>2017-07-31T08:44:31Z</time>
      </trkpt>
      <trkpt lat="42.43519" lon="0.03482">
        <ele>862</ele>
        <time>2017-07-31T08:44:33Z</time>
      </trkpt>
      <trkpt lat="42.43517" lon="0.03477">
        <ele>862.2</ele>
        <time>2017-07-31T08:44:35Z</time>
      </trkpt>
      <trkpt lat="42.43515" lon="0.03471">
        <ele>862.5</ele>
        <time>2017-07-31T08:44:37Z</time>
      </trkpt>
      <trkpt lat="42.43513" lon="0.03466">
        <ele>862.8</ele>
        <time>2017-07-31T08:44:39Z</time>
      </trkpt>
      <trkpt lat="42.43511" lon="0.0346">
        <ele>863.1</ele>
        <time>2017-07-31T08:44:41Z</time>
      </trkpt>
      <trkpt lat="42.43509" lon="0.03454">
        <ele>863.3</ele>
        <time>2017-07-31T08:44:43Z</time>
      </trkpt>
      <trkpt lat="42.43507" lon="0.03448">
        <ele>863.6</ele>
        <time>2017-07-31T08:44:45Z</time>
      </trkpt>
      <trkpt lat="42.43504" lon="0.03443">
        <ele>863.9</ele>
        <time>2017-07-31T08:44:47Z</time>
      </trkpt>
      <trkpt lat="42.43502" lon="0.03438">
        <ele>864.2</ele>
        <time>2017-07-31T08:44:49Z</time>
      </trkpt>
      <trkpt lat="42.435" lon="0.03433">
        <ele>864.5</ele>
        <time>2017-07-31T08:44:51Z</time>
      </trkpt>
      <trkpt lat="42.43498" lon="0.03428">
        <ele>864.7</ele>
        <time>2017-07-31T08:44:53Z</time>
      </trkpt>
      <trkpt lat="42.43495" lon="0.03422">
        <ele>865.1</ele>
        <time>2017-07-31T08:44:55Z</time>
      </trkpt>
      <trkpt lat="42.43494" lon="0.03416">
        <ele>865.4</ele>
        <time>2017-07-31T08:44:57Z</time>
      </trkpt>
      <trkpt lat="42.43492" lon="0.0341">
        <ele>865.7</ele>
        <time>2017-07-31T08:44:59Z</time>
      </trkpt>
      <trkpt lat="42.43491" lon="0.03404">
        <ele>866</ele>
        <time>2017-07-31T08:45:01Z</time>
      </trkpt>
      <trkpt lat="42.43489" lon="0.03398">
        <ele>866.3</ele>
        <time>2017-07-31T08:45:03Z</time>
      </trkpt>
      <trkpt lat="42.43488" lon="0.03392">
        <ele>866.6</ele>
        <time>2017-07-31T08:45:05Z</time>
      </trkpt>
      <trkpt lat="42.43486" lon="0.03386">
        <ele>866.9</ele>
        <time>2017-07-31T08:45:07Z</time>
      </trkpt>
      <trkpt lat="42.43485" lon="0.0338">
        <ele>867.3</ele>
        <time>2017-07-31T08:45:09Z</time>
      </trkpt>
      <trkpt lat="42.43483" lon="0.03374">
        <ele>867.6</ele>
        <time>2017-07-31T08:45:11Z</time>
      </trkpt>
      <trkpt lat="42.43481" lon="0.03369">
        <ele>867.9</ele>
        <time>2017-07-31T08:45:13Z</time>
      </trkpt>
      <trkpt lat="42.43479" lon="0.03363">
        <ele>868.3</ele>
        <time>2017-07-31T08:45:15Z</time>
      </trkpt>
      <trkpt lat="42.43478" lon="0.03357">
        <ele>868.6</ele>
        <time>2017-07-31T08:45:17Z</time>
      </trkpt>
      <trkpt lat="42.43477" lon="0.03351">
        <ele>869</ele>
        <time>2017-07-31T08:45:19Z</time>
      </trkpt>
      <trkpt lat="42.43476" lon="0.03344">
        <ele>869.4</ele>
        <time>2017-07-31T08:45:21Z</time>
      </trkpt>
      <trkpt lat="42.43474" lon="0.03338">
        <ele>869.8</ele>
        <time>2017-07-31T08:45:23Z</time>
      </trkpt>
      <trkpt lat="42.43474" lon="0.03332">
        <ele>870.2</ele>
        <time>2017-07-31T08:45:25Z</time>
      </trkpt>
      <trkpt lat="42.43474" lon="0.03326">
        <ele>870.5</ele>
        <time>2017-07-31T08:45:27Z</time>
      </trkpt>
      <trkpt lat="42.43473" lon="0.0332">
        <ele>870.9</ele>
        <time>2017-07-31T08:45:29Z</time>
      </trkpt>
      <trkpt lat="42.43474" lon="0.03315">
        <ele>871.3</ele>
        <time>2017-07-31T08:45:31Z</time>
      </trkpt>
      <trkpt lat="42.43475" lon="0.03309">
        <ele>871.7</ele>
        <time>2017-07-31T08:45:33Z</time>
      </trkpt>
      <trkpt lat="42.43477" lon="0.03303">
        <ele>872.1</ele>
        <time>2017-07-31T08:45:35Z</time>
      </trkpt>
      <trkpt lat="42.43478" lon="0.03297">
        <ele>872.5</ele>
        <time>2017-07-31T08:45:37Z</time>
      </trkpt>
      <trkpt lat="42.4348" lon="0.03292">
        <ele>873</ele>
        <time>2017-07-31T08:45:39Z</time>
      </trkpt>
      <trkpt lat="42.43482" lon="0.03287">
        <ele>873.4</ele>
        <time>2017-07-31T08:45:41Z</time>
      </trkpt>
      <trkpt lat="42.43484" lon="0.03284">
        <ele>873.7</ele>
        <time>2017-07-31T08:45:42Z</time>
      </trkpt>
      <trkpt lat="42.43488" lon="0.03279">
        <ele>874.1</ele>
        <time>2017-07-31T08:45:44Z</time>
      </trkpt>
      <trkpt lat="42.4349" lon="0.03276">
        <ele>874.4</ele>
        <time>2017-07-31T08:45:45Z</time>
      </trkpt>
      <trkpt lat="42.43493" lon="0.03271">
        <ele>874.8</ele>
        <time>2017-07-31T08:45:47Z</time>
      </trkpt>
      <trkpt lat="42.43496" lon="0.03267">
        <ele>875.1</ele>
        <time>2017-07-31T08:45:49Z</time>
      </trkpt>
      <trkpt lat="42.435" lon="0.03263">
        <ele>875.5</ele>
        <time>2017-07-31T08:45:51Z</time>
      </trkpt>
      <trkpt lat="42.43503" lon="0.03259">
        <ele>875.8</ele>
        <time>2017-07-31T08:45:53Z</time>
      </trkpt>
      <trkpt lat="42.43506" lon="0.03254">
        <ele>876.1</ele>
        <time>2017-07-31T08:45:55Z</time>
      </trkpt>
      <trkpt lat="42.43509" lon="0.03249">
        <ele>876.4</ele>
        <time>2017-07-31T08:45:57Z</time>
      </trkpt>
      <trkpt lat="42.43511" lon="0.03244">
        <ele>876.7</ele>
        <time>2017-07-31T08:45:59Z</time>
      </trkpt>
      <trkpt lat="42.43513" lon="0.03239">
        <ele>877</ele>
        <time>2017-07-31T08:46:01Z</time>
      </trkpt>
      <trkpt lat="42.43514" lon="0.03233">
        <ele>877.3</ele>
        <time>2017-07-31T08:46:03Z</time>
      </trkpt>
      <trkpt lat="42.43515" lon="0.03227">
        <ele>877.6</ele>
        <time>2017-07-31T08:46:05Z</time>
      </trkpt>
      <trkpt lat="42.43514" lon="0.03221">
        <ele>877.8</ele>
        <time>2017-07-31T08:46:07Z</time>
      </trkpt>
      <trkpt lat="42.43513" lon="0.03215">
        <ele>878.1</ele>
        <time>2017-07-31T08:46:09Z</time>
      </trkpt>
      <trkpt lat="42.43512" lon="0.03209">
        <ele>878.5</ele>
        <time>2017-07-31T08:46:11Z</time>
      </trkpt>
      <trkpt lat="42.4351" lon="0.03204">
        <ele>878.8</ele>
        <time>2017-07-31T08:46:13Z</time>
      </trkpt>
      <trkpt lat="42.43507" lon="0.03199">
        <ele>879.2</ele>
        <time>2017-07-31T08:46:15Z</time>
      </trkpt>
      <trkpt lat="42.43503" lon="0.03195">
        <ele>879.6</ele>
        <time>2017-07-31T08:46:17Z</time>
      </trkpt>
      <trkpt lat="42.43499" lon="0.03192">
        <ele>880.1</ele>
        <time>2017-07-31T08:46:19Z</time>
      </trkpt>
      <trkpt lat="42.43495" lon="0.03189">
        <ele>880.5</ele>
        <time>2017-07-31T08:46:21Z</time>
      </trkpt>
      <trkpt lat="42.43491" lon="0.03186">
        <ele>880.9</ele>
        <time>2017-07-31T08:46:23Z</time>
      </trkpt>
      <trkpt lat="42.43487" lon="0.03184">
        <ele>881.4</ele>
        <time>2017-07-31T08:46:25Z</time>
      </trkpt>
      <trkpt lat="42.43482" lon="0.03182">
        <ele>881.8</ele>
        <time>2017-07-31T08:46:27Z</time>
      </trkpt>
      <trkpt lat="42.43477" lon="0.03181">
        <ele>882.3</ele>
        <time>2017-07-31T08:46:29Z</time>
      </trkpt>
      <trkpt lat="42.43473" lon="0.03179">
        <ele>882.8</ele>
        <time>2017-07-31T08:46:31Z</time>
      </trkpt>
      <trkpt lat="42.43468" lon="0.03176">
        <ele>883.2</ele>
        <time>2017-07-31T08:46:33Z</time>
      </trkpt>
      <trkpt lat="42.43464" lon="0.03173">
        <ele>883.7</ele>
        <time>2017-07-31T08:46:35Z</time>
      </trkpt>
      <trkpt lat="42.4346" lon="0.03171">
        <ele>884.1</ele>
        <time>2017-07-31T08:46:37Z</time>
      </trkpt>
      <trkpt lat="42.43456" lon="0.03167">
        <ele>884.6</ele>
        <time>2017-07-31T08:46:39Z</time>
      </trkpt>
      <trkpt lat="42.43452" lon="0.03163">
        <ele>885</ele>
        <time>2017-07-31T08:46:41Z</time>
      </trkpt>
      <trkpt lat="42.43449" lon="0.03159">
        <ele>885.5</ele>
        <time>2017-07-31T08:46:43Z</time>
      </trkpt>
      <trkpt lat="42.43446" lon="0.03154">
        <ele>885.9</ele>
        <time>2017-07-31T08:46:45Z</time>
      </trkpt>
      <trkpt lat="42.43444" lon="0.03148">
        <ele>886.3</ele>
        <time>2017-07-31T08:46:47Z</time>
      </trkpt>
      <trkpt lat="42.43443" lon="0.03143">
        <ele>886.8</ele>
        <time>2017-07-31T08:46:49Z</time>
      </trkpt>
      <trkpt lat="42.43442" lon="0.03137">
        <ele>887.2</ele>
        <time>2017-07-31T08:46:51Z</time>
      </trkpt>
      <trkpt lat="42.43441" lon="0.03131">
        <ele>887.6</ele>
        <time>2017-07-31T08:46:53Z</time>
      </trkpt>
      <trkpt lat="42.43441" lon="0.03125">
        <ele>888.1</ele>
        <time>2017-07-31T08:46:55Z</time>
      </trkpt>
      <trkpt lat="42.43441" lon="0.03119">
        <ele>888.5</ele>
        <time>2017-07-31T08:46:57Z</time>
      </trkpt>
      <trkpt lat="42.4344" lon="0.03113">
        <ele>888.9</ele>
        <time>2017-07-31T08:46:59Z</time>
      </trkpt>
      <trkpt lat="42.43439" lon="0.03107">
        <ele>889.4</ele>
        <time>2017-07-31T08:47:01Z</time>
      </trkpt>
      <trkpt lat="42.43438" lon="0.03102">
        <ele>889.8</ele>
        <time>2017-07-31T08:47:03Z</time>
      </trkpt>
      <trkpt lat="42.43437" lon="0.03096">
        <ele>890.2</ele>
        <time>2017-07-31T08:47:05Z</time>
      </trkpt>
      <trkpt lat="42.43435" lon="0.0309">
        <ele>890.6</ele>
        <time>2017-07-31T08:47:07Z</time>
      </trkpt>
      <trkpt lat="42.43433" lon="0.03085">
        <ele>891</ele>
        <time>2017-07-31T08:47:09Z</time>
      </trkpt>
      <trkpt lat="42.4343" lon="0.03079">
        <ele>891.5</ele>
        <time>2017-07-31T08:47:11Z</time>
      </trkpt>
      <trkpt lat="42.43428" lon="0.03074">
        <ele>891.8</ele>
        <time>2017-07-31T08:47:13Z</time>
      </trkpt>
      <trkpt lat="42.43425" lon="0.03069">
        <ele>892.2</ele>
        <time>2017-07-31T08:47:15Z</time>
      </trkpt>
      <trkpt lat="42.43423" lon="0.03065">
        <ele>892.6</ele>
        <time>2017-07-31T08:47:17Z</time>
      </trkpt>
      <trkpt lat="42.4342" lon="0.03059">
        <ele>892.9</ele>
        <time>2017-07-31T08:47:19Z</time>
      </trkpt>
      <trkpt lat="42.43418" lon="0.03055">
        <ele>893.2</ele>
        <time>2017-07-31T08:47:21Z</time>
      </trkpt>
      <trkpt lat="42.43415" lon="0.0305">
        <ele>893.5</ele>
        <time>2017-07-31T08:47:23Z</time>
      </trkpt>
      <trkpt lat="42.43413" lon="0.03045">
        <ele>893.8</ele>
        <time>2017-07-31T08:47:25Z</time>
      </trkpt>
      <trkpt lat="42.4341" lon="0.0304">
        <ele>894.1</ele>
        <time>2017-07-31T08:47:27Z</time>
      </trkpt>
      <trkpt lat="42.43408" lon="0.03035">
        <ele>894.4</ele>
        <time>2017-07-31T08:47:29Z</time>
      </trkpt>
      <trkpt lat="42.43405" lon="0.03029">
        <ele>894.7</ele>
        <time>2017-07-31T08:47:31Z</time>
      </trkpt>
      <trkpt lat="42.43403" lon="0.03024">
        <ele>895</ele>
        <time>2017-07-31T08:47:33Z</time>
      </trkpt>
      <trkpt lat="42.43401" lon="0.03019">
        <ele>895.3</ele>
        <time>2017-07-31T08:47:35Z</time>
      </trkpt>
      <trkpt lat="42.43398" lon="0.03014">
        <ele>895.6</ele>
        <time>2017-07-31T08:47:37Z</time>
      </trkpt>
      <trkpt lat="42.43396" lon="0.0301">
        <ele>895.8</ele>
        <time>2017-07-31T08:47:39Z</time>
      </trkpt>
      <trkpt lat="42.43393" lon="0.03005">
        <ele>896.1</ele>
        <time>2017-07-31T08:47:41Z</time>
      </trkpt>
      <trkpt lat="42.43391" lon="0.03">
        <ele>896.4</ele>
        <time>2017-07-31T08:47:43Z</time>
      </trkpt>
      <trkpt lat="42.43389" lon="0.02995">
        <ele>896.6</ele>
        <time>2017-07-31T08:47:45Z</time>
      </trkpt>
      <trkpt lat="42.43388" lon="0.02991">
        <ele>896.9</ele>
        <time>2017-07-31T08:47:47Z</time>
      </trkpt>
      <trkpt lat="42.43386" lon="0.02986">
        <ele>897.1</ele>
        <time>2017-07-31T08:47:49Z</time>
      </trkpt>
      <trkpt lat="42.43384" lon="0.02981">
        <ele>897.4</ele>
        <time>2017-07-31T08:47:51Z</time>
      </trkpt>
      <trkpt lat="42.43382" lon="0.02976">
        <ele>897.6</ele>
        <time>2017-07-31T08:47:53Z</time>
      </trkpt>
      <trkpt lat="42.43379" lon="0.02971">
        <ele>897.9</ele>
        <time>2017-07-31T08:47:55Z</time>
      </trkpt>
      <trkpt lat="42.43377" lon="0.02966">
        <ele>898.2</ele>
        <time>2017-07-31T08:47:57Z</time>
      </trkpt>
      <trkpt lat="42.43376" lon="0.02961">
        <ele>898.5</ele>
        <time>2017-07-31T08:47:59Z</time>
      </trkpt>
      <trkpt lat="42.43374" lon="0.02956">
        <ele>898.8</ele>
        <time>2017-07-31T08:48:01Z</time>
      </trkpt>
      <trkpt lat="42.43373" lon="0.0295">
        <ele>899.1</ele>
        <time>2017-07-31T08:48:03Z</time>
      </trkpt>
      <trkpt lat="42.43372" lon="0.02944">
        <ele>899.4</ele>
        <time>2017-07-31T08:48:05Z</time>
      </trkpt>
      <trkpt lat="42.43372" lon="0.02939">
        <ele>899.7</ele>
        <time>2017-07-31T08:48:07Z</time>
      </trkpt>
      <trkpt lat="42.43372" lon="0.02933">
        <ele>900</ele>
        <time>2017-07-31T08:48:09Z</time>
      </trkpt>
      <trkpt lat="42.43372" lon="0.02927">
        <ele>900.3</ele>
        <time>2017-07-31T08:48:11Z</time>
      </trkpt>
      <trkpt lat="42.43373" lon="0.02921">
        <ele>900.6</ele>
        <time>2017-07-31T08:48:13Z</time>
      </trkpt>
      <trkpt lat="42.43373" lon="0.02914">
        <ele>901</ele>
        <time>2017-07-31T08:48:15Z</time>
      </trkpt>
      <trkpt lat="42.43375" lon="0.02908">
        <ele>901.3</ele>
        <time>2017-07-31T08:48:17Z</time>
      </trkpt>
      <trkpt lat="42.43376" lon="0.02901">
        <ele>901.7</ele>
        <time>2017-07-31T08:48:19Z</time>
      </trkpt>
      <trkpt lat="42.43376" lon="0.02894">
        <ele>902</ele>
        <time>2017-07-31T08:48:21Z</time>
      </trkpt>
      <trkpt lat="42.43377" lon="0.02888">
        <ele>902.3</ele>
        <time>2017-07-31T08:48:23Z</time>
      </trkpt>
      <trkpt lat="42.43379" lon="0.02882">
        <ele>902.6</ele>
        <time>2017-07-31T08:48:25Z</time>
      </trkpt>
      <trkpt lat="42.43379" lon="0.02876">
        <ele>902.9</ele>
        <time>2017-07-31T08:48:27Z</time>
      </trkpt>
      <trkpt lat="42.4338" lon="0.0287">
        <ele>903.2</ele>
        <time>2017-07-31T08:48:29Z</time>
      </trkpt>
      <trkpt lat="42.4338" lon="0.02864">
        <ele>903.4</ele>
        <time>2017-07-31T08:48:31Z</time>
      </trkpt>
      <trkpt lat="42.43381" lon="0.02858">
        <ele>903.7</ele>
        <time>2017-07-31T08:48:33Z</time>
      </trkpt>
      <trkpt lat="42.43382" lon="0.02852">
        <ele>903.9</ele>
        <time>2017-07-31T08:48:35Z</time>
      </trkpt>
      <trkpt lat="42.43383" lon="0.02846">
        <ele>904.2</ele>
        <time>2017-07-31T08:48:37Z</time>
      </trkpt>
      <trkpt lat="42.43384" lon="0.0284">
        <ele>904.4</ele>
        <time>2017-07-31T08:48:39Z</time>
      </trkpt>
      <trkpt lat="42.43385" lon="0.02834">
        <ele>904.7</ele>
        <time>2017-07-31T08:48:41Z</time>
      </trkpt>
      <trkpt lat="42.43386" lon="0.02828">
        <ele>904.9</ele>
        <time>2017-07-31T08:48:43Z</time>
      </trkpt>
      <trkpt lat="42.43387" lon="0.02823">
        <ele>905.2</ele>
        <time>2017-07-31T08:48:45Z</time>
      </trkpt>
      <trkpt lat="42.43388" lon="0.02817">
        <ele>905.4</ele>
        <time>2017-07-31T08:48:47Z</time>
      </trkpt>
      <trkpt lat="42.43389" lon="0.02811">
        <ele>905.7</ele>
        <time>2017-07-31T08:48:49Z</time>
      </trkpt>
      <trkpt lat="42.4339" lon="0.02805">
        <ele>905.9</ele>
        <time>2017-07-31T08:48:51Z</time>
      </trkpt>
      <trkpt lat="42.4339" lon="0.02799">
        <ele>906.2</ele>
        <time>2017-07-31T08:48:53Z</time>
      </trkpt>
      <trkpt lat="42.43391" lon="0.02793">
        <ele>906.5</ele>
        <time>2017-07-31T08:48:55Z</time>
      </trkpt>
      <trkpt lat="42.43391" lon="0.02786">
        <ele>906.8</ele>
        <time>2017-07-31T08:48:57Z</time>
      </trkpt>
      <trkpt lat="42.4339" lon="0.02779">
        <ele>907.2</ele>
        <time>2017-07-31T08:48:59Z</time>
      </trkpt>
      <trkpt lat="42.4339" lon="0.02775">
        <ele>907.4</ele>
        <time>2017-07-31T08:49:00Z</time>
      </trkpt>
      <trkpt lat="42.4339" lon="0.02771">
        <ele>907.6</ele>
        <time>2017-07-31T08:49:01Z</time>
      </trkpt>
      <trkpt lat="42.43389" lon="0.02768">
        <ele>907.7</ele>
        <time>2017-07-31T08:49:02Z</time>
      </trkpt>
      <trkpt lat="42.43387" lon="0.02761">
        <ele>908.1</ele>
        <time>2017-07-31T08:49:04Z</time>
      </trkpt>
      <trkpt lat="42.43385" lon="0.02757">
        <ele>908.4</ele>
        <time>2017-07-31T08:49:06Z</time>
      </trkpt>
      <trkpt lat="42.43381" lon="0.02754">
        <ele>908.7</ele>
        <time>2017-07-31T08:49:08Z</time>
      </trkpt>
      <trkpt lat="42.43377" lon="0.02751">
        <ele>909</ele>
        <time>2017-07-31T08:49:10Z</time>
      </trkpt>
      <trkpt lat="42.43373" lon="0.02749">
        <ele>909.3</ele>
        <time>2017-07-31T08:49:12Z</time>
      </trkpt>
      <trkpt lat="42.43369" lon="0.02747">
        <ele>909.6</ele>
        <time>2017-07-31T08:49:14Z</time>
      </trkpt>
      <trkpt lat="42.43365" lon="0.02746">
        <ele>910</ele>
        <time>2017-07-31T08:49:16Z</time>
      </trkpt>
      <trkpt lat="42.4336" lon="0.02744">
        <ele>910.3</ele>
        <time>2017-07-31T08:49:18Z</time>
      </trkpt>
      <trkpt lat="42.43355" lon="0.02743">
        <ele>910.6</ele>
        <time>2017-07-31T08:49:20Z</time>
      </trkpt>
      <trkpt lat="42.43351" lon="0.02743">
        <ele>910.9</ele>
        <time>2017-07-31T08:49:22Z</time>
      </trkpt>
      <trkpt lat="42.43347" lon="0.02743">
        <ele>911.3</ele>
        <time>2017-07-31T08:49:24Z</time>
      </trkpt>
      <trkpt lat="42.43343" lon="0.02744">
        <ele>911.6</ele>
        <time>2017-07-31T08:49:26Z</time>
      </trkpt>
      <trkpt lat="42.43338" lon="0.02745">
        <ele>912</ele>
        <time>2017-07-31T08:49:28Z</time>
      </trkpt>
      <trkpt lat="42.43334" lon="0.02746">
        <ele>912.4</ele>
        <time>2017-07-31T08:49:30Z</time>
      </trkpt>
      <trkpt lat="42.4333" lon="0.02747">
        <ele>912.8</ele>
        <time>2017-07-31T08:49:32Z</time>
      </trkpt>
      <trkpt lat="42.43327" lon="0.02749">
        <ele>913.1</ele>
        <time>2017-07-31T08:49:34Z</time>
      </trkpt>
      <trkpt lat="42.43324" lon="0.02751">
        <ele>913.5</ele>
        <time>2017-07-31T08:49:36Z</time>
      </trkpt>
      <trkpt lat="42.4332" lon="0.02752">
        <ele>913.9</ele>
        <time>2017-07-31T08:49:38Z</time>
      </trkpt>
      <trkpt lat="42.43316" lon="0.02753">
        <ele>914.3</ele>
        <time>2017-07-31T08:49:40Z</time>
      </trkpt>
      <trkpt lat="42.43313" lon="0.02754">
        <ele>914.7</ele>
        <time>2017-07-31T08:49:42Z</time>
      </trkpt>
      <trkpt lat="42.43309" lon="0.02754">
        <ele>915.1</ele>
        <time>2017-07-31T08:49:44Z</time>
      </trkpt>
      <trkpt lat="42.43306" lon="0.02754">
        <ele>915.5</ele>
        <time>2017-07-31T08:49:46Z</time>
      </trkpt>
      <trkpt lat="42.43302" lon="0.02753">
        <ele>915.9</ele>
        <time>2017-07-31T08:49:48Z</time>
      </trkpt>
      <trkpt lat="42.43298" lon="0.02751">
        <ele>916.4</ele>
        <time>2017-07-31T08:49:50Z</time>
      </trkpt>
      <trkpt lat="42.43294" lon="0.0275">
        <ele>916.9</ele>
        <time>2017-07-31T08:49:52Z</time>
      </trkpt>
      <trkpt lat="42.43291" lon="0.02748">
        <ele>917.4</ele>
        <time>2017-07-31T08:49:54Z</time>
      </trkpt>
      <trkpt lat="42.43287" lon="0.02745">
        <ele>917.9</ele>
        <time>2017-07-31T08:49:56Z</time>
      </trkpt>
      <trkpt lat="42.43284" lon="0.02741">
        <ele>918.4</ele>
        <time>2017-07-31T08:49:58Z</time>
      </trkpt>
      <trkpt lat="42.43282" lon="0.02737">
        <ele>918.9</ele>
        <time>2017-07-31T08:50:00Z</time>
      </trkpt>
      <trkpt lat="42.4328" lon="0.02732">
        <ele>919.4</ele>
        <time>2017-07-31T08:50:02Z</time>
      </trkpt>
      <trkpt lat="42.43277" lon="0.02728">
        <ele>919.8</ele>
        <time>2017-07-31T08:50:04Z</time>
      </trkpt>
      <trkpt lat="42.43275" lon="0.02724">
        <ele>920.3</ele>
        <time>2017-07-31T08:50:06Z</time>
      </trkpt>
      <trkpt lat="42.43273" lon="0.0272">
        <ele>920.7</ele>
        <time>2017-07-31T08:50:08Z</time>
      </trkpt>
      <trkpt lat="42.43271" lon="0.02715">
        <ele>921.2</ele>
        <time>2017-07-31T08:50:10Z</time>
      </trkpt>
      <trkpt lat="42.43269" lon="0.02711">
        <ele>921.6</ele>
        <time>2017-07-31T08:50:12Z</time>
      </trkpt>
      <trkpt lat="42.43267" lon="0.02707">
        <ele>921.9</ele>
        <time>2017-07-31T08:50:14Z</time>
      </trkpt>
      <trkpt lat="42.43265" lon="0.02703">
        <ele>922.3</ele>
        <time>2017-07-31T08:50:16Z</time>
      </trkpt>
      <trkpt lat="42.43262" lon="0.02699">
        <ele>922.7</ele>
        <time>2017-07-31T08:50:18Z</time>
      </trkpt>
      <trkpt lat="42.4326" lon="0.02695">
        <ele>923</ele>
        <time>2017-07-31T08:50:20Z</time>
      </trkpt>
      <trkpt lat="42.43257" lon="0.02692">
        <ele>923.4</ele>
        <time>2017-07-31T08:50:22Z</time>
      </trkpt>
      <trkpt lat="42.43254" lon="0.02688">
        <ele>923.7</ele>
        <time>2017-07-31T08:50:24Z</time>
      </trkpt>
      <trkpt lat="42.43252" lon="0.02684">
        <ele>924</ele>
        <time>2017-07-31T08:50:26Z</time>
      </trkpt>
      <trkpt lat="42.4325" lon="0.0268">
        <ele>924.3</ele>
        <time>2017-07-31T08:50:28Z</time>
      </trkpt>
      <trkpt lat="42.43248" lon="0.02677">
        <ele>924.6</ele>
        <time>2017-07-31T08:50:30Z</time>
      </trkpt>
      <trkpt lat="42.43245" lon="0.02673">
        <ele>924.9</ele>
        <time>2017-07-31T08:50:32Z</time>
      </trkpt>
      <trkpt lat="42.43243" lon="0.02669">
        <ele>925.2</ele>
        <time>2017-07-31T08:50:34Z</time>
      </trkpt>
      <trkpt lat="42.43241" lon="0.02664">
        <ele>925.5</ele>
        <time>2017-07-31T08:50:36Z</time>
      </trkpt>
      <trkpt lat="42.4324" lon="0.0266">
        <ele>925.8</ele>
        <time>2017-07-31T08:50:38Z</time>
      </trkpt>
      <trkpt lat="42.43237" lon="0.02657">
        <ele>926</ele>
        <time>2017-07-31T08:50:40Z</time>
      </trkpt>
      <trkpt lat="42.43234" lon="0.02654">
        <ele>926.3</ele>
        <time>2017-07-31T08:50:42Z</time>
      </trkpt>
      <trkpt lat="42.43232" lon="0.0265">
        <ele>926.6</ele>
        <time>2017-07-31T08:50:44Z</time>
      </trkpt>
      <trkpt lat="42.43231" lon="0.02646">
        <ele>926.9</ele>
        <time>2017-07-31T08:50:46Z</time>
      </trkpt>
      <trkpt lat="42.43229" lon="0.02642">
        <ele>927.1</ele>
        <time>2017-07-31T08:50:48Z</time>
      </trkpt>
      <trkpt lat="42.43228" lon="0.02638">
        <ele>927.4</ele>
        <time>2017-07-31T08:50:50Z</time>
      </trkpt>
      <trkpt lat="42.43226" lon="0.02634">
        <ele>927.6</ele>
        <time>2017-07-31T08:50:52Z</time>
      </trkpt>
      <trkpt lat="42.43224" lon="0.02631">
        <ele>927.9</ele>
        <time>2017-07-31T08:50:54Z</time>
      </trkpt>
      <trkpt lat="42.43221" lon="0.02628">
        <ele>928.2</ele>
        <time>2017-07-31T08:50:56Z</time>
      </trkpt>
      <trkpt lat="42.43218" lon="0.02625">
        <ele>928.5</ele>
        <time>2017-07-31T08:50:58Z</time>
      </trkpt>
      <trkpt lat="42.43215" lon="0.02622">
        <ele>928.8</ele>
        <time>2017-07-31T08:51:00Z</time>
      </trkpt>
      <trkpt lat="42.43212" lon="0.0262">
        <ele>929</ele>
        <time>2017-07-31T08:51:02Z</time>
      </trkpt>
      <trkpt lat="42.43209" lon="0.02618">
        <ele>929.3</ele>
        <time>2017-07-31T08:51:04Z</time>
      </trkpt>
      <trkpt lat="42.43205" lon="0.02617">
        <ele>929.7</ele>
        <time>2017-07-31T08:51:06Z</time>
      </trkpt>
      <trkpt lat="42.43201" lon="0.02615">
        <ele>930</ele>
        <time>2017-07-31T08:51:08Z</time>
      </trkpt>
      <trkpt lat="42.43197" lon="0.02613">
        <ele>930.4</ele>
        <time>2017-07-31T08:51:10Z</time>
      </trkpt>
      <trkpt lat="42.43193" lon="0.02611">
        <ele>930.7</ele>
        <time>2017-07-31T08:51:12Z</time>
      </trkpt>
      <trkpt lat="42.43189" lon="0.02608">
        <ele>931.1</ele>
        <time>2017-07-31T08:51:14Z</time>
      </trkpt>
      <trkpt lat="42.43185" lon="0.02606">
        <ele>931.5</ele>
        <time>2017-07-31T08:51:16Z</time>
      </trkpt>
      <trkpt lat="42.4318" lon="0.02603">
        <ele>931.8</ele>
        <time>2017-07-31T08:51:18Z</time>
      </trkpt>
      <trkpt lat="42.43176" lon="0.02602">
        <ele>932.1</ele>
        <time>2017-07-31T08:51:20Z</time>
      </trkpt>
      <trkpt lat="42.43173" lon="0.026">
        <ele>932.4</ele>
        <time>2017-07-31T08:51:22Z</time>
      </trkpt>
      <trkpt lat="42.43169" lon="0.02598">
        <ele>932.6</ele>
        <time>2017-07-31T08:51:24Z</time>
      </trkpt>
      <trkpt lat="42.43165" lon="0.02596">
        <ele>932.9</ele>
        <time>2017-07-31T08:51:26Z</time>
      </trkpt>
      <trkpt lat="42.43162" lon="0.02594">
        <ele>933.1</ele>
        <time>2017-07-31T08:51:28Z</time>
      </trkpt>
      <trkpt lat="42.43158" lon="0.02591">
        <ele>933.3</ele>
        <time>2017-07-31T08:51:30Z</time>
      </trkpt>
      <trkpt lat="42.43154" lon="0.02589">
        <ele>933.5</ele>
        <time>2017-07-31T08:51:32Z</time>
      </trkpt>
      <trkpt lat="42.4315" lon="0.02587">
        <ele>933.7</ele>
        <time>2017-07-31T08:51:34Z</time>
      </trkpt>
      <trkpt lat="42.43146" lon="0.02585">
        <ele>933.9</ele>
        <time>2017-07-31T08:51:36Z</time>
      </trkpt>
      <trkpt lat="42.43142" lon="0.02584">
        <ele>934.1</ele>
        <time>2017-07-31T08:51:38Z</time>
      </trkpt>
      <trkpt lat="42.43138" lon="0.02582">
        <ele>934.3</ele>
        <time>2017-07-31T08:51:40Z</time>
      </trkpt>
      <trkpt lat="42.43135" lon="0.02579">
        <ele>934.5</ele>
        <time>2017-07-31T08:51:42Z</time>
      </trkpt>
      <trkpt lat="42.43131" lon="0.02576">
        <ele>934.7</ele>
        <time>2017-07-31T08:51:44Z</time>
      </trkpt>
      <trkpt lat="42.43127" lon="0.02573">
        <ele>934.9</ele>
        <time>2017-07-31T08:51:46Z</time>
      </trkpt>
      <trkpt lat="42.43124" lon="0.0257">
        <ele>935.1</ele>
        <time>2017-07-31T08:51:48Z</time>
      </trkpt>
      <trkpt lat="42.4312" lon="0.02567">
        <ele>935.3</ele>
        <time>2017-07-31T08:51:50Z</time>
      </trkpt>
      <trkpt lat="42.43116" lon="0.02564">
        <ele>935.5</ele>
        <time>2017-07-31T08:51:52Z</time>
      </trkpt>
      <trkpt lat="42.43113" lon="0.0256">
        <ele>935.7</ele>
        <time>2017-07-31T08:51:54Z</time>
      </trkpt>
      <trkpt lat="42.43109" lon="0.02556">
        <ele>935.9</ele>
        <time>2017-07-31T08:51:56Z</time>
      </trkpt>
      <trkpt lat="42.43106" lon="0.02552">
        <ele>936.2</ele>
        <time>2017-07-31T08:51:58Z</time>
      </trkpt>
      <trkpt lat="42.43103" lon="0.02548">
        <ele>936.4</ele>
        <time>2017-07-31T08:52:00Z</time>
      </trkpt>
      <trkpt lat="42.43101" lon="0.02543">
        <ele>936.6</ele>
        <time>2017-07-31T08:52:02Z</time>
      </trkpt>
      <trkpt lat="42.43098" lon="0.02538">
        <ele>936.8</ele>
        <time>2017-07-31T08:52:04Z</time>
      </trkpt>
      <trkpt lat="42.43096" lon="0.02533">
        <ele>937</ele>
        <time>2017-07-31T08:52:06Z</time>
      </trkpt>
      <trkpt lat="42.43094" lon="0.02527">
        <ele>937.2</ele>
        <time>2017-07-31T08:52:08Z</time>
      </trkpt>
      <trkpt lat="42.43092" lon="0.02522">
        <ele>937.4</ele>
        <time>2017-07-31T08:52:10Z</time>
      </trkpt>
      <trkpt lat="42.4309" lon="0.02516">
        <ele>937.5</ele>
        <time>2017-07-31T08:52:12Z</time>
      </trkpt>
      <trkpt lat="42.43087" lon="0.02511">
        <ele>937.7</ele>
        <time>2017-07-31T08:52:14Z</time>
      </trkpt>
      <trkpt lat="42.43085" lon="0.02506">
        <ele>937.8</ele>
        <time>2017-07-31T08:52:16Z</time>
      </trkpt>
      <trkpt lat="42.43083" lon="0.025">
        <ele>937.9</ele>
        <time>2017-07-31T08:52:18Z</time>
      </trkpt>
      <trkpt lat="42.43081" lon="0.02495">
        <ele>938.1</ele>
        <time>2017-07-31T08:52:20Z</time>
      </trkpt>
      <trkpt lat="42.43079" lon="0.02489">
        <ele>938.3</ele>
        <time>2017-07-31T08:52:22Z</time>
      </trkpt>
      <trkpt lat="42.43077" lon="0.02484">
        <ele>938.5</ele>
        <time>2017-07-31T08:52:24Z</time>
      </trkpt>
      <trkpt lat="42.43075" lon="0.02481">
        <ele>938.6</ele>
        <time>2017-07-31T08:52:26Z</time>
      </trkpt>
      <trkpt lat="42.43073" lon="0.02478">
        <ele>938.7</ele>
        <time>2017-07-31T08:52:28Z</time>
      </trkpt>
      <trkpt lat="42.43071" lon="0.02474">
        <ele>938.9</ele>
        <time>2017-07-31T08:52:31Z</time>
      </trkpt>
      <trkpt lat="42.43069" lon="0.02471">
        <ele>939</ele>
        <time>2017-07-31T08:52:33Z</time>
      </trkpt>
      <trkpt lat="42.43068" lon="0.02467">
        <ele>939.1</ele>
        <time>2017-07-31T08:52:35Z</time>
      </trkpt>
      <trkpt lat="42.43067" lon="0.02463">
        <ele>939.3</ele>
        <time>2017-07-31T08:52:37Z</time>
      </trkpt>
      <trkpt lat="42.43067" lon="0.02459">
        <ele>939.4</ele>
        <time>2017-07-31T08:52:39Z</time>
      </trkpt>
      <trkpt lat="42.43065" lon="0.02455">
        <ele>939.5</ele>
        <time>2017-07-31T08:52:42Z</time>
      </trkpt>
      <trkpt lat="42.43068" lon="0.02459">
        <ele>939.3</ele>
        <time>2017-07-31T08:55:59Z</time>
      </trkpt>
      <trkpt lat="42.43068" lon="0.02463">
        <ele>939.2</ele>
        <time>2017-07-31T08:56:01Z</time>
      </trkpt>
      <trkpt lat="42.43069" lon="0.0247">
        <ele>939</ele>
        <time>2017-07-31T08:56:03Z</time>
      </trkpt>
      <trkpt lat="42.43071" lon="0.02476">
        <ele>938.8</ele>
        <time>2017-07-31T08:56:05Z</time>
      </trkpt>
      <trkpt lat="42.43075" lon="0.02481">
        <ele>938.5</ele>
        <time>2017-07-31T08:56:07Z</time>
      </trkpt>
      <trkpt lat="42.43077" lon="0.02484">
        <ele>938.4</ele>
        <time>2017-07-31T08:56:09Z</time>
      </trkpt>
      <trkpt lat="42.43079" lon="0.02487">
        <ele>938.3</ele>
        <time>2017-07-31T08:56:23Z</time>
      </trkpt>
      <trkpt lat="42.43082" lon="0.02488">
        <ele>938.2</ele>
        <time>2017-07-31T08:56:31Z</time>
      </trkpt>
      <trkpt lat="42.43085" lon="0.02495">
        <ele>937.9</ele>
        <time>2017-07-31T08:56:49Z</time>
      </trkpt>
      <trkpt lat="42.43087" lon="0.02498">
        <ele>937.8</ele>
        <time>2017-07-31T08:56:53Z</time>
      </trkpt>
      <trkpt lat="42.4309" lon="0.025">
        <ele>937.7</ele>
        <time>2017-07-31T08:56:58Z</time>
      </trkpt>
      <trkpt lat="42.43092" lon="0.02502">
        <ele>937.6</ele>
        <time>2017-07-31T08:57:03Z</time>
      </trkpt>
      <trkpt lat="42.43094" lon="0.02505">
        <ele>937.6</ele>
        <time>2017-07-31T08:57:07Z</time>
      </trkpt>
      <trkpt lat="42.43096" lon="0.02508">
        <ele>937.5</ele>
        <time>2017-07-31T08:57:12Z</time>
      </trkpt>
      <trkpt lat="42.43098" lon="0.02511">
        <ele>937.3</ele>
        <time>2017-07-31T08:57:20Z</time>
      </trkpt>
      <trkpt lat="42.431" lon="0.02515">
        <ele>937.2</ele>
        <time>2017-07-31T08:57:26Z</time>
      </trkpt>
      <trkpt lat="42.43102" lon="0.02517">
        <ele>937.1</ele>
        <time>2017-07-31T08:57:31Z</time>
      </trkpt>
      <trkpt lat="42.43104" lon="0.02521">
        <ele>936.9</ele>
        <time>2017-07-31T08:57:35Z</time>
      </trkpt>
      <trkpt lat="42.43106" lon="0.02525">
        <ele>936.7</ele>
        <time>2017-07-31T08:57:38Z</time>
      </trkpt>
      <trkpt lat="42.43108" lon="0.02529">
        <ele>936.6</ele>
        <time>2017-07-31T08:57:41Z</time>
      </trkpt>
      <trkpt lat="42.4311" lon="0.02533">
        <ele>936.4</ele>
        <time>2017-07-31T08:57:45Z</time>
      </trkpt>
      <trkpt lat="42.43112" lon="0.02538">
        <ele>936.1</ele>
        <time>2017-07-31T08:57:47Z</time>
      </trkpt>
      <trkpt lat="42.43114" lon="0.02541">
        <ele>936</ele>
        <time>2017-07-31T08:57:48Z</time>
      </trkpt>
      <trkpt lat="42.43119" lon="0.02544">
        <ele>935.7</ele>
        <time>2017-07-31T08:57:50Z</time>
      </trkpt>
      <trkpt lat="42.43122" lon="0.02547">
        <ele>935.5</ele>
        <time>2017-07-31T08:57:52Z</time>
      </trkpt>
      <trkpt lat="42.43126" lon="0.02551">
        <ele>935.2</ele>
        <time>2017-07-31T08:57:54Z</time>
      </trkpt>
      <trkpt lat="42.4313" lon="0.02554">
        <ele>935</ele>
        <time>2017-07-31T08:57:56Z</time>
      </trkpt>
      <trkpt lat="42.43135" lon="0.02557">
        <ele>934.8</ele>
        <time>2017-07-31T08:57:58Z</time>
      </trkpt>
      <trkpt lat="42.43137" lon="0.02559">
        <ele>934.6</ele>
        <time>2017-07-31T08:57:59Z</time>
      </trkpt>
      <trkpt lat="42.4314" lon="0.02561">
        <ele>934.5</ele>
        <time>2017-07-31T08:58:00Z</time>
      </trkpt>
      <trkpt lat="42.43142" lon="0.02563">
        <ele>934.3</ele>
        <time>2017-07-31T08:58:01Z</time>
      </trkpt>
      <trkpt lat="42.43145" lon="0.02565">
        <ele>934.2</ele>
        <time>2017-07-31T08:58:02Z</time>
      </trkpt>
      <trkpt lat="42.43147" lon="0.02567">
        <ele>934.1</ele>
        <time>2017-07-31T08:58:03Z</time>
      </trkpt>
      <trkpt lat="42.43149" lon="0.02569">
        <ele>933.9</ele>
        <time>2017-07-31T08:58:04Z</time>
      </trkpt>
      <trkpt lat="42.43153" lon="0.02573">
        <ele>933.7</ele>
        <time>2017-07-31T08:58:06Z</time>
      </trkpt>
      <trkpt lat="42.43157" lon="0.02574">
        <ele>933.5</ele>
        <time>2017-07-31T08:58:08Z</time>
      </trkpt>
      <trkpt lat="42.4316" lon="0.02576">
        <ele>933.3</ele>
        <time>2017-07-31T08:58:10Z</time>
      </trkpt>
      <trkpt lat="42.43164" lon="0.02577">
        <ele>933.1</ele>
        <time>2017-07-31T08:58:12Z</time>
      </trkpt>
      <trkpt lat="42.43169" lon="0.02578">
        <ele>932.8</ele>
        <time>2017-07-31T08:58:14Z</time>
      </trkpt>
      <trkpt lat="42.43174" lon="0.0258">
        <ele>933.8</ele>
        <time>2017-07-31T08:58:16Z</time>
      </trkpt>
      <trkpt lat="42.43176" lon="0.02582">
        <ele>935.9</ele>
        <time>2017-07-31T08:58:17Z</time>
      </trkpt>
      <trkpt lat="42.4318" lon="0.02583">
        <ele>938</ele>
        <time>2017-07-31T08:58:19Z</time>
      </trkpt>
      <trkpt lat="42.43183" lon="0.02584">
        <ele>937.5</ele>
        <time>2017-07-31T08:58:21Z</time>
      </trkpt>
      <trkpt lat="42.43186" lon="0.02585">
        <ele>939.4</ele>
        <time>2017-07-31T08:58:23Z</time>
      </trkpt>
      <trkpt lat="42.4319" lon="0.02587">
        <ele>941</ele>
        <time>2017-07-31T08:58:25Z</time>
      </trkpt>
      <trkpt lat="42.43195" lon="0.02588">
        <ele>939.7</ele>
        <time>2017-07-31T08:58:27Z</time>
      </trkpt>
      <trkpt lat="42.43199" lon="0.02589">
        <ele>942.2</ele>
        <time>2017-07-31T08:58:29Z</time>
      </trkpt>
      <trkpt lat="42.43204" lon="0.0259">
        <ele>944.2</ele>
        <time>2017-07-31T08:58:31Z</time>
      </trkpt>
      <trkpt lat="42.43207" lon="0.02591">
        <ele>944</ele>
        <time>2017-07-31T08:58:32Z</time>
      </trkpt>
      <trkpt lat="42.43211" lon="0.02591">
        <ele>945.4</ele>
        <time>2017-07-31T08:58:34Z</time>
      </trkpt>
      <trkpt lat="42.43217" lon="0.02593">
        <ele>943.2</ele>
        <time>2017-07-31T08:58:36Z</time>
      </trkpt>
      <trkpt lat="42.43219" lon="0.02595">
        <ele>943.3</ele>
        <time>2017-07-31T08:58:37Z</time>
      </trkpt>
      <trkpt lat="42.43222" lon="0.02598">
        <ele>940.7</ele>
        <time>2017-07-31T08:58:38Z</time>
      </trkpt>
      <trkpt lat="42.43225" lon="0.02601">
        <ele>937.9</ele>
        <time>2017-07-31T08:58:39Z</time>
      </trkpt>
      <trkpt lat="42.43228" lon="0.02604">
        <ele>937.8</ele>
        <time>2017-07-31T08:58:40Z</time>
      </trkpt>
      <trkpt lat="42.4323" lon="0.02608">
        <ele>935.3</ele>
        <time>2017-07-31T08:58:41Z</time>
      </trkpt>
      <trkpt lat="42.43233" lon="0.02613">
        <ele>933.2</ele>
        <time>2017-07-31T08:58:42Z</time>
      </trkpt>
      <trkpt lat="42.43237" lon="0.02619">
        <ele>929.1</ele>
        <time>2017-07-31T08:58:43Z</time>
      </trkpt>
      <trkpt lat="42.4324" lon="0.02623">
        <ele>927.2</ele>
        <time>2017-07-31T08:58:44Z</time>
      </trkpt>
      <trkpt lat="42.43244" lon="0.02627">
        <ele>925.6</ele>
        <time>2017-07-31T08:58:45Z</time>
      </trkpt>
      <trkpt lat="42.43247" lon="0.0263">
        <ele>926.1</ele>
        <time>2017-07-31T08:58:46Z</time>
      </trkpt>
      <trkpt lat="42.43249" lon="0.02634">
        <ele>924.8</ele>
        <time>2017-07-31T08:58:47Z</time>
      </trkpt>
      <trkpt lat="42.43251" lon="0.02637">
        <ele>923.1</ele>
        <time>2017-07-31T08:58:48Z</time>
      </trkpt>
      <trkpt lat="42.43253" lon="0.02641">
        <ele>922.4</ele>
        <time>2017-07-31T08:58:49Z</time>
      </trkpt>
      <trkpt lat="42.43255" lon="0.02644">
        <ele>921.5</ele>
        <time>2017-07-31T08:58:50Z</time>
      </trkpt>
      <trkpt lat="42.43258" lon="0.02649">
        <ele>920.6</ele>
        <time>2017-07-31T08:58:52Z</time>
      </trkpt>
      <trkpt lat="42.43261" lon="0.02655">
        <ele>919.7</ele>
        <time>2017-07-31T08:58:54Z</time>
      </trkpt>
      <trkpt lat="42.43264" lon="0.02658">
        <ele>917.8</ele>
        <time>2017-07-31T08:58:56Z</time>
      </trkpt>
      <trkpt lat="42.43266" lon="0.02661">
        <ele>917.2</ele>
        <time>2017-07-31T08:59:06Z</time>
      </trkpt>
      <trkpt lat="42.43269" lon="0.02665">
        <ele>918</ele>
        <time>2017-07-31T08:59:08Z</time>
      </trkpt>
      <trkpt lat="42.43272" lon="0.02668">
        <ele>917.5</ele>
        <time>2017-07-31T08:59:10Z</time>
      </trkpt>
      <trkpt lat="42.43275" lon="0.02673">
        <ele>917</ele>
        <time>2017-07-31T08:59:12Z</time>
      </trkpt>
      <trkpt lat="42.43277" lon="0.02675">
        <ele>916.2</ele>
        <time>2017-07-31T08:59:13Z</time>
      </trkpt>
      <trkpt lat="42.43279" lon="0.02677">
        <ele>915.9</ele>
        <time>2017-07-31T08:59:14Z</time>
      </trkpt>
      <trkpt lat="42.43283" lon="0.02681">
        <ele>916</ele>
        <time>2017-07-31T08:59:16Z</time>
      </trkpt>
      <trkpt lat="42.43285" lon="0.02684">
        <ele>914</ele>
        <time>2017-07-31T08:59:17Z</time>
      </trkpt>
      <trkpt lat="42.43288" lon="0.02687">
        <ele>913.3</ele>
        <time>2017-07-31T08:59:18Z</time>
      </trkpt>
      <trkpt lat="42.4329" lon="0.02689">
        <ele>914.1</ele>
        <time>2017-07-31T08:59:19Z</time>
      </trkpt>
      <trkpt lat="42.43294" lon="0.02693">
        <ele>913.6</ele>
        <time>2017-07-31T08:59:21Z</time>
      </trkpt>
      <trkpt lat="42.43297" lon="0.02696">
        <ele>913.1</ele>
        <time>2017-07-31T08:59:23Z</time>
      </trkpt>
      <trkpt lat="42.433" lon="0.02699">
        <ele>913.9</ele>
        <time>2017-07-31T08:59:25Z</time>
      </trkpt>
      <trkpt lat="42.43304" lon="0.02704">
        <ele>911.4</ele>
        <time>2017-07-31T08:59:27Z</time>
      </trkpt>
      <trkpt lat="42.43306" lon="0.02707">
        <ele>912.1</ele>
        <time>2017-07-31T08:59:28Z</time>
      </trkpt>
      <trkpt lat="42.43309" lon="0.02709">
        <ele>909.9</ele>
        <time>2017-07-31T08:59:29Z</time>
      </trkpt>
      <trkpt lat="42.43314" lon="0.0271">
        <ele>911.8</ele>
        <time>2017-07-31T08:59:31Z</time>
      </trkpt>
      <trkpt lat="42.43317" lon="0.0271">
        <ele>912.7</ele>
        <time>2017-07-31T08:59:32Z</time>
      </trkpt>
      <trkpt lat="42.4332" lon="0.02709">
        <ele>913.7</ele>
        <time>2017-07-31T08:59:33Z</time>
      </trkpt>
      <trkpt lat="42.43323" lon="0.02709">
        <ele>914.6</ele>
        <time>2017-07-31T08:59:34Z</time>
      </trkpt>
      <trkpt lat="42.43326" lon="0.02709">
        <ele>915.4</ele>
        <time>2017-07-31T08:59:35Z</time>
      </trkpt>
      <trkpt lat="42.4333" lon="0.02709">
        <ele>916.2</ele>
        <time>2017-07-31T08:59:36Z</time>
      </trkpt>
      <trkpt lat="42.43334" lon="0.02709">
        <ele>916.8</ele>
        <time>2017-07-31T08:59:37Z</time>
      </trkpt>
      <trkpt lat="42.43338" lon="0.0271">
        <ele>918.2</ele>
        <time>2017-07-31T08:59:38Z</time>
      </trkpt>
      <trkpt lat="42.43342" lon="0.0271">
        <ele>918.6</ele>
        <time>2017-07-31T08:59:39Z</time>
      </trkpt>
      <trkpt lat="42.43346" lon="0.0271">
        <ele>918.9</ele>
        <time>2017-07-31T08:59:40Z</time>
      </trkpt>
      <trkpt lat="42.4335" lon="0.02711">
        <ele>919.3</ele>
        <time>2017-07-31T08:59:41Z</time>
      </trkpt>
      <trkpt lat="42.43354" lon="0.02711">
        <ele>919</ele>
        <time>2017-07-31T08:59:42Z</time>
      </trkpt>
      <trkpt lat="42.43358" lon="0.02711">
        <ele>918.5</ele>
        <time>2017-07-31T08:59:43Z</time>
      </trkpt>
      <trkpt lat="42.43363" lon="0.02712">
        <ele>917.3</ele>
        <time>2017-07-31T08:59:44Z</time>
      </trkpt>
      <trkpt lat="42.43367" lon="0.02712">
        <ele>916.4</ele>
        <time>2017-07-31T08:59:45Z</time>
      </trkpt>
      <trkpt lat="42.43371" lon="0.02711">
        <ele>915.3</ele>
        <time>2017-07-31T08:59:46Z</time>
      </trkpt>
      <trkpt lat="42.43375" lon="0.02711">
        <ele>914.2</ele>
        <time>2017-07-31T08:59:47Z</time>
      </trkpt>
      <trkpt lat="42.43378" lon="0.02711">
        <ele>913.1</ele>
        <time>2017-07-31T08:59:48Z</time>
      </trkpt>
      <trkpt lat="42.43382" lon="0.02712">
        <ele>911.1</ele>
        <time>2017-07-31T08:59:49Z</time>
      </trkpt>
      <trkpt lat="42.43386" lon="0.02714">
        <ele>908.4</ele>
        <time>2017-07-31T08:59:50Z</time>
      </trkpt>
      <trkpt lat="42.4339" lon="0.02715">
        <ele>907.6</ele>
        <time>2017-07-31T08:59:51Z</time>
      </trkpt>
      <trkpt lat="42.43393" lon="0.02715">
        <ele>906.9</ele>
        <time>2017-07-31T08:59:52Z</time>
      </trkpt>
      <trkpt lat="42.43397" lon="0.02715">
        <ele>906.3</ele>
        <time>2017-07-31T08:59:53Z</time>
      </trkpt>
      <trkpt lat="42.434" lon="0.02713">
        <ele>905.9</ele>
        <time>2017-07-31T08:59:54Z</time>
      </trkpt>
      <trkpt lat="42.43402" lon="0.02711">
        <ele>906.5</ele>
        <time>2017-07-31T08:59:55Z</time>
      </trkpt>
      <trkpt lat="42.43407" lon="0.02709">
        <ele>906.3</ele>
        <time>2017-07-31T08:59:57Z</time>
      </trkpt>
      <trkpt lat="42.43409" lon="0.02707">
        <ele>906.9</ele>
        <time>2017-07-31T08:59:58Z</time>
      </trkpt>
      <trkpt lat="42.43412" lon="0.02705">
        <ele>906.7</ele>
        <time>2017-07-31T08:59:59Z</time>
      </trkpt>
      <trkpt lat="42.43415" lon="0.02703">
        <ele>907.3</ele>
        <time>2017-07-31T09:00:01Z</time>
      </trkpt>
      <trkpt lat="42.43415" lon="0.02707">
        <ele>906.3</ele>
        <time>2017-07-31T09:00:10Z</time>
      </trkpt>
      <trkpt lat="42.43415" lon="0.02711">
        <ele>905.3</ele>
        <time>2017-07-31T09:00:13Z</time>
      </trkpt>
      <trkpt lat="42.43415" lon="0.02715">
        <ele>904.3</ele>
        <time>2017-07-31T09:00:17Z</time>
      </trkpt>
      <trkpt lat="42.43416" lon="0.02721">
        <ele>902.3</ele>
        <time>2017-07-31T09:00:19Z</time>
      </trkpt>
      <trkpt lat="42.43418" lon="0.02728">
        <ele>901.2</ele>
        <time>2017-07-31T09:00:21Z</time>
      </trkpt>
      <trkpt lat="42.4342" lon="0.02733">
        <ele>900.2</ele>
        <time>2017-07-31T09:00:23Z</time>
      </trkpt>
      <trkpt lat="42.43422" lon="0.02737">
        <ele>898.7</ele>
        <time>2017-07-31T09:00:24Z</time>
      </trkpt>
      <trkpt lat="42.43423" lon="0.0274">
        <ele>898.2</ele>
        <time>2017-07-31T09:00:25Z</time>
      </trkpt>
      <trkpt lat="42.43425" lon="0.02743">
        <ele>897.3</ele>
        <time>2017-07-31T09:00:26Z</time>
      </trkpt>
      <trkpt lat="42.43429" lon="0.02749">
        <ele>897.7</ele>
        <time>2017-07-31T09:00:28Z</time>
      </trkpt>
      <trkpt lat="42.43432" lon="0.02753">
        <ele>899.8</ele>
        <time>2017-07-31T09:00:30Z</time>
      </trkpt>
      <trkpt lat="42.43434" lon="0.02756">
        <ele>899.5</ele>
        <time>2017-07-31T09:00:32Z</time>
      </trkpt>
      <trkpt lat="42.43433" lon="0.02761">
        <ele>899.3</ele>
        <time>2017-07-31T09:00:34Z</time>
      </trkpt>
      <trkpt lat="42.43429" lon="0.02763">
        <ele>896.5</ele>
        <time>2017-07-31T09:00:36Z</time>
      </trkpt>
      <trkpt lat="42.43426" lon="0.02765">
        <ele>896.4</ele>
        <time>2017-07-31T09:00:37Z</time>
      </trkpt>
      <trkpt lat="42.43424" lon="0.02767">
        <ele>894.9</ele>
        <time>2017-07-31T09:00:38Z</time>
      </trkpt>
      <trkpt lat="42.43421" lon="0.02772">
        <ele>893.8</ele>
        <time>2017-07-31T09:00:40Z</time>
      </trkpt>
      <trkpt lat="42.43419" lon="0.02778">
        <ele>893.2</ele>
        <time>2017-07-31T09:00:42Z</time>
      </trkpt>
      <trkpt lat="42.43418" lon="0.02782">
        <ele>893.2</ele>
        <time>2017-07-31T09:00:43Z</time>
      </trkpt>
      <trkpt lat="42.43417" lon="0.02786">
        <ele>893</ele>
        <time>2017-07-31T09:00:44Z</time>
      </trkpt>
      <trkpt lat="42.43416" lon="0.02793">
        <ele>891.6</ele>
        <time>2017-07-31T09:00:46Z</time>
      </trkpt>
      <trkpt lat="42.43416" lon="0.02798">
        <ele>891</ele>
        <time>2017-07-31T09:00:48Z</time>
      </trkpt>
      <trkpt lat="42.43416" lon="0.02804">
        <ele>890.6</ele>
        <time>2017-07-31T09:00:50Z</time>
      </trkpt>
      <trkpt lat="42.43416" lon="0.0281">
        <ele>891.5</ele>
        <time>2017-07-31T09:00:52Z</time>
      </trkpt>
      <trkpt lat="42.43417" lon="0.02816">
        <ele>891.1</ele>
        <time>2017-07-31T09:00:54Z</time>
      </trkpt>
      <trkpt lat="42.43418" lon="0.02822">
        <ele>890.7</ele>
        <time>2017-07-31T09:00:56Z</time>
      </trkpt>
      <trkpt lat="42.43419" lon="0.02827">
        <ele>890.2</ele>
        <time>2017-07-31T09:00:58Z</time>
      </trkpt>
      <trkpt lat="42.4342" lon="0.02833">
        <ele>890.8</ele>
        <time>2017-07-31T09:01:00Z</time>
      </trkpt>
      <trkpt lat="42.43421" lon="0.02838">
        <ele>890.1</ele>
        <time>2017-07-31T09:01:02Z</time>
      </trkpt>
      <trkpt lat="42.43421" lon="0.02842">
        <ele>889.4</ele>
        <time>2017-07-31T09:01:06Z</time>
      </trkpt>
      <trkpt lat="42.43422" lon="0.02845">
        <ele>889.2</ele>
        <time>2017-07-31T09:01:10Z</time>
      </trkpt>
      <trkpt lat="42.43422" lon="0.02849">
        <ele>888.5</ele>
        <time>2017-07-31T09:01:13Z</time>
      </trkpt>
      <trkpt lat="42.43422" lon="0.02853">
        <ele>887.9</ele>
        <time>2017-07-31T09:01:17Z</time>
      </trkpt>
      <trkpt lat="42.43422" lon="0.02857">
        <ele>887.4</ele>
        <time>2017-07-31T09:01:23Z</time>
      </trkpt>
      <trkpt lat="42.43422" lon="0.02861">
        <ele>887.1</ele>
        <time>2017-07-31T09:01:25Z</time>
      </trkpt>
      <trkpt lat="42.43423" lon="0.02865">
        <ele>888.6</ele>
        <time>2017-07-31T09:01:27Z</time>
      </trkpt>
      <trkpt lat="42.43424" lon="0.02868">
        <ele>888.5</ele>
        <time>2017-07-31T09:01:29Z</time>
      </trkpt>
      <trkpt lat="42.43426" lon="0.02872">
        <ele>888.5</ele>
        <time>2017-07-31T09:01:31Z</time>
      </trkpt>
      <trkpt lat="42.43427" lon="0.02876">
        <ele>890.3</ele>
        <time>2017-07-31T09:01:33Z</time>
      </trkpt>
      <trkpt lat="42.43428" lon="0.02879">
        <ele>890.1</ele>
        <time>2017-07-31T09:01:35Z</time>
      </trkpt>
      <trkpt lat="42.43429" lon="0.02883">
        <ele>889.9</ele>
        <time>2017-07-31T09:01:37Z</time>
      </trkpt>
      <trkpt lat="42.43432" lon="0.02885">
        <ele>889.8</ele>
        <time>2017-07-31T09:01:43Z</time>
      </trkpt>
      <trkpt lat="42.43434" lon="0.02889">
        <ele>889.6</ele>
        <time>2017-07-31T09:01:48Z</time>
      </trkpt>
      <trkpt lat="42.43434" lon="0.02893">
        <ele>889.4</ele>
        <time>2017-07-31T09:01:52Z</time>
      </trkpt>
      <trkpt lat="42.43436" lon="0.02896">
        <ele>889.2</ele>
        <time>2017-07-31T09:01:57Z</time>
      </trkpt>
      <trkpt lat="42.43438" lon="0.029">
        <ele>889</ele>
        <time>2017-07-31T09:02:01Z</time>
      </trkpt>
      <trkpt lat="42.43438" lon="0.02905">
        <ele>888.8</ele>
        <time>2017-07-31T09:02:07Z</time>
      </trkpt>
      <trkpt lat="42.4344" lon="0.0291">
        <ele>888.6</ele>
        <time>2017-07-31T09:02:10Z</time>
      </trkpt>
      <trkpt lat="42.43441" lon="0.02914">
        <ele>888.4</ele>
        <time>2017-07-31T09:02:12Z</time>
      </trkpt>
      <trkpt lat="42.43443" lon="0.02917">
        <ele>888.3</ele>
        <time>2017-07-31T09:02:18Z</time>
      </trkpt>
      <trkpt lat="42.43445" lon="0.02919">
        <ele>888.1</ele>
        <time>2017-07-31T09:02:23Z</time>
      </trkpt>
      <trkpt lat="42.43447" lon="0.02923">
        <ele>887.9</ele>
        <time>2017-07-31T09:02:28Z</time>
      </trkpt>
      <trkpt lat="42.43447" lon="0.02927">
        <ele>887.7</ele>
        <time>2017-07-31T09:02:31Z</time>
      </trkpt>
      <trkpt lat="42.43447" lon="0.02931">
        <ele>887.6</ele>
        <time>2017-07-31T09:02:38Z</time>
      </trkpt>
      <trkpt lat="42.43449" lon="0.02934">
        <ele>887.4</ele>
        <time>2017-07-31T09:02:40Z</time>
      </trkpt>
      <trkpt lat="42.43451" lon="0.02937">
        <ele>887.2</ele>
        <time>2017-07-31T09:02:42Z</time>
      </trkpt>
      <trkpt lat="42.43453" lon="0.0294">
        <ele>887.1</ele>
        <time>2017-07-31T09:02:44Z</time>
      </trkpt>
      <trkpt lat="42.43456" lon="0.02942">
        <ele>886.9</ele>
        <time>2017-07-31T09:02:49Z</time>
      </trkpt>
      <trkpt lat="42.43458" lon="0.02945">
        <ele>886.7</ele>
        <time>2017-07-31T09:02:53Z</time>
      </trkpt>
      <trkpt lat="42.4346" lon="0.02947">
        <ele>886.5</ele>
        <time>2017-07-31T09:02:57Z</time>
      </trkpt>
      <trkpt lat="42.43463" lon="0.0295">
        <ele>886.3</ele>
        <time>2017-07-31T09:03:00Z</time>
      </trkpt>
      <trkpt lat="42.43465" lon="0.02953">
        <ele>886.2</ele>
        <time>2017-07-31T09:03:04Z</time>
      </trkpt>
      <trkpt lat="42.43468" lon="0.02956">
        <ele>886</ele>
        <time>2017-07-31T09:03:08Z</time>
      </trkpt>
      <trkpt lat="42.4347" lon="0.02957">
        <ele>885.8</ele>
        <time>2017-07-31T09:03:12Z</time>
      </trkpt>
      <trkpt lat="42.43473" lon="0.0296">
        <ele>885.6</ele>
        <time>2017-07-31T09:03:16Z</time>
      </trkpt>
      <trkpt lat="42.43476" lon="0.02963">
        <ele>885.4</ele>
        <time>2017-07-31T09:03:19Z</time>
      </trkpt>
      <trkpt lat="42.43478" lon="0.02965">
        <ele>885.2</ele>
        <time>2017-07-31T09:03:21Z</time>
      </trkpt>
      <trkpt lat="42.43482" lon="0.02967">
        <ele>885</ele>
        <time>2017-07-31T09:03:23Z</time>
      </trkpt>
      <trkpt lat="42.43485" lon="0.02969">
        <ele>884.8</ele>
        <time>2017-07-31T09:03:25Z</time>
      </trkpt>
      <trkpt lat="42.43486" lon="0.02973">
        <ele>884.7</ele>
        <time>2017-07-31T09:03:40Z</time>
      </trkpt>
      <trkpt lat="42.43488" lon="0.02975">
        <ele>884.5</ele>
        <time>2017-07-31T09:03:44Z</time>
      </trkpt>
      <trkpt lat="42.43491" lon="0.02976">
        <ele>884.3</ele>
        <time>2017-07-31T09:03:48Z</time>
      </trkpt>
      <trkpt lat="42.43495" lon="0.02977">
        <ele>884.1</ele>
        <time>2017-07-31T09:03:51Z</time>
      </trkpt>
      <trkpt lat="42.43499" lon="0.02978">
        <ele>883.9</ele>
        <time>2017-07-31T09:03:54Z</time>
      </trkpt>
      <trkpt lat="42.43502" lon="0.02978">
        <ele>883.7</ele>
        <time>2017-07-31T09:03:56Z</time>
      </trkpt>
      <trkpt lat="42.43506" lon="0.02978">
        <ele>883.5</ele>
        <time>2017-07-31T09:03:58Z</time>
      </trkpt>
      <trkpt lat="42.4351" lon="0.02978">
        <ele>883.3</ele>
        <time>2017-07-31T09:04:00Z</time>
      </trkpt>
      <trkpt lat="42.43514" lon="0.02978">
        <ele>883</ele>
        <time>2017-07-31T09:04:02Z</time>
      </trkpt>
      <trkpt lat="42.43518" lon="0.02979">
        <ele>882.8</ele>
        <time>2017-07-31T09:04:04Z</time>
      </trkpt>
      <trkpt lat="42.43523" lon="0.02982">
        <ele>882.5</ele>
        <time>2017-07-31T09:04:06Z</time>
      </trkpt>
      <trkpt lat="42.43527" lon="0.02985">
        <ele>882.2</ele>
        <time>2017-07-31T09:04:08Z</time>
      </trkpt>
      <trkpt lat="42.43532" lon="0.02987">
        <ele>881.9</ele>
        <time>2017-07-31T09:04:10Z</time>
      </trkpt>
      <trkpt lat="42.43536" lon="0.0299">
        <ele>881.7</ele>
        <time>2017-07-31T09:04:12Z</time>
      </trkpt>
      <trkpt lat="42.43538" lon="0.02993">
        <ele>881.5</ele>
        <time>2017-07-31T09:04:14Z</time>
      </trkpt>
      <trkpt lat="42.43539" lon="0.02997">
        <ele>881.3</ele>
        <time>2017-07-31T09:04:21Z</time>
      </trkpt>
      <trkpt lat="42.4354" lon="0.03">
        <ele>881.1</ele>
        <time>2017-07-31T09:04:25Z</time>
      </trkpt>
      <trkpt lat="42.43543" lon="0.03004">
        <ele>880.9</ele>
        <time>2017-07-31T09:04:29Z</time>
      </trkpt>
      <trkpt lat="42.43544" lon="0.03007">
        <ele>880.8</ele>
        <time>2017-07-31T09:04:35Z</time>
      </trkpt>
      <trkpt lat="42.43547" lon="0.0301">
        <ele>880.6</ele>
        <time>2017-07-31T09:04:37Z</time>
      </trkpt>
      <trkpt lat="42.43551" lon="0.03012">
        <ele>880.3</ele>
        <time>2017-07-31T09:04:39Z</time>
      </trkpt>
      <trkpt lat="42.43554" lon="0.03014">
        <ele>880.1</ele>
        <time>2017-07-31T09:04:41Z</time>
      </trkpt>
      <trkpt lat="42.43556" lon="0.03017">
        <ele>879.9</ele>
        <time>2017-07-31T09:04:43Z</time>
      </trkpt>
      <trkpt lat="42.4356" lon="0.03019">
        <ele>879.7</ele>
        <time>2017-07-31T09:04:45Z</time>
      </trkpt>
      <trkpt lat="42.43564" lon="0.03019">
        <ele>879.5</ele>
        <time>2017-07-31T09:04:47Z</time>
      </trkpt>
      <trkpt lat="42.43567" lon="0.03019">
        <ele>879.3</ele>
        <time>2017-07-31T09:04:49Z</time>
      </trkpt>
      <trkpt lat="42.4357" lon="0.03019">
        <ele>879.1</ele>
        <time>2017-07-31T09:04:51Z</time>
      </trkpt>
      <trkpt lat="42.43574" lon="0.0302">
        <ele>878.9</ele>
        <time>2017-07-31T09:04:53Z</time>
      </trkpt>
      <trkpt lat="42.43578" lon="0.03021">
        <ele>878.7</ele>
        <time>2017-07-31T09:04:55Z</time>
      </trkpt>
      <trkpt lat="42.43582" lon="0.03023">
        <ele>878.4</ele>
        <time>2017-07-31T09:04:57Z</time>
      </trkpt>
      <trkpt lat="42.43585" lon="0.03024">
        <ele>878.2</ele>
        <time>2017-07-31T09:04:58Z</time>
      </trkpt>
      <trkpt lat="42.4359" lon="0.03025">
        <ele>878</ele>
        <time>2017-07-31T09:05:00Z</time>
      </trkpt>
      <trkpt lat="42.43593" lon="0.03027">
        <ele>877.8</ele>
        <time>2017-07-31T09:05:02Z</time>
      </trkpt>
      <trkpt lat="42.43596" lon="0.0303">
        <ele>877.5</ele>
        <time>2017-07-31T09:05:04Z</time>
      </trkpt>
      <trkpt lat="42.43598" lon="0.03034">
        <ele>877.4</ele>
        <time>2017-07-31T09:05:07Z</time>
      </trkpt>
      <trkpt lat="42.436" lon="0.03037">
        <ele>877.2</ele>
        <time>2017-07-31T09:05:09Z</time>
      </trkpt>
      <trkpt lat="42.43603" lon="0.03041">
        <ele>877</ele>
        <time>2017-07-31T09:05:11Z</time>
      </trkpt>
      <trkpt lat="42.43604" lon="0.03045">
        <ele>876.8</ele>
        <time>2017-07-31T09:05:13Z</time>
      </trkpt>
      <trkpt lat="42.43604" lon="0.0305">
        <ele>876.6</ele>
        <time>2017-07-31T09:05:15Z</time>
      </trkpt>
      <trkpt lat="42.43604" lon="0.03054">
        <ele>876.4</ele>
        <time>2017-07-31T09:05:19Z</time>
      </trkpt>
      <trkpt lat="42.43606" lon="0.03058">
        <ele>876.2</ele>
        <time>2017-07-31T09:05:22Z</time>
      </trkpt>
      <trkpt lat="42.4361" lon="0.0306">
        <ele>875.9</ele>
        <time>2017-07-31T09:05:24Z</time>
      </trkpt>
      <trkpt lat="42.43613" lon="0.03061">
        <ele>875.8</ele>
        <time>2017-07-31T09:05:25Z</time>
      </trkpt>
      <trkpt lat="42.43616" lon="0.03062">
        <ele>875.6</ele>
        <time>2017-07-31T09:05:26Z</time>
      </trkpt>
      <trkpt lat="42.43619" lon="0.03063">
        <ele>875.4</ele>
        <time>2017-07-31T09:05:27Z</time>
      </trkpt>
      <trkpt lat="42.43623" lon="0.03067">
        <ele>875.1</ele>
        <time>2017-07-31T09:05:29Z</time>
      </trkpt>
      <trkpt lat="42.43625" lon="0.03072">
        <ele>874.9</ele>
        <time>2017-07-31T09:05:31Z</time>
      </trkpt>
      <trkpt lat="42.43626" lon="0.03077">
        <ele>874.7</ele>
        <time>2017-07-31T09:05:33Z</time>
      </trkpt>
      <trkpt lat="42.43627" lon="0.03082">
        <ele>874.4</ele>
        <time>2017-07-31T09:05:35Z</time>
      </trkpt>
      <trkpt lat="42.43627" lon="0.03088">
        <ele>874.2</ele>
        <time>2017-07-31T09:05:37Z</time>
      </trkpt>
      <trkpt lat="42.43628" lon="0.03092">
        <ele>874</ele>
        <time>2017-07-31T09:05:39Z</time>
      </trkpt>
      <trkpt lat="42.43629" lon="0.03096">
        <ele>873.8</ele>
        <time>2017-07-31T09:05:41Z</time>
      </trkpt>
      <trkpt lat="42.43631" lon="0.03099">
        <ele>873.7</ele>
        <time>2017-07-31T09:05:43Z</time>
      </trkpt>
      <trkpt lat="42.43632" lon="0.03102">
        <ele>873.5</ele>
        <time>2017-07-31T09:05:45Z</time>
      </trkpt>
      <trkpt lat="42.43635" lon="0.03105">
        <ele>873.3</ele>
        <time>2017-07-31T09:05:47Z</time>
      </trkpt>
      <trkpt lat="42.43638" lon="0.03109">
        <ele>873.1</ele>
        <time>2017-07-31T09:05:50Z</time>
      </trkpt>
      <trkpt lat="42.4364" lon="0.03113">
        <ele>872.9</ele>
        <time>2017-07-31T09:05:52Z</time>
      </trkpt>
      <trkpt lat="42.43642" lon="0.03117">
        <ele>872.7</ele>
        <time>2017-07-31T09:05:54Z</time>
      </trkpt>
      <trkpt lat="42.43644" lon="0.03121">
        <ele>872.5</ele>
        <time>2017-07-31T09:05:56Z</time>
      </trkpt>
      <trkpt lat="42.43644" lon="0.03124">
        <ele>872.3</ele>
        <time>2017-07-31T09:06:01Z</time>
      </trkpt>
      <trkpt lat="42.43645" lon="0.03128">
        <ele>872.1</ele>
        <time>2017-07-31T09:06:05Z</time>
      </trkpt>
      <trkpt lat="42.43646" lon="0.03132">
        <ele>872</ele>
        <time>2017-07-31T09:06:11Z</time>
      </trkpt>
      <trkpt lat="42.43648" lon="0.03134">
        <ele>871.8</ele>
        <time>2017-07-31T09:06:15Z</time>
      </trkpt>
      <trkpt lat="42.43651" lon="0.03136">
        <ele>871.6</ele>
        <time>2017-07-31T09:06:19Z</time>
      </trkpt>
      <trkpt lat="42.43652" lon="0.0314">
        <ele>871.5</ele>
        <time>2017-07-31T09:06:23Z</time>
      </trkpt>
      <trkpt lat="42.43654" lon="0.03143">
        <ele>871.3</ele>
        <time>2017-07-31T09:06:27Z</time>
      </trkpt>
      <trkpt lat="42.43656" lon="0.03146">
        <ele>871.1</ele>
        <time>2017-07-31T09:06:32Z</time>
      </trkpt>
      <trkpt lat="42.43656" lon="0.0315">
        <ele>871</ele>
        <time>2017-07-31T09:06:36Z</time>
      </trkpt>
      <trkpt lat="42.43658" lon="0.03153">
        <ele>870.8</ele>
        <time>2017-07-31T09:06:40Z</time>
      </trkpt>
      <trkpt lat="42.4366" lon="0.03156">
        <ele>870.6</ele>
        <time>2017-07-31T09:06:44Z</time>
      </trkpt>
      <trkpt lat="42.43662" lon="0.03159">
        <ele>870.5</ele>
        <time>2017-07-31T09:06:49Z</time>
      </trkpt>
      <trkpt lat="42.43663" lon="0.03162">
        <ele>870.3</ele>
        <time>2017-07-31T09:06:53Z</time>
      </trkpt>
      <trkpt lat="42.43665" lon="0.03166">
        <ele>870.1</ele>
        <time>2017-07-31T09:06:57Z</time>
      </trkpt>
      <trkpt lat="42.43667" lon="0.03169">
        <ele>869.9</ele>
        <time>2017-07-31T09:07:03Z</time>
      </trkpt>
      <trkpt lat="42.43669" lon="0.03172">
        <ele>869.8</ele>
        <time>2017-07-31T09:07:05Z</time>
      </trkpt>
      <trkpt lat="42.43671" lon="0.03175">
        <ele>869.6</ele>
        <time>2017-07-31T09:07:07Z</time>
      </trkpt>
      <trkpt lat="42.43674" lon="0.03179">
        <ele>869.3</ele>
        <time>2017-07-31T09:07:09Z</time>
      </trkpt>
      <trkpt lat="42.43677" lon="0.03183">
        <ele>869.1</ele>
        <time>2017-07-31T09:07:11Z</time>
      </trkpt>
      <trkpt lat="42.43681" lon="0.03187">
        <ele>868.8</ele>
        <time>2017-07-31T09:07:13Z</time>
      </trkpt>
      <trkpt lat="42.43684" lon="0.0319">
        <ele>868.6</ele>
        <time>2017-07-31T09:07:15Z</time>
      </trkpt>
      <trkpt lat="42.43688" lon="0.03192">
        <ele>868.4</ele>
        <time>2017-07-31T09:07:17Z</time>
      </trkpt>
      <trkpt lat="42.43692" lon="0.03196">
        <ele>868.1</ele>
        <time>2017-07-31T09:07:19Z</time>
      </trkpt>
      <trkpt lat="42.43696" lon="0.03199">
        <ele>867.8</ele>
        <time>2017-07-31T09:07:21Z</time>
      </trkpt>
      <trkpt lat="42.437" lon="0.03201">
        <ele>867.5</ele>
        <time>2017-07-31T09:07:23Z</time>
      </trkpt>
      <trkpt lat="42.43705" lon="0.03203">
        <ele>867.3</ele>
        <time>2017-07-31T09:07:25Z</time>
      </trkpt>
      <trkpt lat="42.4371" lon="0.03204">
        <ele>867</ele>
        <time>2017-07-31T09:07:27Z</time>
      </trkpt>
      <trkpt lat="42.43714" lon="0.03204">
        <ele>866.7</ele>
        <time>2017-07-31T09:07:29Z</time>
      </trkpt>
      <trkpt lat="42.43719" lon="0.03204">
        <ele>866.5</ele>
        <time>2017-07-31T09:07:31Z</time>
      </trkpt>
      <trkpt lat="42.43722" lon="0.03205">
        <ele>866.3</ele>
        <time>2017-07-31T09:07:33Z</time>
      </trkpt>
      <trkpt lat="42.43726" lon="0.03207">
        <ele>866</ele>
        <time>2017-07-31T09:07:35Z</time>
      </trkpt>
      <trkpt lat="42.4373" lon="0.03207">
        <ele>865.8</ele>
        <time>2017-07-31T09:07:37Z</time>
      </trkpt>
      <trkpt lat="42.43734" lon="0.03207">
        <ele>865.6</ele>
        <time>2017-07-31T09:07:39Z</time>
      </trkpt>
      <trkpt lat="42.43738" lon="0.03206">
        <ele>865.4</ele>
        <time>2017-07-31T09:07:41Z</time>
      </trkpt>
      <trkpt lat="42.43742" lon="0.03207">
        <ele>865.1</ele>
        <time>2017-07-31T09:07:43Z</time>
      </trkpt>
      <trkpt lat="42.43745" lon="0.03207">
        <ele>864.9</ele>
        <time>2017-07-31T09:07:45Z</time>
      </trkpt>
      <trkpt lat="42.43749" lon="0.03207">
        <ele>864.7</ele>
        <time>2017-07-31T09:07:47Z</time>
      </trkpt>
      <trkpt lat="42.43752" lon="0.03207">
        <ele>864.5</ele>
        <time>2017-07-31T09:07:49Z</time>
      </trkpt>
      <trkpt lat="42.43756" lon="0.03207">
        <ele>864.3</ele>
        <time>2017-07-31T09:07:51Z</time>
      </trkpt>
      <trkpt lat="42.43759" lon="0.03208">
        <ele>864.1</ele>
        <time>2017-07-31T09:07:53Z</time>
      </trkpt>
      <trkpt lat="42.43762" lon="0.03209">
        <ele>863.9</ele>
        <time>2017-07-31T09:07:55Z</time>
      </trkpt>
      <trkpt lat="42.43765" lon="0.0321">
        <ele>863.8</ele>
        <time>2017-07-31T09:07:57Z</time>
      </trkpt>
      <trkpt lat="42.43769" lon="0.03211">
        <ele>863.5</ele>
        <time>2017-07-31T09:08:00Z</time>
      </trkpt>
      <trkpt lat="42.43771" lon="0.03214">
        <ele>863.4</ele>
        <time>2017-07-31T09:08:02Z</time>
      </trkpt>
      <trkpt lat="42.43774" lon="0.03217">
        <ele>863.1</ele>
        <time>2017-07-31T09:08:04Z</time>
      </trkpt>
      <trkpt lat="42.43778" lon="0.03219">
        <ele>862.9</ele>
        <time>2017-07-31T09:08:06Z</time>
      </trkpt>
      <trkpt lat="42.43781" lon="0.03219">
        <ele>862.7</ele>
        <time>2017-07-31T09:08:08Z</time>
      </trkpt>
      <trkpt lat="42.43785" lon="0.03221">
        <ele>862.5</ele>
        <time>2017-07-31T09:08:10Z</time>
      </trkpt>
      <trkpt lat="42.43788" lon="0.03223">
        <ele>862.3</ele>
        <time>2017-07-31T09:08:12Z</time>
      </trkpt>
      <trkpt lat="42.43793" lon="0.03225">
        <ele>862</ele>
        <time>2017-07-31T09:08:14Z</time>
      </trkpt>
      <trkpt lat="42.43797" lon="0.03228">
        <ele>861.7</ele>
        <time>2017-07-31T09:08:16Z</time>
      </trkpt>
      <trkpt lat="42.43802" lon="0.03231">
        <ele>861.4</ele>
        <time>2017-07-31T09:08:18Z</time>
      </trkpt>
      <trkpt lat="42.43806" lon="0.03235">
        <ele>861.2</ele>
        <time>2017-07-31T09:08:20Z</time>
      </trkpt>
      <trkpt lat="42.4381" lon="0.03239">
        <ele>860.9</ele>
        <time>2017-07-31T09:08:22Z</time>
      </trkpt>
      <trkpt lat="42.43812" lon="0.03241">
        <ele>860.7</ele>
        <time>2017-07-31T09:08:23Z</time>
      </trkpt>
      <trkpt lat="42.43816" lon="0.03242">
        <ele>860.5</ele>
        <time>2017-07-31T09:08:24Z</time>
      </trkpt>
      <trkpt lat="42.4382" lon="0.03242">
        <ele>860.3</ele>
        <time>2017-07-31T09:08:25Z</time>
      </trkpt>
      <trkpt lat="42.43824" lon="0.03241">
        <ele>860</ele>
        <time>2017-07-31T09:08:27Z</time>
      </trkpt>
      <trkpt lat="42.43827" lon="0.03239">
        <ele>859.8</ele>
        <time>2017-07-31T09:08:29Z</time>
      </trkpt>
      <trkpt lat="42.4383" lon="0.03239">
        <ele>859.6</ele>
        <time>2017-07-31T09:08:31Z</time>
      </trkpt>
      <trkpt lat="42.43834" lon="0.03239">
        <ele>859.4</ele>
        <time>2017-07-31T09:08:33Z</time>
      </trkpt>
      <trkpt lat="42.43837" lon="0.03239">
        <ele>859.2</ele>
        <time>2017-07-31T09:08:35Z</time>
      </trkpt>
      <trkpt lat="42.43841" lon="0.03239">
        <ele>859</ele>
        <time>2017-07-31T09:08:37Z</time>
      </trkpt>
      <trkpt lat="42.43844" lon="0.03239">
        <ele>858.8</ele>
        <time>2017-07-31T09:08:39Z</time>
      </trkpt>
      <trkpt lat="42.43848" lon="0.03238">
        <ele>858.6</ele>
        <time>2017-07-31T09:08:41Z</time>
      </trkpt>
      <trkpt lat="42.43851" lon="0.0324">
        <ele>858.5</ele>
        <time>2017-07-31T09:08:43Z</time>
      </trkpt>
      <trkpt lat="42.43854" lon="0.03243">
        <ele>858.3</ele>
        <time>2017-07-31T09:08:45Z</time>
      </trkpt>
      <trkpt lat="42.43856" lon="0.03247">
        <ele>858</ele>
        <time>2017-07-31T09:08:47Z</time>
      </trkpt>
      <trkpt lat="42.4386" lon="0.03251">
        <ele>857.7</ele>
        <time>2017-07-31T09:08:49Z</time>
      </trkpt>
      <trkpt lat="42.43863" lon="0.03254">
        <ele>857.5</ele>
        <time>2017-07-31T09:08:51Z</time>
      </trkpt>
      <trkpt lat="42.43865" lon="0.03256">
        <ele>857.4</ele>
        <time>2017-07-31T09:08:53Z</time>
      </trkpt>
      <trkpt lat="42.43868" lon="0.03258">
        <ele>857.2</ele>
        <time>2017-07-31T09:08:55Z</time>
      </trkpt>
      <trkpt lat="42.4387" lon="0.0326">
        <ele>857</ele>
        <time>2017-07-31T09:08:57Z</time>
      </trkpt>
      <trkpt lat="42.43872" lon="0.03264">
        <ele>856.8</ele>
        <time>2017-07-31T09:08:59Z</time>
      </trkpt>
      <trkpt lat="42.43874" lon="0.03269">
        <ele>856.6</ele>
        <time>2017-07-31T09:09:01Z</time>
      </trkpt>
      <trkpt lat="42.43876" lon="0.03274">
        <ele>856.4</ele>
        <time>2017-07-31T09:09:03Z</time>
      </trkpt>
      <trkpt lat="42.43878" lon="0.03278">
        <ele>856.1</ele>
        <time>2017-07-31T09:09:05Z</time>
      </trkpt>
      <trkpt lat="42.43879" lon="0.03282">
        <ele>856</ele>
        <time>2017-07-31T09:09:07Z</time>
      </trkpt>
      <trkpt lat="42.43881" lon="0.03287">
        <ele>855.7</ele>
        <time>2017-07-31T09:09:09Z</time>
      </trkpt>
      <trkpt lat="42.43883" lon="0.03294">
        <ele>855.4</ele>
        <time>2017-07-31T09:09:11Z</time>
      </trkpt>
      <trkpt lat="42.43883" lon="0.03297">
        <ele>855.3</ele>
        <time>2017-07-31T09:09:12Z</time>
      </trkpt>
      <trkpt lat="42.43884" lon="0.03301">
        <ele>855.1</ele>
        <time>2017-07-31T09:09:13Z</time>
      </trkpt>
      <trkpt lat="42.43886" lon="0.03305">
        <ele>854.9</ele>
        <time>2017-07-31T09:09:14Z</time>
      </trkpt>
      <trkpt lat="42.43888" lon="0.0331">
        <ele>854.7</ele>
        <time>2017-07-31T09:09:16Z</time>
      </trkpt>
      <trkpt lat="42.43891" lon="0.03316">
        <ele>854.4</ele>
        <time>2017-07-31T09:09:18Z</time>
      </trkpt>
      <trkpt lat="42.43894" lon="0.0332">
        <ele>854.1</ele>
        <time>2017-07-31T09:09:20Z</time>
      </trkpt>
      <trkpt lat="42.43896" lon="0.03323">
        <ele>853.9</ele>
        <time>2017-07-31T09:09:22Z</time>
      </trkpt>
      <trkpt lat="42.43899" lon="0.03329">
        <ele>853.6</ele>
        <time>2017-07-31T09:09:24Z</time>
      </trkpt>
      <trkpt lat="42.439" lon="0.03333">
        <ele>853.5</ele>
        <time>2017-07-31T09:09:25Z</time>
      </trkpt>
      <trkpt lat="42.43903" lon="0.03338">
        <ele>853.2</ele>
        <time>2017-07-31T09:09:27Z</time>
      </trkpt>
      <trkpt lat="42.43907" lon="0.03339">
        <ele>852.9</ele>
        <time>2017-07-31T09:09:29Z</time>
      </trkpt>
      <trkpt lat="42.43911" lon="0.03338">
        <ele>852.7</ele>
        <time>2017-07-31T09:09:32Z</time>
      </trkpt>
      <trkpt lat="42.43915" lon="0.03339">
        <ele>852.5</ele>
        <time>2017-07-31T09:09:35Z</time>
      </trkpt>
      <trkpt lat="42.4392" lon="0.03341">
        <ele>852.2</ele>
        <time>2017-07-31T09:09:37Z</time>
      </trkpt>
      <trkpt lat="42.43923" lon="0.03342">
        <ele>852</ele>
        <time>2017-07-31T09:09:38Z</time>
      </trkpt>
      <trkpt lat="42.43926" lon="0.03343">
        <ele>851.9</ele>
        <time>2017-07-31T09:09:39Z</time>
      </trkpt>
      <trkpt lat="42.43928" lon="0.03344">
        <ele>851.7</ele>
        <time>2017-07-31T09:09:40Z</time>
      </trkpt>
      <trkpt lat="42.43932" lon="0.03345">
        <ele>851.5</ele>
        <time>2017-07-31T09:09:42Z</time>
      </trkpt>
      <trkpt lat="42.43935" lon="0.03344">
        <ele>851.3</ele>
        <time>2017-07-31T09:09:44Z</time>
      </trkpt>
      <trkpt lat="42.43938" lon="0.0334">
        <ele>851.1</ele>
        <time>2017-07-31T09:09:46Z</time>
      </trkpt>
      <trkpt lat="42.43941" lon="0.03337">
        <ele>850.9</ele>
        <time>2017-07-31T09:09:48Z</time>
      </trkpt>
      <trkpt lat="42.43943" lon="0.03333">
        <ele>850.6</ele>
        <time>2017-07-31T09:09:50Z</time>
      </trkpt>
      <trkpt lat="42.43945" lon="0.0333">
        <ele>850.5</ele>
        <time>2017-07-31T09:09:52Z</time>
      </trkpt>
      <trkpt lat="42.43947" lon="0.0333">
        <ele>850.3</ele>
        <time>2017-07-31T09:09:55Z</time>
      </trkpt>
      <trkpt lat="42.4395" lon="0.03335">
        <ele>850.1</ele>
        <time>2017-07-31T09:09:58Z</time>
      </trkpt>
      <trkpt lat="42.43953" lon="0.03337">
        <ele>849.9</ele>
        <time>2017-07-31T09:10:00Z</time>
      </trkpt>
      <trkpt lat="42.43955" lon="0.0334">
        <ele>849.7</ele>
        <time>2017-07-31T09:10:02Z</time>
      </trkpt>
      <trkpt lat="42.43958" lon="0.03345">
        <ele>849.4</ele>
        <time>2017-07-31T09:10:04Z</time>
      </trkpt>
      <trkpt lat="42.43958" lon="0.03349">
        <ele>849.3</ele>
        <time>2017-07-31T09:10:10Z</time>
      </trkpt>
      <trkpt lat="42.4396" lon="0.03353">
        <ele>849.1</ele>
        <time>2017-07-31T09:10:17Z</time>
      </trkpt>
      <trkpt lat="42.43963" lon="0.03354">
        <ele>848.9</ele>
        <time>2017-07-31T09:10:29Z</time>
      </trkpt>
      <trkpt lat="42.43965" lon="0.03355">
        <ele>848.8</ele>
        <time>2017-07-31T09:10:39Z</time>
      </trkpt>
      <trkpt lat="42.43968" lon="0.03353">
        <ele>848.6</ele>
        <time>2017-07-31T09:10:44Z</time>
      </trkpt>
      <trkpt lat="42.4397" lon="0.03351">
        <ele>848.4</ele>
        <time>2017-07-31T09:10:52Z</time>
      </trkpt>
      <trkpt lat="42.43971" lon="0.03348">
        <ele>848.3</ele>
        <time>2017-07-31T09:11:01Z</time>
      </trkpt>
      <trkpt lat="42.43971" lon="0.03344">
        <ele>848.1</ele>
        <time>2017-07-31T09:11:07Z</time>
      </trkpt>
      <trkpt lat="42.43974" lon="0.03342">
        <ele>847.9</ele>
        <time>2017-07-31T09:11:13Z</time>
      </trkpt>
      <trkpt lat="42.43976" lon="0.03345">
        <ele>847.7</ele>
        <time>2017-07-31T09:11:19Z</time>
      </trkpt>
      <trkpt lat="42.43989" lon="0.03355">
        <ele>846.9</ele>
        <time>2017-07-31T09:12:16Z</time>
      </trkpt>
      <trkpt lat="42.43991" lon="0.03358">
        <ele>846.7</ele>
        <time>2017-07-31T09:12:19Z</time>
      </trkpt>
      <trkpt lat="42.43993" lon="0.03362">
        <ele>846.5</ele>
        <time>2017-07-31T09:12:22Z</time>
      </trkpt>
      <trkpt lat="42.43994" lon="0.03366">
        <ele>846.3</ele>
        <time>2017-07-31T09:12:25Z</time>
      </trkpt>
      <trkpt lat="42.43995" lon="0.0337">
        <ele>846.1</ele>
        <time>2017-07-31T09:12:29Z</time>
      </trkpt>
      <trkpt lat="42.43997" lon="0.03374">
        <ele>845.9</ele>
        <time>2017-07-31T09:12:34Z</time>
      </trkpt>
      <trkpt lat="42.44001" lon="0.03379">
        <ele>845.6</ele>
        <time>2017-07-31T09:12:59Z</time>
      </trkpt>
      <trkpt lat="42.44001" lon="0.03383">
        <ele>845.4</ele>
        <time>2017-07-31T09:13:02Z</time>
      </trkpt>
      <trkpt lat="42.44" lon="0.03387">
        <ele>845.3</ele>
        <time>2017-07-31T09:13:05Z</time>
      </trkpt>
      <trkpt lat="42.44" lon="0.03392">
        <ele>845.1</ele>
        <time>2017-07-31T09:13:08Z</time>
      </trkpt>
      <trkpt lat="42.44" lon="0.03397">
        <ele>844.9</ele>
        <time>2017-07-31T09:13:11Z</time>
      </trkpt>
      <trkpt lat="42.43999" lon="0.03401">
        <ele>844.7</ele>
        <time>2017-07-31T09:13:22Z</time>
      </trkpt>
      <trkpt lat="42.44" lon="0.03406">
        <ele>844.5</ele>
        <time>2017-07-31T09:13:24Z</time>
      </trkpt>
      <trkpt lat="42.44" lon="0.03411">
        <ele>844.2</ele>
        <time>2017-07-31T09:13:26Z</time>
      </trkpt>
      <trkpt lat="42.43998" lon="0.03418">
        <ele>843.9</ele>
        <time>2017-07-31T09:13:28Z</time>
      </trkpt>
      <trkpt lat="42.43997" lon="0.03422">
        <ele>843.7</ele>
        <time>2017-07-31T09:13:29Z</time>
      </trkpt>
      <trkpt lat="42.43996" lon="0.03426">
        <ele>843.5</ele>
        <time>2017-07-31T09:13:30Z</time>
      </trkpt>
      <trkpt lat="42.43994" lon="0.03431">
        <ele>843.4</ele>
        <time>2017-07-31T09:13:31Z</time>
      </trkpt>
      <trkpt lat="42.43993" lon="0.03435">
        <ele>843.1</ele>
        <time>2017-07-31T09:13:32Z</time>
      </trkpt>
      <trkpt lat="42.43992" lon="0.0344">
        <ele>842.9</ele>
        <time>2017-07-31T09:13:33Z</time>
      </trkpt>
      <trkpt lat="42.43992" lon="0.03445">
        <ele>842.7</ele>
        <time>2017-07-31T09:13:34Z</time>
      </trkpt>
      <trkpt lat="42.43992" lon="0.0345">
        <ele>842.5</ele>
        <time>2017-07-31T09:13:35Z</time>
      </trkpt>
      <trkpt lat="42.43992" lon="0.03455">
        <ele>842.3</ele>
        <time>2017-07-31T09:13:36Z</time>
      </trkpt>
      <trkpt lat="42.43992" lon="0.03461">
        <ele>842</ele>
        <time>2017-07-31T09:13:37Z</time>
      </trkpt>
      <trkpt lat="42.43993" lon="0.03466">
        <ele>841.8</ele>
        <time>2017-07-31T09:13:38Z</time>
      </trkpt>
      <trkpt lat="42.43993" lon="0.03471">
        <ele>841.6</ele>
        <time>2017-07-31T09:13:39Z</time>
      </trkpt>
      <trkpt lat="42.43992" lon="0.03476">
        <ele>841.4</ele>
        <time>2017-07-31T09:13:40Z</time>
      </trkpt>
      <trkpt lat="42.43992" lon="0.03481">
        <ele>841.2</ele>
        <time>2017-07-31T09:13:41Z</time>
      </trkpt>
      <trkpt lat="42.43991" lon="0.03485">
        <ele>841</ele>
        <time>2017-07-31T09:13:42Z</time>
      </trkpt>
      <trkpt lat="42.4399" lon="0.03489">
        <ele>840.8</ele>
        <time>2017-07-31T09:13:43Z</time>
      </trkpt>
      <trkpt lat="42.4399" lon="0.03493">
        <ele>840.6</ele>
        <time>2017-07-31T09:13:44Z</time>
      </trkpt>
      <trkpt lat="42.4399" lon="0.03498">
        <ele>840.4</ele>
        <time>2017-07-31T09:13:45Z</time>
      </trkpt>
      <trkpt lat="42.43991" lon="0.03503">
        <ele>840.2</ele>
        <time>2017-07-31T09:13:46Z</time>
      </trkpt>
      <trkpt lat="42.43994" lon="0.03508">
        <ele>839.9</ele>
        <time>2017-07-31T09:13:47Z</time>
      </trkpt>
      <trkpt lat="42.43998" lon="0.03513">
        <ele>839.6</ele>
        <time>2017-07-31T09:13:48Z</time>
      </trkpt>
      <trkpt lat="42.44002" lon="0.03519">
        <ele>839.3</ele>
        <time>2017-07-31T09:13:49Z</time>
      </trkpt>
      <trkpt lat="42.44006" lon="0.03525">
        <ele>838.9</ele>
        <time>2017-07-31T09:13:50Z</time>
      </trkpt>
      <trkpt lat="42.4401" lon="0.03532">
        <ele>838.6</ele>
        <time>2017-07-31T09:13:51Z</time>
      </trkpt>
      <trkpt lat="42.44012" lon="0.03539">
        <ele>838.3</ele>
        <time>2017-07-31T09:13:52Z</time>
      </trkpt>
      <trkpt lat="42.44014" lon="0.03544">
        <ele>838</ele>
        <time>2017-07-31T09:13:53Z</time>
      </trkpt>
      <trkpt lat="42.44015" lon="0.03549">
        <ele>837.8</ele>
        <time>2017-07-31T09:13:54Z</time>
      </trkpt>
      <trkpt lat="42.44016" lon="0.03553">
        <ele>837.6</ele>
        <time>2017-07-31T09:13:55Z</time>
      </trkpt>
      <trkpt lat="42.44019" lon="0.03558">
        <ele>837.3</ele>
        <time>2017-07-31T09:13:57Z</time>
      </trkpt>
      <trkpt lat="42.44021" lon="0.03563">
        <ele>837.1</ele>
        <time>2017-07-31T09:13:59Z</time>
      </trkpt>
      <trkpt lat="42.44023" lon="0.03567">
        <ele>836.9</ele>
        <time>2017-07-31T09:14:01Z</time>
      </trkpt>
      <trkpt lat="42.44025" lon="0.03572">
        <ele>836.7</ele>
        <time>2017-07-31T09:14:03Z</time>
      </trkpt>
      <trkpt lat="42.44027" lon="0.03575">
        <ele>836.5</ele>
        <time>2017-07-31T09:14:04Z</time>
      </trkpt>
      <trkpt lat="42.44028" lon="0.03579">
        <ele>836.3</ele>
        <time>2017-07-31T09:14:05Z</time>
      </trkpt>
      <trkpt lat="42.44029" lon="0.03583">
        <ele>836.1</ele>
        <time>2017-07-31T09:14:06Z</time>
      </trkpt>
      <trkpt lat="42.44029" lon="0.03588">
        <ele>835.9</ele>
        <time>2017-07-31T09:14:08Z</time>
      </trkpt>
      <trkpt lat="42.44029" lon="0.03594">
        <ele>835.7</ele>
        <time>2017-07-31T09:14:10Z</time>
      </trkpt>
      <trkpt lat="42.4403" lon="0.03599">
        <ele>835.5</ele>
        <time>2017-07-31T09:14:12Z</time>
      </trkpt>
      <trkpt lat="42.44029" lon="0.03603">
        <ele>835.3</ele>
        <time>2017-07-31T09:14:14Z</time>
      </trkpt>
      <trkpt lat="42.44028" lon="0.03608">
        <ele>835.1</ele>
        <time>2017-07-31T09:14:16Z</time>
      </trkpt>
      <trkpt lat="42.44027" lon="0.03613">
        <ele>834.8</ele>
        <time>2017-07-31T09:14:18Z</time>
      </trkpt>
      <trkpt lat="42.44025" lon="0.03617">
        <ele>834.6</ele>
        <time>2017-07-31T09:14:20Z</time>
      </trkpt>
      <trkpt lat="42.44024" lon="0.03621">
        <ele>834.5</ele>
        <time>2017-07-31T09:14:22Z</time>
      </trkpt>
      <trkpt lat="42.44025" lon="0.03626">
        <ele>834.3</ele>
        <time>2017-07-31T09:14:25Z</time>
      </trkpt>
      <trkpt lat="42.44028" lon="0.03627">
        <ele>834.1</ele>
        <time>2017-07-31T09:14:29Z</time>
      </trkpt>
      <trkpt lat="42.44033" lon="0.03631">
        <ele>833.7</ele>
        <time>2017-07-31T09:15:47Z</time>
      </trkpt>
      <trkpt lat="42.44035" lon="0.03634">
        <ele>833.5</ele>
        <time>2017-07-31T09:15:58Z</time>
      </trkpt>
      <trkpt lat="42.44037" lon="0.03637">
        <ele>833.4</ele>
        <time>2017-07-31T09:16:03Z</time>
      </trkpt>
      <trkpt lat="42.44039" lon="0.0364">
        <ele>833.2</ele>
        <time>2017-07-31T09:16:08Z</time>
      </trkpt>
      <trkpt lat="42.4404" lon="0.03644">
        <ele>833</ele>
        <time>2017-07-31T09:16:22Z</time>
      </trkpt>
      <trkpt lat="42.44042" lon="0.03647">
        <ele>832.9</ele>
        <time>2017-07-31T09:16:25Z</time>
      </trkpt>
      <trkpt lat="42.44045" lon="0.03649">
        <ele>832.7</ele>
        <time>2017-07-31T09:16:30Z</time>
      </trkpt>
      <trkpt lat="42.44046" lon="0.03652">
        <ele>832.5</ele>
        <time>2017-07-31T09:16:39Z</time>
      </trkpt>
      <trkpt lat="42.44048" lon="0.03655">
        <ele>832.3</ele>
        <time>2017-07-31T09:16:44Z</time>
      </trkpt>
      <trkpt lat="42.44051" lon="0.03657">
        <ele>832.2</ele>
        <time>2017-07-31T09:16:48Z</time>
      </trkpt>
      <trkpt lat="42.44055" lon="0.03668">
        <ele>831.7</ele>
        <time>2017-07-31T09:17:27Z</time>
      </trkpt>
      <trkpt lat="42.44056" lon="0.03672">
        <ele>831.5</ele>
        <time>2017-07-31T09:17:29Z</time>
      </trkpt>
      <trkpt lat="42.44058" lon="0.03675">
        <ele>831.3</ele>
        <time>2017-07-31T09:17:31Z</time>
      </trkpt>
      <trkpt lat="42.44061" lon="0.03678">
        <ele>831.1</ele>
        <time>2017-07-31T09:17:33Z</time>
      </trkpt>
      <trkpt lat="42.44063" lon="0.03682">
        <ele>830.9</ele>
        <time>2017-07-31T09:17:35Z</time>
      </trkpt>
      <trkpt lat="42.44066" lon="0.03687">
        <ele>830.6</ele>
        <time>2017-07-31T09:17:37Z</time>
      </trkpt>
      <trkpt lat="42.44068" lon="0.03691">
        <ele>830.4</ele>
        <time>2017-07-31T09:17:39Z</time>
      </trkpt>
      <trkpt lat="42.44071" lon="0.03696">
        <ele>830.2</ele>
        <time>2017-07-31T09:17:41Z</time>
      </trkpt>
      <trkpt lat="42.44073" lon="0.03702">
        <ele>829.9</ele>
        <time>2017-07-31T09:17:43Z</time>
      </trkpt>
      <trkpt lat="42.44076" lon="0.03708">
        <ele>829.6</ele>
        <time>2017-07-31T09:17:45Z</time>
      </trkpt>
      <trkpt lat="42.44078" lon="0.03713">
        <ele>829.3</ele>
        <time>2017-07-31T09:17:47Z</time>
      </trkpt>
      <trkpt lat="42.44081" lon="0.03718">
        <ele>829</ele>
        <time>2017-07-31T09:17:49Z</time>
      </trkpt>
      <trkpt lat="42.44083" lon="0.03724">
        <ele>828.8</ele>
        <time>2017-07-31T09:17:51Z</time>
      </trkpt>
      <trkpt lat="42.44085" lon="0.03728">
        <ele>828.6</ele>
        <time>2017-07-31T09:17:53Z</time>
      </trkpt>
      <trkpt lat="42.44087" lon="0.03732">
        <ele>828.4</ele>
        <time>2017-07-31T09:17:55Z</time>
      </trkpt>
      <trkpt lat="42.44089" lon="0.03736">
        <ele>828.1</ele>
        <time>2017-07-31T09:17:57Z</time>
      </trkpt>
      <trkpt lat="42.44093" lon="0.03742">
        <ele>827.8</ele>
        <time>2017-07-31T09:17:59Z</time>
      </trkpt>
      <trkpt lat="42.44095" lon="0.03745">
        <ele>827.6</ele>
        <time>2017-07-31T09:18:00Z</time>
      </trkpt>
      <trkpt lat="42.44097" lon="0.03748">
        <ele>827.5</ele>
        <time>2017-07-31T09:18:01Z</time>
      </trkpt>
      <trkpt lat="42.44098" lon="0.03751">
        <ele>827.3</ele>
        <time>2017-07-31T09:18:02Z</time>
      </trkpt>
      <trkpt lat="42.44101" lon="0.03754">
        <ele>827.1</ele>
        <time>2017-07-31T09:18:03Z</time>
      </trkpt>
      <trkpt lat="42.44103" lon="0.03757">
        <ele>827</ele>
        <time>2017-07-31T09:18:04Z</time>
      </trkpt>
      <trkpt lat="42.44105" lon="0.03759">
        <ele>826.8</ele>
        <time>2017-07-31T09:18:05Z</time>
      </trkpt>
      <trkpt lat="42.44108" lon="0.03761">
        <ele>826.6</ele>
        <time>2017-07-31T09:18:06Z</time>
      </trkpt>
      <trkpt lat="42.44111" lon="0.03764">
        <ele>826.4</ele>
        <time>2017-07-31T09:18:08Z</time>
      </trkpt>
      <trkpt lat="42.44116" lon="0.03766">
        <ele>826.1</ele>
        <time>2017-07-31T09:18:10Z</time>
      </trkpt>
      <trkpt lat="42.44118" lon="0.03769">
        <ele>825.9</ele>
        <time>2017-07-31T09:18:11Z</time>
      </trkpt>
      <trkpt lat="42.4412" lon="0.03771">
        <ele>825.8</ele>
        <time>2017-07-31T09:18:12Z</time>
      </trkpt>
      <trkpt lat="42.44122" lon="0.03774">
        <ele>825.6</ele>
        <time>2017-07-31T09:18:13Z</time>
      </trkpt>
      <trkpt lat="42.44125" lon="0.03776">
        <ele>825.4</ele>
        <time>2017-07-31T09:18:14Z</time>
      </trkpt>
      <trkpt lat="42.44129" lon="0.0378">
        <ele>825.2</ele>
        <time>2017-07-31T09:18:16Z</time>
      </trkpt>
      <trkpt lat="42.44134" lon="0.03786">
        <ele>824.8</ele>
        <time>2017-07-31T09:19:09Z</time>
      </trkpt>
      <trkpt lat="42.44137" lon="0.0379">
        <ele>824.5</ele>
        <time>2017-07-31T09:19:12Z</time>
      </trkpt>
      <trkpt lat="42.4414" lon="0.03793">
        <ele>824.3</ele>
        <time>2017-07-31T09:19:14Z</time>
      </trkpt>
      <trkpt lat="42.44141" lon="0.03796">
        <ele>824.2</ele>
        <time>2017-07-31T09:19:16Z</time>
      </trkpt>
      <trkpt lat="42.44143" lon="0.038">
        <ele>824</ele>
        <time>2017-07-31T09:19:18Z</time>
      </trkpt>
      <trkpt lat="42.44144" lon="0.03803">
        <ele>823.8</ele>
        <time>2017-07-31T09:19:19Z</time>
      </trkpt>
      <trkpt lat="42.44148" lon="0.03808">
        <ele>823.5</ele>
        <time>2017-07-31T09:19:21Z</time>
      </trkpt>
      <trkpt lat="42.44152" lon="0.03812">
        <ele>823.2</ele>
        <time>2017-07-31T09:19:23Z</time>
      </trkpt>
      <trkpt lat="42.44155" lon="0.03815">
        <ele>823</ele>
        <time>2017-07-31T09:19:25Z</time>
      </trkpt>
      <trkpt lat="42.44158" lon="0.03819">
        <ele>822.8</ele>
        <time>2017-07-31T09:19:27Z</time>
      </trkpt>
      <trkpt lat="42.44161" lon="0.03822">
        <ele>822.6</ele>
        <time>2017-07-31T09:19:29Z</time>
      </trkpt>
      <trkpt lat="42.44163" lon="0.03827">
        <ele>822.3</ele>
        <time>2017-07-31T09:19:31Z</time>
      </trkpt>
      <trkpt lat="42.44165" lon="0.0383">
        <ele>822.1</ele>
        <time>2017-07-31T09:19:33Z</time>
      </trkpt>
      <trkpt lat="42.4417" lon="0.03831">
        <ele>821.9</ele>
        <time>2017-07-31T09:19:35Z</time>
      </trkpt>
      <trkpt lat="42.44174" lon="0.03832">
        <ele>821.6</ele>
        <time>2017-07-31T09:19:37Z</time>
      </trkpt>
      <trkpt lat="42.44178" lon="0.03834">
        <ele>821.4</ele>
        <time>2017-07-31T09:19:39Z</time>
      </trkpt>
      <trkpt lat="42.44181" lon="0.0384">
        <ele>821.1</ele>
        <time>2017-07-31T09:19:41Z</time>
      </trkpt>
      <trkpt lat="42.44181" lon="0.03845">
        <ele>820.9</ele>
        <time>2017-07-31T09:19:42Z</time>
      </trkpt>
      <trkpt lat="42.44182" lon="0.03848">
        <ele>820.7</ele>
        <time>2017-07-31T09:19:43Z</time>
      </trkpt>
      <trkpt lat="42.44182" lon="0.03852">
        <ele>820.6</ele>
        <time>2017-07-31T09:19:44Z</time>
      </trkpt>
      <trkpt lat="42.44185" lon="0.03858">
        <ele>820.3</ele>
        <time>2017-07-31T09:19:46Z</time>
      </trkpt>
      <trkpt lat="42.44187" lon="0.0386">
        <ele>820.1</ele>
        <time>2017-07-31T09:19:47Z</time>
      </trkpt>
      <trkpt lat="42.44191" lon="0.03863">
        <ele>819.9</ele>
        <time>2017-07-31T09:19:49Z</time>
      </trkpt>
      <trkpt lat="42.44195" lon="0.03865">
        <ele>819.6</ele>
        <time>2017-07-31T09:19:51Z</time>
      </trkpt>
      <trkpt lat="42.44199" lon="0.03867">
        <ele>819.4</ele>
        <time>2017-07-31T09:19:53Z</time>
      </trkpt>
      <trkpt lat="42.44202" lon="0.03871">
        <ele>819.2</ele>
        <time>2017-07-31T09:19:55Z</time>
      </trkpt>
      <trkpt lat="42.44202" lon="0.03875">
        <ele>819</ele>
        <time>2017-07-31T09:19:57Z</time>
      </trkpt>
      <trkpt lat="42.442" lon="0.0388">
        <ele>818.7</ele>
        <time>2017-07-31T09:19:59Z</time>
      </trkpt>
      <trkpt lat="42.44198" lon="0.03884">
        <ele>818.5</ele>
        <time>2017-07-31T09:20:01Z</time>
      </trkpt>
      <trkpt lat="42.44195" lon="0.03888">
        <ele>818.3</ele>
        <time>2017-07-31T09:20:03Z</time>
      </trkpt>
      <trkpt lat="42.44192" lon="0.03891">
        <ele>818.1</ele>
        <time>2017-07-31T09:20:05Z</time>
      </trkpt>
      <trkpt lat="42.44189" lon="0.03892">
        <ele>817.9</ele>
        <time>2017-07-31T09:20:07Z</time>
      </trkpt>
      <trkpt lat="42.44185" lon="0.03894">
        <ele>817.6</ele>
        <time>2017-07-31T09:20:09Z</time>
      </trkpt>
      <trkpt lat="42.44181" lon="0.03897">
        <ele>817.4</ele>
        <time>2017-07-31T09:20:11Z</time>
      </trkpt>
      <trkpt lat="42.44179" lon="0.03898">
        <ele>817.2</ele>
        <time>2017-07-31T09:20:13Z</time>
      </trkpt>
      <trkpt lat="42.44179" lon="0.03903">
        <ele>817</ele>
        <time>2017-07-31T09:20:17Z</time>
      </trkpt>
      <trkpt lat="42.44182" lon="0.03906">
        <ele>816.8</ele>
        <time>2017-07-31T09:20:19Z</time>
      </trkpt>
      <trkpt lat="42.44186" lon="0.0391">
        <ele>816.5</ele>
        <time>2017-07-31T09:20:21Z</time>
      </trkpt>
      <trkpt lat="42.44188" lon="0.03913">
        <ele>816.3</ele>
        <time>2017-07-31T09:20:23Z</time>
      </trkpt>
      <trkpt lat="42.44189" lon="0.03917">
        <ele>816.1</ele>
        <time>2017-07-31T09:20:25Z</time>
      </trkpt>
      <trkpt lat="42.44188" lon="0.03922">
        <ele>815.9</ele>
        <time>2017-07-31T09:20:27Z</time>
      </trkpt>
      <trkpt lat="42.44192" lon="0.03926">
        <ele>815.7</ele>
        <time>2017-07-31T09:20:31Z</time>
      </trkpt>
      <trkpt lat="42.44195" lon="0.03928">
        <ele>815.4</ele>
        <time>2017-07-31T09:20:33Z</time>
      </trkpt>
      <trkpt lat="42.442" lon="0.0393">
        <ele>815.2</ele>
        <time>2017-07-31T09:20:35Z</time>
      </trkpt>
      <trkpt lat="42.44204" lon="0.03931">
        <ele>814.9</ele>
        <time>2017-07-31T09:20:37Z</time>
      </trkpt>
      <trkpt lat="42.44208" lon="0.03934">
        <ele>814.7</ele>
        <time>2017-07-31T09:20:39Z</time>
      </trkpt>
      <trkpt lat="42.4421" lon="0.03939">
        <ele>814.4</ele>
        <time>2017-07-31T09:20:41Z</time>
      </trkpt>
      <trkpt lat="42.44212" lon="0.03944">
        <ele>814.2</ele>
        <time>2017-07-31T09:20:43Z</time>
      </trkpt>
      <trkpt lat="42.44213" lon="0.03948">
        <ele>814</ele>
        <time>2017-07-31T09:20:45Z</time>
      </trkpt>
      <trkpt lat="42.44218" lon="0.03951">
        <ele>813.7</ele>
        <time>2017-07-31T09:20:47Z</time>
      </trkpt>
      <trkpt lat="42.4422" lon="0.03953">
        <ele>813.5</ele>
        <time>2017-07-31T09:20:48Z</time>
      </trkpt>
      <trkpt lat="42.44224" lon="0.03957">
        <ele>813.3</ele>
        <time>2017-07-31T09:20:50Z</time>
      </trkpt>
      <trkpt lat="42.44226" lon="0.0396">
        <ele>813.1</ele>
        <time>2017-07-31T09:20:52Z</time>
      </trkpt>
      <trkpt lat="42.4423" lon="0.03963">
        <ele>812.8</ele>
        <time>2017-07-31T09:20:54Z</time>
      </trkpt>
      <trkpt lat="42.44232" lon="0.03967">
        <ele>812.6</ele>
        <time>2017-07-31T09:20:56Z</time>
      </trkpt>
      <trkpt lat="42.4423" lon="0.03971">
        <ele>812.4</ele>
        <time>2017-07-31T09:20:58Z</time>
      </trkpt>
      <trkpt lat="42.44224" lon="0.03974">
        <ele>812.1</ele>
        <time>2017-07-31T09:21:00Z</time>
      </trkpt>
      <trkpt lat="42.4422" lon="0.03976">
        <ele>811.8</ele>
        <time>2017-07-31T09:21:02Z</time>
      </trkpt>
      <trkpt lat="42.4422" lon="0.03981">
        <ele>811.6</ele>
        <time>2017-07-31T09:21:05Z</time>
      </trkpt>
      <trkpt lat="42.44223" lon="0.03984">
        <ele>811.4</ele>
        <time>2017-07-31T09:21:07Z</time>
      </trkpt>
      <trkpt lat="42.44225" lon="0.03987">
        <ele>811.3</ele>
        <time>2017-07-31T09:21:10Z</time>
      </trkpt>
      <trkpt lat="42.44222" lon="0.0399">
        <ele>811.1</ele>
        <time>2017-07-31T09:21:12Z</time>
      </trkpt>
      <trkpt lat="42.44219" lon="0.03993">
        <ele>810.9</ele>
        <time>2017-07-31T09:21:14Z</time>
      </trkpt>
      <trkpt lat="42.4422" lon="0.03997">
        <ele>810.7</ele>
        <time>2017-07-31T09:21:16Z</time>
      </trkpt>
      <trkpt lat="42.44225" lon="0.04">
        <ele>810.4</ele>
        <time>2017-07-31T09:21:18Z</time>
      </trkpt>
      <trkpt lat="42.44229" lon="0.04001">
        <ele>810.2</ele>
        <time>2017-07-31T09:21:19Z</time>
      </trkpt>
      <trkpt lat="42.44232" lon="0.04002">
        <ele>810</ele>
        <time>2017-07-31T09:21:20Z</time>
      </trkpt>
      <trkpt lat="42.44235" lon="0.04004">
        <ele>809.8</ele>
        <time>2017-07-31T09:21:21Z</time>
      </trkpt>
      <trkpt lat="42.44238" lon="0.04005">
        <ele>809.7</ele>
        <time>2017-07-31T09:21:22Z</time>
      </trkpt>
      <trkpt lat="42.4424" lon="0.04006">
        <ele>809.5</ele>
        <time>2017-07-31T09:21:23Z</time>
      </trkpt>
      <trkpt lat="42.44243" lon="0.04008">
        <ele>809.3</ele>
        <time>2017-07-31T09:21:24Z</time>
      </trkpt>
      <trkpt lat="42.44246" lon="0.04009">
        <ele>809.2</ele>
        <time>2017-07-31T09:21:25Z</time>
      </trkpt>
      <trkpt lat="42.44248" lon="0.04011">
        <ele>809</ele>
        <time>2017-07-31T09:21:26Z</time>
      </trkpt>
      <trkpt lat="42.44251" lon="0.04013">
        <ele>808.8</ele>
        <time>2017-07-31T09:21:27Z</time>
      </trkpt>
      <trkpt lat="42.44255" lon="0.04015">
        <ele>808.6</ele>
        <time>2017-07-31T09:21:28Z</time>
      </trkpt>
      <trkpt lat="42.44258" lon="0.04017">
        <ele>808.4</ele>
        <time>2017-07-31T09:21:29Z</time>
      </trkpt>
      <trkpt lat="42.44261" lon="0.04018">
        <ele>808.2</ele>
        <time>2017-07-31T09:21:30Z</time>
      </trkpt>
      <trkpt lat="42.44266" lon="0.04019">
        <ele>807.9</ele>
        <time>2017-07-31T09:21:32Z</time>
      </trkpt>
      <trkpt lat="42.4427" lon="0.04022">
        <ele>807.6</ele>
        <time>2017-07-31T09:21:34Z</time>
      </trkpt>
      <trkpt lat="42.44272" lon="0.04026">
        <ele>807.4</ele>
        <time>2017-07-31T09:21:36Z</time>
      </trkpt>
      <trkpt lat="42.44269" lon="0.0403">
        <ele>807.2</ele>
        <time>2017-07-31T09:21:38Z</time>
      </trkpt>
      <trkpt lat="42.44266" lon="0.04033">
        <ele>807</ele>
        <time>2017-07-31T09:21:40Z</time>
      </trkpt>
      <trkpt lat="42.44267" lon="0.04036">
        <ele>806.8</ele>
        <time>2017-07-31T09:21:42Z</time>
      </trkpt>
      <trkpt lat="42.44269" lon="0.04038">
        <ele>806.6</ele>
        <time>2017-07-31T09:21:43Z</time>
      </trkpt>
      <trkpt lat="42.44272" lon="0.04039">
        <ele>806.5</ele>
        <time>2017-07-31T09:21:44Z</time>
      </trkpt>
      <trkpt lat="42.44275" lon="0.0404">
        <ele>806.3</ele>
        <time>2017-07-31T09:21:45Z</time>
      </trkpt>
      <trkpt lat="42.44278" lon="0.04041">
        <ele>806.1</ele>
        <time>2017-07-31T09:21:46Z</time>
      </trkpt>
      <trkpt lat="42.44281" lon="0.04041">
        <ele>805.9</ele>
        <time>2017-07-31T09:21:47Z</time>
      </trkpt>
      <trkpt lat="42.44284" lon="0.04042">
        <ele>805.8</ele>
        <time>2017-07-31T09:21:48Z</time>
      </trkpt>
      <trkpt lat="42.44288" lon="0.04044">
        <ele>805.5</ele>
        <time>2017-07-31T09:21:50Z</time>
      </trkpt>
      <trkpt lat="42.44291" lon="0.04044">
        <ele>805.3</ele>
        <time>2017-07-31T09:21:52Z</time>
      </trkpt>
      <trkpt lat="42.44294" lon="0.04043">
        <ele>805.2</ele>
        <time>2017-07-31T09:21:58Z</time>
      </trkpt>
      <trkpt lat="42.44298" lon="0.04045">
        <ele>804.9</ele>
        <time>2017-07-31T09:22:01Z</time>
      </trkpt>
      <trkpt lat="42.44303" lon="0.04047">
        <ele>804.7</ele>
        <time>2017-07-31T09:22:03Z</time>
      </trkpt>
      <trkpt lat="42.44306" lon="0.04048">
        <ele>804.4</ele>
        <time>2017-07-31T09:22:05Z</time>
      </trkpt>
      <trkpt lat="42.44305" lon="0.04052">
        <ele>804.3</ele>
        <time>2017-07-31T09:22:37Z</time>
      </trkpt>
      <trkpt lat="42.44302" lon="0.04054">
        <ele>804.1</ele>
        <time>2017-07-31T09:22:39Z</time>
      </trkpt>
      <trkpt lat="42.44299" lon="0.04057">
        <ele>803.9</ele>
        <time>2017-07-31T09:22:41Z</time>
      </trkpt>
      <trkpt lat="42.44296" lon="0.0406">
        <ele>803.6</ele>
        <time>2017-07-31T09:22:43Z</time>
      </trkpt>
      <trkpt lat="42.44292" lon="0.04063">
        <ele>803.3</ele>
        <time>2017-07-31T09:22:45Z</time>
      </trkpt>
      <trkpt lat="42.44288" lon="0.04064">
        <ele>803.1</ele>
        <time>2017-07-31T09:22:47Z</time>
      </trkpt>
      <trkpt lat="42.44285" lon="0.04067">
        <ele>802.9</ele>
        <time>2017-07-31T09:22:49Z</time>
      </trkpt>
      <trkpt lat="42.44284" lon="0.04071">
        <ele>802.8</ele>
        <time>2017-07-31T09:22:51Z</time>
      </trkpt>
      <trkpt lat="42.44286" lon="0.04074">
        <ele>802.6</ele>
        <time>2017-07-31T09:22:53Z</time>
      </trkpt>
      <trkpt lat="42.4429" lon="0.04077">
        <ele>802.3</ele>
        <time>2017-07-31T09:22:55Z</time>
      </trkpt>
      <trkpt lat="42.44294" lon="0.04079">
        <ele>802.1</ele>
        <time>2017-07-31T09:22:57Z</time>
      </trkpt>
      <trkpt lat="42.44298" lon="0.04081">
        <ele>801.8</ele>
        <time>2017-07-31T09:22:59Z</time>
      </trkpt>
      <trkpt lat="42.44302" lon="0.04084">
        <ele>801.6</ele>
        <time>2017-07-31T09:23:01Z</time>
      </trkpt>
      <trkpt lat="42.44302" lon="0.04089">
        <ele>801.4</ele>
        <time>2017-07-31T09:23:04Z</time>
      </trkpt>
      <trkpt lat="42.44298" lon="0.0409">
        <ele>801.1</ele>
        <time>2017-07-31T09:23:06Z</time>
      </trkpt>
      <trkpt lat="42.44298" lon="0.04094">
        <ele>801</ele>
        <time>2017-07-31T09:23:13Z</time>
      </trkpt>
      <trkpt lat="42.44301" lon="0.04096">
        <ele>800.8</ele>
        <time>2017-07-31T09:23:20Z</time>
      </trkpt>
      <trkpt lat="42.44302" lon="0.041">
        <ele>800.6</ele>
        <time>2017-07-31T09:23:24Z</time>
      </trkpt>
      <trkpt lat="42.443" lon="0.04104">
        <ele>800.4</ele>
        <time>2017-07-31T09:23:26Z</time>
      </trkpt>
      <trkpt lat="42.44298" lon="0.04106">
        <ele>800.2</ele>
        <time>2017-07-31T09:23:28Z</time>
      </trkpt>
      <trkpt lat="42.44295" lon="0.04107">
        <ele>800.1</ele>
        <time>2017-07-31T09:23:31Z</time>
      </trkpt>
      <trkpt lat="42.44297" lon="0.04111">
        <ele>799.9</ele>
        <time>2017-07-31T09:23:40Z</time>
      </trkpt>
      <trkpt lat="42.44301" lon="0.04113">
        <ele>799.7</ele>
        <time>2017-07-31T09:23:42Z</time>
      </trkpt>
      <trkpt lat="42.44304" lon="0.04115">
        <ele>799.4</ele>
        <time>2017-07-31T09:23:44Z</time>
      </trkpt>
      <trkpt lat="42.44308" lon="0.04118">
        <ele>799.2</ele>
        <time>2017-07-31T09:23:46Z</time>
      </trkpt>
      <trkpt lat="42.44312" lon="0.04121">
        <ele>798.9</ele>
        <time>2017-07-31T09:23:48Z</time>
      </trkpt>
      <trkpt lat="42.44317" lon="0.04122">
        <ele>798.6</ele>
        <time>2017-07-31T09:23:50Z</time>
      </trkpt>
      <trkpt lat="42.4432" lon="0.04124">
        <ele>798.5</ele>
        <time>2017-07-31T09:23:51Z</time>
      </trkpt>
      <trkpt lat="42.44322" lon="0.04126">
        <ele>798.3</ele>
        <time>2017-07-31T09:23:52Z</time>
      </trkpt>
      <trkpt lat="42.44325" lon="0.04128">
        <ele>798.1</ele>
        <time>2017-07-31T09:23:53Z</time>
      </trkpt>
      <trkpt lat="42.44328" lon="0.0413">
        <ele>797.9</ele>
        <time>2017-07-31T09:23:54Z</time>
      </trkpt>
      <trkpt lat="42.4433" lon="0.04132">
        <ele>797.8</ele>
        <time>2017-07-31T09:23:55Z</time>
      </trkpt>
      <trkpt lat="42.44332" lon="0.04134">
        <ele>797.6</ele>
        <time>2017-07-31T09:23:56Z</time>
      </trkpt>
      <trkpt lat="42.44337" lon="0.04137">
        <ele>797.4</ele>
        <time>2017-07-31T09:23:58Z</time>
      </trkpt>
      <trkpt lat="42.4434" lon="0.04141">
        <ele>797.1</ele>
        <time>2017-07-31T09:24:00Z</time>
      </trkpt>
      <trkpt lat="42.44344" lon="0.04145">
        <ele>796.8</ele>
        <time>2017-07-31T09:24:02Z</time>
      </trkpt>
      <trkpt lat="42.44348" lon="0.04148">
        <ele>796.5</ele>
        <time>2017-07-31T09:24:04Z</time>
      </trkpt>
      <trkpt lat="42.44353" lon="0.0415">
        <ele>796.3</ele>
        <time>2017-07-31T09:24:06Z</time>
      </trkpt>
      <trkpt lat="42.44355" lon="0.04151">
        <ele>796.1</ele>
        <time>2017-07-31T09:24:08Z</time>
      </trkpt>
      <trkpt lat="42.44353" lon="0.04155">
        <ele>795.9</ele>
        <time>2017-07-31T09:24:11Z</time>
      </trkpt>
      <trkpt lat="42.4435" lon="0.04157">
        <ele>795.7</ele>
        <time>2017-07-31T09:24:13Z</time>
      </trkpt>
      <trkpt lat="42.44352" lon="0.04162">
        <ele>795.5</ele>
        <time>2017-07-31T09:24:16Z</time>
      </trkpt>
      <trkpt lat="42.44355" lon="0.04164">
        <ele>795.3</ele>
        <time>2017-07-31T09:24:18Z</time>
      </trkpt>
      <trkpt lat="42.44353" lon="0.04168">
        <ele>795.1</ele>
        <time>2017-07-31T09:24:22Z</time>
      </trkpt>
      <trkpt lat="42.44348" lon="0.0417">
        <ele>794.8</ele>
        <time>2017-07-31T09:24:24Z</time>
      </trkpt>
      <trkpt lat="42.44347" lon="0.04174">
        <ele>794.6</ele>
        <time>2017-07-31T09:24:26Z</time>
      </trkpt>
      <trkpt lat="42.44353" lon="0.04178">
        <ele>794.3</ele>
        <time>2017-07-31T09:24:28Z</time>
      </trkpt>
      <trkpt lat="42.44356" lon="0.04179">
        <ele>794.1</ele>
        <time>2017-07-31T09:24:29Z</time>
      </trkpt>
      <trkpt lat="42.44358" lon="0.04179">
        <ele>793.9</ele>
        <time>2017-07-31T09:24:30Z</time>
      </trkpt>
      <trkpt lat="42.44361" lon="0.0418">
        <ele>793.8</ele>
        <time>2017-07-31T09:24:31Z</time>
      </trkpt>
      <trkpt lat="42.44364" lon="0.0418">
        <ele>793.6</ele>
        <time>2017-07-31T09:24:32Z</time>
      </trkpt>
      <trkpt lat="42.44367" lon="0.04181">
        <ele>793.4</ele>
        <time>2017-07-31T09:24:33Z</time>
      </trkpt>
      <trkpt lat="42.4437" lon="0.04182">
        <ele>793.3</ele>
        <time>2017-07-31T09:24:34Z</time>
      </trkpt>
      <trkpt lat="42.44374" lon="0.04185">
        <ele>793</ele>
        <time>2017-07-31T09:24:36Z</time>
      </trkpt>
      <trkpt lat="42.44377" lon="0.04186">
        <ele>792.8</ele>
        <time>2017-07-31T09:24:38Z</time>
      </trkpt>
      <trkpt lat="42.44375" lon="0.0419">
        <ele>792.7</ele>
        <time>2017-07-31T09:24:54Z</time>
      </trkpt>
      <trkpt lat="42.44377" lon="0.04193">
        <ele>792.5</ele>
        <time>2017-07-31T09:25:00Z</time>
      </trkpt>
      <trkpt lat="42.4438" lon="0.04194">
        <ele>792.3</ele>
        <time>2017-07-31T09:25:03Z</time>
      </trkpt>
      <trkpt lat="42.44382" lon="0.04196">
        <ele>792.2</ele>
        <time>2017-07-31T09:25:07Z</time>
      </trkpt>
      <trkpt lat="42.44383" lon="0.042">
        <ele>792</ele>
        <time>2017-07-31T09:25:13Z</time>
      </trkpt>
      <trkpt lat="42.44384" lon="0.04203">
        <ele>791.8</ele>
        <time>2017-07-31T09:25:19Z</time>
      </trkpt>
      <trkpt lat="42.44383" lon="0.04207">
        <ele>791.7</ele>
        <time>2017-07-31T09:25:24Z</time>
      </trkpt>
      <trkpt lat="42.44378" lon="0.04209">
        <ele>791.4</ele>
        <time>2017-07-31T09:25:33Z</time>
      </trkpt>
      <trkpt lat="42.44374" lon="0.04212">
        <ele>791.1</ele>
        <time>2017-07-31T09:25:35Z</time>
      </trkpt>
      <trkpt lat="42.44372" lon="0.04214">
        <ele>790.9</ele>
        <time>2017-07-31T09:25:36Z</time>
      </trkpt>
      <trkpt lat="42.44369" lon="0.04216">
        <ele>790.8</ele>
        <time>2017-07-31T09:25:37Z</time>
      </trkpt>
      <trkpt lat="42.44366" lon="0.04218">
        <ele>790.6</ele>
        <time>2017-07-31T09:25:38Z</time>
      </trkpt>
      <trkpt lat="42.44363" lon="0.0422">
        <ele>790.4</ele>
        <time>2017-07-31T09:25:39Z</time>
      </trkpt>
      <trkpt lat="42.44359" lon="0.04222">
        <ele>790.1</ele>
        <time>2017-07-31T09:25:41Z</time>
      </trkpt>
      <trkpt lat="42.44354" lon="0.04224">
        <ele>789.8</ele>
        <time>2017-07-31T09:25:43Z</time>
      </trkpt>
      <trkpt lat="42.44354" lon="0.04229">
        <ele>789.6</ele>
        <time>2017-07-31T09:25:46Z</time>
      </trkpt>
      <trkpt lat="42.44357" lon="0.04231">
        <ele>789.5</ele>
        <time>2017-07-31T09:25:47Z</time>
      </trkpt>
      <trkpt lat="42.4436" lon="0.04231">
        <ele>789.3</ele>
        <time>2017-07-31T09:25:48Z</time>
      </trkpt>
      <trkpt lat="42.44362" lon="0.04232">
        <ele>789.1</ele>
        <time>2017-07-31T09:25:49Z</time>
      </trkpt>
      <trkpt lat="42.44365" lon="0.04234">
        <ele>789</ele>
        <time>2017-07-31T09:25:50Z</time>
      </trkpt>
      <trkpt lat="42.44367" lon="0.04235">
        <ele>788.8</ele>
        <time>2017-07-31T09:25:51Z</time>
      </trkpt>
      <trkpt lat="42.4437" lon="0.04237">
        <ele>788.7</ele>
        <time>2017-07-31T09:25:52Z</time>
      </trkpt>
      <trkpt lat="42.44373" lon="0.04238">
        <ele>788.5</ele>
        <time>2017-07-31T09:25:53Z</time>
      </trkpt>
      <trkpt lat="42.44375" lon="0.0424">
        <ele>788.3</ele>
        <time>2017-07-31T09:25:54Z</time>
      </trkpt>
      <trkpt lat="42.44379" lon="0.04243">
        <ele>788.1</ele>
        <time>2017-07-31T09:25:56Z</time>
      </trkpt>
      <trkpt lat="42.44383" lon="0.04245">
        <ele>787.8</ele>
        <time>2017-07-31T09:25:59Z</time>
      </trkpt>
      <trkpt lat="42.44386" lon="0.04245">
        <ele>787.6</ele>
        <time>2017-07-31T09:26:01Z</time>
      </trkpt>
      <trkpt lat="42.44389" lon="0.04248">
        <ele>787.5</ele>
        <time>2017-07-31T09:26:03Z</time>
      </trkpt>
      <trkpt lat="42.44387" lon="0.04252">
        <ele>787.3</ele>
        <time>2017-07-31T09:26:05Z</time>
      </trkpt>
      <trkpt lat="42.44385" lon="0.04254">
        <ele>787.1</ele>
        <time>2017-07-31T09:26:06Z</time>
      </trkpt>
      <trkpt lat="42.4438" lon="0.04257">
        <ele>786.8</ele>
        <time>2017-07-31T09:26:08Z</time>
      </trkpt>
      <trkpt lat="42.44381" lon="0.04261">
        <ele>786.7</ele>
        <time>2017-07-31T09:26:11Z</time>
      </trkpt>
      <trkpt lat="42.44386" lon="0.04263">
        <ele>786.4</ele>
        <time>2017-07-31T09:26:13Z</time>
      </trkpt>
      <trkpt lat="42.4439" lon="0.04265">
        <ele>786.1</ele>
        <time>2017-07-31T09:26:15Z</time>
      </trkpt>
      <trkpt lat="42.44393" lon="0.04268">
        <ele>785.9</ele>
        <time>2017-07-31T09:26:17Z</time>
      </trkpt>
      <trkpt lat="42.44397" lon="0.04269">
        <ele>785.7</ele>
        <time>2017-07-31T09:26:19Z</time>
      </trkpt>
      <trkpt lat="42.44399" lon="0.04272">
        <ele>785.5</ele>
        <time>2017-07-31T09:26:22Z</time>
      </trkpt>
      <trkpt lat="42.44397" lon="0.04276">
        <ele>785.3</ele>
        <time>2017-07-31T09:26:24Z</time>
      </trkpt>
      <trkpt lat="42.44393" lon="0.0428">
        <ele>785</ele>
        <time>2017-07-31T09:26:26Z</time>
      </trkpt>
      <trkpt lat="42.44388" lon="0.04282">
        <ele>784.7</ele>
        <time>2017-07-31T09:26:28Z</time>
      </trkpt>
      <trkpt lat="42.44385" lon="0.04283">
        <ele>784.5</ele>
        <time>2017-07-31T09:26:30Z</time>
      </trkpt>
      <trkpt lat="42.44385" lon="0.04287">
        <ele>784.4</ele>
        <time>2017-07-31T09:26:32Z</time>
      </trkpt>
      <trkpt lat="42.4439" lon="0.04291">
        <ele>784.1</ele>
        <time>2017-07-31T09:26:34Z</time>
      </trkpt>
      <trkpt lat="42.44392" lon="0.04292">
        <ele>783.9</ele>
        <time>2017-07-31T09:26:35Z</time>
      </trkpt>
      <trkpt lat="42.44395" lon="0.04293">
        <ele>783.8</ele>
        <time>2017-07-31T09:26:36Z</time>
      </trkpt>
      <trkpt lat="42.44398" lon="0.04294">
        <ele>783.6</ele>
        <time>2017-07-31T09:26:37Z</time>
      </trkpt>
      <trkpt lat="42.444" lon="0.04295">
        <ele>783.4</ele>
        <time>2017-07-31T09:26:38Z</time>
      </trkpt>
      <trkpt lat="42.44403" lon="0.04297">
        <ele>783.3</ele>
        <time>2017-07-31T09:26:39Z</time>
      </trkpt>
      <trkpt lat="42.44407" lon="0.04301">
        <ele>783</ele>
        <time>2017-07-31T09:26:41Z</time>
      </trkpt>
      <trkpt lat="42.4441" lon="0.04305">
        <ele>782.7</ele>
        <time>2017-07-31T09:26:43Z</time>
      </trkpt>
      <trkpt lat="42.44413" lon="0.04307">
        <ele>782.5</ele>
        <time>2017-07-31T09:26:45Z</time>
      </trkpt>
      <trkpt lat="42.44416" lon="0.04309">
        <ele>782.3</ele>
        <time>2017-07-31T09:26:47Z</time>
      </trkpt>
      <trkpt lat="42.44417" lon="0.04313">
        <ele>782.1</ele>
        <time>2017-07-31T09:26:50Z</time>
      </trkpt>
      <trkpt lat="42.44413" lon="0.04316">
        <ele>781.9</ele>
        <time>2017-07-31T09:26:52Z</time>
      </trkpt>
      <trkpt lat="42.44411" lon="0.04318">
        <ele>781.7</ele>
        <time>2017-07-31T09:26:53Z</time>
      </trkpt>
      <trkpt lat="42.44408" lon="0.04319">
        <ele>781.5</ele>
        <time>2017-07-31T09:26:54Z</time>
      </trkpt>
      <trkpt lat="42.44404" lon="0.04321">
        <ele>781.3</ele>
        <time>2017-07-31T09:26:56Z</time>
      </trkpt>
      <trkpt lat="42.444" lon="0.04322">
        <ele>781.1</ele>
        <time>2017-07-31T09:26:58Z</time>
      </trkpt>
      <trkpt lat="42.444" lon="0.04326">
        <ele>780.9</ele>
        <time>2017-07-31T09:27:03Z</time>
      </trkpt>
      <trkpt lat="42.44403" lon="0.04327">
        <ele>780.7</ele>
        <time>2017-07-31T09:27:05Z</time>
      </trkpt>
      <trkpt lat="42.44405" lon="0.04331">
        <ele>780.5</ele>
        <time>2017-07-31T09:27:08Z</time>
      </trkpt>
      <trkpt lat="42.44401" lon="0.04334">
        <ele>780.2</ele>
        <time>2017-07-31T09:27:10Z</time>
      </trkpt>
      <trkpt lat="42.44398" lon="0.04334">
        <ele>780.1</ele>
        <time>2017-07-31T09:27:19Z</time>
      </trkpt>
      <trkpt lat="42.44394" lon="0.04337">
        <ele>779.8</ele>
        <time>2017-07-31T09:28:18Z</time>
      </trkpt>
      <trkpt lat="42.44389" lon="0.04338">
        <ele>779.6</ele>
        <time>2017-07-31T09:28:20Z</time>
      </trkpt>
      <trkpt lat="42.44384" lon="0.04339">
        <ele>779.3</ele>
        <time>2017-07-31T09:28:22Z</time>
      </trkpt>
      <trkpt lat="42.4438" lon="0.04338">
        <ele>779</ele>
        <time>2017-07-31T09:28:24Z</time>
      </trkpt>
      <trkpt lat="42.44376" lon="0.04337">
        <ele>778.8</ele>
        <time>2017-07-31T09:28:26Z</time>
      </trkpt>
      <trkpt lat="42.44372" lon="0.04337">
        <ele>778.6</ele>
        <time>2017-07-31T09:28:28Z</time>
      </trkpt>
      <trkpt lat="42.44368" lon="0.04337">
        <ele>778.4</ele>
        <time>2017-07-31T09:28:30Z</time>
      </trkpt>
      <trkpt lat="42.44364" lon="0.04336">
        <ele>778.1</ele>
        <time>2017-07-31T09:28:33Z</time>
      </trkpt>
      <trkpt lat="42.44361" lon="0.04335">
        <ele>777.9</ele>
        <time>2017-07-31T09:28:39Z</time>
      </trkpt>
      <trkpt lat="42.44359" lon="0.04337">
        <ele>777.8</ele>
        <time>2017-07-31T09:28:43Z</time>
      </trkpt>
      <trkpt lat="42.44357" lon="0.0434">
        <ele>777.6</ele>
        <time>2017-07-31T09:28:46Z</time>
      </trkpt>
      <trkpt lat="42.44357" lon="0.04343">
        <ele>777.4</ele>
        <time>2017-07-31T09:28:51Z</time>
      </trkpt>
      <trkpt lat="42.44357" lon="0.04348">
        <ele>777.2</ele>
        <time>2017-07-31T09:28:57Z</time>
      </trkpt>
      <trkpt lat="42.4436" lon="0.0435">
        <ele>777.1</ele>
        <time>2017-07-31T09:29:03Z</time>
      </trkpt>
      <trkpt lat="42.44362" lon="0.04353">
        <ele>776.9</ele>
        <time>2017-07-31T09:29:08Z</time>
      </trkpt>
      <trkpt lat="42.44364" lon="0.04356">
        <ele>776.7</ele>
        <time>2017-07-31T09:29:13Z</time>
      </trkpt>
      <trkpt lat="42.44364" lon="0.0436">
        <ele>776.5</ele>
        <time>2017-07-31T09:29:17Z</time>
      </trkpt>
      <trkpt lat="42.44362" lon="0.04364">
        <ele>776.3</ele>
        <time>2017-07-31T09:29:20Z</time>
      </trkpt>
      <trkpt lat="42.4436" lon="0.04369">
        <ele>776.1</ele>
        <time>2017-07-31T09:29:24Z</time>
      </trkpt>
      <trkpt lat="42.44358" lon="0.04371">
        <ele>775.9</ele>
        <time>2017-07-31T09:29:27Z</time>
      </trkpt>
      <trkpt lat="42.44359" lon="0.04375">
        <ele>775.7</ele>
        <time>2017-07-31T09:29:34Z</time>
      </trkpt>
      <trkpt lat="42.44362" lon="0.04377">
        <ele>775.5</ele>
        <time>2017-07-31T09:29:36Z</time>
      </trkpt>
      <trkpt lat="42.44365" lon="0.04379">
        <ele>775.3</ele>
        <time>2017-07-31T09:29:38Z</time>
      </trkpt>
      <trkpt lat="42.44368" lon="0.04381">
        <ele>775.1</ele>
        <time>2017-07-31T09:29:40Z</time>
      </trkpt>
      <trkpt lat="42.44371" lon="0.04383">
        <ele>775</ele>
        <time>2017-07-31T09:29:43Z</time>
      </trkpt>
      <trkpt lat="42.44373" lon="0.04387">
        <ele>774.8</ele>
        <time>2017-07-31T09:29:49Z</time>
      </trkpt>
      <trkpt lat="42.4437" lon="0.04389">
        <ele>774.6</ele>
        <time>2017-07-31T09:29:52Z</time>
      </trkpt>
      <trkpt lat="42.4437" lon="0.04393">
        <ele>774.4</ele>
        <time>2017-07-31T09:29:58Z</time>
      </trkpt>
      <trkpt lat="42.44373" lon="0.04396">
        <ele>774.2</ele>
        <time>2017-07-31T09:30:01Z</time>
      </trkpt>
      <trkpt lat="42.44375" lon="0.04399">
        <ele>774</ele>
        <time>2017-07-31T09:30:04Z</time>
      </trkpt>
      <trkpt lat="42.44378" lon="0.044">
        <ele>773.6</ele>
        <time>2017-07-31T09:30:06Z</time>
      </trkpt>
      <trkpt lat="42.44381" lon="0.04403">
        <ele>772.3</ele>
        <time>2017-07-31T09:30:09Z</time>
      </trkpt>
      <trkpt lat="42.44384" lon="0.04405">
        <ele>771.3</ele>
        <time>2017-07-31T09:30:14Z</time>
      </trkpt>
      <trkpt lat="42.44382" lon="0.04409">
        <ele>770.2</ele>
        <time>2017-07-31T09:30:19Z</time>
      </trkpt>
      <trkpt lat="42.44379" lon="0.04408">
        <ele>769.1</ele>
        <time>2017-07-31T09:30:22Z</time>
      </trkpt>
      <trkpt lat="42.44376" lon="0.04408">
        <ele>768.1</ele>
        <time>2017-07-31T09:30:25Z</time>
      </trkpt>
      <trkpt lat="42.44374" lon="0.04411">
        <ele>767.3</ele>
        <time>2017-07-31T09:30:28Z</time>
      </trkpt>
      <trkpt lat="42.44371" lon="0.04414">
        <ele>766.7</ele>
        <time>2017-07-31T09:30:31Z</time>
      </trkpt>
      <trkpt lat="42.44373" lon="0.04419">
        <ele>766.1</ele>
        <time>2017-07-31T09:30:37Z</time>
      </trkpt>
      <trkpt lat="42.4437" lon="0.04422">
        <ele>765.6</ele>
        <time>2017-07-31T09:30:40Z</time>
      </trkpt>
      <trkpt lat="42.44367" lon="0.04423">
        <ele>765</ele>
        <time>2017-07-31T09:30:43Z</time>
      </trkpt>
      <trkpt lat="42.44364" lon="0.04424">
        <ele>764.5</ele>
        <time>2017-07-31T09:30:46Z</time>
      </trkpt>
      <trkpt lat="42.44361" lon="0.04426">
        <ele>766.7</ele>
        <time>2017-07-31T09:30:55Z</time>
      </trkpt>
      <trkpt lat="42.44365" lon="0.04429">
        <ele>768.2</ele>
        <time>2017-07-31T09:31:15Z</time>
      </trkpt>
      <trkpt lat="42.44368" lon="0.04429">
        <ele>769.2</ele>
        <time>2017-07-31T09:31:16Z</time>
      </trkpt>
      <trkpt lat="42.44371" lon="0.04429">
        <ele>770.1</ele>
        <time>2017-07-31T09:31:17Z</time>
      </trkpt>
      <trkpt lat="42.44374" lon="0.0443">
        <ele>771.1</ele>
        <time>2017-07-31T09:31:18Z</time>
      </trkpt>
      <trkpt lat="42.44377" lon="0.04429">
        <ele>772.3</ele>
        <time>2017-07-31T09:31:19Z</time>
      </trkpt>
      <trkpt lat="42.44381" lon="0.04429">
        <ele>773.9</ele>
        <time>2017-07-31T09:31:20Z</time>
      </trkpt>
      <trkpt lat="42.44385" lon="0.04428">
        <ele>775.6</ele>
        <time>2017-07-31T09:31:21Z</time>
      </trkpt>
      <trkpt lat="42.44389" lon="0.04426">
        <ele>777.2</ele>
        <time>2017-07-31T09:31:22Z</time>
      </trkpt>
      <trkpt lat="42.44393" lon="0.04424">
        <ele>778.9</ele>
        <time>2017-07-31T09:31:23Z</time>
      </trkpt>
      <trkpt lat="42.44397" lon="0.04421">
        <ele>780.7</ele>
        <time>2017-07-31T09:31:24Z</time>
      </trkpt>
      <trkpt lat="42.444" lon="0.04414">
        <ele>783.3</ele>
        <time>2017-07-31T09:31:25Z</time>
      </trkpt>
      <trkpt lat="42.44404" lon="0.04411">
        <ele>786.3</ele>
        <time>2017-07-31T09:31:26Z</time>
      </trkpt>
      <trkpt lat="42.44409" lon="0.04407">
        <ele>788</ele>
        <time>2017-07-31T09:31:27Z</time>
      </trkpt>
      <trkpt lat="42.44413" lon="0.04403">
        <ele>787.6</ele>
        <time>2017-07-31T09:31:28Z</time>
      </trkpt>
      <trkpt lat="42.44419" lon="0.04399">
        <ele>785.2</ele>
        <time>2017-07-31T09:31:29Z</time>
      </trkpt>
      <trkpt lat="42.44425" lon="0.04395">
        <ele>782.8</ele>
        <time>2017-07-31T09:31:30Z</time>
      </trkpt>
      <trkpt lat="42.44432" lon="0.04395">
        <ele>780.3</ele>
        <time>2017-07-31T09:31:31Z</time>
      </trkpt>
      <trkpt lat="42.4444" lon="0.04398">
        <ele>777.2</ele>
        <time>2017-07-31T09:31:32Z</time>
      </trkpt>
      <trkpt lat="42.44447" lon="0.04403">
        <ele>774.2</ele>
        <time>2017-07-31T09:31:33Z</time>
      </trkpt>
      <trkpt lat="42.44451" lon="0.04414">
        <ele>770.8</ele>
        <time>2017-07-31T09:31:34Z</time>
      </trkpt>
      <trkpt lat="42.44453" lon="0.04425">
        <ele>767.5</ele>
        <time>2017-07-31T09:31:35Z</time>
      </trkpt>
      <trkpt lat="42.44448" lon="0.04436">
        <ele>763.5</ele>
        <time>2017-07-31T09:31:36Z</time>
      </trkpt>
      <trkpt lat="42.44447" lon="0.04446">
        <ele>761</ele>
        <time>2017-07-31T09:31:37Z</time>
      </trkpt>
      <trkpt lat="42.44444" lon="0.04455">
        <ele>759.9</ele>
        <time>2017-07-31T09:31:38Z</time>
      </trkpt>
      <trkpt lat="42.44437" lon="0.04461">
        <ele>759.8</ele>
        <time>2017-07-31T09:31:39Z</time>
      </trkpt>
      <trkpt lat="42.4443" lon="0.04464">
        <ele>759.6</ele>
        <time>2017-07-31T09:31:40Z</time>
      </trkpt>
      <trkpt lat="42.44421" lon="0.04465">
        <ele>759.5</ele>
        <time>2017-07-31T09:31:41Z</time>
      </trkpt>
      <trkpt lat="42.44413" lon="0.04465">
        <ele>759.4</ele>
        <time>2017-07-31T09:31:42Z</time>
      </trkpt>
      <trkpt lat="42.44405" lon="0.04465">
        <ele>759.2</ele>
        <time>2017-07-31T09:31:43Z</time>
      </trkpt>
      <trkpt lat="42.44396" lon="0.04465">
        <ele>759.1</ele>
        <time>2017-07-31T09:31:44Z</time>
      </trkpt>
      <trkpt lat="42.44387" lon="0.04465">
        <ele>759</ele>
        <time>2017-07-31T09:31:45Z</time>
      </trkpt>
      <trkpt lat="42.44379" lon="0.04466">
        <ele>758.9</ele>
        <time>2017-07-31T09:31:46Z</time>
      </trkpt>
      <trkpt lat="42.44371" lon="0.04467">
        <ele>758.8</ele>
        <time>2017-07-31T09:31:47Z</time>
      </trkpt>
      <trkpt lat="42.44363" lon="0.04468">
        <ele>758.7</ele>
        <time>2017-07-31T09:31:48Z</time>
      </trkpt>
      <trkpt lat="42.44356" lon="0.0447">
        <ele>758.6</ele>
        <time>2017-07-31T09:31:49Z</time>
      </trkpt>
      <trkpt lat="42.44352" lon="0.04471">
        <ele>758.5</ele>
        <time>2017-07-31T09:31:50Z</time>
      </trkpt>
      <trkpt lat="42.44346" lon="0.04472">
        <ele>758.4</ele>
        <time>2017-07-31T09:31:51Z</time>
      </trkpt>
      <trkpt lat="42.44342" lon="0.04472">
        <ele>758.4</ele>
        <time>2017-07-31T09:31:52Z</time>
      </trkpt>
      <trkpt lat="42.44338" lon="0.04473">
        <ele>758.3</ele>
        <time>2017-07-31T09:31:53Z</time>
      </trkpt>
      <trkpt lat="42.44336" lon="0.04473">
        <ele>758.3</ele>
        <time>2017-07-31T09:31:54Z</time>
      </trkpt>
      <trkpt lat="42.44332" lon="0.04473">
        <ele>758.2</ele>
        <time>2017-07-31T09:31:55Z</time>
      </trkpt>
      <trkpt lat="42.44329" lon="0.04474">
        <ele>758.2</ele>
        <time>2017-07-31T09:31:56Z</time>
      </trkpt>
      <trkpt lat="42.44326" lon="0.04475">
        <ele>758.2</ele>
        <time>2017-07-31T09:31:58Z</time>
      </trkpt>
      <trkpt lat="42.44324" lon="0.04478">
        <ele>758.1</ele>
        <time>2017-07-31T09:31:59Z</time>
      </trkpt>
      <trkpt lat="42.44326" lon="0.04481">
        <ele>757</ele>
        <time>2017-07-31T09:32:02Z</time>
      </trkpt>
      <trkpt lat="42.44329" lon="0.04482">
        <ele>756.4</ele>
        <time>2017-07-31T09:32:04Z</time>
      </trkpt>
      <trkpt lat="42.44333" lon="0.04483">
        <ele>755.6</ele>
        <time>2017-07-31T09:32:06Z</time>
      </trkpt>
      <trkpt lat="42.44338" lon="0.04485">
        <ele>754.7</ele>
        <time>2017-07-31T09:32:08Z</time>
      </trkpt>
      <trkpt lat="42.4434" lon="0.04486">
        <ele>754.3</ele>
        <time>2017-07-31T09:32:09Z</time>
      </trkpt>
      <trkpt lat="42.44343" lon="0.04487">
        <ele>753.9</ele>
        <time>2017-07-31T09:32:10Z</time>
      </trkpt>
      <trkpt lat="42.44346" lon="0.04488">
        <ele>753.5</ele>
        <time>2017-07-31T09:32:11Z</time>
      </trkpt>
      <trkpt lat="42.44349" lon="0.04488">
        <ele>753</ele>
        <time>2017-07-31T09:32:12Z</time>
      </trkpt>
      <trkpt lat="42.44353" lon="0.04488">
        <ele>752.5</ele>
        <time>2017-07-31T09:32:13Z</time>
      </trkpt>
      <trkpt lat="42.44356" lon="0.04489">
        <ele>752.1</ele>
        <time>2017-07-31T09:32:14Z</time>
      </trkpt>
      <trkpt lat="42.44358" lon="0.0449">
        <ele>752.3</ele>
        <time>2017-07-31T09:32:15Z</time>
      </trkpt>
      <trkpt lat="42.44364" lon="0.04492">
        <ele>752.6</ele>
        <time>2017-07-31T09:32:17Z</time>
      </trkpt>
      <trkpt lat="42.44366" lon="0.04492">
        <ele>752.3</ele>
        <time>2017-07-31T09:32:18Z</time>
      </trkpt>
      <trkpt lat="42.44369" lon="0.04493">
        <ele>751.7</ele>
        <time>2017-07-31T09:32:19Z</time>
      </trkpt>
      <trkpt lat="42.44374" lon="0.04495">
        <ele>750.7</ele>
        <time>2017-07-31T09:32:21Z</time>
      </trkpt>
      <trkpt lat="42.44376" lon="0.04498">
        <ele>749.8</ele>
        <time>2017-07-31T09:32:23Z</time>
      </trkpt>
      <trkpt lat="42.44379" lon="0.04501">
        <ele>748.6</ele>
        <time>2017-07-31T09:32:25Z</time>
      </trkpt>
      <trkpt lat="42.44382" lon="0.04503">
        <ele>747.7</ele>
        <time>2017-07-31T09:32:27Z</time>
      </trkpt>
      <trkpt lat="42.44381" lon="0.04507">
        <ele>747.1</ele>
        <time>2017-07-31T09:32:29Z</time>
      </trkpt>
      <trkpt lat="42.44376" lon="0.04511">
        <ele>746.1</ele>
        <time>2017-07-31T09:32:31Z</time>
      </trkpt>
      <trkpt lat="42.44372" lon="0.04514">
        <ele>744.8</ele>
        <time>2017-07-31T09:32:33Z</time>
      </trkpt>
      <trkpt lat="42.44367" lon="0.04515">
        <ele>743.3</ele>
        <time>2017-07-31T09:32:35Z</time>
      </trkpt>
      <trkpt lat="42.44362" lon="0.04517">
        <ele>741.1</ele>
        <time>2017-07-31T09:32:37Z</time>
      </trkpt>
      <trkpt lat="42.44359" lon="0.04519">
        <ele>739.5</ele>
        <time>2017-07-31T09:32:38Z</time>
      </trkpt>
      <trkpt lat="42.44357" lon="0.04521">
        <ele>738</ele>
        <time>2017-07-31T09:32:39Z</time>
      </trkpt>
      <trkpt lat="42.44352" lon="0.04525">
        <ele>736</ele>
        <time>2017-07-31T09:32:41Z</time>
      </trkpt>
      <trkpt lat="42.4435" lon="0.04527">
        <ele>735.1</ele>
        <time>2017-07-31T09:32:42Z</time>
      </trkpt>
      <trkpt lat="42.44347" lon="0.04528">
        <ele>734.2</ele>
        <time>2017-07-31T09:32:43Z</time>
      </trkpt>
      <trkpt lat="42.44344" lon="0.04529">
        <ele>733.3</ele>
        <time>2017-07-31T09:32:44Z</time>
      </trkpt>
      <trkpt lat="42.44339" lon="0.04529">
        <ele>731.8</ele>
        <time>2017-07-31T09:32:46Z</time>
      </trkpt>
      <trkpt lat="42.44337" lon="0.04527">
        <ele>730.8</ele>
        <time>2017-07-31T09:32:57Z</time>
      </trkpt>
      <trkpt lat="42.44335" lon="0.04529">
        <ele>729.9</ele>
        <time>2017-07-31T09:33:03Z</time>
      </trkpt>
      <trkpt lat="42.44337" lon="0.04531">
        <ele>729</ele>
        <time>2017-07-31T09:33:06Z</time>
      </trkpt>
      <trkpt lat="42.4434" lon="0.04534">
        <ele>728</ele>
        <time>2017-07-31T09:33:09Z</time>
      </trkpt>
      <trkpt lat="42.44343" lon="0.04536">
        <ele>727.4</ele>
        <time>2017-07-31T09:33:11Z</time>
      </trkpt>
      <trkpt lat="42.44346" lon="0.04537">
        <ele>726.7</ele>
        <time>2017-07-31T09:33:13Z</time>
      </trkpt>
      <trkpt lat="42.44349" lon="0.04539">
        <ele>726</ele>
        <time>2017-07-31T09:33:15Z</time>
      </trkpt>
      <trkpt lat="42.44353" lon="0.04541">
        <ele>725.2</ele>
        <time>2017-07-31T09:33:17Z</time>
      </trkpt>
      <trkpt lat="42.44356" lon="0.04543">
        <ele>724.3</ele>
        <time>2017-07-31T09:33:19Z</time>
      </trkpt>
      <trkpt lat="42.44359" lon="0.04546">
        <ele>723.1</ele>
        <time>2017-07-31T09:33:21Z</time>
      </trkpt>
      <trkpt lat="42.44361" lon="0.04549">
        <ele>721.9</ele>
        <time>2017-07-31T09:33:23Z</time>
      </trkpt>
      <trkpt lat="42.44364" lon="0.04551">
        <ele>721.2</ele>
        <time>2017-07-31T09:33:25Z</time>
      </trkpt>
      <trkpt lat="42.44368" lon="0.04554">
        <ele>720.5</ele>
        <time>2017-07-31T09:33:27Z</time>
      </trkpt>
      <trkpt lat="42.4437" lon="0.04556">
        <ele>719.8</ele>
        <time>2017-07-31T09:33:29Z</time>
      </trkpt>
      <trkpt lat="42.44371" lon="0.04561">
        <ele>718.8</ele>
        <time>2017-07-31T09:33:32Z</time>
      </trkpt>
      <trkpt lat="42.44368" lon="0.04563">
        <ele>717.9</ele>
        <time>2017-07-31T09:33:34Z</time>
      </trkpt>
      <trkpt lat="42.44364" lon="0.04564">
        <ele>717.4</ele>
        <time>2017-07-31T09:33:36Z</time>
      </trkpt>
      <trkpt lat="42.44362" lon="0.04564">
        <ele>717.1</ele>
        <time>2017-07-31T09:33:37Z</time>
      </trkpt>
      <trkpt lat="42.44357" lon="0.04563">
        <ele>716.6</ele>
        <time>2017-07-31T09:33:39Z</time>
      </trkpt>
      <trkpt lat="42.44354" lon="0.04562">
        <ele>716.1</ele>
        <time>2017-07-31T09:33:42Z</time>
      </trkpt>
      <trkpt lat="42.44351" lon="0.04562">
        <ele>715.8</ele>
        <time>2017-07-31T09:33:48Z</time>
      </trkpt>
      <trkpt lat="42.44348" lon="0.04562">
        <ele>715.5</ele>
        <time>2017-07-31T09:33:55Z</time>
      </trkpt>
      <trkpt lat="42.44345" lon="0.04563">
        <ele>715.2</ele>
        <time>2017-07-31T09:34:01Z</time>
      </trkpt>
      <trkpt lat="42.44341" lon="0.04564">
        <ele>714.6</ele>
        <time>2017-07-31T09:34:08Z</time>
      </trkpt>
      <trkpt lat="42.44338" lon="0.04564">
        <ele>713.1</ele>
        <time>2017-07-31T09:34:10Z</time>
      </trkpt>
      <trkpt lat="42.44335" lon="0.04565">
        <ele>711.9</ele>
        <time>2017-07-31T09:34:19Z</time>
      </trkpt>
      <trkpt lat="42.44332" lon="0.04567">
        <ele>710.8</ele>
        <time>2017-07-31T09:34:27Z</time>
      </trkpt>
      <trkpt lat="42.44333" lon="0.04571">
        <ele>709.6</ele>
        <time>2017-07-31T09:34:33Z</time>
      </trkpt>
      <trkpt lat="42.44335" lon="0.04574">
        <ele>708.5</ele>
        <time>2017-07-31T09:34:36Z</time>
      </trkpt>
      <trkpt lat="42.44337" lon="0.04578">
        <ele>706.7</ele>
        <time>2017-07-31T09:34:39Z</time>
      </trkpt>
      <trkpt lat="42.44339" lon="0.04581">
        <ele>705.1</ele>
        <time>2017-07-31T09:34:42Z</time>
      </trkpt>
      <trkpt lat="42.44337" lon="0.04586">
        <ele>703.2</ele>
        <time>2017-07-31T09:34:45Z</time>
      </trkpt>
      <trkpt lat="42.44333" lon="0.04586">
        <ele>701.6</ele>
        <time>2017-07-31T09:34:51Z</time>
      </trkpt>
      <trkpt lat="42.4433" lon="0.04586">
        <ele>700.4</ele>
        <time>2017-07-31T09:34:54Z</time>
      </trkpt>
      <trkpt lat="42.44332" lon="0.04591">
        <ele>699.6</ele>
        <time>2017-07-31T09:35:01Z</time>
      </trkpt>
      <trkpt lat="42.44335" lon="0.04595">
        <ele>698.8</ele>
        <time>2017-07-31T09:35:03Z</time>
      </trkpt>
      <trkpt lat="42.44336" lon="0.04599">
        <ele>698.3</ele>
        <time>2017-07-31T09:35:07Z</time>
      </trkpt>
      <trkpt lat="42.44332" lon="0.046">
        <ele>697.8</ele>
        <time>2017-07-31T09:35:11Z</time>
      </trkpt>
      <trkpt lat="42.44332" lon="0.04605">
        <ele>697.3</ele>
        <time>2017-07-31T09:35:17Z</time>
      </trkpt>
      <trkpt lat="42.44335" lon="0.04607">
        <ele>696.7</ele>
        <time>2017-07-31T09:35:19Z</time>
      </trkpt>
      <trkpt lat="42.4434" lon="0.04609">
        <ele>695.7</ele>
        <time>2017-07-31T09:35:21Z</time>
      </trkpt>
      <trkpt lat="42.44343" lon="0.04611">
        <ele>695.1</ele>
        <time>2017-07-31T09:35:22Z</time>
      </trkpt>
      <trkpt lat="42.44347" lon="0.04612">
        <ele>694.1</ele>
        <time>2017-07-31T09:35:23Z</time>
      </trkpt>
      <trkpt lat="42.44351" lon="0.04614">
        <ele>693.1</ele>
        <time>2017-07-31T09:35:24Z</time>
      </trkpt>
      <trkpt lat="42.44355" lon="0.04616">
        <ele>691.8</ele>
        <time>2017-07-31T09:35:25Z</time>
      </trkpt>
      <trkpt lat="42.44359" lon="0.04618">
        <ele>690.5</ele>
        <time>2017-07-31T09:35:26Z</time>
      </trkpt>
      <trkpt lat="42.44362" lon="0.04619">
        <ele>689.5</ele>
        <time>2017-07-31T09:35:27Z</time>
      </trkpt>
      <trkpt lat="42.44365" lon="0.04621">
        <ele>688.6</ele>
        <time>2017-07-31T09:35:28Z</time>
      </trkpt>
      <trkpt lat="42.44367" lon="0.04623">
        <ele>687.6</ele>
        <time>2017-07-31T09:35:29Z</time>
      </trkpt>
      <trkpt lat="42.4437" lon="0.04627">
        <ele>686.5</ele>
        <time>2017-07-31T09:35:30Z</time>
      </trkpt>
      <trkpt lat="42.44372" lon="0.0463">
        <ele>685.4</ele>
        <time>2017-07-31T09:35:31Z</time>
      </trkpt>
      <trkpt lat="42.44375" lon="0.04632">
        <ele>684.6</ele>
        <time>2017-07-31T09:35:32Z</time>
      </trkpt>
      <trkpt lat="42.44377" lon="0.04634">
        <ele>683.6</ele>
        <time>2017-07-31T09:35:33Z</time>
      </trkpt>
      <trkpt lat="42.44381" lon="0.04637">
        <ele>681.8</ele>
        <time>2017-07-31T09:35:35Z</time>
      </trkpt>
      <trkpt lat="42.44385" lon="0.0464">
        <ele>680.2</ele>
        <time>2017-07-31T09:35:37Z</time>
      </trkpt>
      <trkpt lat="42.44389" lon="0.04645">
        <ele>678</ele>
        <time>2017-07-31T09:35:39Z</time>
      </trkpt>
      <trkpt lat="42.44391" lon="0.04647">
        <ele>676.6</ele>
        <time>2017-07-31T09:35:40Z</time>
      </trkpt>
      <trkpt lat="42.44395" lon="0.04648">
        <ele>675.7</ele>
        <time>2017-07-31T09:35:41Z</time>
      </trkpt>
      <trkpt lat="42.44397" lon="0.04649">
        <ele>674.9</ele>
        <time>2017-07-31T09:35:42Z</time>
      </trkpt>
      <trkpt lat="42.44401" lon="0.04651">
        <ele>673.5</ele>
        <time>2017-07-31T09:35:44Z</time>
      </trkpt>
      <trkpt lat="42.44405" lon="0.04654">
        <ele>671.4</ele>
        <time>2017-07-31T09:35:46Z</time>
      </trkpt>
      <trkpt lat="42.44409" lon="0.04657">
        <ele>670</ele>
        <time>2017-07-31T09:35:48Z</time>
      </trkpt>
      <trkpt lat="42.44413" lon="0.04657">
        <ele>669.9</ele>
        <time>2017-07-31T09:35:50Z</time>
      </trkpt>
      <trkpt lat="42.44416" lon="0.04655">
        <ele>669.9</ele>
        <time>2017-07-31T09:35:57Z</time>
      </trkpt>
      <trkpt lat="42.44419" lon="0.04655">
        <ele>669.9</ele>
        <time>2017-07-31T09:36:01Z</time>
      </trkpt>
      <trkpt lat="42.44422" lon="0.04657">
        <ele>669.8</ele>
        <time>2017-07-31T09:36:06Z</time>
      </trkpt>
      <trkpt lat="42.44425" lon="0.04656">
        <ele>669.8</ele>
        <time>2017-07-31T09:36:12Z</time>
      </trkpt>
      <trkpt lat="42.44427" lon="0.04653">
        <ele>669.8</ele>
        <time>2017-07-31T09:36:20Z</time>
      </trkpt>
      <trkpt lat="42.4443" lon="0.04652">
        <ele>669.7</ele>
        <time>2017-07-31T09:36:28Z</time>
      </trkpt>
      <trkpt lat="42.44433" lon="0.0465">
        <ele>669.7</ele>
        <time>2017-07-31T09:36:32Z</time>
      </trkpt>
      <trkpt lat="42.44436" lon="0.04649">
        <ele>669.7</ele>
        <time>2017-07-31T09:36:36Z</time>
      </trkpt>
      <trkpt lat="42.44439" lon="0.04652">
        <ele>669.6</ele>
        <time>2017-07-31T09:36:41Z</time>
      </trkpt>
      <trkpt lat="42.44439" lon="0.04656">
        <ele>669.6</ele>
        <time>2017-07-31T09:36:44Z</time>
      </trkpt>
      <trkpt lat="42.4444" lon="0.04661">
        <ele>669.6</ele>
        <time>2017-07-31T09:37:01Z</time>
      </trkpt>
      <trkpt lat="42.44442" lon="0.04663">
        <ele>669.6</ele>
        <time>2017-07-31T09:37:03Z</time>
      </trkpt>
      <trkpt lat="42.44445" lon="0.04664">
        <ele>669.6</ele>
        <time>2017-07-31T09:37:04Z</time>
      </trkpt>
      <trkpt lat="42.44449" lon="0.04664">
        <ele>669.5</ele>
        <time>2017-07-31T09:37:05Z</time>
      </trkpt>
      <trkpt lat="42.44452" lon="0.04663">
        <ele>669.5</ele>
        <time>2017-07-31T09:37:06Z</time>
      </trkpt>
      <trkpt lat="42.44456" lon="0.04663">
        <ele>669.5</ele>
        <time>2017-07-31T09:37:07Z</time>
      </trkpt>
      <trkpt lat="42.44461" lon="0.04663">
        <ele>669.6</ele>
        <time>2017-07-31T09:37:08Z</time>
      </trkpt>
      <trkpt lat="42.44467" lon="0.04664">
        <ele>669.6</ele>
        <time>2017-07-31T09:37:09Z</time>
      </trkpt>
      <trkpt lat="42.44472" lon="0.04665">
        <ele>669.6</ele>
        <time>2017-07-31T09:37:10Z</time>
      </trkpt>
      <trkpt lat="42.44477" lon="0.04666">
        <ele>669.7</ele>
        <time>2017-07-31T09:37:11Z</time>
      </trkpt>
      <trkpt lat="42.44483" lon="0.04667">
        <ele>669.8</ele>
        <time>2017-07-31T09:37:12Z</time>
      </trkpt>
      <trkpt lat="42.44489" lon="0.04668">
        <ele>669.9</ele>
        <time>2017-07-31T09:37:13Z</time>
      </trkpt>
      <trkpt lat="42.44495" lon="0.04669">
        <ele>670</ele>
        <time>2017-07-31T09:37:14Z</time>
      </trkpt>
      <trkpt lat="42.44501" lon="0.04671">
        <ele>669.6</ele>
        <time>2017-07-31T09:37:15Z</time>
      </trkpt>
      <trkpt lat="42.44508" lon="0.04673">
        <ele>669.2</ele>
        <time>2017-07-31T09:37:16Z</time>
      </trkpt>
      <trkpt lat="42.44514" lon="0.04674">
        <ele>668.8</ele>
        <time>2017-07-31T09:37:17Z</time>
      </trkpt>
      <trkpt lat="42.4452" lon="0.04675">
        <ele>668.5</ele>
        <time>2017-07-31T09:37:18Z</time>
      </trkpt>
      <trkpt lat="42.44526" lon="0.04676">
        <ele>668.2</ele>
        <time>2017-07-31T09:37:19Z</time>
      </trkpt>
      <trkpt lat="42.44532" lon="0.04678">
        <ele>667.9</ele>
        <time>2017-07-31T09:37:20Z</time>
      </trkpt>
      <trkpt lat="42.44538" lon="0.04679">
        <ele>667.6</ele>
        <time>2017-07-31T09:37:21Z</time>
      </trkpt>
      <trkpt lat="42.44543" lon="0.04681">
        <ele>667.3</ele>
        <time>2017-07-31T09:37:22Z</time>
      </trkpt>
      <trkpt lat="42.44549" lon="0.04682">
        <ele>667</ele>
        <time>2017-07-31T09:37:23Z</time>
      </trkpt>
      <trkpt lat="42.44554" lon="0.04684">
        <ele>666.8</ele>
        <time>2017-07-31T09:37:24Z</time>
      </trkpt>
      <trkpt lat="42.4456" lon="0.04685">
        <ele>666.5</ele>
        <time>2017-07-31T09:37:25Z</time>
      </trkpt>
      <trkpt lat="42.44565" lon="0.04686">
        <ele>666.3</ele>
        <time>2017-07-31T09:37:26Z</time>
      </trkpt>
      <trkpt lat="42.44571" lon="0.04688">
        <ele>666.1</ele>
        <time>2017-07-31T09:37:27Z</time>
      </trkpt>
      <trkpt lat="42.44576" lon="0.04689">
        <ele>665.7</ele>
        <time>2017-07-31T09:37:28Z</time>
      </trkpt>
      <trkpt lat="42.44582" lon="0.04691">
        <ele>665.3</ele>
        <time>2017-07-31T09:37:29Z</time>
      </trkpt>
      <trkpt lat="42.44587" lon="0.04692">
        <ele>665</ele>
        <time>2017-07-31T09:37:30Z</time>
      </trkpt>
      <trkpt lat="42.44592" lon="0.04694">
        <ele>664.6</ele>
        <time>2017-07-31T09:37:31Z</time>
      </trkpt>
      <trkpt lat="42.44596" lon="0.04696">
        <ele>664.2</ele>
        <time>2017-07-31T09:37:32Z</time>
      </trkpt>
      <trkpt lat="42.44601" lon="0.04699">
        <ele>663.8</ele>
        <time>2017-07-31T09:37:33Z</time>
      </trkpt>
      <trkpt lat="42.44606" lon="0.04702">
        <ele>663.4</ele>
        <time>2017-07-31T09:37:34Z</time>
      </trkpt>
      <trkpt lat="42.4461" lon="0.04705">
        <ele>663</ele>
        <time>2017-07-31T09:37:35Z</time>
      </trkpt>
      <trkpt lat="42.44615" lon="0.04707">
        <ele>662.6</ele>
        <time>2017-07-31T09:37:36Z</time>
      </trkpt>
      <trkpt lat="42.44619" lon="0.04709">
        <ele>662.6</ele>
        <time>2017-07-31T09:37:37Z</time>
      </trkpt>
      <trkpt lat="42.44624" lon="0.0471">
        <ele>663.4</ele>
        <time>2017-07-31T09:37:38Z</time>
      </trkpt>
      <trkpt lat="42.44628" lon="0.04712">
        <ele>664</ele>
        <time>2017-07-31T09:37:39Z</time>
      </trkpt>
      <trkpt lat="42.44631" lon="0.04713">
        <ele>664.2</ele>
        <time>2017-07-31T09:37:40Z</time>
      </trkpt>
      <trkpt lat="42.44634" lon="0.04718">
        <ele>664.6</ele>
        <time>2017-07-31T09:37:42Z</time>
      </trkpt>
      <trkpt lat="42.44635" lon="0.04724">
        <ele>665.3</ele>
        <time>2017-07-31T09:37:44Z</time>
      </trkpt>
      <trkpt lat="42.44635" lon="0.04728">
        <ele>665.7</ele>
        <time>2017-07-31T09:37:45Z</time>
      </trkpt>
      <trkpt lat="42.44635" lon="0.04735">
        <ele>666.1</ele>
        <time>2017-07-31T09:37:47Z</time>
      </trkpt>
      <trkpt lat="42.44635" lon="0.04742">
        <ele>666.5</ele>
        <time>2017-07-31T09:37:49Z</time>
      </trkpt>
      <trkpt lat="42.44635" lon="0.04748">
        <ele>666.9</ele>
        <time>2017-07-31T09:37:51Z</time>
      </trkpt>
      <trkpt lat="42.44635" lon="0.04754">
        <ele>667.5</ele>
        <time>2017-07-31T09:37:53Z</time>
      </trkpt>
      <trkpt lat="42.44634" lon="0.0476">
        <ele>668.1</ele>
        <time>2017-07-31T09:37:55Z</time>
      </trkpt>
      <trkpt lat="42.44634" lon="0.04766">
        <ele>668.3</ele>
        <time>2017-07-31T09:37:57Z</time>
      </trkpt>
      <trkpt lat="42.44634" lon="0.04772">
        <ele>668.7</ele>
        <time>2017-07-31T09:37:59Z</time>
      </trkpt>
      <trkpt lat="42.44633" lon="0.04777">
        <ele>669.2</ele>
        <time>2017-07-31T09:38:01Z</time>
      </trkpt>
      <trkpt lat="42.44633" lon="0.04782">
        <ele>669.9</ele>
        <time>2017-07-31T09:38:03Z</time>
      </trkpt>
      <trkpt lat="42.44634" lon="0.04787">
        <ele>670.3</ele>
        <time>2017-07-31T09:38:05Z</time>
      </trkpt>
      <trkpt lat="42.44635" lon="0.04792">
        <ele>670.5</ele>
        <time>2017-07-31T09:38:07Z</time>
      </trkpt>
      <trkpt lat="42.44637" lon="0.04797">
        <ele>670.9</ele>
        <time>2017-07-31T09:38:09Z</time>
      </trkpt>
      <trkpt lat="42.44641" lon="0.04799">
        <ele>671.2</ele>
        <time>2017-07-31T09:38:11Z</time>
      </trkpt>
      <trkpt lat="42.44645" lon="0.04799">
        <ele>671.9</ele>
        <time>2017-07-31T09:38:13Z</time>
      </trkpt>
      <trkpt lat="42.44649" lon="0.04796">
        <ele>672.2</ele>
        <time>2017-07-31T09:38:15Z</time>
      </trkpt>
      <trkpt lat="42.44651" lon="0.04791">
        <ele>672.5</ele>
        <time>2017-07-31T09:38:17Z</time>
      </trkpt>
      <trkpt lat="42.44653" lon="0.04786">
        <ele>672.7</ele>
        <time>2017-07-31T09:38:19Z</time>
      </trkpt>
      <trkpt lat="42.44653" lon="0.0478">
        <ele>673</ele>
        <time>2017-07-31T09:38:21Z</time>
      </trkpt>
      <trkpt lat="42.44654" lon="0.04775">
        <ele>673.2</ele>
        <time>2017-07-31T09:38:23Z</time>
      </trkpt>
      <trkpt lat="42.44654" lon="0.0477">
        <ele>673.7</ele>
        <time>2017-07-31T09:38:25Z</time>
      </trkpt>
      <trkpt lat="42.44655" lon="0.04765">
        <ele>674.2</ele>
        <time>2017-07-31T09:38:27Z</time>
      </trkpt>
      <trkpt lat="42.44655" lon="0.0476">
        <ele>674.5</ele>
        <time>2017-07-31T09:38:29Z</time>
      </trkpt>
      <trkpt lat="42.44656" lon="0.04755">
        <ele>674.8</ele>
        <time>2017-07-31T09:38:31Z</time>
      </trkpt>
      <trkpt lat="42.44657" lon="0.04751">
        <ele>675.1</ele>
        <time>2017-07-31T09:38:33Z</time>
      </trkpt>
      <trkpt lat="42.44657" lon="0.04746">
        <ele>675.5</ele>
        <time>2017-07-31T09:38:35Z</time>
      </trkpt>
      <trkpt lat="42.44658" lon="0.04741">
        <ele>676.3</ele>
        <time>2017-07-31T09:38:37Z</time>
      </trkpt>
      <trkpt lat="42.44659" lon="0.04737">
        <ele>676.7</ele>
        <time>2017-07-31T09:38:39Z</time>
      </trkpt>
      <trkpt lat="42.44659" lon="0.04733">
        <ele>677.2</ele>
        <time>2017-07-31T09:38:41Z</time>
      </trkpt>
      <trkpt lat="42.44659" lon="0.04728">
        <ele>677.8</ele>
        <time>2017-07-31T09:38:43Z</time>
      </trkpt>
      <trkpt lat="42.44659" lon="0.04723">
        <ele>678.2</ele>
        <time>2017-07-31T09:38:45Z</time>
      </trkpt>
      <trkpt lat="42.4466" lon="0.04719">
        <ele>678.4</ele>
        <time>2017-07-31T09:38:47Z</time>
      </trkpt>
      <trkpt lat="42.4466" lon="0.04715">
        <ele>678.6</ele>
        <time>2017-07-31T09:38:49Z</time>
      </trkpt>
      <trkpt lat="42.4466" lon="0.0471">
        <ele>678.9</ele>
        <time>2017-07-31T09:38:51Z</time>
      </trkpt>
      <trkpt lat="42.44661" lon="0.04706">
        <ele>679.2</ele>
        <time>2017-07-31T09:38:53Z</time>
      </trkpt>
      <trkpt lat="42.44661" lon="0.04701">
        <ele>679.4</ele>
        <time>2017-07-31T09:38:55Z</time>
      </trkpt>
      <trkpt lat="42.44663" lon="0.04697">
        <ele>679.9</ele>
        <time>2017-07-31T09:38:57Z</time>
      </trkpt>
      <trkpt lat="42.44664" lon="0.04694">
        <ele>680.3</ele>
        <time>2017-07-31T09:38:59Z</time>
      </trkpt>
      <trkpt lat="42.44668" lon="0.04693">
        <ele>680.7</ele>
        <time>2017-07-31T09:39:01Z</time>
      </trkpt>
      <trkpt lat="42.44672" lon="0.04695">
        <ele>680.9</ele>
        <time>2017-07-31T09:39:03Z</time>
      </trkpt>
      <trkpt lat="42.44675" lon="0.04698">
        <ele>681.1</ele>
        <time>2017-07-31T09:39:05Z</time>
      </trkpt>
      <trkpt lat="42.44676" lon="0.04703">
        <ele>681.5</ele>
        <time>2017-07-31T09:39:07Z</time>
      </trkpt>
      <trkpt lat="42.44677" lon="0.04709">
        <ele>682.2</ele>
        <time>2017-07-31T09:39:09Z</time>
      </trkpt>
      <trkpt lat="42.44677" lon="0.04714">
        <ele>682.6</ele>
        <time>2017-07-31T09:39:11Z</time>
      </trkpt>
      <trkpt lat="42.44677" lon="0.04719">
        <ele>682.8</ele>
        <time>2017-07-31T09:39:13Z</time>
      </trkpt>
      <trkpt lat="42.44677" lon="0.04724">
        <ele>683</ele>
        <time>2017-07-31T09:39:15Z</time>
      </trkpt>
      <trkpt lat="42.44677" lon="0.04729">
        <ele>683.2</ele>
        <time>2017-07-31T09:39:17Z</time>
      </trkpt>
      <trkpt lat="42.44677" lon="0.04734">
        <ele>683.6</ele>
        <time>2017-07-31T09:39:19Z</time>
      </trkpt>
      <trkpt lat="42.44677" lon="0.04739">
        <ele>684.1</ele>
        <time>2017-07-31T09:39:21Z</time>
      </trkpt>
      <trkpt lat="42.44679" lon="0.04744">
        <ele>684.5</ele>
        <time>2017-07-31T09:39:23Z</time>
      </trkpt>
      <trkpt lat="42.44681" lon="0.04747">
        <ele>684.7</ele>
        <time>2017-07-31T09:39:25Z</time>
      </trkpt>
      <trkpt lat="42.44684" lon="0.04748">
        <ele>684.9</ele>
        <time>2017-07-31T09:39:27Z</time>
      </trkpt>
      <trkpt lat="42.44688" lon="0.04745">
        <ele>685.1</ele>
        <time>2017-07-31T09:39:29Z</time>
      </trkpt>
      <trkpt lat="42.4469" lon="0.0474">
        <ele>685.4</ele>
        <time>2017-07-31T09:39:31Z</time>
      </trkpt>
      <trkpt lat="42.44691" lon="0.04734">
        <ele>686</ele>
        <time>2017-07-31T09:39:33Z</time>
      </trkpt>
      <trkpt lat="42.44691" lon="0.04729">
        <ele>686.5</ele>
        <time>2017-07-31T09:39:35Z</time>
      </trkpt>
      <trkpt lat="42.44691" lon="0.04723">
        <ele>686.8</ele>
        <time>2017-07-31T09:39:37Z</time>
      </trkpt>
      <trkpt lat="42.44691" lon="0.04718">
        <ele>687.1</ele>
        <time>2017-07-31T09:39:39Z</time>
      </trkpt>
      <trkpt lat="42.4469" lon="0.04712">
        <ele>687.5</ele>
        <time>2017-07-31T09:39:41Z</time>
      </trkpt>
      <trkpt lat="42.4469" lon="0.04707">
        <ele>687.9</ele>
        <time>2017-07-31T09:39:43Z</time>
      </trkpt>
      <trkpt lat="42.4469" lon="0.04702">
        <ele>688.5</ele>
        <time>2017-07-31T09:39:45Z</time>
      </trkpt>
      <trkpt lat="42.4469" lon="0.04697">
        <ele>688.9</ele>
        <time>2017-07-31T09:39:47Z</time>
      </trkpt>
      <trkpt lat="42.4469" lon="0.04692">
        <ele>689.1</ele>
        <time>2017-07-31T09:39:49Z</time>
      </trkpt>
      <trkpt lat="42.4469" lon="0.04687">
        <ele>689.3</ele>
        <time>2017-07-31T09:39:51Z</time>
      </trkpt>
      <trkpt lat="42.4469" lon="0.04682">
        <ele>689.5</ele>
        <time>2017-07-31T09:39:53Z</time>
      </trkpt>
      <trkpt lat="42.44691" lon="0.04677">
        <ele>689.9</ele>
        <time>2017-07-31T09:39:55Z</time>
      </trkpt>
      <trkpt lat="42.44693" lon="0.04673">
        <ele>690.6</ele>
        <time>2017-07-31T09:39:57Z</time>
      </trkpt>
      <trkpt lat="42.44697" lon="0.0467">
        <ele>690.9</ele>
        <time>2017-07-31T09:39:59Z</time>
      </trkpt>
      <trkpt lat="42.44701" lon="0.04671">
        <ele>691.2</ele>
        <time>2017-07-31T09:40:01Z</time>
      </trkpt>
      <trkpt lat="42.44704" lon="0.04675">
        <ele>691.8</ele>
        <time>2017-07-31T09:40:03Z</time>
      </trkpt>
      <trkpt lat="42.44705" lon="0.0468">
        <ele>692.5</ele>
        <time>2017-07-31T09:40:05Z</time>
      </trkpt>
      <trkpt lat="42.44705" lon="0.04686">
        <ele>692.9</ele>
        <time>2017-07-31T09:40:07Z</time>
      </trkpt>
      <trkpt lat="42.44704" lon="0.04691">
        <ele>693.1</ele>
        <time>2017-07-31T09:40:09Z</time>
      </trkpt>
      <trkpt lat="42.44704" lon="0.04696">
        <ele>693.4</ele>
        <time>2017-07-31T09:40:11Z</time>
      </trkpt>
      <trkpt lat="42.44704" lon="0.04701">
        <ele>693.7</ele>
        <time>2017-07-31T09:40:13Z</time>
      </trkpt>
      <trkpt lat="42.44703" lon="0.04705">
        <ele>694.2</ele>
        <time>2017-07-31T09:40:15Z</time>
      </trkpt>
      <trkpt lat="42.44703" lon="0.04709">
        <ele>694.7</ele>
        <time>2017-07-31T09:40:17Z</time>
      </trkpt>
      <trkpt lat="42.44704" lon="0.04714">
        <ele>694.9</ele>
        <time>2017-07-31T09:40:19Z</time>
      </trkpt>
      <trkpt lat="42.44705" lon="0.04717">
        <ele>695.1</ele>
        <time>2017-07-31T09:40:21Z</time>
      </trkpt>
      <trkpt lat="42.44707" lon="0.0472">
        <ele>695.3</ele>
        <time>2017-07-31T09:40:23Z</time>
      </trkpt>
      <trkpt lat="42.4471" lon="0.04722">
        <ele>695.6</ele>
        <time>2017-07-31T09:40:25Z</time>
      </trkpt>
      <trkpt lat="42.44713" lon="0.04723">
        <ele>696.1</ele>
        <time>2017-07-31T09:40:27Z</time>
      </trkpt>
      <trkpt lat="42.44716" lon="0.04721">
        <ele>696.6</ele>
        <time>2017-07-31T09:40:29Z</time>
      </trkpt>
      <trkpt lat="42.44719" lon="0.04719">
        <ele>696.9</ele>
        <time>2017-07-31T09:40:31Z</time>
      </trkpt>
      <trkpt lat="42.44721" lon="0.04715">
        <ele>697.1</ele>
        <time>2017-07-31T09:40:33Z</time>
      </trkpt>
      <trkpt lat="42.44722" lon="0.0471">
        <ele>697.3</ele>
        <time>2017-07-31T09:40:35Z</time>
      </trkpt>
      <trkpt lat="42.44723" lon="0.04705">
        <ele>697.6</ele>
        <time>2017-07-31T09:40:37Z</time>
      </trkpt>
      <trkpt lat="42.44724" lon="0.047">
        <ele>698</ele>
        <time>2017-07-31T09:40:39Z</time>
      </trkpt>
      <trkpt lat="42.44725" lon="0.04695">
        <ele>698.4</ele>
        <time>2017-07-31T09:40:41Z</time>
      </trkpt>
      <trkpt lat="42.44726" lon="0.0469">
        <ele>698.8</ele>
        <time>2017-07-31T09:40:43Z</time>
      </trkpt>
      <trkpt lat="42.44726" lon="0.04685">
        <ele>699.1</ele>
        <time>2017-07-31T09:40:45Z</time>
      </trkpt>
      <trkpt lat="42.44727" lon="0.0468">
        <ele>699.3</ele>
        <time>2017-07-31T09:40:47Z</time>
      </trkpt>
      <trkpt lat="42.44728" lon="0.04675">
        <ele>699.5</ele>
        <time>2017-07-31T09:40:49Z</time>
      </trkpt>
      <trkpt lat="42.44729" lon="0.04669">
        <ele>699.6</ele>
        <time>2017-07-31T09:40:51Z</time>
      </trkpt>
      <trkpt lat="42.4473" lon="0.04663">
        <ele>699.8</ele>
        <time>2017-07-31T09:40:53Z</time>
      </trkpt>
      <trkpt lat="42.4473" lon="0.04657">
        <ele>700</ele>
        <time>2017-07-31T09:40:55Z</time>
      </trkpt>
      <trkpt lat="42.4473" lon="0.04651">
        <ele>700.6</ele>
        <time>2017-07-31T09:40:57Z</time>
      </trkpt>
      <trkpt lat="42.44729" lon="0.04646">
        <ele>700.9</ele>
        <time>2017-07-31T09:40:59Z</time>
      </trkpt>
      <trkpt lat="42.44729" lon="0.0464">
        <ele>701.1</ele>
        <time>2017-07-31T09:41:01Z</time>
      </trkpt>
      <trkpt lat="42.44728" lon="0.04634">
        <ele>701.4</ele>
        <time>2017-07-31T09:41:03Z</time>
      </trkpt>
      <trkpt lat="42.44729" lon="0.04629">
        <ele>701.9</ele>
        <time>2017-07-31T09:41:05Z</time>
      </trkpt>
      <trkpt lat="42.4473" lon="0.04623">
        <ele>702.6</ele>
        <time>2017-07-31T09:41:07Z</time>
      </trkpt>
      <trkpt lat="42.44729" lon="0.04617">
        <ele>703.1</ele>
        <time>2017-07-31T09:41:09Z</time>
      </trkpt>
      <trkpt lat="42.44728" lon="0.04611">
        <ele>703.5</ele>
        <time>2017-07-31T09:41:11Z</time>
      </trkpt>
      <trkpt lat="42.44725" lon="0.04607">
        <ele>704</ele>
        <time>2017-07-31T09:41:13Z</time>
      </trkpt>
      <trkpt lat="42.44721" lon="0.04605">
        <ele>704.6</ele>
        <time>2017-07-31T09:41:15Z</time>
      </trkpt>
      <trkpt lat="42.44717" lon="0.04603">
        <ele>704.9</ele>
        <time>2017-07-31T09:41:17Z</time>
      </trkpt>
      <trkpt lat="42.44714" lon="0.04601">
        <ele>705</ele>
        <time>2017-07-31T09:41:19Z</time>
      </trkpt>
      <trkpt lat="42.4471" lon="0.04599">
        <ele>705.1</ele>
        <time>2017-07-31T09:41:21Z</time>
      </trkpt>
      <trkpt lat="42.44707" lon="0.04597">
        <ele>705.1</ele>
        <time>2017-07-31T09:41:23Z</time>
      </trkpt>
      <trkpt lat="42.44703" lon="0.04594">
        <ele>705.2</ele>
        <time>2017-07-31T09:41:25Z</time>
      </trkpt>
      <trkpt lat="42.447" lon="0.04591">
        <ele>705.2</ele>
        <time>2017-07-31T09:41:27Z</time>
      </trkpt>
      <trkpt lat="42.44697" lon="0.04588">
        <ele>705.3</ele>
        <time>2017-07-31T09:41:29Z</time>
      </trkpt>
      <trkpt lat="42.44694" lon="0.04584">
        <ele>705.3</ele>
        <time>2017-07-31T09:41:31Z</time>
      </trkpt>
      <trkpt lat="42.44691" lon="0.04579">
        <ele>705.4</ele>
        <time>2017-07-31T09:41:33Z</time>
      </trkpt>
      <trkpt lat="42.44689" lon="0.04573">
        <ele>705.5</ele>
        <time>2017-07-31T09:41:35Z</time>
      </trkpt>
      <trkpt lat="42.4469" lon="0.04566">
        <ele>705.6</ele>
        <time>2017-07-31T09:41:37Z</time>
      </trkpt>
      <trkpt lat="42.44692" lon="0.04563">
        <ele>705.6</ele>
        <time>2017-07-31T09:41:38Z</time>
      </trkpt>
      <trkpt lat="42.44694" lon="0.0456">
        <ele>705.7</ele>
        <time>2017-07-31T09:41:39Z</time>
      </trkpt>
      <trkpt lat="42.44696" lon="0.04559">
        <ele>705.7</ele>
        <time>2017-07-31T09:41:40Z</time>
      </trkpt>
      <trkpt lat="42.44699" lon="0.04558">
        <ele>705.8</ele>
        <time>2017-07-31T09:41:41Z</time>
      </trkpt>
      <trkpt lat="42.44703" lon="0.04557">
        <ele>705.9</ele>
        <time>2017-07-31T09:41:42Z</time>
      </trkpt>
      <trkpt lat="42.44706" lon="0.04556">
        <ele>706.1</ele>
        <time>2017-07-31T09:41:43Z</time>
      </trkpt>
      <trkpt lat="42.44709" lon="0.04555">
        <ele>706.3</ele>
        <time>2017-07-31T09:41:44Z</time>
      </trkpt>
      <trkpt lat="42.44712" lon="0.04554">
        <ele>706.7</ele>
        <time>2017-07-31T09:41:45Z</time>
      </trkpt>
      <trkpt lat="42.44715" lon="0.04553">
        <ele>707.1</ele>
        <time>2017-07-31T09:41:46Z</time>
      </trkpt>
      <trkpt lat="42.44719" lon="0.04552">
        <ele>707.3</ele>
        <time>2017-07-31T09:41:47Z</time>
      </trkpt>
      <trkpt lat="42.44721" lon="0.0455">
        <ele>707.5</ele>
        <time>2017-07-31T09:41:48Z</time>
      </trkpt>
      <trkpt lat="42.44724" lon="0.04548">
        <ele>707.8</ele>
        <time>2017-07-31T09:41:49Z</time>
      </trkpt>
      <trkpt lat="42.44727" lon="0.04546">
        <ele>708.1</ele>
        <time>2017-07-31T09:41:50Z</time>
      </trkpt>
      <trkpt lat="42.44729" lon="0.04544">
        <ele>708.6</ele>
        <time>2017-07-31T09:41:51Z</time>
      </trkpt>
      <trkpt lat="42.44731" lon="0.04542">
        <ele>709</ele>
        <time>2017-07-31T09:41:52Z</time>
      </trkpt>
      <trkpt lat="42.44735" lon="0.04538">
        <ele>709.4</ele>
        <time>2017-07-31T09:41:54Z</time>
      </trkpt>
      <trkpt lat="42.44739" lon="0.04535">
        <ele>709.9</ele>
        <time>2017-07-31T09:41:56Z</time>
      </trkpt>
      <trkpt lat="42.44742" lon="0.04531">
        <ele>710.5</ele>
        <time>2017-07-31T09:41:58Z</time>
      </trkpt>
      <trkpt lat="42.44745" lon="0.04528">
        <ele>711.1</ele>
        <time>2017-07-31T09:42:00Z</time>
      </trkpt>
      <trkpt lat="42.44747" lon="0.04525">
        <ele>711.4</ele>
        <time>2017-07-31T09:42:02Z</time>
      </trkpt>
      <trkpt lat="42.44749" lon="0.04523">
        <ele>711.6</ele>
        <time>2017-07-31T09:42:04Z</time>
      </trkpt>
      <trkpt lat="42.44751" lon="0.04519">
        <ele>712.2</ele>
        <time>2017-07-31T09:42:06Z</time>
      </trkpt>
      <trkpt lat="42.44753" lon="0.04515">
        <ele>713</ele>
        <time>2017-07-31T09:42:08Z</time>
      </trkpt>
      <trkpt lat="42.44755" lon="0.04512">
        <ele>713.3</ele>
        <time>2017-07-31T09:42:10Z</time>
      </trkpt>
      <trkpt lat="42.44757" lon="0.0451">
        <ele>713.6</ele>
        <time>2017-07-31T09:42:12Z</time>
      </trkpt>
      <trkpt lat="42.4476" lon="0.04507">
        <ele>714.1</ele>
        <time>2017-07-31T09:42:14Z</time>
      </trkpt>
      <trkpt lat="42.44762" lon="0.04504">
        <ele>714.8</ele>
        <time>2017-07-31T09:42:16Z</time>
      </trkpt>
      <trkpt lat="42.44763" lon="0.045">
        <ele>715.3</ele>
        <time>2017-07-31T09:42:18Z</time>
      </trkpt>
      <trkpt lat="42.44765" lon="0.04496">
        <ele>715.8</ele>
        <time>2017-07-31T09:42:20Z</time>
      </trkpt>
      <trkpt lat="42.44767" lon="0.04493">
        <ele>716.3</ele>
        <time>2017-07-31T09:42:22Z</time>
      </trkpt>
      <trkpt lat="42.44771" lon="0.04493">
        <ele>717.3</ele>
        <time>2017-07-31T09:42:25Z</time>
      </trkpt>
      <trkpt lat="42.44774" lon="0.04491">
        <ele>717.6</ele>
        <time>2017-07-31T09:42:27Z</time>
      </trkpt>
      <trkpt lat="42.44774" lon="0.04486">
        <ele>718</ele>
        <time>2017-07-31T09:42:29Z</time>
      </trkpt>
      <trkpt lat="42.44774" lon="0.04482">
        <ele>718.7</ele>
        <time>2017-07-31T09:42:31Z</time>
      </trkpt>
      <trkpt lat="42.44773" lon="0.04478">
        <ele>719.3</ele>
        <time>2017-07-31T09:42:33Z</time>
      </trkpt>
      <trkpt lat="42.44773" lon="0.04474">
        <ele>719.7</ele>
        <time>2017-07-31T09:42:35Z</time>
      </trkpt>
      <trkpt lat="42.44772" lon="0.0447">
        <ele>720.2</ele>
        <time>2017-07-31T09:42:37Z</time>
      </trkpt>
      <trkpt lat="42.44772" lon="0.04466">
        <ele>721</ele>
        <time>2017-07-31T09:42:39Z</time>
      </trkpt>
      <trkpt lat="42.44772" lon="0.04462">
        <ele>721.7</ele>
        <time>2017-07-31T09:42:41Z</time>
      </trkpt>
      <trkpt lat="42.44772" lon="0.04458">
        <ele>722.1</ele>
        <time>2017-07-31T09:42:43Z</time>
      </trkpt>
      <trkpt lat="42.44773" lon="0.04454">
        <ele>722.8</ele>
        <time>2017-07-31T09:42:45Z</time>
      </trkpt>
      <trkpt lat="42.44773" lon="0.0445">
        <ele>723.4</ele>
        <time>2017-07-31T09:42:47Z</time>
      </trkpt>
      <trkpt lat="42.44773" lon="0.04445">
        <ele>724</ele>
        <time>2017-07-31T09:42:50Z</time>
      </trkpt>
      <trkpt lat="42.44773" lon="0.0444">
        <ele>724.3</ele>
        <time>2017-07-31T09:42:53Z</time>
      </trkpt>
      <trkpt lat="42.44773" lon="0.04435">
        <ele>724.6</ele>
        <time>2017-07-31T09:42:56Z</time>
      </trkpt>
      <trkpt lat="42.44773" lon="0.0443">
        <ele>725.4</ele>
        <time>2017-07-31T09:42:59Z</time>
      </trkpt>
      <trkpt lat="42.44774" lon="0.04425">
        <ele>726.1</ele>
        <time>2017-07-31T09:43:02Z</time>
      </trkpt>
      <trkpt lat="42.44775" lon="0.04421">
        <ele>726.4</ele>
        <time>2017-07-31T09:43:05Z</time>
      </trkpt>
      <trkpt lat="42.44778" lon="0.04418">
        <ele>727.1</ele>
        <time>2017-07-31T09:43:08Z</time>
      </trkpt>
      <trkpt lat="42.44781" lon="0.04418">
        <ele>727.8</ele>
        <time>2017-07-31T09:43:10Z</time>
      </trkpt>
      <trkpt lat="42.44785" lon="0.0442">
        <ele>728.3</ele>
        <time>2017-07-31T09:43:13Z</time>
      </trkpt>
      <trkpt lat="42.44788" lon="0.04424">
        <ele>728.9</ele>
        <time>2017-07-31T09:43:16Z</time>
      </trkpt>
      <trkpt lat="42.4479" lon="0.04428">
        <ele>729.7</ele>
        <time>2017-07-31T09:43:19Z</time>
      </trkpt>
      <trkpt lat="42.44791" lon="0.04433">
        <ele>730.1</ele>
        <time>2017-07-31T09:43:22Z</time>
      </trkpt>
      <trkpt lat="42.44792" lon="0.04438">
        <ele>730.6</ele>
        <time>2017-07-31T09:43:25Z</time>
      </trkpt>
      <trkpt lat="42.44792" lon="0.04442">
        <ele>730.9</ele>
        <time>2017-07-31T09:43:28Z</time>
      </trkpt>
      <trkpt lat="42.44793" lon="0.04447">
        <ele>731.5</ele>
        <time>2017-07-31T09:43:31Z</time>
      </trkpt>
      <trkpt lat="42.44795" lon="0.04451">
        <ele>732</ele>
        <time>2017-07-31T09:43:34Z</time>
      </trkpt>
      <trkpt lat="42.44797" lon="0.04455">
        <ele>732.3</ele>
        <time>2017-07-31T09:43:37Z</time>
      </trkpt>
      <trkpt lat="42.44799" lon="0.04458">
        <ele>732.5</ele>
        <time>2017-07-31T09:43:40Z</time>
      </trkpt>
      <trkpt lat="42.44803" lon="0.04459">
        <ele>732.7</ele>
        <time>2017-07-31T09:43:43Z</time>
      </trkpt>
      <trkpt lat="42.44806" lon="0.04459">
        <ele>732.9</ele>
        <time>2017-07-31T09:43:46Z</time>
      </trkpt>
      <trkpt lat="42.44809" lon="0.04455">
        <ele>733.1</ele>
        <time>2017-07-31T09:43:49Z</time>
      </trkpt>
      <trkpt lat="42.4481" lon="0.04452">
        <ele>733.5</ele>
        <time>2017-07-31T09:43:51Z</time>
      </trkpt>
      <trkpt lat="42.44811" lon="0.04448">
        <ele>733.9</ele>
        <time>2017-07-31T09:43:53Z</time>
      </trkpt>
      <trkpt lat="42.44812" lon="0.04444">
        <ele>734.1</ele>
        <time>2017-07-31T09:43:55Z</time>
      </trkpt>
      <trkpt lat="42.44812" lon="0.04439">
        <ele>734.4</ele>
        <time>2017-07-31T09:43:58Z</time>
      </trkpt>
      <trkpt lat="42.44811" lon="0.04435">
        <ele>734.5</ele>
        <time>2017-07-31T09:44:00Z</time>
      </trkpt>
      <trkpt lat="42.4481" lon="0.04432">
        <ele>734.6</ele>
        <time>2017-07-31T09:44:02Z</time>
      </trkpt>
      <trkpt lat="42.44808" lon="0.04427">
        <ele>734.9</ele>
        <time>2017-07-31T09:44:05Z</time>
      </trkpt>
      <trkpt lat="42.44807" lon="0.04422">
        <ele>735.3</ele>
        <time>2017-07-31T09:44:08Z</time>
      </trkpt>
      <trkpt lat="42.44806" lon="0.04417">
        <ele>735.9</ele>
        <time>2017-07-31T09:44:11Z</time>
      </trkpt>
      <trkpt lat="42.44805" lon="0.04413">
        <ele>736.1</ele>
        <time>2017-07-31T09:44:13Z</time>
      </trkpt>
      <trkpt lat="42.44805" lon="0.04408">
        <ele>736.5</ele>
        <time>2017-07-31T09:44:15Z</time>
      </trkpt>
      <trkpt lat="42.44805" lon="0.04404">
        <ele>736.8</ele>
        <time>2017-07-31T09:44:17Z</time>
      </trkpt>
      <trkpt lat="42.44806" lon="0.044">
        <ele>737.2</ele>
        <time>2017-07-31T09:44:19Z</time>
      </trkpt>
      <trkpt lat="42.44808" lon="0.04397">
        <ele>737.8</ele>
        <time>2017-07-31T09:44:21Z</time>
      </trkpt>
      <trkpt lat="42.44809" lon="0.04393">
        <ele>738.1</ele>
        <time>2017-07-31T09:44:23Z</time>
      </trkpt>
      <trkpt lat="42.44811" lon="0.0439">
        <ele>738.3</ele>
        <time>2017-07-31T09:44:25Z</time>
      </trkpt>
      <trkpt lat="42.44812" lon="0.04387">
        <ele>738.5</ele>
        <time>2017-07-31T09:44:27Z</time>
      </trkpt>
      <trkpt lat="42.44814" lon="0.04383">
        <ele>738.8</ele>
        <time>2017-07-31T09:44:29Z</time>
      </trkpt>
      <trkpt lat="42.44816" lon="0.0438">
        <ele>739.1</ele>
        <time>2017-07-31T09:44:31Z</time>
      </trkpt>
      <trkpt lat="42.44818" lon="0.04377">
        <ele>739.5</ele>
        <time>2017-07-31T09:44:33Z</time>
      </trkpt>
      <trkpt lat="42.4482" lon="0.04374">
        <ele>739.9</ele>
        <time>2017-07-31T09:44:35Z</time>
      </trkpt>
      <trkpt lat="42.44823" lon="0.04371">
        <ele>740.1</ele>
        <time>2017-07-31T09:44:37Z</time>
      </trkpt>
      <trkpt lat="42.44825" lon="0.04367">
        <ele>740.4</ele>
        <time>2017-07-31T09:44:39Z</time>
      </trkpt>
      <trkpt lat="42.44827" lon="0.04363">
        <ele>740.6</ele>
        <time>2017-07-31T09:44:41Z</time>
      </trkpt>
      <trkpt lat="42.4483" lon="0.0436">
        <ele>740.8</ele>
        <time>2017-07-31T09:44:43Z</time>
      </trkpt>
      <trkpt lat="42.44832" lon="0.04357">
        <ele>741.1</ele>
        <time>2017-07-31T09:44:45Z</time>
      </trkpt>
      <trkpt lat="42.44834" lon="0.04353">
        <ele>741.3</ele>
        <time>2017-07-31T09:44:47Z</time>
      </trkpt>
      <trkpt lat="42.44837" lon="0.0435">
        <ele>741.8</ele>
        <time>2017-07-31T09:44:49Z</time>
      </trkpt>
      <trkpt lat="42.44839" lon="0.04348">
        <ele>742.3</ele>
        <time>2017-07-31T09:44:51Z</time>
      </trkpt>
      <trkpt lat="42.44842" lon="0.04345">
        <ele>742.6</ele>
        <time>2017-07-31T09:44:53Z</time>
      </trkpt>
      <trkpt lat="42.44845" lon="0.04342">
        <ele>742.9</ele>
        <time>2017-07-31T09:44:55Z</time>
      </trkpt>
      <trkpt lat="42.44848" lon="0.0434">
        <ele>743.3</ele>
        <time>2017-07-31T09:44:57Z</time>
      </trkpt>
      <trkpt lat="42.4485" lon="0.04338">
        <ele>743.8</ele>
        <time>2017-07-31T09:44:59Z</time>
      </trkpt>
      <trkpt lat="42.44853" lon="0.04335">
        <ele>744.3</ele>
        <time>2017-07-31T09:45:01Z</time>
      </trkpt>
      <trkpt lat="42.44855" lon="0.04333">
        <ele>744.7</ele>
        <time>2017-07-31T09:45:03Z</time>
      </trkpt>
      <trkpt lat="42.44858" lon="0.0433">
        <ele>745</ele>
        <time>2017-07-31T09:45:05Z</time>
      </trkpt>
      <trkpt lat="42.4486" lon="0.04327">
        <ele>745.2</ele>
        <time>2017-07-31T09:45:07Z</time>
      </trkpt>
      <trkpt lat="42.44863" lon="0.04324">
        <ele>745.4</ele>
        <time>2017-07-31T09:45:09Z</time>
      </trkpt>
      <trkpt lat="42.44865" lon="0.04322">
        <ele>745.9</ele>
        <time>2017-07-31T09:45:11Z</time>
      </trkpt>
      <trkpt lat="42.44868" lon="0.04319">
        <ele>746.3</ele>
        <time>2017-07-31T09:45:13Z</time>
      </trkpt>
      <trkpt lat="42.4487" lon="0.04316">
        <ele>746.6</ele>
        <time>2017-07-31T09:45:15Z</time>
      </trkpt>
      <trkpt lat="42.44873" lon="0.04313">
        <ele>746.9</ele>
        <time>2017-07-31T09:45:17Z</time>
      </trkpt>
      <trkpt lat="42.44875" lon="0.0431">
        <ele>747.1</ele>
        <time>2017-07-31T09:45:19Z</time>
      </trkpt>
      <trkpt lat="42.44877" lon="0.04307">
        <ele>747.4</ele>
        <time>2017-07-31T09:45:21Z</time>
      </trkpt>
      <trkpt lat="42.44879" lon="0.04304">
        <ele>748</ele>
        <time>2017-07-31T09:45:23Z</time>
      </trkpt>
      <trkpt lat="42.44881" lon="0.04301">
        <ele>748.5</ele>
        <time>2017-07-31T09:45:25Z</time>
      </trkpt>
      <trkpt lat="42.44883" lon="0.04297">
        <ele>748.7</ele>
        <time>2017-07-31T09:45:27Z</time>
      </trkpt>
      <trkpt lat="42.44885" lon="0.04294">
        <ele>748.9</ele>
        <time>2017-07-31T09:45:29Z</time>
      </trkpt>
      <trkpt lat="42.44887" lon="0.0429">
        <ele>749.1</ele>
        <time>2017-07-31T09:45:31Z</time>
      </trkpt>
      <trkpt lat="42.44888" lon="0.04287">
        <ele>749.3</ele>
        <time>2017-07-31T09:45:33Z</time>
      </trkpt>
      <trkpt lat="42.4489" lon="0.04284">
        <ele>749.5</ele>
        <time>2017-07-31T09:45:35Z</time>
      </trkpt>
      <trkpt lat="42.44891" lon="0.0428">
        <ele>749.9</ele>
        <time>2017-07-31T09:45:37Z</time>
      </trkpt>
      <trkpt lat="42.44892" lon="0.04276">
        <ele>750.5</ele>
        <time>2017-07-31T09:45:39Z</time>
      </trkpt>
      <trkpt lat="42.44892" lon="0.04272">
        <ele>750.7</ele>
        <time>2017-07-31T09:45:41Z</time>
      </trkpt>
      <trkpt lat="42.44893" lon="0.04268">
        <ele>750.9</ele>
        <time>2017-07-31T09:45:43Z</time>
      </trkpt>
      <trkpt lat="42.44893" lon="0.04264">
        <ele>751.1</ele>
        <time>2017-07-31T09:45:45Z</time>
      </trkpt>
      <trkpt lat="42.44894" lon="0.04259">
        <ele>751.4</ele>
        <time>2017-07-31T09:45:47Z</time>
      </trkpt>
      <trkpt lat="42.44894" lon="0.04256">
        <ele>751.7</ele>
        <time>2017-07-31T09:45:49Z</time>
      </trkpt>
      <trkpt lat="42.44895" lon="0.04252">
        <ele>752.3</ele>
        <time>2017-07-31T09:45:51Z</time>
      </trkpt>
      <trkpt lat="42.44896" lon="0.04248">
        <ele>752.6</ele>
        <time>2017-07-31T09:45:53Z</time>
      </trkpt>
      <trkpt lat="42.44896" lon="0.04243">
        <ele>752.8</ele>
        <time>2017-07-31T09:45:55Z</time>
      </trkpt>
      <trkpt lat="42.44896" lon="0.04239">
        <ele>753.1</ele>
        <time>2017-07-31T09:45:57Z</time>
      </trkpt>
      <trkpt lat="42.44897" lon="0.04235">
        <ele>753.3</ele>
        <time>2017-07-31T09:45:59Z</time>
      </trkpt>
      <trkpt lat="42.44897" lon="0.0423">
        <ele>753.7</ele>
        <time>2017-07-31T09:46:01Z</time>
      </trkpt>
      <trkpt lat="42.44897" lon="0.04226">
        <ele>754.3</ele>
        <time>2017-07-31T09:46:03Z</time>
      </trkpt>
      <trkpt lat="42.44897" lon="0.04221">
        <ele>754.6</ele>
        <time>2017-07-31T09:46:05Z</time>
      </trkpt>
      <trkpt lat="42.44898" lon="0.04217">
        <ele>754.9</ele>
        <time>2017-07-31T09:46:07Z</time>
      </trkpt>
      <trkpt lat="42.44897" lon="0.04213">
        <ele>755.1</ele>
        <time>2017-07-31T09:46:09Z</time>
      </trkpt>
      <trkpt lat="42.44897" lon="0.04208">
        <ele>755.3</ele>
        <time>2017-07-31T09:46:11Z</time>
      </trkpt>
      <trkpt lat="42.44897" lon="0.04204">
        <ele>755.6</ele>
        <time>2017-07-31T09:46:13Z</time>
      </trkpt>
      <trkpt lat="42.44897" lon="0.04199">
        <ele>756.2</ele>
        <time>2017-07-31T09:46:15Z</time>
      </trkpt>
      <trkpt lat="42.44896" lon="0.04195">
        <ele>756.7</ele>
        <time>2017-07-31T09:46:17Z</time>
      </trkpt>
      <trkpt lat="42.44896" lon="0.0419">
        <ele>757</ele>
        <time>2017-07-31T09:46:19Z</time>
      </trkpt>
      <trkpt lat="42.44895" lon="0.04186">
        <ele>757.2</ele>
        <time>2017-07-31T09:46:21Z</time>
      </trkpt>
      <trkpt lat="42.44894" lon="0.04182">
        <ele>757.4</ele>
        <time>2017-07-31T09:46:23Z</time>
      </trkpt>
      <trkpt lat="42.44892" lon="0.04177">
        <ele>757.5</ele>
        <time>2017-07-31T09:46:25Z</time>
      </trkpt>
      <trkpt lat="42.4489" lon="0.04173">
        <ele>757.9</ele>
        <time>2017-07-31T09:46:27Z</time>
      </trkpt>
      <trkpt lat="42.44887" lon="0.04169">
        <ele>758.4</ele>
        <time>2017-07-31T09:46:29Z</time>
      </trkpt>
      <trkpt lat="42.44884" lon="0.04165">
        <ele>758.6</ele>
        <time>2017-07-31T09:46:31Z</time>
      </trkpt>
      <trkpt lat="42.4488" lon="0.04162">
        <ele>758.8</ele>
        <time>2017-07-31T09:46:33Z</time>
      </trkpt>
      <trkpt lat="42.44876" lon="0.04159">
        <ele>758.9</ele>
        <time>2017-07-31T09:46:35Z</time>
      </trkpt>
      <trkpt lat="42.44873" lon="0.04156">
        <ele>759.1</ele>
        <time>2017-07-31T09:46:37Z</time>
      </trkpt>
      <trkpt lat="42.4487" lon="0.04151">
        <ele>759.3</ele>
        <time>2017-07-31T09:46:39Z</time>
      </trkpt>
      <trkpt lat="42.44867" lon="0.04146">
        <ele>759.4</ele>
        <time>2017-07-31T09:46:41Z</time>
      </trkpt>
      <trkpt lat="42.44866" lon="0.04141">
        <ele>759.7</ele>
        <time>2017-07-31T09:46:43Z</time>
      </trkpt>
      <trkpt lat="42.44866" lon="0.04136">
        <ele>760.3</ele>
        <time>2017-07-31T09:46:45Z</time>
      </trkpt>
      <trkpt lat="42.44866" lon="0.04131">
        <ele>760.7</ele>
        <time>2017-07-31T09:46:47Z</time>
      </trkpt>
      <trkpt lat="42.44867" lon="0.04127">
        <ele>760.9</ele>
        <time>2017-07-31T09:46:49Z</time>
      </trkpt>
      <trkpt lat="42.44868" lon="0.04123">
        <ele>761.2</ele>
        <time>2017-07-31T09:46:51Z</time>
      </trkpt>
      <trkpt lat="42.44869" lon="0.04119">
        <ele>761.6</ele>
        <time>2017-07-31T09:46:53Z</time>
      </trkpt>
      <trkpt lat="42.44869" lon="0.04115">
        <ele>762.1</ele>
        <time>2017-07-31T09:46:55Z</time>
      </trkpt>
      <trkpt lat="42.44869" lon="0.04111">
        <ele>762.6</ele>
        <time>2017-07-31T09:46:57Z</time>
      </trkpt>
      <trkpt lat="42.44869" lon="0.04107">
        <ele>762.9</ele>
        <time>2017-07-31T09:46:59Z</time>
      </trkpt>
      <trkpt lat="42.44867" lon="0.04103">
        <ele>763.2</ele>
        <time>2017-07-31T09:47:01Z</time>
      </trkpt>
      <trkpt lat="42.44865" lon="0.041">
        <ele>763.4</ele>
        <time>2017-07-31T09:47:03Z</time>
      </trkpt>
      <trkpt lat="42.44862" lon="0.04097">
        <ele>763.6</ele>
        <time>2017-07-31T09:47:05Z</time>
      </trkpt>
      <trkpt lat="42.44858" lon="0.04095">
        <ele>763.8</ele>
        <time>2017-07-31T09:47:07Z</time>
      </trkpt>
      <trkpt lat="42.44855" lon="0.04094">
        <ele>764.3</ele>
        <time>2017-07-31T09:47:09Z</time>
      </trkpt>
      <trkpt lat="42.44851" lon="0.04094">
        <ele>764.7</ele>
        <time>2017-07-31T09:47:11Z</time>
      </trkpt>
      <trkpt lat="42.44848" lon="0.04093">
        <ele>764.9</ele>
        <time>2017-07-31T09:47:13Z</time>
      </trkpt>
      <trkpt lat="42.44844" lon="0.04092">
        <ele>765.1</ele>
        <time>2017-07-31T09:47:15Z</time>
      </trkpt>
      <trkpt lat="42.44841" lon="0.04091">
        <ele>765.3</ele>
        <time>2017-07-31T09:47:17Z</time>
      </trkpt>
      <trkpt lat="42.44837" lon="0.04089">
        <ele>765.6</ele>
        <time>2017-07-31T09:47:19Z</time>
      </trkpt>
      <trkpt lat="42.44834" lon="0.04086">
        <ele>765.8</ele>
        <time>2017-07-31T09:47:21Z</time>
      </trkpt>
      <trkpt lat="42.44832" lon="0.04083">
        <ele>766</ele>
        <time>2017-07-31T09:47:23Z</time>
      </trkpt>
      <trkpt lat="42.44829" lon="0.0408">
        <ele>766.5</ele>
        <time>2017-07-31T09:47:25Z</time>
      </trkpt>
      <trkpt lat="42.44827" lon="0.04076">
        <ele>767</ele>
        <time>2017-07-31T09:47:27Z</time>
      </trkpt>
      <trkpt lat="42.44826" lon="0.04072">
        <ele>767.3</ele>
        <time>2017-07-31T09:47:29Z</time>
      </trkpt>
      <trkpt lat="42.44825" lon="0.04068">
        <ele>767.5</ele>
        <time>2017-07-31T09:47:31Z</time>
      </trkpt>
      <trkpt lat="42.44824" lon="0.04064">
        <ele>767.7</ele>
        <time>2017-07-31T09:47:33Z</time>
      </trkpt>
      <trkpt lat="42.44824" lon="0.0406">
        <ele>768</ele>
        <time>2017-07-31T09:47:35Z</time>
      </trkpt>
      <trkpt lat="42.44824" lon="0.04055">
        <ele>768.6</ele>
        <time>2017-07-31T09:47:37Z</time>
      </trkpt>
      <trkpt lat="42.44825" lon="0.04051">
        <ele>769.1</ele>
        <time>2017-07-31T09:47:39Z</time>
      </trkpt>
      <trkpt lat="42.44825" lon="0.04047">
        <ele>769.3</ele>
        <time>2017-07-31T09:47:41Z</time>
      </trkpt>
      <trkpt lat="42.44827" lon="0.04042">
        <ele>769.5</ele>
        <time>2017-07-31T09:47:43Z</time>
      </trkpt>
      <trkpt lat="42.44828" lon="0.04038">
        <ele>769.7</ele>
        <time>2017-07-31T09:47:45Z</time>
      </trkpt>
      <trkpt lat="42.44829" lon="0.04034">
        <ele>770.2</ele>
        <time>2017-07-31T09:47:47Z</time>
      </trkpt>
      <trkpt lat="42.4483" lon="0.0403">
        <ele>770.7</ele>
        <time>2017-07-31T09:47:49Z</time>
      </trkpt>
      <trkpt lat="42.44831" lon="0.04026">
        <ele>771.1</ele>
        <time>2017-07-31T09:47:51Z</time>
      </trkpt>
      <trkpt lat="42.44833" lon="0.04021">
        <ele>771.3</ele>
        <time>2017-07-31T09:47:53Z</time>
      </trkpt>
      <trkpt lat="42.44834" lon="0.04017">
        <ele>771.5</ele>
        <time>2017-07-31T09:47:55Z</time>
      </trkpt>
      <trkpt lat="42.44835" lon="0.04013">
        <ele>771.8</ele>
        <time>2017-07-31T09:47:57Z</time>
      </trkpt>
      <trkpt lat="42.44836" lon="0.04009">
        <ele>772.1</ele>
        <time>2017-07-31T09:47:59Z</time>
      </trkpt>
      <trkpt lat="42.44837" lon="0.04005">
        <ele>772.5</ele>
        <time>2017-07-31T09:48:01Z</time>
      </trkpt>
      <trkpt lat="42.44838" lon="0.04">
        <ele>772.9</ele>
        <time>2017-07-31T09:48:03Z</time>
      </trkpt>
      <trkpt lat="42.44838" lon="0.03996">
        <ele>773.2</ele>
        <time>2017-07-31T09:48:05Z</time>
      </trkpt>
      <trkpt lat="42.44837" lon="0.03992">
        <ele>773.5</ele>
        <time>2017-07-31T09:48:07Z</time>
      </trkpt>
      <trkpt lat="42.44837" lon="0.03987">
        <ele>773.7</ele>
        <time>2017-07-31T09:48:09Z</time>
      </trkpt>
      <trkpt lat="42.44836" lon="0.03983">
        <ele>773.9</ele>
        <time>2017-07-31T09:48:11Z</time>
      </trkpt>
      <trkpt lat="42.44834" lon="0.03978">
        <ele>774.1</ele>
        <time>2017-07-31T09:48:13Z</time>
      </trkpt>
      <trkpt lat="42.44834" lon="0.03974">
        <ele>774.4</ele>
        <time>2017-07-31T09:48:15Z</time>
      </trkpt>
      <trkpt lat="42.44833" lon="0.03969">
        <ele>774.9</ele>
        <time>2017-07-31T09:48:17Z</time>
      </trkpt>
      <trkpt lat="42.44833" lon="0.03964">
        <ele>775.2</ele>
        <time>2017-07-31T09:48:19Z</time>
      </trkpt>
      <trkpt lat="42.44832" lon="0.03959">
        <ele>775.4</ele>
        <time>2017-07-31T09:48:21Z</time>
      </trkpt>
      <trkpt lat="42.44832" lon="0.03954">
        <ele>775.6</ele>
        <time>2017-07-31T09:48:23Z</time>
      </trkpt>
      <trkpt lat="42.44831" lon="0.03949">
        <ele>775.7</ele>
        <time>2017-07-31T09:48:25Z</time>
      </trkpt>
      <trkpt lat="42.4483" lon="0.03943">
        <ele>775.9</ele>
        <time>2017-07-31T09:48:27Z</time>
      </trkpt>
      <trkpt lat="42.4483" lon="0.03937">
        <ele>776.1</ele>
        <time>2017-07-31T09:48:29Z</time>
      </trkpt>
      <trkpt lat="42.44829" lon="0.0393">
        <ele>776.6</ele>
        <time>2017-07-31T09:48:31Z</time>
      </trkpt>
      <trkpt lat="42.44829" lon="0.03926">
        <ele>776.9</ele>
        <time>2017-07-31T09:48:32Z</time>
      </trkpt>
      <trkpt lat="42.44828" lon="0.03922">
        <ele>777.1</ele>
        <time>2017-07-31T09:48:33Z</time>
      </trkpt>
      <trkpt lat="42.44828" lon="0.03915">
        <ele>777.4</ele>
        <time>2017-07-31T09:48:35Z</time>
      </trkpt>
      <trkpt lat="42.44827" lon="0.03909">
        <ele>779.3</ele>
        <time>2017-07-31T09:48:37Z</time>
      </trkpt>
      <trkpt lat="42.44826" lon="0.03902">
        <ele>779.5</ele>
        <time>2017-07-31T09:48:39Z</time>
      </trkpt>
      <trkpt lat="42.44826" lon="0.03895">
        <ele>779.6</ele>
        <time>2017-07-31T09:48:41Z</time>
      </trkpt>
      <trkpt lat="42.44827" lon="0.03889">
        <ele>779.6</ele>
        <time>2017-07-31T09:48:43Z</time>
      </trkpt>
      <trkpt lat="42.44828" lon="0.03882">
        <ele>779.6</ele>
        <time>2017-07-31T09:48:45Z</time>
      </trkpt>
      <trkpt lat="42.4483" lon="0.03875">
        <ele>779.6</ele>
        <time>2017-07-31T09:48:47Z</time>
      </trkpt>
      <trkpt lat="42.44832" lon="0.03869">
        <ele>779.7</ele>
        <time>2017-07-31T09:48:49Z</time>
      </trkpt>
      <trkpt lat="42.44833" lon="0.03862">
        <ele>779.7</ele>
        <time>2017-07-31T09:48:51Z</time>
      </trkpt>
      <trkpt lat="42.44832" lon="0.03856">
        <ele>779.8</ele>
        <time>2017-07-31T09:48:53Z</time>
      </trkpt>
      <trkpt lat="42.4483" lon="0.0385">
        <ele>780</ele>
        <time>2017-07-31T09:48:55Z</time>
      </trkpt>
      <trkpt lat="42.44827" lon="0.03845">
        <ele>780.4</ele>
        <time>2017-07-31T09:48:57Z</time>
      </trkpt>
      <trkpt lat="42.44824" lon="0.03842">
        <ele>781</ele>
        <time>2017-07-31T09:48:59Z</time>
      </trkpt>
      <trkpt lat="42.44821" lon="0.03838">
        <ele>781.5</ele>
        <time>2017-07-31T09:49:01Z</time>
      </trkpt>
      <trkpt lat="42.44818" lon="0.03834">
        <ele>781.8</ele>
        <time>2017-07-31T09:49:03Z</time>
      </trkpt>
      <trkpt lat="42.44816" lon="0.0383">
        <ele>781.9</ele>
        <time>2017-07-31T09:49:05Z</time>
      </trkpt>
      <trkpt lat="42.44814" lon="0.03825">
        <ele>782.1</ele>
        <time>2017-07-31T09:49:07Z</time>
      </trkpt>
      <trkpt lat="42.44814" lon="0.0382">
        <ele>782.4</ele>
        <time>2017-07-31T09:49:09Z</time>
      </trkpt>
      <trkpt lat="42.44815" lon="0.03815">
        <ele>782.6</ele>
        <time>2017-07-31T09:49:11Z</time>
      </trkpt>
      <trkpt lat="42.44818" lon="0.0381">
        <ele>783.2</ele>
        <time>2017-07-31T09:49:13Z</time>
      </trkpt>
      <trkpt lat="42.44822" lon="0.03808">
        <ele>783.5</ele>
        <time>2017-07-31T09:49:15Z</time>
      </trkpt>
      <trkpt lat="42.44827" lon="0.03806">
        <ele>783.7</ele>
        <time>2017-07-31T09:49:17Z</time>
      </trkpt>
      <trkpt lat="42.44832" lon="0.03806">
        <ele>783.9</ele>
        <time>2017-07-31T09:49:19Z</time>
      </trkpt>
      <trkpt lat="42.44837" lon="0.03806">
        <ele>784.1</ele>
        <time>2017-07-31T09:49:21Z</time>
      </trkpt>
      <trkpt lat="42.44842" lon="0.03806">
        <ele>784.3</ele>
        <time>2017-07-31T09:49:23Z</time>
      </trkpt>
      <trkpt lat="42.44845" lon="0.03807">
        <ele>784.4</ele>
        <time>2017-07-31T09:49:24Z</time>
      </trkpt>
      <trkpt lat="42.44851" lon="0.03807">
        <ele>784.6</ele>
        <time>2017-07-31T09:49:26Z</time>
      </trkpt>
      <trkpt lat="42.44856" lon="0.03808">
        <ele>784.9</ele>
        <time>2017-07-31T09:49:28Z</time>
      </trkpt>
      <trkpt lat="42.4486" lon="0.03808">
        <ele>785.5</ele>
        <time>2017-07-31T09:49:30Z</time>
      </trkpt>
      <trkpt lat="42.44865" lon="0.03808">
        <ele>785.8</ele>
        <time>2017-07-31T09:49:32Z</time>
      </trkpt>
      <trkpt lat="42.44869" lon="0.03808">
        <ele>786.1</ele>
        <time>2017-07-31T09:49:34Z</time>
      </trkpt>
      <trkpt lat="42.44873" lon="0.03807">
        <ele>786.3</ele>
        <time>2017-07-31T09:49:36Z</time>
      </trkpt>
      <trkpt lat="42.44877" lon="0.03805">
        <ele>786.6</ele>
        <time>2017-07-31T09:49:38Z</time>
      </trkpt>
      <trkpt lat="42.44881" lon="0.03803">
        <ele>786.9</ele>
        <time>2017-07-31T09:49:40Z</time>
      </trkpt>
      <trkpt lat="42.44884" lon="0.038">
        <ele>787.5</ele>
        <time>2017-07-31T09:49:42Z</time>
      </trkpt>
      <trkpt lat="42.44888" lon="0.03797">
        <ele>788</ele>
        <time>2017-07-31T09:49:44Z</time>
      </trkpt>
      <trkpt lat="42.44891" lon="0.03794">
        <ele>788.2</ele>
        <time>2017-07-31T09:49:46Z</time>
      </trkpt>
      <trkpt lat="42.44894" lon="0.03791">
        <ele>788.5</ele>
        <time>2017-07-31T09:49:48Z</time>
      </trkpt>
      <trkpt lat="42.44896" lon="0.03788">
        <ele>788.8</ele>
        <time>2017-07-31T09:49:50Z</time>
      </trkpt>
      <trkpt lat="42.44898" lon="0.03784">
        <ele>789.4</ele>
        <time>2017-07-31T09:49:52Z</time>
      </trkpt>
      <trkpt lat="42.449" lon="0.03782">
        <ele>789.9</ele>
        <time>2017-07-31T09:49:54Z</time>
      </trkpt>
      <trkpt lat="42.44903" lon="0.03779">
        <ele>790.1</ele>
        <time>2017-07-31T09:49:56Z</time>
      </trkpt>
      <trkpt lat="42.44906" lon="0.03777">
        <ele>790.4</ele>
        <time>2017-07-31T09:49:58Z</time>
      </trkpt>
      <trkpt lat="42.44909" lon="0.03775">
        <ele>790.7</ele>
        <time>2017-07-31T09:50:00Z</time>
      </trkpt>
      <trkpt lat="42.44911" lon="0.03773">
        <ele>791.1</ele>
        <time>2017-07-31T09:50:02Z</time>
      </trkpt>
      <trkpt lat="42.44914" lon="0.0377">
        <ele>791.7</ele>
        <time>2017-07-31T09:50:04Z</time>
      </trkpt>
      <trkpt lat="42.44917" lon="0.03768">
        <ele>792</ele>
        <time>2017-07-31T09:50:06Z</time>
      </trkpt>
      <trkpt lat="42.44919" lon="0.03764">
        <ele>792.3</ele>
        <time>2017-07-31T09:50:08Z</time>
      </trkpt>
      <trkpt lat="42.44921" lon="0.0376">
        <ele>792.5</ele>
        <time>2017-07-31T09:50:10Z</time>
      </trkpt>
      <trkpt lat="42.44922" lon="0.03756">
        <ele>792.6</ele>
        <time>2017-07-31T09:50:12Z</time>
      </trkpt>
      <trkpt lat="42.44922" lon="0.03751">
        <ele>792.8</ele>
        <time>2017-07-31T09:50:14Z</time>
      </trkpt>
      <trkpt lat="42.44921" lon="0.03747">
        <ele>793.1</ele>
        <time>2017-07-31T09:50:16Z</time>
      </trkpt>
      <trkpt lat="42.44919" lon="0.03743">
        <ele>793.5</ele>
        <time>2017-07-31T09:50:18Z</time>
      </trkpt>
      <trkpt lat="42.44917" lon="0.0374">
        <ele>793.9</ele>
        <time>2017-07-31T09:50:20Z</time>
      </trkpt>
      <trkpt lat="42.44915" lon="0.03737">
        <ele>794.1</ele>
        <time>2017-07-31T09:50:22Z</time>
      </trkpt>
      <trkpt lat="42.44912" lon="0.03734">
        <ele>794.3</ele>
        <time>2017-07-31T09:50:24Z</time>
      </trkpt>
      <trkpt lat="42.44909" lon="0.03731">
        <ele>794.7</ele>
        <time>2017-07-31T09:50:26Z</time>
      </trkpt>
      <trkpt lat="42.44907" lon="0.03729">
        <ele>794.9</ele>
        <time>2017-07-31T09:50:28Z</time>
      </trkpt>
      <trkpt lat="42.44904" lon="0.03726">
        <ele>795.3</ele>
        <time>2017-07-31T09:50:30Z</time>
      </trkpt>
      <trkpt lat="42.44901" lon="0.03724">
        <ele>795.8</ele>
        <time>2017-07-31T09:50:32Z</time>
      </trkpt>
      <trkpt lat="42.44898" lon="0.03721">
        <ele>796</ele>
        <time>2017-07-31T09:50:34Z</time>
      </trkpt>
      <trkpt lat="42.44896" lon="0.03718">
        <ele>796.2</ele>
        <time>2017-07-31T09:50:36Z</time>
      </trkpt>
      <trkpt lat="42.44894" lon="0.03714">
        <ele>796.4</ele>
        <time>2017-07-31T09:50:38Z</time>
      </trkpt>
      <trkpt lat="42.44893" lon="0.0371">
        <ele>796.8</ele>
        <time>2017-07-31T09:50:40Z</time>
      </trkpt>
      <trkpt lat="42.44892" lon="0.03706">
        <ele>797.1</ele>
        <time>2017-07-31T09:50:42Z</time>
      </trkpt>
      <trkpt lat="42.44892" lon="0.03702">
        <ele>797.6</ele>
        <time>2017-07-31T09:50:44Z</time>
      </trkpt>
      <trkpt lat="42.44891" lon="0.03698">
        <ele>798</ele>
        <time>2017-07-31T09:50:46Z</time>
      </trkpt>
      <trkpt lat="42.44891" lon="0.03694">
        <ele>798.3</ele>
        <time>2017-07-31T09:50:48Z</time>
      </trkpt>
      <trkpt lat="42.44891" lon="0.03689">
        <ele>798.5</ele>
        <time>2017-07-31T09:50:50Z</time>
      </trkpt>
      <trkpt lat="42.44893" lon="0.03685">
        <ele>798.8</ele>
        <time>2017-07-31T09:50:52Z</time>
      </trkpt>
      <trkpt lat="42.44894" lon="0.03681">
        <ele>799.1</ele>
        <time>2017-07-31T09:50:54Z</time>
      </trkpt>
      <trkpt lat="42.44895" lon="0.03677">
        <ele>799.7</ele>
        <time>2017-07-31T09:50:56Z</time>
      </trkpt>
      <trkpt lat="42.44897" lon="0.03673">
        <ele>800.2</ele>
        <time>2017-07-31T09:50:58Z</time>
      </trkpt>
      <trkpt lat="42.44898" lon="0.03669">
        <ele>800.5</ele>
        <time>2017-07-31T09:51:00Z</time>
      </trkpt>
      <trkpt lat="42.44899" lon="0.03665">
        <ele>800.8</ele>
        <time>2017-07-31T09:51:02Z</time>
      </trkpt>
      <trkpt lat="42.44901" lon="0.03662">
        <ele>801.1</ele>
        <time>2017-07-31T09:51:04Z</time>
      </trkpt>
      <trkpt lat="42.44903" lon="0.03658">
        <ele>801.3</ele>
        <time>2017-07-31T09:51:06Z</time>
      </trkpt>
      <trkpt lat="42.44904" lon="0.03655">
        <ele>801.9</ele>
        <time>2017-07-31T09:51:08Z</time>
      </trkpt>
      <trkpt lat="42.44906" lon="0.03652">
        <ele>802.3</ele>
        <time>2017-07-31T09:51:10Z</time>
      </trkpt>
      <trkpt lat="42.44907" lon="0.03649">
        <ele>802.6</ele>
        <time>2017-07-31T09:51:12Z</time>
      </trkpt>
      <trkpt lat="42.44909" lon="0.03646">
        <ele>803</ele>
        <time>2017-07-31T09:51:14Z</time>
      </trkpt>
      <trkpt lat="42.44911" lon="0.03643">
        <ele>803.5</ele>
        <time>2017-07-31T09:51:16Z</time>
      </trkpt>
      <trkpt lat="42.44913" lon="0.0364">
        <ele>804.1</ele>
        <time>2017-07-31T09:51:18Z</time>
      </trkpt>
      <trkpt lat="42.44916" lon="0.03637">
        <ele>804.4</ele>
        <time>2017-07-31T09:51:20Z</time>
      </trkpt>
      <trkpt lat="42.44919" lon="0.03635">
        <ele>804.6</ele>
        <time>2017-07-31T09:51:22Z</time>
      </trkpt>
      <trkpt lat="42.44923" lon="0.03633">
        <ele>804.8</ele>
        <time>2017-07-31T09:51:24Z</time>
      </trkpt>
      <trkpt lat="42.44927" lon="0.03632">
        <ele>805.1</ele>
        <time>2017-07-31T09:51:26Z</time>
      </trkpt>
      <trkpt lat="42.44931" lon="0.03631">
        <ele>805.3</ele>
        <time>2017-07-31T09:51:28Z</time>
      </trkpt>
      <trkpt lat="42.44934" lon="0.03631">
        <ele>805.8</ele>
        <time>2017-07-31T09:51:30Z</time>
      </trkpt>
      <trkpt lat="42.44938" lon="0.0363">
        <ele>806.2</ele>
        <time>2017-07-31T09:51:32Z</time>
      </trkpt>
      <trkpt lat="42.44941" lon="0.03629">
        <ele>806.4</ele>
        <time>2017-07-31T09:51:34Z</time>
      </trkpt>
      <trkpt lat="42.44944" lon="0.03629">
        <ele>806.5</ele>
        <time>2017-07-31T09:51:36Z</time>
      </trkpt>
      <trkpt lat="42.44948" lon="0.03629">
        <ele>806.6</ele>
        <time>2017-07-31T09:51:38Z</time>
      </trkpt>
      <trkpt lat="42.44951" lon="0.03629">
        <ele>806.8</ele>
        <time>2017-07-31T09:51:40Z</time>
      </trkpt>
      <trkpt lat="42.44954" lon="0.0363">
        <ele>807</ele>
        <time>2017-07-31T09:51:42Z</time>
      </trkpt>
      <trkpt lat="42.44957" lon="0.03632">
        <ele>807.2</ele>
        <time>2017-07-31T09:51:44Z</time>
      </trkpt>
      <trkpt lat="42.44959" lon="0.03635">
        <ele>807.4</ele>
        <time>2017-07-31T09:51:46Z</time>
      </trkpt>
      <trkpt lat="42.4496" lon="0.03639">
        <ele>807.8</ele>
        <time>2017-07-31T09:51:48Z</time>
      </trkpt>
      <trkpt lat="42.44958" lon="0.03644">
        <ele>808.2</ele>
        <time>2017-07-31T09:51:50Z</time>
      </trkpt>
      <trkpt lat="42.44955" lon="0.03647">
        <ele>808.4</ele>
        <time>2017-07-31T09:51:52Z</time>
      </trkpt>
      <trkpt lat="42.44952" lon="0.0365">
        <ele>808.7</ele>
        <time>2017-07-31T09:51:54Z</time>
      </trkpt>
      <trkpt lat="42.44948" lon="0.03651">
        <ele>809.1</ele>
        <time>2017-07-31T09:51:56Z</time>
      </trkpt>
      <trkpt lat="42.44944" lon="0.03652">
        <ele>809.7</ele>
        <time>2017-07-31T09:51:58Z</time>
      </trkpt>
      <trkpt lat="42.44941" lon="0.03654">
        <ele>810.1</ele>
        <time>2017-07-31T09:52:00Z</time>
      </trkpt>
      <trkpt lat="42.44938" lon="0.03656">
        <ele>810.4</ele>
        <time>2017-07-31T09:52:02Z</time>
      </trkpt>
      <trkpt lat="42.44935" lon="0.03658">
        <ele>810.6</ele>
        <time>2017-07-31T09:52:04Z</time>
      </trkpt>
      <trkpt lat="42.44932" lon="0.03662">
        <ele>810.9</ele>
        <time>2017-07-31T09:52:06Z</time>
      </trkpt>
      <trkpt lat="42.4493" lon="0.03666">
        <ele>811.1</ele>
        <time>2017-07-31T09:52:08Z</time>
      </trkpt>
      <trkpt lat="42.44928" lon="0.0367">
        <ele>811.3</ele>
        <time>2017-07-31T09:52:10Z</time>
      </trkpt>
      <trkpt lat="42.44926" lon="0.03675">
        <ele>811.5</ele>
        <time>2017-07-31T09:52:12Z</time>
      </trkpt>
      <trkpt lat="42.44926" lon="0.0368">
        <ele>812</ele>
        <time>2017-07-31T09:52:14Z</time>
      </trkpt>
      <trkpt lat="42.44927" lon="0.03686">
        <ele>812.4</ele>
        <time>2017-07-31T09:52:16Z</time>
      </trkpt>
      <trkpt lat="42.44929" lon="0.03691">
        <ele>812.5</ele>
        <time>2017-07-31T09:52:18Z</time>
      </trkpt>
      <trkpt lat="42.44932" lon="0.03695">
        <ele>812.7</ele>
        <time>2017-07-31T09:52:20Z</time>
      </trkpt>
      <trkpt lat="42.44937" lon="0.03698">
        <ele>812.7</ele>
        <time>2017-07-31T09:52:22Z</time>
      </trkpt>
      <trkpt lat="42.44942" lon="0.037">
        <ele>812.8</ele>
        <time>2017-07-31T09:52:24Z</time>
      </trkpt>
      <trkpt lat="42.44947" lon="0.03702">
        <ele>812.9</ele>
        <time>2017-07-31T09:52:26Z</time>
      </trkpt>
      <trkpt lat="42.44952" lon="0.03703">
        <ele>813</ele>
        <time>2017-07-31T09:52:28Z</time>
      </trkpt>
      <trkpt lat="42.44957" lon="0.03704">
        <ele>813.1</ele>
        <time>2017-07-31T09:52:30Z</time>
      </trkpt>
      <trkpt lat="42.44962" lon="0.03705">
        <ele>813.2</ele>
        <time>2017-07-31T09:52:32Z</time>
      </trkpt>
      <trkpt lat="42.44966" lon="0.03706">
        <ele>813.4</ele>
        <time>2017-07-31T09:52:34Z</time>
      </trkpt>
      <trkpt lat="42.44971" lon="0.03707">
        <ele>813.9</ele>
        <time>2017-07-31T09:52:36Z</time>
      </trkpt>
      <trkpt lat="42.44976" lon="0.0371">
        <ele>814.4</ele>
        <time>2017-07-31T09:52:38Z</time>
      </trkpt>
      <trkpt lat="42.4498" lon="0.03713">
        <ele>814.8</ele>
        <time>2017-07-31T09:52:40Z</time>
      </trkpt>
      <trkpt lat="42.44984" lon="0.03717">
        <ele>815</ele>
        <time>2017-07-31T09:52:42Z</time>
      </trkpt>
      <trkpt lat="42.44988" lon="0.03722">
        <ele>815.2</ele>
        <time>2017-07-31T09:52:44Z</time>
      </trkpt>
      <trkpt lat="42.44992" lon="0.03727">
        <ele>815.3</ele>
        <time>2017-07-31T09:52:46Z</time>
      </trkpt>
      <trkpt lat="42.44996" lon="0.03731">
        <ele>815.5</ele>
        <time>2017-07-31T09:52:48Z</time>
      </trkpt>
      <trkpt lat="42.45" lon="0.03736">
        <ele>815.7</ele>
        <time>2017-07-31T09:52:50Z</time>
      </trkpt>
      <trkpt lat="42.45002" lon="0.03741">
        <ele>816.1</ele>
        <time>2017-07-31T09:52:52Z</time>
      </trkpt>
      <trkpt lat="42.45005" lon="0.03747">
        <ele>816.5</ele>
        <time>2017-07-31T09:52:54Z</time>
      </trkpt>
      <trkpt lat="42.45007" lon="0.03754">
        <ele>816.8</ele>
        <time>2017-07-31T09:52:56Z</time>
      </trkpt>
      <trkpt lat="42.45007" lon="0.0376">
        <ele>816.9</ele>
        <time>2017-07-31T09:52:58Z</time>
      </trkpt>
      <trkpt lat="42.45007" lon="0.03767">
        <ele>817</ele>
        <time>2017-07-31T09:53:00Z</time>
      </trkpt>
      <trkpt lat="42.45007" lon="0.03771">
        <ele>817.1</ele>
        <time>2017-07-31T09:53:01Z</time>
      </trkpt>
      <trkpt lat="42.45006" lon="0.03775">
        <ele>817.2</ele>
        <time>2017-07-31T09:53:02Z</time>
      </trkpt>
      <trkpt lat="42.45005" lon="0.03778">
        <ele>817.3</ele>
        <time>2017-07-31T09:53:03Z</time>
      </trkpt>
      <trkpt lat="42.45004" lon="0.03782">
        <ele>817.4</ele>
        <time>2017-07-31T09:53:04Z</time>
      </trkpt>
      <trkpt lat="42.45003" lon="0.03785">
        <ele>817.5</ele>
        <time>2017-07-31T09:53:05Z</time>
      </trkpt>
      <trkpt lat="42.45002" lon="0.03789">
        <ele>817.6</ele>
        <time>2017-07-31T09:53:06Z</time>
      </trkpt>
      <trkpt lat="42.45001" lon="0.03792">
        <ele>817.7</ele>
        <time>2017-07-31T09:53:07Z</time>
      </trkpt>
      <trkpt lat="42.44999" lon="0.03795">
        <ele>818</ele>
        <time>2017-07-31T09:53:08Z</time>
      </trkpt>
      <trkpt lat="42.44998" lon="0.03798">
        <ele>818.4</ele>
        <time>2017-07-31T09:53:09Z</time>
      </trkpt>
      <trkpt lat="42.44995" lon="0.03803">
        <ele>818.9</ele>
        <time>2017-07-31T09:53:11Z</time>
      </trkpt>
      <trkpt lat="42.44991" lon="0.03808">
        <ele>819.2</ele>
        <time>2017-07-31T09:53:13Z</time>
      </trkpt>
      <trkpt lat="42.44987" lon="0.03812">
        <ele>819.5</ele>
        <time>2017-07-31T09:53:15Z</time>
      </trkpt>
      <trkpt lat="42.44982" lon="0.03816">
        <ele>819.7</ele>
        <time>2017-07-31T09:53:17Z</time>
      </trkpt>
      <trkpt lat="42.44978" lon="0.0382">
        <ele>820.3</ele>
        <time>2017-07-31T09:53:19Z</time>
      </trkpt>
      <trkpt lat="42.44974" lon="0.03824">
        <ele>820.8</ele>
        <time>2017-07-31T09:53:21Z</time>
      </trkpt>
      <trkpt lat="42.44969" lon="0.03828">
        <ele>821</ele>
        <time>2017-07-31T09:53:23Z</time>
      </trkpt>
      <trkpt lat="42.44967" lon="0.0383">
        <ele>821.1</ele>
        <time>2017-07-31T09:53:24Z</time>
      </trkpt>
      <trkpt lat="42.44965" lon="0.03833">
        <ele>821.2</ele>
        <time>2017-07-31T09:53:25Z</time>
      </trkpt>
      <trkpt lat="42.4496" lon="0.03837">
        <ele>821.4</ele>
        <time>2017-07-31T09:53:27Z</time>
      </trkpt>
      <trkpt lat="42.44958" lon="0.03839">
        <ele>821.6</ele>
        <time>2017-07-31T09:53:28Z</time>
      </trkpt>
      <trkpt lat="42.44955" lon="0.03841">
        <ele>821.7</ele>
        <time>2017-07-31T09:53:29Z</time>
      </trkpt>
      <trkpt lat="42.44953" lon="0.03843">
        <ele>821.8</ele>
        <time>2017-07-31T09:53:30Z</time>
      </trkpt>
      <trkpt lat="42.44951" lon="0.03846">
        <ele>821.9</ele>
        <time>2017-07-31T09:53:31Z</time>
      </trkpt>
      <trkpt lat="42.44948" lon="0.03848">
        <ele>822.3</ele>
        <time>2017-07-31T09:53:32Z</time>
      </trkpt>
      <trkpt lat="42.44946" lon="0.03851">
        <ele>822.6</ele>
        <time>2017-07-31T09:53:33Z</time>
      </trkpt>
      <trkpt lat="42.44944" lon="0.03854">
        <ele>822.9</ele>
        <time>2017-07-31T09:53:34Z</time>
      </trkpt>
      <trkpt lat="42.44941" lon="0.0386">
        <ele>823.1</ele>
        <time>2017-07-31T09:53:36Z</time>
      </trkpt>
      <trkpt lat="42.4494" lon="0.03863">
        <ele>823.1</ele>
        <time>2017-07-31T09:53:37Z</time>
      </trkpt>
      <trkpt lat="42.44939" lon="0.03867">
        <ele>823.2</ele>
        <time>2017-07-31T09:53:38Z</time>
      </trkpt>
      <trkpt lat="42.44938" lon="0.03871">
        <ele>823.2</ele>
        <time>2017-07-31T09:53:39Z</time>
      </trkpt>
      <trkpt lat="42.44938" lon="0.03875">
        <ele>823.3</ele>
        <time>2017-07-31T09:53:40Z</time>
      </trkpt>
      <trkpt lat="42.44938" lon="0.03879">
        <ele>823.3</ele>
        <time>2017-07-31T09:53:41Z</time>
      </trkpt>
      <trkpt lat="42.44938" lon="0.03883">
        <ele>823.4</ele>
        <time>2017-07-31T09:53:42Z</time>
      </trkpt>
      <trkpt lat="42.44938" lon="0.03887">
        <ele>823.5</ele>
        <time>2017-07-31T09:53:43Z</time>
      </trkpt>
      <trkpt lat="42.44938" lon="0.0389">
        <ele>823.5</ele>
        <time>2017-07-31T09:53:44Z</time>
      </trkpt>
      <trkpt lat="42.44939" lon="0.03894">
        <ele>823.6</ele>
        <time>2017-07-31T09:53:45Z</time>
      </trkpt>
      <trkpt lat="42.44939" lon="0.03898">
        <ele>823.7</ele>
        <time>2017-07-31T09:53:46Z</time>
      </trkpt>
      <trkpt lat="42.44939" lon="0.03905">
        <ele>823.8</ele>
        <time>2017-07-31T09:53:48Z</time>
      </trkpt>
      <trkpt lat="42.44939" lon="0.03912">
        <ele>824</ele>
        <time>2017-07-31T09:53:50Z</time>
      </trkpt>
      <trkpt lat="42.44939" lon="0.03918">
        <ele>824.5</ele>
        <time>2017-07-31T09:53:52Z</time>
      </trkpt>
      <trkpt lat="42.44939" lon="0.03924">
        <ele>825.1</ele>
        <time>2017-07-31T09:53:54Z</time>
      </trkpt>
      <trkpt lat="42.44938" lon="0.0393">
        <ele>825.3</ele>
        <time>2017-07-31T09:53:56Z</time>
      </trkpt>
      <trkpt lat="42.44938" lon="0.03936">
        <ele>825.6</ele>
        <time>2017-07-31T09:53:58Z</time>
      </trkpt>
      <trkpt lat="42.44941" lon="0.03941">
        <ele>825.9</ele>
        <time>2017-07-31T09:54:00Z</time>
      </trkpt>
      <trkpt lat="42.44945" lon="0.03944">
        <ele>826.7</ele>
        <time>2017-07-31T09:54:02Z</time>
      </trkpt>
      <trkpt lat="42.4495" lon="0.03944">
        <ele>827.2</ele>
        <time>2017-07-31T09:54:04Z</time>
      </trkpt>
      <trkpt lat="42.44953" lon="0.03939">
        <ele>827.6</ele>
        <time>2017-07-31T09:54:06Z</time>
      </trkpt>
      <trkpt lat="42.44954" lon="0.03933">
        <ele>828</ele>
        <time>2017-07-31T09:54:08Z</time>
      </trkpt>
      <trkpt lat="42.44954" lon="0.03927">
        <ele>828.4</ele>
        <time>2017-07-31T09:54:10Z</time>
      </trkpt>
      <trkpt lat="42.44954" lon="0.03922">
        <ele>829.1</ele>
        <time>2017-07-31T09:54:12Z</time>
      </trkpt>
      <trkpt lat="42.44954" lon="0.03917">
        <ele>829.5</ele>
        <time>2017-07-31T09:54:14Z</time>
      </trkpt>
      <trkpt lat="42.44954" lon="0.03913">
        <ele>829.8</ele>
        <time>2017-07-31T09:54:16Z</time>
      </trkpt>
      <trkpt lat="42.44954" lon="0.03908">
        <ele>830.1</ele>
        <time>2017-07-31T09:54:18Z</time>
      </trkpt>
      <trkpt lat="42.44954" lon="0.03903">
        <ele>830.5</ele>
        <time>2017-07-31T09:54:20Z</time>
      </trkpt>
      <trkpt lat="42.44954" lon="0.03899">
        <ele>831.1</ele>
        <time>2017-07-31T09:54:22Z</time>
      </trkpt>
      <trkpt lat="42.44955" lon="0.03894">
        <ele>831.5</ele>
        <time>2017-07-31T09:54:24Z</time>
      </trkpt>
      <trkpt lat="42.44956" lon="0.0389">
        <ele>831.8</ele>
        <time>2017-07-31T09:54:26Z</time>
      </trkpt>
      <trkpt lat="42.44957" lon="0.03885">
        <ele>832.1</ele>
        <time>2017-07-31T09:54:28Z</time>
      </trkpt>
      <trkpt lat="42.44958" lon="0.03882">
        <ele>832.5</ele>
        <time>2017-07-31T09:54:30Z</time>
      </trkpt>
      <trkpt lat="42.4496" lon="0.03878">
        <ele>833.1</ele>
        <time>2017-07-31T09:54:32Z</time>
      </trkpt>
      <trkpt lat="42.44962" lon="0.03875">
        <ele>833.6</ele>
        <time>2017-07-31T09:54:34Z</time>
      </trkpt>
      <trkpt lat="42.44963" lon="0.03872">
        <ele>833.9</ele>
        <time>2017-07-31T09:54:36Z</time>
      </trkpt>
      <trkpt lat="42.44966" lon="0.03869">
        <ele>834.3</ele>
        <time>2017-07-31T09:54:38Z</time>
      </trkpt>
      <trkpt lat="42.44968" lon="0.03866">
        <ele>834.8</ele>
        <time>2017-07-31T09:54:40Z</time>
      </trkpt>
      <trkpt lat="42.4497" lon="0.03863">
        <ele>835.2</ele>
        <time>2017-07-31T09:54:42Z</time>
      </trkpt>
      <trkpt lat="42.44973" lon="0.03861">
        <ele>835.5</ele>
        <time>2017-07-31T09:54:44Z</time>
      </trkpt>
      <trkpt lat="42.44976" lon="0.03858">
        <ele>835.8</ele>
        <time>2017-07-31T09:54:46Z</time>
      </trkpt>
      <trkpt lat="42.44979" lon="0.03856">
        <ele>836</ele>
        <time>2017-07-31T09:54:48Z</time>
      </trkpt>
      <trkpt lat="42.44982" lon="0.03855">
        <ele>836.4</ele>
        <time>2017-07-31T09:54:50Z</time>
      </trkpt>
      <trkpt lat="42.44985" lon="0.03853">
        <ele>836.9</ele>
        <time>2017-07-31T09:54:52Z</time>
      </trkpt>
      <trkpt lat="42.44988" lon="0.03851">
        <ele>837.3</ele>
        <time>2017-07-31T09:54:54Z</time>
      </trkpt>
      <trkpt lat="42.44992" lon="0.0385">
        <ele>837.5</ele>
        <time>2017-07-31T09:54:56Z</time>
      </trkpt>
      <trkpt lat="42.44996" lon="0.03848">
        <ele>837.7</ele>
        <time>2017-07-31T09:54:58Z</time>
      </trkpt>
      <trkpt lat="42.45" lon="0.03847">
        <ele>837.9</ele>
        <time>2017-07-31T09:55:00Z</time>
      </trkpt>
      <trkpt lat="42.45004" lon="0.03846">
        <ele>838.2</ele>
        <time>2017-07-31T09:55:02Z</time>
      </trkpt>
      <trkpt lat="42.45008" lon="0.03845">
        <ele>838.3</ele>
        <time>2017-07-31T09:55:04Z</time>
      </trkpt>
      <trkpt lat="42.45012" lon="0.03844">
        <ele>838.5</ele>
        <time>2017-07-31T09:55:06Z</time>
      </trkpt>
      <trkpt lat="42.45016" lon="0.03842">
        <ele>839</ele>
        <time>2017-07-31T09:55:08Z</time>
      </trkpt>
      <trkpt lat="42.45021" lon="0.0384">
        <ele>839.4</ele>
        <time>2017-07-31T09:55:10Z</time>
      </trkpt>
      <trkpt lat="42.45026" lon="0.03837">
        <ele>839.6</ele>
        <time>2017-07-31T09:55:12Z</time>
      </trkpt>
      <trkpt lat="42.45029" lon="0.03836">
        <ele>839.6</ele>
        <time>2017-07-31T09:55:13Z</time>
      </trkpt>
      <trkpt lat="42.45031" lon="0.03834">
        <ele>839.7</ele>
        <time>2017-07-31T09:55:14Z</time>
      </trkpt>
      <trkpt lat="42.45036" lon="0.03831">
        <ele>839.8</ele>
        <time>2017-07-31T09:55:16Z</time>
      </trkpt>
      <trkpt lat="42.4504" lon="0.03827">
        <ele>839.9</ele>
        <time>2017-07-31T09:55:18Z</time>
      </trkpt>
      <trkpt lat="42.45043" lon="0.03822">
        <ele>840.1</ele>
        <time>2017-07-31T09:55:20Z</time>
      </trkpt>
      <trkpt lat="42.45046" lon="0.03817">
        <ele>840.2</ele>
        <time>2017-07-31T09:55:22Z</time>
      </trkpt>
      <trkpt lat="42.45049" lon="0.03812">
        <ele>840.3</ele>
        <time>2017-07-31T09:55:24Z</time>
      </trkpt>
      <trkpt lat="42.45051" lon="0.03806">
        <ele>840.5</ele>
        <time>2017-07-31T09:55:26Z</time>
      </trkpt>
      <trkpt lat="42.45053" lon="0.038">
        <ele>840.8</ele>
        <time>2017-07-31T09:55:28Z</time>
      </trkpt>
      <trkpt lat="42.45055" lon="0.03794">
        <ele>841.3</ele>
        <time>2017-07-31T09:55:30Z</time>
      </trkpt>
      <trkpt lat="42.45058" lon="0.03789">
        <ele>841.6</ele>
        <time>2017-07-31T09:55:32Z</time>
      </trkpt>
      <trkpt lat="42.4506" lon="0.03784">
        <ele>841.8</ele>
        <time>2017-07-31T09:55:34Z</time>
      </trkpt>
      <trkpt lat="42.45063" lon="0.03778">
        <ele>842</ele>
        <time>2017-07-31T09:55:36Z</time>
      </trkpt>
      <trkpt lat="42.45065" lon="0.03773">
        <ele>842.2</ele>
        <time>2017-07-31T09:55:38Z</time>
      </trkpt>
      <trkpt lat="42.45067" lon="0.03768">
        <ele>842.4</ele>
        <time>2017-07-31T09:55:40Z</time>
      </trkpt>
      <trkpt lat="42.45069" lon="0.03763">
        <ele>842.9</ele>
        <time>2017-07-31T09:55:42Z</time>
      </trkpt>
      <trkpt lat="42.45071" lon="0.03758">
        <ele>843.5</ele>
        <time>2017-07-31T09:55:44Z</time>
      </trkpt>
      <trkpt lat="42.45072" lon="0.03753">
        <ele>843.9</ele>
        <time>2017-07-31T09:55:46Z</time>
      </trkpt>
      <trkpt lat="42.45073" lon="0.03747">
        <ele>844.2</ele>
        <time>2017-07-31T09:55:48Z</time>
      </trkpt>
      <trkpt lat="42.45074" lon="0.03742">
        <ele>844.5</ele>
        <time>2017-07-31T09:55:50Z</time>
      </trkpt>
      <trkpt lat="42.45075" lon="0.03737">
        <ele>844.8</ele>
        <time>2017-07-31T09:55:52Z</time>
      </trkpt>
      <trkpt lat="42.45076" lon="0.03732">
        <ele>845.3</ele>
        <time>2017-07-31T09:55:54Z</time>
      </trkpt>
      <trkpt lat="42.45077" lon="0.03728">
        <ele>845.7</ele>
        <time>2017-07-31T09:55:56Z</time>
      </trkpt>
      <trkpt lat="42.45079" lon="0.03723">
        <ele>846</ele>
        <time>2017-07-31T09:55:58Z</time>
      </trkpt>
      <trkpt lat="42.4508" lon="0.03719">
        <ele>846.3</ele>
        <time>2017-07-31T09:56:00Z</time>
      </trkpt>
      <trkpt lat="42.45083" lon="0.03715">
        <ele>846.6</ele>
        <time>2017-07-31T09:56:02Z</time>
      </trkpt>
      <trkpt lat="42.45085" lon="0.03711">
        <ele>846.9</ele>
        <time>2017-07-31T09:56:04Z</time>
      </trkpt>
      <trkpt lat="42.45088" lon="0.03707">
        <ele>847.6</ele>
        <time>2017-07-31T09:56:06Z</time>
      </trkpt>
      <trkpt lat="42.45091" lon="0.03703">
        <ele>848.1</ele>
        <time>2017-07-31T09:56:08Z</time>
      </trkpt>
      <trkpt lat="42.45095" lon="0.037">
        <ele>848.4</ele>
        <time>2017-07-31T09:56:10Z</time>
      </trkpt>
      <trkpt lat="42.45098" lon="0.03698">
        <ele>848.6</ele>
        <time>2017-07-31T09:56:12Z</time>
      </trkpt>
      <trkpt lat="42.45102" lon="0.03695">
        <ele>848.9</ele>
        <time>2017-07-31T09:56:14Z</time>
      </trkpt>
      <trkpt lat="42.45105" lon="0.03693">
        <ele>849.5</ele>
        <time>2017-07-31T09:56:16Z</time>
      </trkpt>
      <trkpt lat="42.45109" lon="0.03691">
        <ele>849.9</ele>
        <time>2017-07-31T09:56:18Z</time>
      </trkpt>
      <trkpt lat="42.45112" lon="0.03688">
        <ele>850.1</ele>
        <time>2017-07-31T09:56:20Z</time>
      </trkpt>
      <trkpt lat="42.45116" lon="0.03686">
        <ele>850.4</ele>
        <time>2017-07-31T09:56:22Z</time>
      </trkpt>
      <trkpt lat="42.45119" lon="0.03683">
        <ele>850.6</ele>
        <time>2017-07-31T09:56:24Z</time>
      </trkpt>
      <trkpt lat="42.45122" lon="0.03679">
        <ele>850.9</ele>
        <time>2017-07-31T09:56:26Z</time>
      </trkpt>
      <trkpt lat="42.45125" lon="0.03675">
        <ele>851.4</ele>
        <time>2017-07-31T09:56:28Z</time>
      </trkpt>
      <trkpt lat="42.45128" lon="0.03671">
        <ele>851.9</ele>
        <time>2017-07-31T09:56:30Z</time>
      </trkpt>
      <trkpt lat="42.4513" lon="0.03667">
        <ele>852.1</ele>
        <time>2017-07-31T09:56:32Z</time>
      </trkpt>
      <trkpt lat="42.45132" lon="0.03663">
        <ele>852.3</ele>
        <time>2017-07-31T09:56:34Z</time>
      </trkpt>
      <trkpt lat="42.45134" lon="0.03658">
        <ele>852.5</ele>
        <time>2017-07-31T09:56:36Z</time>
      </trkpt>
      <trkpt lat="42.45135" lon="0.03652">
        <ele>852.6</ele>
        <time>2017-07-31T09:56:38Z</time>
      </trkpt>
      <trkpt lat="42.45135" lon="0.03647">
        <ele>852.9</ele>
        <time>2017-07-31T09:56:40Z</time>
      </trkpt>
      <trkpt lat="42.45135" lon="0.03641">
        <ele>853.1</ele>
        <time>2017-07-31T09:56:42Z</time>
      </trkpt>
      <trkpt lat="42.45134" lon="0.03636">
        <ele>853.6</ele>
        <time>2017-07-31T09:56:44Z</time>
      </trkpt>
      <trkpt lat="42.45133" lon="0.03632">
        <ele>854</ele>
        <time>2017-07-31T09:56:46Z</time>
      </trkpt>
      <trkpt lat="42.45131" lon="0.03628">
        <ele>854.3</ele>
        <time>2017-07-31T09:56:48Z</time>
      </trkpt>
      <trkpt lat="42.45129" lon="0.03624">
        <ele>854.6</ele>
        <time>2017-07-31T09:56:50Z</time>
      </trkpt>
      <trkpt lat="42.45127" lon="0.0362">
        <ele>854.9</ele>
        <time>2017-07-31T09:56:52Z</time>
      </trkpt>
      <trkpt lat="42.45126" lon="0.03617">
        <ele>855.2</ele>
        <time>2017-07-31T09:56:54Z</time>
      </trkpt>
      <trkpt lat="42.45124" lon="0.03613">
        <ele>855.7</ele>
        <time>2017-07-31T09:56:56Z</time>
      </trkpt>
      <trkpt lat="42.45122" lon="0.0361">
        <ele>856</ele>
        <time>2017-07-31T09:56:58Z</time>
      </trkpt>
      <trkpt lat="42.45121" lon="0.03605">
        <ele>856.3</ele>
        <time>2017-07-31T09:57:00Z</time>
      </trkpt>
      <trkpt lat="42.45121" lon="0.03601">
        <ele>856.5</ele>
        <time>2017-07-31T09:57:02Z</time>
      </trkpt>
      <trkpt lat="42.45122" lon="0.03595">
        <ele>856.7</ele>
        <time>2017-07-31T09:57:04Z</time>
      </trkpt>
      <trkpt lat="42.45124" lon="0.0359">
        <ele>857</ele>
        <time>2017-07-31T09:57:06Z</time>
      </trkpt>
      <trkpt lat="42.45125" lon="0.03584">
        <ele>857.5</ele>
        <time>2017-07-31T09:57:08Z</time>
      </trkpt>
      <trkpt lat="42.45125" lon="0.03577">
        <ele>857.9</ele>
        <time>2017-07-31T09:57:10Z</time>
      </trkpt>
      <trkpt lat="42.45124" lon="0.03572">
        <ele>858</ele>
        <time>2017-07-31T09:57:12Z</time>
      </trkpt>
      <trkpt lat="42.45123" lon="0.03566">
        <ele>858.1</ele>
        <time>2017-07-31T09:57:14Z</time>
      </trkpt>
      <trkpt lat="42.45121" lon="0.03561">
        <ele>858.2</ele>
        <time>2017-07-31T09:57:16Z</time>
      </trkpt>
      <trkpt lat="42.45119" lon="0.03556">
        <ele>858.3</ele>
        <time>2017-07-31T09:57:18Z</time>
      </trkpt>
      <trkpt lat="42.45116" lon="0.03551">
        <ele>858.5</ele>
        <time>2017-07-31T09:57:20Z</time>
      </trkpt>
      <trkpt lat="42.45114" lon="0.03545">
        <ele>858.6</ele>
        <time>2017-07-31T09:57:22Z</time>
      </trkpt>
      <trkpt lat="42.45112" lon="0.0354">
        <ele>858.7</ele>
        <time>2017-07-31T09:57:24Z</time>
      </trkpt>
      <trkpt lat="42.45109" lon="0.03535">
        <ele>858.8</ele>
        <time>2017-07-31T09:57:26Z</time>
      </trkpt>
      <trkpt lat="42.45107" lon="0.0353">
        <ele>858.9</ele>
        <time>2017-07-31T09:57:28Z</time>
      </trkpt>
      <trkpt lat="42.45105" lon="0.03525">
        <ele>859</ele>
        <time>2017-07-31T09:57:30Z</time>
      </trkpt>
      <trkpt lat="42.45103" lon="0.03521">
        <ele>859.2</ele>
        <time>2017-07-31T09:57:32Z</time>
      </trkpt>
      <trkpt lat="42.45101" lon="0.03516">
        <ele>859.4</ele>
        <time>2017-07-31T09:57:34Z</time>
      </trkpt>
      <trkpt lat="42.45099" lon="0.03512">
        <ele>859.9</ele>
        <time>2017-07-31T09:57:36Z</time>
      </trkpt>
      <trkpt lat="42.45098" lon="0.03507">
        <ele>860.3</ele>
        <time>2017-07-31T09:57:38Z</time>
      </trkpt>
      <trkpt lat="42.45097" lon="0.03503">
        <ele>860.6</ele>
        <time>2017-07-31T09:57:40Z</time>
      </trkpt>
      <trkpt lat="42.45095" lon="0.03498">
        <ele>860.9</ele>
        <time>2017-07-31T09:57:42Z</time>
      </trkpt>
      <trkpt lat="42.45094" lon="0.03494">
        <ele>861.1</ele>
        <time>2017-07-31T09:57:44Z</time>
      </trkpt>
      <trkpt lat="42.45092" lon="0.0349">
        <ele>861.2</ele>
        <time>2017-07-31T09:57:46Z</time>
      </trkpt>
      <trkpt lat="42.45091" lon="0.03486">
        <ele>861.7</ele>
        <time>2017-07-31T09:57:48Z</time>
      </trkpt>
      <trkpt lat="42.45089" lon="0.03482">
        <ele>862.2</ele>
        <time>2017-07-31T09:57:50Z</time>
      </trkpt>
      <trkpt lat="42.45088" lon="0.03478">
        <ele>862.6</ele>
        <time>2017-07-31T09:57:52Z</time>
      </trkpt>
      <trkpt lat="42.45086" lon="0.03474">
        <ele>862.9</ele>
        <time>2017-07-31T09:57:54Z</time>
      </trkpt>
      <trkpt lat="42.45084" lon="0.0347">
        <ele>863.2</ele>
        <time>2017-07-31T09:57:56Z</time>
      </trkpt>
      <trkpt lat="42.45083" lon="0.03466">
        <ele>863.4</ele>
        <time>2017-07-31T09:57:58Z</time>
      </trkpt>
      <trkpt lat="42.45082" lon="0.03461">
        <ele>863.9</ele>
        <time>2017-07-31T09:58:00Z</time>
      </trkpt>
      <trkpt lat="42.4508" lon="0.03457">
        <ele>864.5</ele>
        <time>2017-07-31T09:58:02Z</time>
      </trkpt>
      <trkpt lat="42.45079" lon="0.03453">
        <ele>864.7</ele>
        <time>2017-07-31T09:58:04Z</time>
      </trkpt>
      <trkpt lat="42.45077" lon="0.03449">
        <ele>864.9</ele>
        <time>2017-07-31T09:58:06Z</time>
      </trkpt>
      <trkpt lat="42.45075" lon="0.03445">
        <ele>865.2</ele>
        <time>2017-07-31T09:58:08Z</time>
      </trkpt>
      <trkpt lat="42.45073" lon="0.03441">
        <ele>865.7</ele>
        <time>2017-07-31T09:58:10Z</time>
      </trkpt>
      <trkpt lat="42.45071" lon="0.03437">
        <ele>866.2</ele>
        <time>2017-07-31T09:58:12Z</time>
      </trkpt>
      <trkpt lat="42.45069" lon="0.03434">
        <ele>866.5</ele>
        <time>2017-07-31T09:58:14Z</time>
      </trkpt>
      <trkpt lat="42.45067" lon="0.0343">
        <ele>866.8</ele>
        <time>2017-07-31T09:58:16Z</time>
      </trkpt>
      <trkpt lat="42.45065" lon="0.03427">
        <ele>867.1</ele>
        <time>2017-07-31T09:58:18Z</time>
      </trkpt>
      <trkpt lat="42.45063" lon="0.03424">
        <ele>867.5</ele>
        <time>2017-07-31T09:58:20Z</time>
      </trkpt>
      <trkpt lat="42.45061" lon="0.03421">
        <ele>868.1</ele>
        <time>2017-07-31T09:58:22Z</time>
      </trkpt>
      <trkpt lat="42.45058" lon="0.03419">
        <ele>868.5</ele>
        <time>2017-07-31T09:58:24Z</time>
      </trkpt>
      <trkpt lat="42.45056" lon="0.03416">
        <ele>868.7</ele>
        <time>2017-07-31T09:58:26Z</time>
      </trkpt>
      <trkpt lat="42.45054" lon="0.03412">
        <ele>868.9</ele>
        <time>2017-07-31T09:58:28Z</time>
      </trkpt>
      <trkpt lat="42.45053" lon="0.03409">
        <ele>869.1</ele>
        <time>2017-07-31T09:58:30Z</time>
      </trkpt>
      <trkpt lat="42.45051" lon="0.03405">
        <ele>869.5</ele>
        <time>2017-07-31T09:58:32Z</time>
      </trkpt>
      <trkpt lat="42.45049" lon="0.03402">
        <ele>870</ele>
        <time>2017-07-31T09:58:34Z</time>
      </trkpt>
      <trkpt lat="42.45047" lon="0.03398">
        <ele>870.4</ele>
        <time>2017-07-31T09:58:36Z</time>
      </trkpt>
      <trkpt lat="42.45045" lon="0.03394">
        <ele>870.7</ele>
        <time>2017-07-31T09:58:38Z</time>
      </trkpt>
      <trkpt lat="42.45044" lon="0.03391">
        <ele>871</ele>
        <time>2017-07-31T09:58:40Z</time>
      </trkpt>
      <trkpt lat="42.45043" lon="0.03387">
        <ele>871.4</ele>
        <time>2017-07-31T09:58:42Z</time>
      </trkpt>
      <trkpt lat="42.45042" lon="0.03384">
        <ele>871.9</ele>
        <time>2017-07-31T09:58:44Z</time>
      </trkpt>
      <trkpt lat="42.4504" lon="0.0338">
        <ele>872.4</ele>
        <time>2017-07-31T09:58:46Z</time>
      </trkpt>
      <trkpt lat="42.45039" lon="0.03377">
        <ele>872.7</ele>
        <time>2017-07-31T09:58:48Z</time>
      </trkpt>
      <trkpt lat="42.45037" lon="0.03374">
        <ele>872.9</ele>
        <time>2017-07-31T09:58:50Z</time>
      </trkpt>
      <trkpt lat="42.45036" lon="0.0337">
        <ele>873.2</ele>
        <time>2017-07-31T09:58:52Z</time>
      </trkpt>
      <trkpt lat="42.45034" lon="0.03367">
        <ele>873.4</ele>
        <time>2017-07-31T09:58:54Z</time>
      </trkpt>
      <trkpt lat="42.45032" lon="0.03364">
        <ele>873.9</ele>
        <time>2017-07-31T09:58:56Z</time>
      </trkpt>
      <trkpt lat="42.4503" lon="0.03361">
        <ele>874.4</ele>
        <time>2017-07-31T09:58:58Z</time>
      </trkpt>
      <trkpt lat="42.45029" lon="0.03358">
        <ele>874.8</ele>
        <time>2017-07-31T09:59:00Z</time>
      </trkpt>
      <trkpt lat="42.45027" lon="0.03354">
        <ele>875.1</ele>
        <time>2017-07-31T09:59:02Z</time>
      </trkpt>
      <trkpt lat="42.45025" lon="0.0335">
        <ele>875.4</ele>
        <time>2017-07-31T09:59:04Z</time>
      </trkpt>
      <trkpt lat="42.45024" lon="0.03347">
        <ele>875.7</ele>
        <time>2017-07-31T09:59:06Z</time>
      </trkpt>
      <trkpt lat="42.45022" lon="0.03344">
        <ele>876.2</ele>
        <time>2017-07-31T09:59:08Z</time>
      </trkpt>
      <trkpt lat="42.4502" lon="0.0334">
        <ele>876.6</ele>
        <time>2017-07-31T09:59:10Z</time>
      </trkpt>
      <trkpt lat="42.45019" lon="0.03336">
        <ele>876.8</ele>
        <time>2017-07-31T09:59:12Z</time>
      </trkpt>
      <trkpt lat="42.45017" lon="0.03332">
        <ele>876.9</ele>
        <time>2017-07-31T09:59:14Z</time>
      </trkpt>
      <trkpt lat="42.45016" lon="0.03328">
        <ele>877.1</ele>
        <time>2017-07-31T09:59:16Z</time>
      </trkpt>
      <trkpt lat="42.45015" lon="0.03324">
        <ele>877.5</ele>
        <time>2017-07-31T09:59:18Z</time>
      </trkpt>
      <trkpt lat="42.45014" lon="0.0332">
        <ele>878</ele>
        <time>2017-07-31T09:59:20Z</time>
      </trkpt>
      <trkpt lat="42.45014" lon="0.03316">
        <ele>878.5</ele>
        <time>2017-07-31T09:59:22Z</time>
      </trkpt>
      <trkpt lat="42.45013" lon="0.03312">
        <ele>878.8</ele>
        <time>2017-07-31T09:59:24Z</time>
      </trkpt>
      <trkpt lat="42.45013" lon="0.03308">
        <ele>879.2</ele>
        <time>2017-07-31T09:59:26Z</time>
      </trkpt>
      <trkpt lat="42.45013" lon="0.03304">
        <ele>879.6</ele>
        <time>2017-07-31T09:59:28Z</time>
      </trkpt>
      <trkpt lat="42.45013" lon="0.033">
        <ele>880.2</ele>
        <time>2017-07-31T09:59:30Z</time>
      </trkpt>
      <trkpt lat="42.45013" lon="0.03296">
        <ele>880.7</ele>
        <time>2017-07-31T09:59:32Z</time>
      </trkpt>
      <trkpt lat="42.45013" lon="0.03291">
        <ele>880.9</ele>
        <time>2017-07-31T09:59:34Z</time>
      </trkpt>
      <trkpt lat="42.45014" lon="0.03287">
        <ele>881.1</ele>
        <time>2017-07-31T09:59:36Z</time>
      </trkpt>
      <trkpt lat="42.45015" lon="0.03284">
        <ele>881.4</ele>
        <time>2017-07-31T09:59:38Z</time>
      </trkpt>
      <trkpt lat="42.45017" lon="0.0328">
        <ele>881.7</ele>
        <time>2017-07-31T09:59:40Z</time>
      </trkpt>
      <trkpt lat="42.4502" lon="0.03278">
        <ele>882.3</ele>
        <time>2017-07-31T09:59:42Z</time>
      </trkpt>
      <trkpt lat="42.45024" lon="0.03276">
        <ele>882.6</ele>
        <time>2017-07-31T09:59:44Z</time>
      </trkpt>
      <trkpt lat="42.45027" lon="0.03275">
        <ele>882.8</ele>
        <time>2017-07-31T09:59:46Z</time>
      </trkpt>
      <trkpt lat="42.45031" lon="0.03275">
        <ele>883</ele>
        <time>2017-07-31T09:59:48Z</time>
      </trkpt>
      <trkpt lat="42.45035" lon="0.03275">
        <ele>883.2</ele>
        <time>2017-07-31T09:59:50Z</time>
      </trkpt>
      <trkpt lat="42.45038" lon="0.03276">
        <ele>883.4</ele>
        <time>2017-07-31T09:59:52Z</time>
      </trkpt>
      <trkpt lat="42.45041" lon="0.03277">
        <ele>883.7</ele>
        <time>2017-07-31T09:59:54Z</time>
      </trkpt>
      <trkpt lat="42.45045" lon="0.03279">
        <ele>884.2</ele>
        <time>2017-07-31T09:59:56Z</time>
      </trkpt>
      <trkpt lat="42.45048" lon="0.03281">
        <ele>884.7</ele>
        <time>2017-07-31T09:59:58Z</time>
      </trkpt>
      <trkpt lat="42.45051" lon="0.03283">
        <ele>884.9</ele>
        <time>2017-07-31T10:00:00Z</time>
      </trkpt>
      <trkpt lat="42.45054" lon="0.03285">
        <ele>885.3</ele>
        <time>2017-07-31T10:00:02Z</time>
      </trkpt>
      <trkpt lat="42.45057" lon="0.03286">
        <ele>885.6</ele>
        <time>2017-07-31T10:00:04Z</time>
      </trkpt>
      <trkpt lat="42.45061" lon="0.03285">
        <ele>886</ele>
        <time>2017-07-31T10:00:06Z</time>
      </trkpt>
      <trkpt lat="42.45064" lon="0.03284">
        <ele>886.6</ele>
        <time>2017-07-31T10:00:08Z</time>
      </trkpt>
      <trkpt lat="42.45067" lon="0.03281">
        <ele>887</ele>
        <time>2017-07-31T10:00:10Z</time>
      </trkpt>
      <trkpt lat="42.45069" lon="0.03278">
        <ele>887.3</ele>
        <time>2017-07-31T10:00:12Z</time>
      </trkpt>
      <trkpt lat="42.45071" lon="0.03273">
        <ele>887.5</ele>
        <time>2017-07-31T10:00:14Z</time>
      </trkpt>
      <trkpt lat="42.45071" lon="0.03269">
        <ele>887.8</ele>
        <time>2017-07-31T10:00:16Z</time>
      </trkpt>
      <trkpt lat="42.45072" lon="0.03264">
        <ele>888.1</ele>
        <time>2017-07-31T10:00:18Z</time>
      </trkpt>
      <trkpt lat="42.45072" lon="0.03259">
        <ele>888.7</ele>
        <time>2017-07-31T10:00:20Z</time>
      </trkpt>
      <trkpt lat="42.45072" lon="0.03255">
        <ele>889.2</ele>
        <time>2017-07-31T10:00:22Z</time>
      </trkpt>
      <trkpt lat="42.45072" lon="0.03251">
        <ele>889.6</ele>
        <time>2017-07-31T10:00:24Z</time>
      </trkpt>
      <trkpt lat="42.45071" lon="0.03247">
        <ele>889.8</ele>
        <time>2017-07-31T10:00:26Z</time>
      </trkpt>
      <trkpt lat="42.4507" lon="0.03243">
        <ele>890.1</ele>
        <time>2017-07-31T10:00:28Z</time>
      </trkpt>
      <trkpt lat="42.4507" lon="0.03239">
        <ele>890.6</ele>
        <time>2017-07-31T10:00:30Z</time>
      </trkpt>
      <trkpt lat="42.4507" lon="0.03235">
        <ele>891.1</ele>
        <time>2017-07-31T10:00:32Z</time>
      </trkpt>
      <trkpt lat="42.45069" lon="0.0323">
        <ele>891.3</ele>
        <time>2017-07-31T10:00:34Z</time>
      </trkpt>
      <trkpt lat="42.45069" lon="0.03226">
        <ele>891.5</ele>
        <time>2017-07-31T10:00:36Z</time>
      </trkpt>
      <trkpt lat="42.45069" lon="0.03222">
        <ele>891.8</ele>
        <time>2017-07-31T10:00:38Z</time>
      </trkpt>
      <trkpt lat="42.4507" lon="0.03218">
        <ele>892.2</ele>
        <time>2017-07-31T10:00:40Z</time>
      </trkpt>
      <trkpt lat="42.45071" lon="0.03213">
        <ele>892.8</ele>
        <time>2017-07-31T10:00:42Z</time>
      </trkpt>
      <trkpt lat="42.45072" lon="0.03209">
        <ele>893.2</ele>
        <time>2017-07-31T10:00:44Z</time>
      </trkpt>
      <trkpt lat="42.45073" lon="0.03205">
        <ele>893.5</ele>
        <time>2017-07-31T10:00:46Z</time>
      </trkpt>
      <trkpt lat="42.45074" lon="0.03201">
        <ele>893.7</ele>
        <time>2017-07-31T10:00:48Z</time>
      </trkpt>
      <trkpt lat="42.45076" lon="0.03198">
        <ele>894</ele>
        <time>2017-07-31T10:00:50Z</time>
      </trkpt>
      <trkpt lat="42.45077" lon="0.03194">
        <ele>894.4</ele>
        <time>2017-07-31T10:00:52Z</time>
      </trkpt>
      <trkpt lat="42.45079" lon="0.0319">
        <ele>895</ele>
        <time>2017-07-31T10:00:54Z</time>
      </trkpt>
      <trkpt lat="42.45082" lon="0.03187">
        <ele>895.5</ele>
        <time>2017-07-31T10:00:56Z</time>
      </trkpt>
      <trkpt lat="42.45084" lon="0.03183">
        <ele>895.8</ele>
        <time>2017-07-31T10:00:58Z</time>
      </trkpt>
      <trkpt lat="42.45086" lon="0.0318">
        <ele>896</ele>
        <time>2017-07-31T10:01:00Z</time>
      </trkpt>
      <trkpt lat="42.45088" lon="0.03177">
        <ele>896.4</ele>
        <time>2017-07-31T10:01:02Z</time>
      </trkpt>
      <trkpt lat="42.45091" lon="0.03173">
        <ele>897.1</ele>
        <time>2017-07-31T10:01:04Z</time>
      </trkpt>
      <trkpt lat="42.45093" lon="0.0317">
        <ele>897.7</ele>
        <time>2017-07-31T10:01:06Z</time>
      </trkpt>
      <trkpt lat="42.45096" lon="0.03167">
        <ele>898.1</ele>
        <time>2017-07-31T10:01:08Z</time>
      </trkpt>
      <trkpt lat="42.45099" lon="0.03163">
        <ele>898.6</ele>
        <time>2017-07-31T10:01:10Z</time>
      </trkpt>
      <trkpt lat="42.45102" lon="0.0316">
        <ele>899.2</ele>
        <time>2017-07-31T10:01:12Z</time>
      </trkpt>
      <trkpt lat="42.45106" lon="0.03157">
        <ele>899.6</ele>
        <time>2017-07-31T10:01:14Z</time>
      </trkpt>
      <trkpt lat="42.45109" lon="0.03153">
        <ele>900</ele>
        <time>2017-07-31T10:01:16Z</time>
      </trkpt>
      <trkpt lat="42.45112" lon="0.0315">
        <ele>900.2</ele>
        <time>2017-07-31T10:01:18Z</time>
      </trkpt>
      <trkpt lat="42.45116" lon="0.03146">
        <ele>900.6</ele>
        <time>2017-07-31T10:01:20Z</time>
      </trkpt>
      <trkpt lat="42.45119" lon="0.03142">
        <ele>901.1</ele>
        <time>2017-07-31T10:01:22Z</time>
      </trkpt>
      <trkpt lat="42.45123" lon="0.03139">
        <ele>901.4</ele>
        <time>2017-07-31T10:01:24Z</time>
      </trkpt>
      <trkpt lat="42.45127" lon="0.03135">
        <ele>901.6</ele>
        <time>2017-07-31T10:01:26Z</time>
      </trkpt>
      <trkpt lat="42.4513" lon="0.03131">
        <ele>901.7</ele>
        <time>2017-07-31T10:01:28Z</time>
      </trkpt>
      <trkpt lat="42.45134" lon="0.03127">
        <ele>901.9</ele>
        <time>2017-07-31T10:01:30Z</time>
      </trkpt>
      <trkpt lat="42.45137" lon="0.03122">
        <ele>902</ele>
        <time>2017-07-31T10:01:32Z</time>
      </trkpt>
      <trkpt lat="42.45139" lon="0.03117">
        <ele>902.2</ele>
        <time>2017-07-31T10:01:34Z</time>
      </trkpt>
      <trkpt lat="42.45142" lon="0.03112">
        <ele>902.4</ele>
        <time>2017-07-31T10:01:36Z</time>
      </trkpt>
      <trkpt lat="42.45144" lon="0.03107">
        <ele>902.9</ele>
        <time>2017-07-31T10:01:38Z</time>
      </trkpt>
      <trkpt lat="42.45145" lon="0.03102">
        <ele>903.4</ele>
        <time>2017-07-31T10:01:40Z</time>
      </trkpt>
      <trkpt lat="42.45146" lon="0.03097">
        <ele>903.8</ele>
        <time>2017-07-31T10:01:42Z</time>
      </trkpt>
      <trkpt lat="42.45147" lon="0.03092">
        <ele>903.9</ele>
        <time>2017-07-31T10:01:44Z</time>
      </trkpt>
      <trkpt lat="42.45147" lon="0.03086">
        <ele>904.1</ele>
        <time>2017-07-31T10:01:46Z</time>
      </trkpt>
      <trkpt lat="42.45146" lon="0.0308">
        <ele>904.2</ele>
        <time>2017-07-31T10:01:48Z</time>
      </trkpt>
      <trkpt lat="42.45145" lon="0.03075">
        <ele>904.5</ele>
        <time>2017-07-31T10:01:50Z</time>
      </trkpt>
      <trkpt lat="42.45143" lon="0.03069">
        <ele>904.8</ele>
        <time>2017-07-31T10:01:52Z</time>
      </trkpt>
      <trkpt lat="42.45139" lon="0.03065">
        <ele>905.4</ele>
        <time>2017-07-31T10:01:54Z</time>
      </trkpt>
      <trkpt lat="42.45134" lon="0.03063">
        <ele>905.9</ele>
        <time>2017-07-31T10:01:56Z</time>
      </trkpt>
      <trkpt lat="42.45129" lon="0.03063">
        <ele>906.3</ele>
        <time>2017-07-31T10:01:58Z</time>
      </trkpt>
      <trkpt lat="42.45125" lon="0.03063">
        <ele>906.7</ele>
        <time>2017-07-31T10:02:00Z</time>
      </trkpt>
      <trkpt lat="42.4512" lon="0.03063">
        <ele>907.4</ele>
        <time>2017-07-31T10:02:02Z</time>
      </trkpt>
      <trkpt lat="42.45116" lon="0.03063">
        <ele>907.9</ele>
        <time>2017-07-31T10:02:04Z</time>
      </trkpt>
      <trkpt lat="42.45111" lon="0.03062">
        <ele>908.2</ele>
        <time>2017-07-31T10:02:06Z</time>
      </trkpt>
      <trkpt lat="42.45106" lon="0.03061">
        <ele>908.5</ele>
        <time>2017-07-31T10:02:08Z</time>
      </trkpt>
      <trkpt lat="42.45102" lon="0.0306">
        <ele>908.9</ele>
        <time>2017-07-31T10:02:10Z</time>
      </trkpt>
      <trkpt lat="42.45098" lon="0.0306">
        <ele>909.4</ele>
        <time>2017-07-31T10:02:12Z</time>
      </trkpt>
      <trkpt lat="42.45094" lon="0.03058">
        <ele>909.8</ele>
        <time>2017-07-31T10:02:14Z</time>
      </trkpt>
      <trkpt lat="42.4509" lon="0.03057">
        <ele>910</ele>
        <time>2017-07-31T10:02:16Z</time>
      </trkpt>
      <trkpt lat="42.45085" lon="0.03056">
        <ele>910.2</ele>
        <time>2017-07-31T10:02:18Z</time>
      </trkpt>
      <trkpt lat="42.45081" lon="0.03055">
        <ele>910.4</ele>
        <time>2017-07-31T10:02:20Z</time>
      </trkpt>
      <trkpt lat="42.45077" lon="0.03054">
        <ele>910.5</ele>
        <time>2017-07-31T10:02:22Z</time>
      </trkpt>
      <trkpt lat="42.45073" lon="0.03053">
        <ele>910.7</ele>
        <time>2017-07-31T10:02:24Z</time>
      </trkpt>
      <trkpt lat="42.45068" lon="0.03052">
        <ele>911.2</ele>
        <time>2017-07-31T10:02:26Z</time>
      </trkpt>
      <trkpt lat="42.45063" lon="0.0305">
        <ele>911.8</ele>
        <time>2017-07-31T10:02:28Z</time>
      </trkpt>
      <trkpt lat="42.45058" lon="0.03049">
        <ele>912</ele>
        <time>2017-07-31T10:02:30Z</time>
      </trkpt>
      <trkpt lat="42.45053" lon="0.03047">
        <ele>912.2</ele>
        <time>2017-07-31T10:02:32Z</time>
      </trkpt>
      <trkpt lat="42.45048" lon="0.03046">
        <ele>912.3</ele>
        <time>2017-07-31T10:02:34Z</time>
      </trkpt>
      <trkpt lat="42.45043" lon="0.03044">
        <ele>912.3</ele>
        <time>2017-07-31T10:02:36Z</time>
      </trkpt>
      <trkpt lat="42.45038" lon="0.03043">
        <ele>912.4</ele>
        <time>2017-07-31T10:02:38Z</time>
      </trkpt>
      <trkpt lat="42.45033" lon="0.03043">
        <ele>912.5</ele>
        <time>2017-07-31T10:02:40Z</time>
      </trkpt>
      <trkpt lat="42.4503" lon="0.03043">
        <ele>912.5</ele>
        <time>2017-07-31T10:02:41Z</time>
      </trkpt>
      <trkpt lat="42.45027" lon="0.03043">
        <ele>912.6</ele>
        <time>2017-07-31T10:02:42Z</time>
      </trkpt>
      <trkpt lat="42.45024" lon="0.03043">
        <ele>912.6</ele>
        <time>2017-07-31T10:02:43Z</time>
      </trkpt>
      <trkpt lat="42.45021" lon="0.03043">
        <ele>912.7</ele>
        <time>2017-07-31T10:02:44Z</time>
      </trkpt>
      <trkpt lat="42.45018" lon="0.03043">
        <ele>912.7</ele>
        <time>2017-07-31T10:02:45Z</time>
      </trkpt>
      <trkpt lat="42.45015" lon="0.03043">
        <ele>912.8</ele>
        <time>2017-07-31T10:02:46Z</time>
      </trkpt>
      <trkpt lat="42.45011" lon="0.03043">
        <ele>912.8</ele>
        <time>2017-07-31T10:02:47Z</time>
      </trkpt>
      <trkpt lat="42.45008" lon="0.03043">
        <ele>912.9</ele>
        <time>2017-07-31T10:02:48Z</time>
      </trkpt>
      <trkpt lat="42.45005" lon="0.03043">
        <ele>913</ele>
        <time>2017-07-31T10:02:49Z</time>
      </trkpt>
      <trkpt lat="42.45002" lon="0.03043">
        <ele>913.1</ele>
        <time>2017-07-31T10:02:50Z</time>
      </trkpt>
      <trkpt lat="42.44999" lon="0.03043">
        <ele>913.3</ele>
        <time>2017-07-31T10:02:51Z</time>
      </trkpt>
      <trkpt lat="42.44995" lon="0.03043">
        <ele>913.5</ele>
        <time>2017-07-31T10:02:52Z</time>
      </trkpt>
      <trkpt lat="42.44992" lon="0.03043">
        <ele>913.7</ele>
        <time>2017-07-31T10:02:53Z</time>
      </trkpt>
      <trkpt lat="42.44989" lon="0.03044">
        <ele>913.8</ele>
        <time>2017-07-31T10:02:54Z</time>
      </trkpt>
      <trkpt lat="42.44986" lon="0.03044">
        <ele>913.9</ele>
        <time>2017-07-31T10:02:55Z</time>
      </trkpt>
      <trkpt lat="42.44983" lon="0.03045">
        <ele>914</ele>
        <time>2017-07-31T10:02:56Z</time>
      </trkpt>
      <trkpt lat="42.4498" lon="0.03045">
        <ele>914</ele>
        <time>2017-07-31T10:02:57Z</time>
      </trkpt>
      <trkpt lat="42.44977" lon="0.03044">
        <ele>914.1</ele>
        <time>2017-07-31T10:02:58Z</time>
      </trkpt>
      <trkpt lat="42.44974" lon="0.03044">
        <ele>914.1</ele>
        <time>2017-07-31T10:02:59Z</time>
      </trkpt>
      <trkpt lat="42.44971" lon="0.03044">
        <ele>914.2</ele>
        <time>2017-07-31T10:03:00Z</time>
      </trkpt>
      <trkpt lat="42.44968" lon="0.03044">
        <ele>914.2</ele>
        <time>2017-07-31T10:03:01Z</time>
      </trkpt>
      <trkpt lat="42.44965" lon="0.03044">
        <ele>914.3</ele>
        <time>2017-07-31T10:03:02Z</time>
      </trkpt>
      <trkpt lat="42.4496" lon="0.03044">
        <ele>914.4</ele>
        <time>2017-07-31T10:03:04Z</time>
      </trkpt>
      <trkpt lat="42.44955" lon="0.03044">
        <ele>914.5</ele>
        <time>2017-07-31T10:03:06Z</time>
      </trkpt>
      <trkpt lat="42.4495" lon="0.03044">
        <ele>914.6</ele>
        <time>2017-07-31T10:03:08Z</time>
      </trkpt>
      <trkpt lat="42.44946" lon="0.03043">
        <ele>914.8</ele>
        <time>2017-07-31T10:03:10Z</time>
      </trkpt>
      <trkpt lat="42.44942" lon="0.03042">
        <ele>915.3</ele>
        <time>2017-07-31T10:03:12Z</time>
      </trkpt>
      <trkpt lat="42.44937" lon="0.0304">
        <ele>915.8</ele>
        <time>2017-07-31T10:03:14Z</time>
      </trkpt>
      <trkpt lat="42.44932" lon="0.03038">
        <ele>916.2</ele>
        <time>2017-07-31T10:03:16Z</time>
      </trkpt>
      <trkpt lat="42.44927" lon="0.03036">
        <ele>916.5</ele>
        <time>2017-07-31T10:03:18Z</time>
      </trkpt>
      <trkpt lat="42.44923" lon="0.03034">
        <ele>916.7</ele>
        <time>2017-07-31T10:03:20Z</time>
      </trkpt>
      <trkpt lat="42.44918" lon="0.03032">
        <ele>917.3</ele>
        <time>2017-07-31T10:03:22Z</time>
      </trkpt>
      <trkpt lat="42.44914" lon="0.0303">
        <ele>918</ele>
        <time>2017-07-31T10:03:24Z</time>
      </trkpt>
      <trkpt lat="42.44909" lon="0.03027">
        <ele>918.3</ele>
        <time>2017-07-31T10:03:26Z</time>
      </trkpt>
      <trkpt lat="42.44905" lon="0.03023">
        <ele>918.5</ele>
        <time>2017-07-31T10:03:28Z</time>
      </trkpt>
      <trkpt lat="42.44901" lon="0.03019">
        <ele>918.7</ele>
        <time>2017-07-31T10:03:30Z</time>
      </trkpt>
      <trkpt lat="42.44897" lon="0.03014">
        <ele>919</ele>
        <time>2017-07-31T10:03:32Z</time>
      </trkpt>
      <trkpt lat="42.44894" lon="0.03009">
        <ele>919.2</ele>
        <time>2017-07-31T10:03:34Z</time>
      </trkpt>
      <trkpt lat="42.44891" lon="0.03003">
        <ele>919.8</ele>
        <time>2017-07-31T10:03:36Z</time>
      </trkpt>
      <trkpt lat="42.44888" lon="0.02997">
        <ele>920.2</ele>
        <time>2017-07-31T10:03:38Z</time>
      </trkpt>
      <trkpt lat="42.44886" lon="0.02991">
        <ele>920.5</ele>
        <time>2017-07-31T10:03:40Z</time>
      </trkpt>
      <trkpt lat="42.44884" lon="0.02986">
        <ele>920.7</ele>
        <time>2017-07-31T10:03:42Z</time>
      </trkpt>
      <trkpt lat="42.44882" lon="0.0298">
        <ele>920.8</ele>
        <time>2017-07-31T10:03:44Z</time>
      </trkpt>
      <trkpt lat="42.4488" lon="0.02974">
        <ele>921</ele>
        <time>2017-07-31T10:03:46Z</time>
      </trkpt>
      <trkpt lat="42.44878" lon="0.0297">
        <ele>921.2</ele>
        <time>2017-07-31T10:03:48Z</time>
      </trkpt>
      <trkpt lat="42.44875" lon="0.02965">
        <ele>921.4</ele>
        <time>2017-07-31T10:03:50Z</time>
      </trkpt>
      <trkpt lat="42.44873" lon="0.02961">
        <ele>921.8</ele>
        <time>2017-07-31T10:03:52Z</time>
      </trkpt>
      <trkpt lat="42.4487" lon="0.02957">
        <ele>922.3</ele>
        <time>2017-07-31T10:03:54Z</time>
      </trkpt>
      <trkpt lat="42.44867" lon="0.02953">
        <ele>922.6</ele>
        <time>2017-07-31T10:03:56Z</time>
      </trkpt>
      <trkpt lat="42.44865" lon="0.02949">
        <ele>922.9</ele>
        <time>2017-07-31T10:03:58Z</time>
      </trkpt>
      <trkpt lat="42.44862" lon="0.02946">
        <ele>923.1</ele>
        <time>2017-07-31T10:04:00Z</time>
      </trkpt>
      <trkpt lat="42.44859" lon="0.02943">
        <ele>923.6</ele>
        <time>2017-07-31T10:04:02Z</time>
      </trkpt>
      <trkpt lat="42.44856" lon="0.0294">
        <ele>924.3</ele>
        <time>2017-07-31T10:04:04Z</time>
      </trkpt>
      <trkpt lat="42.44853" lon="0.02937">
        <ele>924.6</ele>
        <time>2017-07-31T10:04:06Z</time>
      </trkpt>
      <trkpt lat="42.44849" lon="0.02935">
        <ele>924.8</ele>
        <time>2017-07-31T10:04:08Z</time>
      </trkpt>
      <trkpt lat="42.44846" lon="0.02933">
        <ele>925.1</ele>
        <time>2017-07-31T10:04:10Z</time>
      </trkpt>
      <trkpt lat="42.44842" lon="0.02932">
        <ele>925.6</ele>
        <time>2017-07-31T10:04:12Z</time>
      </trkpt>
      <trkpt lat="42.44839" lon="0.0293">
        <ele>926.2</ele>
        <time>2017-07-31T10:04:14Z</time>
      </trkpt>
      <trkpt lat="42.44835" lon="0.02928">
        <ele>926.5</ele>
        <time>2017-07-31T10:04:16Z</time>
      </trkpt>
      <trkpt lat="42.44832" lon="0.02926">
        <ele>926.7</ele>
        <time>2017-07-31T10:04:18Z</time>
      </trkpt>
      <trkpt lat="42.44828" lon="0.02924">
        <ele>926.9</ele>
        <time>2017-07-31T10:04:20Z</time>
      </trkpt>
      <trkpt lat="42.44825" lon="0.02921">
        <ele>927.1</ele>
        <time>2017-07-31T10:04:22Z</time>
      </trkpt>
      <trkpt lat="42.44822" lon="0.02918">
        <ele>927.4</ele>
        <time>2017-07-31T10:04:24Z</time>
      </trkpt>
      <trkpt lat="42.4482" lon="0.02915">
        <ele>927.8</ele>
        <time>2017-07-31T10:04:26Z</time>
      </trkpt>
      <trkpt lat="42.44817" lon="0.02911">
        <ele>928.3</ele>
        <time>2017-07-31T10:04:28Z</time>
      </trkpt>
      <trkpt lat="42.44815" lon="0.02906">
        <ele>928.5</ele>
        <time>2017-07-31T10:04:30Z</time>
      </trkpt>
      <trkpt lat="42.44813" lon="0.02901">
        <ele>928.7</ele>
        <time>2017-07-31T10:04:32Z</time>
      </trkpt>
      <trkpt lat="42.44811" lon="0.02896">
        <ele>929</ele>
        <time>2017-07-31T10:04:34Z</time>
      </trkpt>
      <trkpt lat="42.44809" lon="0.02891">
        <ele>929.5</ele>
        <time>2017-07-31T10:04:36Z</time>
      </trkpt>
      <trkpt lat="42.44807" lon="0.02885">
        <ele>930.1</ele>
        <time>2017-07-31T10:04:38Z</time>
      </trkpt>
      <trkpt lat="42.44806" lon="0.02879">
        <ele>930.4</ele>
        <time>2017-07-31T10:04:40Z</time>
      </trkpt>
      <trkpt lat="42.44805" lon="0.02873">
        <ele>930.6</ele>
        <time>2017-07-31T10:04:42Z</time>
      </trkpt>
      <trkpt lat="42.44804" lon="0.02866">
        <ele>930.8</ele>
        <time>2017-07-31T10:04:44Z</time>
      </trkpt>
      <trkpt lat="42.44803" lon="0.02859">
        <ele>931</ele>
        <time>2017-07-31T10:04:46Z</time>
      </trkpt>
      <trkpt lat="42.44802" lon="0.02853">
        <ele>931.2</ele>
        <time>2017-07-31T10:04:48Z</time>
      </trkpt>
      <trkpt lat="42.44801" lon="0.02847">
        <ele>931.5</ele>
        <time>2017-07-31T10:04:50Z</time>
      </trkpt>
      <trkpt lat="42.448" lon="0.0284">
        <ele>932.1</ele>
        <time>2017-07-31T10:04:52Z</time>
      </trkpt>
      <trkpt lat="42.44798" lon="0.02834">
        <ele>932.4</ele>
        <time>2017-07-31T10:04:54Z</time>
      </trkpt>
      <trkpt lat="42.44797" lon="0.02828">
        <ele>932.6</ele>
        <time>2017-07-31T10:04:56Z</time>
      </trkpt>
      <trkpt lat="42.44795" lon="0.02822">
        <ele>932.7</ele>
        <time>2017-07-31T10:04:58Z</time>
      </trkpt>
      <trkpt lat="42.44793" lon="0.02816">
        <ele>932.9</ele>
        <time>2017-07-31T10:05:00Z</time>
      </trkpt>
      <trkpt lat="42.44791" lon="0.0281">
        <ele>933.1</ele>
        <time>2017-07-31T10:05:02Z</time>
      </trkpt>
      <trkpt lat="42.44789" lon="0.02805">
        <ele>933.3</ele>
        <time>2017-07-31T10:05:04Z</time>
      </trkpt>
      <trkpt lat="42.44786" lon="0.028">
        <ele>933.6</ele>
        <time>2017-07-31T10:05:06Z</time>
      </trkpt>
      <trkpt lat="42.44784" lon="0.02795">
        <ele>934</ele>
        <time>2017-07-31T10:05:08Z</time>
      </trkpt>
      <trkpt lat="42.44782" lon="0.0279">
        <ele>934.5</ele>
        <time>2017-07-31T10:05:10Z</time>
      </trkpt>
      <trkpt lat="42.4478" lon="0.02786">
        <ele>934.7</ele>
        <time>2017-07-31T10:05:12Z</time>
      </trkpt>
      <trkpt lat="42.44777" lon="0.02782">
        <ele>935.1</ele>
        <time>2017-07-31T10:05:14Z</time>
      </trkpt>
      <trkpt lat="42.44775" lon="0.02777">
        <ele>935.4</ele>
        <time>2017-07-31T10:05:16Z</time>
      </trkpt>
      <trkpt lat="42.44772" lon="0.02772">
        <ele>935.7</ele>
        <time>2017-07-31T10:05:18Z</time>
      </trkpt>
      <trkpt lat="42.4477" lon="0.02768">
        <ele>936.3</ele>
        <time>2017-07-31T10:05:20Z</time>
      </trkpt>
      <trkpt lat="42.44768" lon="0.02764">
        <ele>936.8</ele>
        <time>2017-07-31T10:05:22Z</time>
      </trkpt>
      <trkpt lat="42.44767" lon="0.0276">
        <ele>937.2</ele>
        <time>2017-07-31T10:05:24Z</time>
      </trkpt>
      <trkpt lat="42.44765" lon="0.02755">
        <ele>937.5</ele>
        <time>2017-07-31T10:05:26Z</time>
      </trkpt>
      <trkpt lat="42.44764" lon="0.02751">
        <ele>937.8</ele>
        <time>2017-07-31T10:05:28Z</time>
      </trkpt>
      <trkpt lat="42.44762" lon="0.02746">
        <ele>938.3</ele>
        <time>2017-07-31T10:05:30Z</time>
      </trkpt>
      <trkpt lat="42.44761" lon="0.02741">
        <ele>938.7</ele>
        <time>2017-07-31T10:05:32Z</time>
      </trkpt>
      <trkpt lat="42.4476" lon="0.02736">
        <ele>938.9</ele>
        <time>2017-07-31T10:05:34Z</time>
      </trkpt>
      <trkpt lat="42.44759" lon="0.02731">
        <ele>939.1</ele>
        <time>2017-07-31T10:05:36Z</time>
      </trkpt>
      <trkpt lat="42.44759" lon="0.02726">
        <ele>939.3</ele>
        <time>2017-07-31T10:05:38Z</time>
      </trkpt>
      <trkpt lat="42.44759" lon="0.02721">
        <ele>939.5</ele>
        <time>2017-07-31T10:05:40Z</time>
      </trkpt>
      <trkpt lat="42.44759" lon="0.02716">
        <ele>939.8</ele>
        <time>2017-07-31T10:05:42Z</time>
      </trkpt>
      <trkpt lat="42.4476" lon="0.02711">
        <ele>940.3</ele>
        <time>2017-07-31T10:05:44Z</time>
      </trkpt>
      <trkpt lat="42.44762" lon="0.02706">
        <ele>940.8</ele>
        <time>2017-07-31T10:05:46Z</time>
      </trkpt>
      <trkpt lat="42.44764" lon="0.027">
        <ele>941.2</ele>
        <time>2017-07-31T10:05:48Z</time>
      </trkpt>
      <trkpt lat="42.44766" lon="0.02695">
        <ele>941.4</ele>
        <time>2017-07-31T10:05:50Z</time>
      </trkpt>
      <trkpt lat="42.44768" lon="0.0269">
        <ele>941.7</ele>
        <time>2017-07-31T10:05:52Z</time>
      </trkpt>
      <trkpt lat="42.44771" lon="0.02685">
        <ele>942.3</ele>
        <time>2017-07-31T10:05:54Z</time>
      </trkpt>
      <trkpt lat="42.44774" lon="0.0268">
        <ele>942.9</ele>
        <time>2017-07-31T10:05:56Z</time>
      </trkpt>
      <trkpt lat="42.44778" lon="0.02675">
        <ele>943.2</ele>
        <time>2017-07-31T10:05:58Z</time>
      </trkpt>
      <trkpt lat="42.44781" lon="0.0267">
        <ele>943.5</ele>
        <time>2017-07-31T10:06:00Z</time>
      </trkpt>
      <trkpt lat="42.44785" lon="0.02664">
        <ele>943.7</ele>
        <time>2017-07-31T10:06:02Z</time>
      </trkpt>
      <trkpt lat="42.44789" lon="0.0266">
        <ele>944.1</ele>
        <time>2017-07-31T10:06:04Z</time>
      </trkpt>
      <trkpt lat="42.44791" lon="0.02658">
        <ele>944.5</ele>
        <time>2017-07-31T10:06:05Z</time>
      </trkpt>
      <trkpt lat="42.44794" lon="0.02656">
        <ele>944.7</ele>
        <time>2017-07-31T10:06:06Z</time>
      </trkpt>
      <trkpt lat="42.44796" lon="0.02654">
        <ele>944.8</ele>
        <time>2017-07-31T10:06:07Z</time>
      </trkpt>
      <trkpt lat="42.44798" lon="0.02652">
        <ele>944.9</ele>
        <time>2017-07-31T10:06:08Z</time>
      </trkpt>
      <trkpt lat="42.448" lon="0.02649">
        <ele>945</ele>
        <time>2017-07-31T10:06:09Z</time>
      </trkpt>
      <trkpt lat="42.44803" lon="0.02647">
        <ele>945</ele>
        <time>2017-07-31T10:06:10Z</time>
      </trkpt>
      <trkpt lat="42.44805" lon="0.02644">
        <ele>945.1</ele>
        <time>2017-07-31T10:06:11Z</time>
      </trkpt>
      <trkpt lat="42.44808" lon="0.02641">
        <ele>945.1</ele>
        <time>2017-07-31T10:06:12Z</time>
      </trkpt>
      <trkpt lat="42.4481" lon="0.02638">
        <ele>945.2</ele>
        <time>2017-07-31T10:06:13Z</time>
      </trkpt>
      <trkpt lat="42.44812" lon="0.02635">
        <ele>945.2</ele>
        <time>2017-07-31T10:06:14Z</time>
      </trkpt>
      <trkpt lat="42.44814" lon="0.02631">
        <ele>945.2</ele>
        <time>2017-07-31T10:06:15Z</time>
      </trkpt>
      <trkpt lat="42.44816" lon="0.02627">
        <ele>945.3</ele>
        <time>2017-07-31T10:06:16Z</time>
      </trkpt>
      <trkpt lat="42.44818" lon="0.02623">
        <ele>945.3</ele>
        <time>2017-07-31T10:06:17Z</time>
      </trkpt>
      <trkpt lat="42.44819" lon="0.02619">
        <ele>945.3</ele>
        <time>2017-07-31T10:06:18Z</time>
      </trkpt>
      <trkpt lat="42.4482" lon="0.02615">
        <ele>945.4</ele>
        <time>2017-07-31T10:06:19Z</time>
      </trkpt>
      <trkpt lat="42.44821" lon="0.0261">
        <ele>945.4</ele>
        <time>2017-07-31T10:06:20Z</time>
      </trkpt>
      <trkpt lat="42.44821" lon="0.02605">
        <ele>945.4</ele>
        <time>2017-07-31T10:06:21Z</time>
      </trkpt>
      <trkpt lat="42.44822" lon="0.02601">
        <ele>945.5</ele>
        <time>2017-07-31T10:06:22Z</time>
      </trkpt>
      <trkpt lat="42.44822" lon="0.02596">
        <ele>945.6</ele>
        <time>2017-07-31T10:06:23Z</time>
      </trkpt>
      <trkpt lat="42.44822" lon="0.02592">
        <ele>945.6</ele>
        <time>2017-07-31T10:06:24Z</time>
      </trkpt>
      <trkpt lat="42.44822" lon="0.02588">
        <ele>945.7</ele>
        <time>2017-07-31T10:06:25Z</time>
      </trkpt>
      <trkpt lat="42.44822" lon="0.02583">
        <ele>945.7</ele>
        <time>2017-07-31T10:06:26Z</time>
      </trkpt>
      <trkpt lat="42.44822" lon="0.02579">
        <ele>945.8</ele>
        <time>2017-07-31T10:06:27Z</time>
      </trkpt>
      <trkpt lat="42.44822" lon="0.02575">
        <ele>945.9</ele>
        <time>2017-07-31T10:06:28Z</time>
      </trkpt>
      <trkpt lat="42.44822" lon="0.0257">
        <ele>946</ele>
        <time>2017-07-31T10:06:29Z</time>
      </trkpt>
      <trkpt lat="42.44822" lon="0.02566">
        <ele>946</ele>
        <time>2017-07-31T10:06:30Z</time>
      </trkpt>
      <trkpt lat="42.44822" lon="0.02562">
        <ele>946.2</ele>
        <time>2017-07-31T10:06:31Z</time>
      </trkpt>
      <trkpt lat="42.44823" lon="0.02557">
        <ele>946.4</ele>
        <time>2017-07-31T10:06:32Z</time>
      </trkpt>
      <trkpt lat="42.44823" lon="0.02553">
        <ele>946.7</ele>
        <time>2017-07-31T10:06:33Z</time>
      </trkpt>
      <trkpt lat="42.44823" lon="0.02549">
        <ele>946.8</ele>
        <time>2017-07-31T10:06:34Z</time>
      </trkpt>
      <trkpt lat="42.44823" lon="0.02544">
        <ele>947</ele>
        <time>2017-07-31T10:06:35Z</time>
      </trkpt>
      <trkpt lat="42.44822" lon="0.0254">
        <ele>947.1</ele>
        <time>2017-07-31T10:06:36Z</time>
      </trkpt>
      <trkpt lat="42.4482" lon="0.02537">
        <ele>947.1</ele>
        <time>2017-07-31T10:06:37Z</time>
      </trkpt>
      <trkpt lat="42.44816" lon="0.02534">
        <ele>947.2</ele>
        <time>2017-07-31T10:06:39Z</time>
      </trkpt>
      <trkpt lat="42.44811" lon="0.02533">
        <ele>947.2</ele>
        <time>2017-07-31T10:06:41Z</time>
      </trkpt>
      <trkpt lat="42.44808" lon="0.02533">
        <ele>947.3</ele>
        <time>2017-07-31T10:06:42Z</time>
      </trkpt>
      <trkpt lat="42.44805" lon="0.02532">
        <ele>947.3</ele>
        <time>2017-07-31T10:06:43Z</time>
      </trkpt>
      <trkpt lat="42.44802" lon="0.02531">
        <ele>947.3</ele>
        <time>2017-07-31T10:06:44Z</time>
      </trkpt>
      <trkpt lat="42.44799" lon="0.0253">
        <ele>947.3</ele>
        <time>2017-07-31T10:06:45Z</time>
      </trkpt>
      <trkpt lat="42.44796" lon="0.02529">
        <ele>947.3</ele>
        <time>2017-07-31T10:06:46Z</time>
      </trkpt>
      <trkpt lat="42.44793" lon="0.02528">
        <ele>947.3</ele>
        <time>2017-07-31T10:06:47Z</time>
      </trkpt>
      <trkpt lat="42.4479" lon="0.02527">
        <ele>947.3</ele>
        <time>2017-07-31T10:06:48Z</time>
      </trkpt>
      <trkpt lat="42.44787" lon="0.02526">
        <ele>947.3</ele>
        <time>2017-07-31T10:06:49Z</time>
      </trkpt>
      <trkpt lat="42.44784" lon="0.02526">
        <ele>947.3</ele>
        <time>2017-07-31T10:06:50Z</time>
      </trkpt>
      <trkpt lat="42.44781" lon="0.02525">
        <ele>947.3</ele>
        <time>2017-07-31T10:06:51Z</time>
      </trkpt>
      <trkpt lat="42.44778" lon="0.02524">
        <ele>947.4</ele>
        <time>2017-07-31T10:06:52Z</time>
      </trkpt>
      <trkpt lat="42.44775" lon="0.02523">
        <ele>947.4</ele>
        <time>2017-07-31T10:06:53Z</time>
      </trkpt>
      <trkpt lat="42.44771" lon="0.02522">
        <ele>947.4</ele>
        <time>2017-07-31T10:06:54Z</time>
      </trkpt>
      <trkpt lat="42.44768" lon="0.02521">
        <ele>947.4</ele>
        <time>2017-07-31T10:06:55Z</time>
      </trkpt>
      <trkpt lat="42.44765" lon="0.02519">
        <ele>947.4</ele>
        <time>2017-07-31T10:06:56Z</time>
      </trkpt>
      <trkpt lat="42.44762" lon="0.02517">
        <ele>947.5</ele>
        <time>2017-07-31T10:06:57Z</time>
      </trkpt>
      <trkpt lat="42.4476" lon="0.02516">
        <ele>947.5</ele>
        <time>2017-07-31T10:06:58Z</time>
      </trkpt>
      <trkpt lat="42.44757" lon="0.02513">
        <ele>947.5</ele>
        <time>2017-07-31T10:06:59Z</time>
      </trkpt>
      <trkpt lat="42.44754" lon="0.02511">
        <ele>947.5</ele>
        <time>2017-07-31T10:07:00Z</time>
      </trkpt>
      <trkpt lat="42.44752" lon="0.02508">
        <ele>947.6</ele>
        <time>2017-07-31T10:07:01Z</time>
      </trkpt>
      <trkpt lat="42.4475" lon="0.02505">
        <ele>947.7</ele>
        <time>2017-07-31T10:07:02Z</time>
      </trkpt>
      <trkpt lat="42.44749" lon="0.02501">
        <ele>947.7</ele>
        <time>2017-07-31T10:07:03Z</time>
      </trkpt>
      <trkpt lat="42.44748" lon="0.02497">
        <ele>947.8</ele>
        <time>2017-07-31T10:07:04Z</time>
      </trkpt>
      <trkpt lat="42.44747" lon="0.02493">
        <ele>947.9</ele>
        <time>2017-07-31T10:07:05Z</time>
      </trkpt>
      <trkpt lat="42.44746" lon="0.02489">
        <ele>948.1</ele>
        <time>2017-07-31T10:07:06Z</time>
      </trkpt>
      <trkpt lat="42.44745" lon="0.02485">
        <ele>948.3</ele>
        <time>2017-07-31T10:07:07Z</time>
      </trkpt>
      <trkpt lat="42.44744" lon="0.02482">
        <ele>948.6</ele>
        <time>2017-07-31T10:07:08Z</time>
      </trkpt>
      <trkpt lat="42.44743" lon="0.02478">
        <ele>948.9</ele>
        <time>2017-07-31T10:07:09Z</time>
      </trkpt>
      <trkpt lat="42.44741" lon="0.02474">
        <ele>949</ele>
        <time>2017-07-31T10:07:10Z</time>
      </trkpt>
      <trkpt lat="42.4474" lon="0.02471">
        <ele>949.1</ele>
        <time>2017-07-31T10:07:11Z</time>
      </trkpt>
      <trkpt lat="42.44738" lon="0.02468">
        <ele>949.2</ele>
        <time>2017-07-31T10:07:12Z</time>
      </trkpt>
      <trkpt lat="42.44736" lon="0.02465">
        <ele>949.3</ele>
        <time>2017-07-31T10:07:13Z</time>
      </trkpt>
      <trkpt lat="42.44734" lon="0.02462">
        <ele>949.4</ele>
        <time>2017-07-31T10:07:14Z</time>
      </trkpt>
      <trkpt lat="42.44732" lon="0.0246">
        <ele>949.4</ele>
        <time>2017-07-31T10:07:15Z</time>
      </trkpt>
      <trkpt lat="42.4473" lon="0.02458">
        <ele>949.5</ele>
        <time>2017-07-31T10:07:16Z</time>
      </trkpt>
      <trkpt lat="42.44725" lon="0.02455">
        <ele>949.7</ele>
        <time>2017-07-31T10:07:18Z</time>
      </trkpt>
      <trkpt lat="42.4472" lon="0.02454">
        <ele>949.8</ele>
        <time>2017-07-31T10:07:20Z</time>
      </trkpt>
      <trkpt lat="42.44715" lon="0.02452">
        <ele>950</ele>
        <time>2017-07-31T10:07:22Z</time>
      </trkpt>
      <trkpt lat="42.44711" lon="0.02451">
        <ele>950.2</ele>
        <time>2017-07-31T10:07:24Z</time>
      </trkpt>
      <trkpt lat="42.44706" lon="0.0245">
        <ele>950.6</ele>
        <time>2017-07-31T10:07:26Z</time>
      </trkpt>
      <trkpt lat="42.44702" lon="0.02447">
        <ele>951.1</ele>
        <time>2017-07-31T10:07:28Z</time>
      </trkpt>
      <trkpt lat="42.44697" lon="0.02444">
        <ele>951.4</ele>
        <time>2017-07-31T10:07:30Z</time>
      </trkpt>
      <trkpt lat="42.44693" lon="0.0244">
        <ele>951.6</ele>
        <time>2017-07-31T10:07:32Z</time>
      </trkpt>
      <trkpt lat="42.44691" lon="0.02435">
        <ele>951.9</ele>
        <time>2017-07-31T10:07:34Z</time>
      </trkpt>
      <trkpt lat="42.44689" lon="0.02429">
        <ele>952.2</ele>
        <time>2017-07-31T10:07:36Z</time>
      </trkpt>
      <trkpt lat="42.44688" lon="0.02423">
        <ele>952.6</ele>
        <time>2017-07-31T10:07:38Z</time>
      </trkpt>
      <trkpt lat="42.44688" lon="0.02416">
        <ele>953.2</ele>
        <time>2017-07-31T10:07:40Z</time>
      </trkpt>
      <trkpt lat="42.44688" lon="0.02409">
        <ele>953.5</ele>
        <time>2017-07-31T10:07:42Z</time>
      </trkpt>
      <trkpt lat="42.44689" lon="0.02405">
        <ele>953.6</ele>
        <time>2017-07-31T10:07:43Z</time>
      </trkpt>
      <trkpt lat="42.44689" lon="0.02401">
        <ele>953.7</ele>
        <time>2017-07-31T10:07:44Z</time>
      </trkpt>
      <trkpt lat="42.4469" lon="0.02397">
        <ele>953.8</ele>
        <time>2017-07-31T10:07:45Z</time>
      </trkpt>
      <trkpt lat="42.4469" lon="0.02393">
        <ele>954</ele>
        <time>2017-07-31T10:07:46Z</time>
      </trkpt>
      <trkpt lat="42.4469" lon="0.02389">
        <ele>954.1</ele>
        <time>2017-07-31T10:07:47Z</time>
      </trkpt>
      <trkpt lat="42.4469" lon="0.02385">
        <ele>954.3</ele>
        <time>2017-07-31T10:07:48Z</time>
      </trkpt>
      <trkpt lat="42.44691" lon="0.02381">
        <ele>954.6</ele>
        <time>2017-07-31T10:07:49Z</time>
      </trkpt>
      <trkpt lat="42.44691" lon="0.02377">
        <ele>954.9</ele>
        <time>2017-07-31T10:07:50Z</time>
      </trkpt>
      <trkpt lat="42.44691" lon="0.02373">
        <ele>955.2</ele>
        <time>2017-07-31T10:07:51Z</time>
      </trkpt>
      <trkpt lat="42.44691" lon="0.02369">
        <ele>955.3</ele>
        <time>2017-07-31T10:07:52Z</time>
      </trkpt>
      <trkpt lat="42.44692" lon="0.02365">
        <ele>955.4</ele>
        <time>2017-07-31T10:07:53Z</time>
      </trkpt>
      <trkpt lat="42.44692" lon="0.02362">
        <ele>955.5</ele>
        <time>2017-07-31T10:07:54Z</time>
      </trkpt>
      <trkpt lat="42.44693" lon="0.02357">
        <ele>955.5</ele>
        <time>2017-07-31T10:07:55Z</time>
      </trkpt>
      <trkpt lat="42.44693" lon="0.02353">
        <ele>955.6</ele>
        <time>2017-07-31T10:07:56Z</time>
      </trkpt>
      <trkpt lat="42.44693" lon="0.02349">
        <ele>955.6</ele>
        <time>2017-07-31T10:07:57Z</time>
      </trkpt>
      <trkpt lat="42.44693" lon="0.02345">
        <ele>955.7</ele>
        <time>2017-07-31T10:07:58Z</time>
      </trkpt>
      <trkpt lat="42.44692" lon="0.02341">
        <ele>955.7</ele>
        <time>2017-07-31T10:07:59Z</time>
      </trkpt>
      <trkpt lat="42.44692" lon="0.02337">
        <ele>955.7</ele>
        <time>2017-07-31T10:08:00Z</time>
      </trkpt>
      <trkpt lat="42.44692" lon="0.02333">
        <ele>955.8</ele>
        <time>2017-07-31T10:08:01Z</time>
      </trkpt>
      <trkpt lat="42.44692" lon="0.02329">
        <ele>955.8</ele>
        <time>2017-07-31T10:08:02Z</time>
      </trkpt>
      <trkpt lat="42.44692" lon="0.02325">
        <ele>955.8</ele>
        <time>2017-07-31T10:08:03Z</time>
      </trkpt>
      <trkpt lat="42.44692" lon="0.02321">
        <ele>955.8</ele>
        <time>2017-07-31T10:08:04Z</time>
      </trkpt>
      <trkpt lat="42.44691" lon="0.02317">
        <ele>955.8</ele>
        <time>2017-07-31T10:08:05Z</time>
      </trkpt>
      <trkpt lat="42.44691" lon="0.02313">
        <ele>955.9</ele>
        <time>2017-07-31T10:08:06Z</time>
      </trkpt>
      <trkpt lat="42.4469" lon="0.02308">
        <ele>955.9</ele>
        <time>2017-07-31T10:08:07Z</time>
      </trkpt>
      <trkpt lat="42.44689" lon="0.02304">
        <ele>955.9</ele>
        <time>2017-07-31T10:08:08Z</time>
      </trkpt>
      <trkpt lat="42.44687" lon="0.023">
        <ele>956</ele>
        <time>2017-07-31T10:08:09Z</time>
      </trkpt>
      <trkpt lat="42.44685" lon="0.02295">
        <ele>956</ele>
        <time>2017-07-31T10:08:10Z</time>
      </trkpt>
      <trkpt lat="42.44683" lon="0.02292">
        <ele>956</ele>
        <time>2017-07-31T10:08:11Z</time>
      </trkpt>
      <trkpt lat="42.44681" lon="0.02288">
        <ele>956.1</ele>
        <time>2017-07-31T10:08:12Z</time>
      </trkpt>
      <trkpt lat="42.44679" lon="0.02284">
        <ele>956.2</ele>
        <time>2017-07-31T10:08:13Z</time>
      </trkpt>
      <trkpt lat="42.44676" lon="0.02281">
        <ele>956.3</ele>
        <time>2017-07-31T10:08:14Z</time>
      </trkpt>
      <trkpt lat="42.44673" lon="0.02278">
        <ele>956.4</ele>
        <time>2017-07-31T10:08:15Z</time>
      </trkpt>
      <trkpt lat="42.4467" lon="0.02275">
        <ele>956.6</ele>
        <time>2017-07-31T10:08:16Z</time>
      </trkpt>
      <trkpt lat="42.44667" lon="0.02273">
        <ele>956.9</ele>
        <time>2017-07-31T10:08:17Z</time>
      </trkpt>
      <trkpt lat="42.44663" lon="0.02271">
        <ele>957.2</ele>
        <time>2017-07-31T10:08:18Z</time>
      </trkpt>
      <trkpt lat="42.4466" lon="0.0227">
        <ele>957.4</ele>
        <time>2017-07-31T10:08:19Z</time>
      </trkpt>
      <trkpt lat="42.44656" lon="0.02268">
        <ele>957.6</ele>
        <time>2017-07-31T10:08:20Z</time>
      </trkpt>
      <trkpt lat="42.44653" lon="0.02267">
        <ele>957.6</ele>
        <time>2017-07-31T10:08:21Z</time>
      </trkpt>
      <trkpt lat="42.44649" lon="0.02266">
        <ele>957.7</ele>
        <time>2017-07-31T10:08:22Z</time>
      </trkpt>
      <trkpt lat="42.44646" lon="0.02265">
        <ele>957.8</ele>
        <time>2017-07-31T10:08:23Z</time>
      </trkpt>
      <trkpt lat="42.44643" lon="0.02264">
        <ele>957.8</ele>
        <time>2017-07-31T10:08:24Z</time>
      </trkpt>
      <trkpt lat="42.4464" lon="0.02263">
        <ele>957.9</ele>
        <time>2017-07-31T10:08:25Z</time>
      </trkpt>
      <trkpt lat="42.44637" lon="0.02263">
        <ele>957.9</ele>
        <time>2017-07-31T10:08:26Z</time>
      </trkpt>
      <trkpt lat="42.44634" lon="0.02262">
        <ele>958</ele>
        <time>2017-07-31T10:08:27Z</time>
      </trkpt>
      <trkpt lat="42.44631" lon="0.02261">
        <ele>958</ele>
        <time>2017-07-31T10:08:28Z</time>
      </trkpt>
      <trkpt lat="42.44628" lon="0.0226">
        <ele>958.1</ele>
        <time>2017-07-31T10:08:29Z</time>
      </trkpt>
      <trkpt lat="42.44625" lon="0.0226">
        <ele>958.2</ele>
        <time>2017-07-31T10:08:30Z</time>
      </trkpt>
      <trkpt lat="42.44622" lon="0.02259">
        <ele>958.2</ele>
        <time>2017-07-31T10:08:31Z</time>
      </trkpt>
      <trkpt lat="42.44619" lon="0.02259">
        <ele>958.3</ele>
        <time>2017-07-31T10:08:32Z</time>
      </trkpt>
      <trkpt lat="42.44617" lon="0.02259">
        <ele>958.4</ele>
        <time>2017-07-31T10:08:33Z</time>
      </trkpt>
      <trkpt lat="42.44614" lon="0.02259">
        <ele>958.5</ele>
        <time>2017-07-31T10:08:34Z</time>
      </trkpt>
      <trkpt lat="42.44611" lon="0.02259">
        <ele>958.6</ele>
        <time>2017-07-31T10:08:35Z</time>
      </trkpt>
      <trkpt lat="42.44608" lon="0.02259">
        <ele>958.8</ele>
        <time>2017-07-31T10:08:36Z</time>
      </trkpt>
      <trkpt lat="42.44605" lon="0.02259">
        <ele>959</ele>
        <time>2017-07-31T10:08:37Z</time>
      </trkpt>
      <trkpt lat="42.44602" lon="0.0226">
        <ele>959.3</ele>
        <time>2017-07-31T10:08:38Z</time>
      </trkpt>
      <trkpt lat="42.44599" lon="0.0226">
        <ele>959.6</ele>
        <time>2017-07-31T10:08:39Z</time>
      </trkpt>
      <trkpt lat="42.44597" lon="0.02261">
        <ele>959.7</ele>
        <time>2017-07-31T10:08:40Z</time>
      </trkpt>
      <trkpt lat="42.44592" lon="0.02262">
        <ele>959.9</ele>
        <time>2017-07-31T10:08:42Z</time>
      </trkpt>
      <trkpt lat="42.44587" lon="0.02264">
        <ele>960</ele>
        <time>2017-07-31T10:08:44Z</time>
      </trkpt>
      <trkpt lat="42.44583" lon="0.02267">
        <ele>960.2</ele>
        <time>2017-07-31T10:08:46Z</time>
      </trkpt>
      <trkpt lat="42.44578" lon="0.0227">
        <ele>960.4</ele>
        <time>2017-07-31T10:08:48Z</time>
      </trkpt>
      <trkpt lat="42.44573" lon="0.02272">
        <ele>960.6</ele>
        <time>2017-07-31T10:08:50Z</time>
      </trkpt>
      <trkpt lat="42.44571" lon="0.02273">
        <ele>960.8</ele>
        <time>2017-07-31T10:08:51Z</time>
      </trkpt>
      <trkpt lat="42.44568" lon="0.02274">
        <ele>961.2</ele>
        <time>2017-07-31T10:08:52Z</time>
      </trkpt>
      <trkpt lat="42.44565" lon="0.02275">
        <ele>961.6</ele>
        <time>2017-07-31T10:08:53Z</time>
      </trkpt>
      <trkpt lat="42.44562" lon="0.02275">
        <ele>961.9</ele>
        <time>2017-07-31T10:08:54Z</time>
      </trkpt>
      <trkpt lat="42.44558" lon="0.02275">
        <ele>962.2</ele>
        <time>2017-07-31T10:08:56Z</time>
      </trkpt>
      <trkpt lat="42.44554" lon="0.02274">
        <ele>962.4</ele>
        <time>2017-07-31T10:08:58Z</time>
      </trkpt>
      <trkpt lat="42.44551" lon="0.02272">
        <ele>962.8</ele>
        <time>2017-07-31T10:09:00Z</time>
      </trkpt>
      <trkpt lat="42.44548" lon="0.0227">
        <ele>963.2</ele>
        <time>2017-07-31T10:09:02Z</time>
      </trkpt>
      <trkpt lat="42.44546" lon="0.02267">
        <ele>963.6</ele>
        <time>2017-07-31T10:09:04Z</time>
      </trkpt>
      <trkpt lat="42.44543" lon="0.02263">
        <ele>964.1</ele>
        <time>2017-07-31T10:09:06Z</time>
      </trkpt>
      <trkpt lat="42.44541" lon="0.02259">
        <ele>964.3</ele>
        <time>2017-07-31T10:09:08Z</time>
      </trkpt>
      <trkpt lat="42.44539" lon="0.02255">
        <ele>964.5</ele>
        <time>2017-07-31T10:09:10Z</time>
      </trkpt>
      <trkpt lat="42.44538" lon="0.02251">
        <ele>964.7</ele>
        <time>2017-07-31T10:09:12Z</time>
      </trkpt>
      <trkpt lat="42.44536" lon="0.02247">
        <ele>964.9</ele>
        <time>2017-07-31T10:09:14Z</time>
      </trkpt>
      <trkpt lat="42.44534" lon="0.02243">
        <ele>965.3</ele>
        <time>2017-07-31T10:09:16Z</time>
      </trkpt>
      <trkpt lat="42.44533" lon="0.02239">
        <ele>965.8</ele>
        <time>2017-07-31T10:09:18Z</time>
      </trkpt>
      <trkpt lat="42.44531" lon="0.02234">
        <ele>966.2</ele>
        <time>2017-07-31T10:09:20Z</time>
      </trkpt>
      <trkpt lat="42.4453" lon="0.0223">
        <ele>966.4</ele>
        <time>2017-07-31T10:09:22Z</time>
      </trkpt>
      <trkpt lat="42.44528" lon="0.02227">
        <ele>966.7</ele>
        <time>2017-07-31T10:09:24Z</time>
      </trkpt>
      <trkpt lat="42.44527" lon="0.02223">
        <ele>967</ele>
        <time>2017-07-31T10:09:26Z</time>
      </trkpt>
      <trkpt lat="42.44526" lon="0.0222">
        <ele>967.4</ele>
        <time>2017-07-31T10:09:28Z</time>
      </trkpt>
      <trkpt lat="42.44524" lon="0.02216">
        <ele>967.9</ele>
        <time>2017-07-31T10:09:30Z</time>
      </trkpt>
      <trkpt lat="42.44522" lon="0.02213">
        <ele>968.3</ele>
        <time>2017-07-31T10:09:32Z</time>
      </trkpt>
      <trkpt lat="42.4452" lon="0.0221">
        <ele>968.5</ele>
        <time>2017-07-31T10:09:34Z</time>
      </trkpt>
      <trkpt lat="42.44518" lon="0.02207">
        <ele>968.7</ele>
        <time>2017-07-31T10:09:36Z</time>
      </trkpt>
      <trkpt lat="42.44516" lon="0.02204">
        <ele>969</ele>
        <time>2017-07-31T10:09:38Z</time>
      </trkpt>
      <trkpt lat="42.44515" lon="0.02201">
        <ele>969.7</ele>
        <time>2017-07-31T10:09:40Z</time>
      </trkpt>
      <trkpt lat="42.44513" lon="0.02198">
        <ele>970.3</ele>
        <time>2017-07-31T10:09:42Z</time>
      </trkpt>
      <trkpt lat="42.44512" lon="0.02194">
        <ele>970.8</ele>
        <time>2017-07-31T10:09:44Z</time>
      </trkpt>
      <trkpt lat="42.4451" lon="0.02189">
        <ele>971.6</ele>
        <time>2017-07-31T10:09:47Z</time>
      </trkpt>
      <trkpt lat="42.44509" lon="0.02184">
        <ele>972.4</ele>
        <time>2017-07-31T10:09:50Z</time>
      </trkpt>
      <trkpt lat="42.4451" lon="0.02179">
        <ele>973.1</ele>
        <time>2017-07-31T10:09:53Z</time>
      </trkpt>
      <trkpt lat="42.44513" lon="0.02177">
        <ele>974</ele>
        <time>2017-07-31T10:09:56Z</time>
      </trkpt>
      <trkpt lat="42.44516" lon="0.02176">
        <ele>974.5</ele>
        <time>2017-07-31T10:09:58Z</time>
      </trkpt>
      <trkpt lat="42.44519" lon="0.02176">
        <ele>974.9</ele>
        <time>2017-07-31T10:10:00Z</time>
      </trkpt>
      <trkpt lat="42.44521" lon="0.02176">
        <ele>975.3</ele>
        <time>2017-07-31T10:10:02Z</time>
      </trkpt>
      <trkpt lat="42.44524" lon="0.02175">
        <ele>975.9</ele>
        <time>2017-07-31T10:10:04Z</time>
      </trkpt>
      <trkpt lat="42.44527" lon="0.02176">
        <ele>976.3</ele>
        <time>2017-07-31T10:10:06Z</time>
      </trkpt>
      <trkpt lat="42.4453" lon="0.02176">
        <ele>976.7</ele>
        <time>2017-07-31T10:10:08Z</time>
      </trkpt>
      <trkpt lat="42.44533" lon="0.02176">
        <ele>977</ele>
        <time>2017-07-31T10:10:10Z</time>
      </trkpt>
      <trkpt lat="42.44536" lon="0.02175">
        <ele>977.3</ele>
        <time>2017-07-31T10:10:12Z</time>
      </trkpt>
      <trkpt lat="42.44539" lon="0.02175">
        <ele>977.5</ele>
        <time>2017-07-31T10:10:14Z</time>
      </trkpt>
      <trkpt lat="42.44542" lon="0.02173">
        <ele>978.3</ele>
        <time>2017-07-31T10:10:17Z</time>
      </trkpt>
      <trkpt lat="42.44546" lon="0.02173">
        <ele>978.7</ele>
        <time>2017-07-31T10:10:20Z</time>
      </trkpt>
      <trkpt lat="42.44549" lon="0.02174">
        <ele>979</ele>
        <time>2017-07-31T10:10:23Z</time>
      </trkpt>
      <trkpt lat="42.44553" lon="0.02175">
        <ele>979.6</ele>
        <time>2017-07-31T10:10:26Z</time>
      </trkpt>
      <trkpt lat="42.44557" lon="0.02176">
        <ele>980.4</ele>
        <time>2017-07-31T10:10:29Z</time>
      </trkpt>
      <trkpt lat="42.44559" lon="0.02177">
        <ele>981</ele>
        <time>2017-07-31T10:10:31Z</time>
      </trkpt>
      <trkpt lat="42.44563" lon="0.0218">
        <ele>981.4</ele>
        <time>2017-07-31T10:10:34Z</time>
      </trkpt>
      <trkpt lat="42.44566" lon="0.02182">
        <ele>982</ele>
        <time>2017-07-31T10:10:37Z</time>
      </trkpt>
      <trkpt lat="42.44569" lon="0.02185">
        <ele>982.8</ele>
        <time>2017-07-31T10:10:40Z</time>
      </trkpt>
      <trkpt lat="42.44572" lon="0.02188">
        <ele>983.3</ele>
        <time>2017-07-31T10:10:43Z</time>
      </trkpt>
      <trkpt lat="42.44575" lon="0.02191">
        <ele>983.9</ele>
        <time>2017-07-31T10:10:46Z</time>
      </trkpt>
      <trkpt lat="42.44578" lon="0.02194">
        <ele>984.5</ele>
        <time>2017-07-31T10:10:49Z</time>
      </trkpt>
      <trkpt lat="42.44581" lon="0.02196">
        <ele>985.1</ele>
        <time>2017-07-31T10:10:51Z</time>
      </trkpt>
      <trkpt lat="42.44584" lon="0.02197">
        <ele>985.6</ele>
        <time>2017-07-31T10:10:53Z</time>
      </trkpt>
      <trkpt lat="42.44587" lon="0.02197">
        <ele>986</ele>
        <time>2017-07-31T10:10:55Z</time>
      </trkpt>
      <trkpt lat="42.44591" lon="0.02198">
        <ele>986.7</ele>
        <time>2017-07-31T10:10:57Z</time>
      </trkpt>
      <trkpt lat="42.44595" lon="0.02197">
        <ele>987.3</ele>
        <time>2017-07-31T10:10:59Z</time>
      </trkpt>
      <trkpt lat="42.446" lon="0.02197">
        <ele>987.6</ele>
        <time>2017-07-31T10:11:01Z</time>
      </trkpt>
      <trkpt lat="42.44604" lon="0.02196">
        <ele>987.9</ele>
        <time>2017-07-31T10:11:03Z</time>
      </trkpt>
      <trkpt lat="42.44608" lon="0.02195">
        <ele>988.3</ele>
        <time>2017-07-31T10:11:05Z</time>
      </trkpt>
      <trkpt lat="42.44612" lon="0.02194">
        <ele>988.8</ele>
        <time>2017-07-31T10:11:07Z</time>
      </trkpt>
      <trkpt lat="42.44617" lon="0.02193">
        <ele>989.1</ele>
        <time>2017-07-31T10:11:09Z</time>
      </trkpt>
      <trkpt lat="42.44621" lon="0.02192">
        <ele>989.2</ele>
        <time>2017-07-31T10:11:11Z</time>
      </trkpt>
      <trkpt lat="42.44625" lon="0.02192">
        <ele>989.4</ele>
        <time>2017-07-31T10:11:13Z</time>
      </trkpt>
      <trkpt lat="42.44629" lon="0.02191">
        <ele>989.5</ele>
        <time>2017-07-31T10:11:15Z</time>
      </trkpt>
      <trkpt lat="42.44634" lon="0.02191">
        <ele>989.7</ele>
        <time>2017-07-31T10:11:17Z</time>
      </trkpt>
      <trkpt lat="42.44639" lon="0.0219">
        <ele>989.9</ele>
        <time>2017-07-31T10:11:19Z</time>
      </trkpt>
      <trkpt lat="42.44644" lon="0.0219">
        <ele>990.3</ele>
        <time>2017-07-31T10:11:21Z</time>
      </trkpt>
      <trkpt lat="42.44649" lon="0.0219">
        <ele>991.4</ele>
        <time>2017-07-31T10:11:23Z</time>
      </trkpt>
      <trkpt lat="42.44653" lon="0.02189">
        <ele>991.5</ele>
        <time>2017-07-31T10:11:25Z</time>
      </trkpt>
      <trkpt lat="42.44658" lon="0.0219">
        <ele>991.6</ele>
        <time>2017-07-31T10:11:27Z</time>
      </trkpt>
      <trkpt lat="42.44663" lon="0.0219">
        <ele>991.6</ele>
        <time>2017-07-31T10:11:29Z</time>
      </trkpt>
      <trkpt lat="42.44669" lon="0.02192">
        <ele>991.6</ele>
        <time>2017-07-31T10:11:31Z</time>
      </trkpt>
      <trkpt lat="42.44674" lon="0.02194">
        <ele>991.6</ele>
        <time>2017-07-31T10:11:33Z</time>
      </trkpt>
      <trkpt lat="42.44678" lon="0.02196">
        <ele>991.7</ele>
        <time>2017-07-31T10:11:35Z</time>
      </trkpt>
      <trkpt lat="42.44683" lon="0.02198">
        <ele>991.7</ele>
        <time>2017-07-31T10:11:37Z</time>
      </trkpt>
      <trkpt lat="42.44686" lon="0.02199">
        <ele>991.7</ele>
        <time>2017-07-31T10:11:38Z</time>
      </trkpt>
      <trkpt lat="42.44689" lon="0.022">
        <ele>991.8</ele>
        <time>2017-07-31T10:11:39Z</time>
      </trkpt>
      <trkpt lat="42.44692" lon="0.02201">
        <ele>991.8</ele>
        <time>2017-07-31T10:11:40Z</time>
      </trkpt>
      <trkpt lat="42.44695" lon="0.02203">
        <ele>991.8</ele>
        <time>2017-07-31T10:11:41Z</time>
      </trkpt>
      <trkpt lat="42.44698" lon="0.02204">
        <ele>991.8</ele>
        <time>2017-07-31T10:11:42Z</time>
      </trkpt>
      <trkpt lat="42.44701" lon="0.02206">
        <ele>991.9</ele>
        <time>2017-07-31T10:11:43Z</time>
      </trkpt>
      <trkpt lat="42.44704" lon="0.02207">
        <ele>991.9</ele>
        <time>2017-07-31T10:11:44Z</time>
      </trkpt>
      <trkpt lat="42.44708" lon="0.02211">
        <ele>992</ele>
        <time>2017-07-31T10:11:46Z</time>
      </trkpt>
      <trkpt lat="42.44712" lon="0.02216">
        <ele>992.1</ele>
        <time>2017-07-31T10:11:48Z</time>
      </trkpt>
      <trkpt lat="42.44714" lon="0.0222">
        <ele>992.2</ele>
        <time>2017-07-31T10:11:50Z</time>
      </trkpt>
      <trkpt lat="42.44714" lon="0.02226">
        <ele>992.2</ele>
        <time>2017-07-31T10:12:02Z</time>
      </trkpt>
      <trkpt lat="42.44716" lon="0.02233">
        <ele>992.4</ele>
        <time>2017-07-31T10:12:04Z</time>
      </trkpt>
      <trkpt lat="42.44717" lon="0.02238">
        <ele>992.4</ele>
        <time>2017-07-31T10:12:05Z</time>
      </trkpt>
      <trkpt lat="42.44717" lon="0.02243">
        <ele>992.5</ele>
        <time>2017-07-31T10:12:06Z</time>
      </trkpt>
      <trkpt lat="42.44718" lon="0.02249">
        <ele>992.6</ele>
        <time>2017-07-31T10:12:07Z</time>
      </trkpt>
      <trkpt lat="42.44719" lon="0.02256">
        <ele>992.6</ele>
        <time>2017-07-31T10:12:08Z</time>
      </trkpt>
      <trkpt lat="42.44721" lon="0.02263">
        <ele>992.7</ele>
        <time>2017-07-31T10:12:09Z</time>
      </trkpt>
      <trkpt lat="42.44723" lon="0.02269">
        <ele>992.8</ele>
        <time>2017-07-31T10:12:10Z</time>
      </trkpt>
      <trkpt lat="42.44724" lon="0.02276">
        <ele>992.8</ele>
        <time>2017-07-31T10:12:11Z</time>
      </trkpt>
      <trkpt lat="42.44726" lon="0.02282">
        <ele>992.8</ele>
        <time>2017-07-31T10:12:12Z</time>
      </trkpt>
      <trkpt lat="42.44728" lon="0.02288">
        <ele>992.7</ele>
        <time>2017-07-31T10:12:13Z</time>
      </trkpt>
      <trkpt lat="42.4473" lon="0.02294">
        <ele>992.7</ele>
        <time>2017-07-31T10:12:14Z</time>
      </trkpt>
      <trkpt lat="42.44733" lon="0.023">
        <ele>992.6</ele>
        <time>2017-07-31T10:12:15Z</time>
      </trkpt>
      <trkpt lat="42.44734" lon="0.02306">
        <ele>992.6</ele>
        <time>2017-07-31T10:12:16Z</time>
      </trkpt>
      <trkpt lat="42.44736" lon="0.02313">
        <ele>992.6</ele>
        <time>2017-07-31T10:12:17Z</time>
      </trkpt>
      <trkpt lat="42.44738" lon="0.02319">
        <ele>992.6</ele>
        <time>2017-07-31T10:12:18Z</time>
      </trkpt>
      <trkpt lat="42.44739" lon="0.02326">
        <ele>992.6</ele>
        <time>2017-07-31T10:12:19Z</time>
      </trkpt>
      <trkpt lat="42.4474" lon="0.02333">
        <ele>992.6</ele>
        <time>2017-07-31T10:12:20Z</time>
      </trkpt>
      <trkpt lat="42.44742" lon="0.02339">
        <ele>992.6</ele>
        <time>2017-07-31T10:12:21Z</time>
      </trkpt>
      <trkpt lat="42.44743" lon="0.02346">
        <ele>992.6</ele>
        <time>2017-07-31T10:12:22Z</time>
      </trkpt>
      <trkpt lat="42.44745" lon="0.02354">
        <ele>992.6</ele>
        <time>2017-07-31T10:12:23Z</time>
      </trkpt>
      <trkpt lat="42.44747" lon="0.02361">
        <ele>992.6</ele>
        <time>2017-07-31T10:12:24Z</time>
      </trkpt>
      <trkpt lat="42.44749" lon="0.02368">
        <ele>992.6</ele>
        <time>2017-07-31T10:12:25Z</time>
      </trkpt>
      <trkpt lat="42.44752" lon="0.02375">
        <ele>992.5</ele>
        <time>2017-07-31T10:12:26Z</time>
      </trkpt>
      <trkpt lat="42.44755" lon="0.02382">
        <ele>992.3</ele>
        <time>2017-07-31T10:12:27Z</time>
      </trkpt>
      <trkpt lat="42.44758" lon="0.02388">
        <ele>992.1</ele>
        <time>2017-07-31T10:12:28Z</time>
      </trkpt>
      <trkpt lat="42.44762" lon="0.02394">
        <ele>992</ele>
        <time>2017-07-31T10:12:29Z</time>
      </trkpt>
      <trkpt lat="42.44766" lon="0.02399">
        <ele>991.8</ele>
        <time>2017-07-31T10:12:30Z</time>
      </trkpt>
      <trkpt lat="42.44771" lon="0.02404">
        <ele>991.7</ele>
        <time>2017-07-31T10:12:31Z</time>
      </trkpt>
      <trkpt lat="42.44777" lon="0.02409">
        <ele>991.6</ele>
        <time>2017-07-31T10:12:32Z</time>
      </trkpt>
      <trkpt lat="42.44782" lon="0.02412">
        <ele>991.4</ele>
        <time>2017-07-31T10:12:33Z</time>
      </trkpt>
      <trkpt lat="42.44785" lon="0.02415">
        <ele>991.4</ele>
        <time>2017-07-31T10:12:34Z</time>
      </trkpt>
      <trkpt lat="42.44788" lon="0.02418">
        <ele>991.5</ele>
        <time>2017-07-31T10:12:35Z</time>
      </trkpt>
      <trkpt lat="42.44792" lon="0.02421">
        <ele>991.7</ele>
        <time>2017-07-31T10:12:36Z</time>
      </trkpt>
      <trkpt lat="42.44795" lon="0.02424">
        <ele>991.9</ele>
        <time>2017-07-31T10:12:37Z</time>
      </trkpt>
      <trkpt lat="42.44799" lon="0.02428">
        <ele>992.5</ele>
        <time>2017-07-31T10:12:38Z</time>
      </trkpt>
      <trkpt lat="42.44804" lon="0.02432">
        <ele>993</ele>
        <time>2017-07-31T10:12:39Z</time>
      </trkpt>
      <trkpt lat="42.4481" lon="0.02435">
        <ele>993.4</ele>
        <time>2017-07-31T10:12:40Z</time>
      </trkpt>
      <trkpt lat="42.44815" lon="0.02437">
        <ele>993.7</ele>
        <time>2017-07-31T10:12:41Z</time>
      </trkpt>
      <trkpt lat="42.44821" lon="0.02439">
        <ele>993.8</ele>
        <time>2017-07-31T10:12:42Z</time>
      </trkpt>
      <trkpt lat="42.44826" lon="0.02441">
        <ele>993.8</ele>
        <time>2017-07-31T10:12:43Z</time>
      </trkpt>
      <trkpt lat="42.44832" lon="0.02443">
        <ele>993.8</ele>
        <time>2017-07-31T10:12:44Z</time>
      </trkpt>
      <trkpt lat="42.44837" lon="0.02446">
        <ele>993.8</ele>
        <time>2017-07-31T10:12:45Z</time>
      </trkpt>
      <trkpt lat="42.44843" lon="0.02448">
        <ele>993.8</ele>
        <time>2017-07-31T10:12:46Z</time>
      </trkpt>
      <trkpt lat="42.44849" lon="0.02448">
        <ele>993.8</ele>
        <time>2017-07-31T10:12:47Z</time>
      </trkpt>
      <trkpt lat="42.44855" lon="0.02447">
        <ele>993.9</ele>
        <time>2017-07-31T10:12:48Z</time>
      </trkpt>
      <trkpt lat="42.44861" lon="0.02445">
        <ele>993.9</ele>
        <time>2017-07-31T10:12:49Z</time>
      </trkpt>
      <trkpt lat="42.44866" lon="0.02443">
        <ele>994</ele>
        <time>2017-07-31T10:12:50Z</time>
      </trkpt>
      <trkpt lat="42.44871" lon="0.02441">
        <ele>994</ele>
        <time>2017-07-31T10:12:51Z</time>
      </trkpt>
      <trkpt lat="42.44876" lon="0.02441">
        <ele>994.1</ele>
        <time>2017-07-31T10:12:52Z</time>
      </trkpt>
      <trkpt lat="42.44881" lon="0.02441">
        <ele>994.1</ele>
        <time>2017-07-31T10:12:53Z</time>
      </trkpt>
      <trkpt lat="42.44886" lon="0.02442">
        <ele>994.2</ele>
        <time>2017-07-31T10:12:54Z</time>
      </trkpt>
      <trkpt lat="42.44891" lon="0.02444">
        <ele>994.3</ele>
        <time>2017-07-31T10:12:55Z</time>
      </trkpt>
      <trkpt lat="42.44896" lon="0.02446">
        <ele>994.5</ele>
        <time>2017-07-31T10:12:56Z</time>
      </trkpt>
      <trkpt lat="42.449" lon="0.0245">
        <ele>994.6</ele>
        <time>2017-07-31T10:12:57Z</time>
      </trkpt>
      <trkpt lat="42.44904" lon="0.02453">
        <ele>994.8</ele>
        <time>2017-07-31T10:12:58Z</time>
      </trkpt>
      <trkpt lat="42.44907" lon="0.02458">
        <ele>994.9</ele>
        <time>2017-07-31T10:12:59Z</time>
      </trkpt>
      <trkpt lat="42.44909" lon="0.02463">
        <ele>995</ele>
        <time>2017-07-31T10:13:00Z</time>
      </trkpt>
      <trkpt lat="42.44911" lon="0.02468">
        <ele>995.2</ele>
        <time>2017-07-31T10:13:01Z</time>
      </trkpt>
      <trkpt lat="42.44912" lon="0.02473">
        <ele>995.3</ele>
        <time>2017-07-31T10:13:02Z</time>
      </trkpt>
      <trkpt lat="42.44913" lon="0.02478">
        <ele>995.4</ele>
        <time>2017-07-31T10:13:03Z</time>
      </trkpt>
      <trkpt lat="42.44914" lon="0.02483">
        <ele>995.6</ele>
        <time>2017-07-31T10:13:04Z</time>
      </trkpt>
      <trkpt lat="42.44914" lon="0.02488">
        <ele>995.7</ele>
        <time>2017-07-31T10:13:05Z</time>
      </trkpt>
      <trkpt lat="42.44913" lon="0.02493">
        <ele>995.9</ele>
        <time>2017-07-31T10:13:06Z</time>
      </trkpt>
      <trkpt lat="42.44912" lon="0.02496">
        <ele>996</ele>
        <time>2017-07-31T10:13:07Z</time>
      </trkpt>
      <trkpt lat="42.44912" lon="0.02501">
        <ele>996.2</ele>
        <time>2017-07-31T10:13:08Z</time>
      </trkpt>
      <trkpt lat="42.44911" lon="0.02505">
        <ele>996.4</ele>
        <time>2017-07-31T10:13:09Z</time>
      </trkpt>
      <trkpt lat="42.4491" lon="0.02509">
        <ele>996.7</ele>
        <time>2017-07-31T10:13:10Z</time>
      </trkpt>
      <trkpt lat="42.44908" lon="0.02512">
        <ele>997.3</ele>
        <time>2017-07-31T10:13:11Z</time>
      </trkpt>
      <trkpt lat="42.44906" lon="0.02516">
        <ele>999.2</ele>
        <time>2017-07-31T10:13:12Z</time>
      </trkpt>
      <trkpt lat="42.44904" lon="0.0252">
        <ele>999.4</ele>
        <time>2017-07-31T10:13:13Z</time>
      </trkpt>
      <trkpt lat="42.44903" lon="0.02525">
        <ele>999.6</ele>
        <time>2017-07-31T10:13:14Z</time>
      </trkpt>
      <trkpt lat="42.44901" lon="0.0253">
        <ele>999.9</ele>
        <time>2017-07-31T10:13:15Z</time>
      </trkpt>
      <trkpt lat="42.449" lon="0.02535">
        <ele>1000</ele>
        <time>2017-07-31T10:13:16Z</time>
      </trkpt>
      <trkpt lat="42.449" lon="0.02541">
        <ele>1000.1</ele>
        <time>2017-07-31T10:13:17Z</time>
      </trkpt>
      <trkpt lat="42.44899" lon="0.02547">
        <ele>1000.1</ele>
        <time>2017-07-31T10:13:18Z</time>
      </trkpt>
      <trkpt lat="42.44898" lon="0.02554">
        <ele>1000.2</ele>
        <time>2017-07-31T10:13:19Z</time>
      </trkpt>
      <trkpt lat="42.44896" lon="0.02561">
        <ele>1000.2</ele>
        <time>2017-07-31T10:13:20Z</time>
      </trkpt>
      <trkpt lat="42.44895" lon="0.02568">
        <ele>1000.2</ele>
        <time>2017-07-31T10:13:21Z</time>
      </trkpt>
      <trkpt lat="42.44893" lon="0.02574">
        <ele>1000.2</ele>
        <time>2017-07-31T10:13:22Z</time>
      </trkpt>
      <trkpt lat="42.44891" lon="0.02581">
        <ele>1000.2</ele>
        <time>2017-07-31T10:13:23Z</time>
      </trkpt>
      <trkpt lat="42.44889" lon="0.02587">
        <ele>1000.1</ele>
        <time>2017-07-31T10:13:24Z</time>
      </trkpt>
      <trkpt lat="42.44887" lon="0.02593">
        <ele>1000</ele>
        <time>2017-07-31T10:13:25Z</time>
      </trkpt>
      <trkpt lat="42.44887" lon="0.02599">
        <ele>1000</ele>
        <time>2017-07-31T10:13:26Z</time>
      </trkpt>
      <trkpt lat="42.44886" lon="0.02605">
        <ele>1000</ele>
        <time>2017-07-31T10:13:27Z</time>
      </trkpt>
      <trkpt lat="42.44886" lon="0.0261">
        <ele>1000</ele>
        <time>2017-07-31T10:13:28Z</time>
      </trkpt>
      <trkpt lat="42.44885" lon="0.02616">
        <ele>1000</ele>
        <time>2017-07-31T10:13:29Z</time>
      </trkpt>
      <trkpt lat="42.44885" lon="0.02622">
        <ele>1000</ele>
        <time>2017-07-31T10:13:30Z</time>
      </trkpt>
      <trkpt lat="42.44885" lon="0.02628">
        <ele>1000.1</ele>
        <time>2017-07-31T10:13:31Z</time>
      </trkpt>
      <trkpt lat="42.44884" lon="0.02635">
        <ele>1000.1</ele>
        <time>2017-07-31T10:13:32Z</time>
      </trkpt>
      <trkpt lat="42.44883" lon="0.0264">
        <ele>1000.1</ele>
        <time>2017-07-31T10:13:33Z</time>
      </trkpt>
      <trkpt lat="42.44882" lon="0.02646">
        <ele>1000.2</ele>
        <time>2017-07-31T10:13:34Z</time>
      </trkpt>
      <trkpt lat="42.44881" lon="0.02651">
        <ele>1000.2</ele>
        <time>2017-07-31T10:13:35Z</time>
      </trkpt>
      <trkpt lat="42.4488" lon="0.02657">
        <ele>1000.3</ele>
        <time>2017-07-31T10:13:36Z</time>
      </trkpt>
      <trkpt lat="42.44878" lon="0.02662">
        <ele>1000.3</ele>
        <time>2017-07-31T10:13:37Z</time>
      </trkpt>
      <trkpt lat="42.44876" lon="0.02666">
        <ele>1000.3</ele>
        <time>2017-07-31T10:13:38Z</time>
      </trkpt>
      <trkpt lat="42.44874" lon="0.02673">
        <ele>1000.3</ele>
        <time>2017-07-31T10:13:40Z</time>
      </trkpt>
      <trkpt lat="42.44871" lon="0.02676">
        <ele>1000.4</ele>
        <time>2017-07-31T10:13:41Z</time>
      </trkpt>
      <trkpt lat="42.44869" lon="0.02679">
        <ele>1000.4</ele>
        <time>2017-07-31T10:13:42Z</time>
      </trkpt>
      <trkpt lat="42.44867" lon="0.02683">
        <ele>1000.4</ele>
        <time>2017-07-31T10:13:43Z</time>
      </trkpt>
      <trkpt lat="42.44865" lon="0.02687">
        <ele>1000.4</ele>
        <time>2017-07-31T10:13:44Z</time>
      </trkpt>
      <trkpt lat="42.44864" lon="0.02692">
        <ele>1000.4</ele>
        <time>2017-07-31T10:13:45Z</time>
      </trkpt>
      <trkpt lat="42.44866" lon="0.02699">
        <ele>1000.4</ele>
        <time>2017-07-31T10:13:46Z</time>
      </trkpt>
      <trkpt lat="42.44869" lon="0.02705">
        <ele>1000.3</ele>
        <time>2017-07-31T10:13:47Z</time>
      </trkpt>
      <trkpt lat="42.44873" lon="0.02711">
        <ele>1000.1</ele>
        <time>2017-07-31T10:13:48Z</time>
      </trkpt>
      <trkpt lat="42.44876" lon="0.02717">
        <ele>999.8</ele>
        <time>2017-07-31T10:13:49Z</time>
      </trkpt>
      <trkpt lat="42.4488" lon="0.02722">
        <ele>999.5</ele>
        <time>2017-07-31T10:13:50Z</time>
      </trkpt>
      <trkpt lat="42.44885" lon="0.02728">
        <ele>999.1</ele>
        <time>2017-07-31T10:13:51Z</time>
      </trkpt>
      <trkpt lat="42.44888" lon="0.02733">
        <ele>998.8</ele>
        <time>2017-07-31T10:13:52Z</time>
      </trkpt>
      <trkpt lat="42.44892" lon="0.02738">
        <ele>998.5</ele>
        <time>2017-07-31T10:13:53Z</time>
      </trkpt>
      <trkpt lat="42.44896" lon="0.02744">
        <ele>998.2</ele>
        <time>2017-07-31T10:13:54Z</time>
      </trkpt>
      <trkpt lat="42.449" lon="0.0275">
        <ele>998.1</ele>
        <time>2017-07-31T10:13:55Z</time>
      </trkpt>
      <trkpt lat="42.44904" lon="0.02755">
        <ele>998</ele>
        <time>2017-07-31T10:13:56Z</time>
      </trkpt>
      <trkpt lat="42.44909" lon="0.0276">
        <ele>997.9</ele>
        <time>2017-07-31T10:13:57Z</time>
      </trkpt>
      <trkpt lat="42.44914" lon="0.02765">
        <ele>997.8</ele>
        <time>2017-07-31T10:13:58Z</time>
      </trkpt>
      <trkpt lat="42.44919" lon="0.0277">
        <ele>997.7</ele>
        <time>2017-07-31T10:13:59Z</time>
      </trkpt>
      <trkpt lat="42.44924" lon="0.02774">
        <ele>997.6</ele>
        <time>2017-07-31T10:14:00Z</time>
      </trkpt>
      <trkpt lat="42.44928" lon="0.02778">
        <ele>997.4</ele>
        <time>2017-07-31T10:14:01Z</time>
      </trkpt>
      <trkpt lat="42.44931" lon="0.02781">
        <ele>997.3</ele>
        <time>2017-07-31T10:14:02Z</time>
      </trkpt>
      <trkpt lat="42.44934" lon="0.02784">
        <ele>997.2</ele>
        <time>2017-07-31T10:14:03Z</time>
      </trkpt>
      <trkpt lat="42.44937" lon="0.02788">
        <ele>997.1</ele>
        <time>2017-07-31T10:14:04Z</time>
      </trkpt>
      <trkpt lat="42.4494" lon="0.02791">
        <ele>996.9</ele>
        <time>2017-07-31T10:14:05Z</time>
      </trkpt>
      <trkpt lat="42.44944" lon="0.02795">
        <ele>996.8</ele>
        <time>2017-07-31T10:14:06Z</time>
      </trkpt>
      <trkpt lat="42.44947" lon="0.028">
        <ele>996.6</ele>
        <time>2017-07-31T10:14:07Z</time>
      </trkpt>
      <trkpt lat="42.44951" lon="0.02806">
        <ele>996.4</ele>
        <time>2017-07-31T10:14:08Z</time>
      </trkpt>
      <trkpt lat="42.44955" lon="0.02813">
        <ele>996.1</ele>
        <time>2017-07-31T10:14:09Z</time>
      </trkpt>
      <trkpt lat="42.44959" lon="0.02819">
        <ele>995.9</ele>
        <time>2017-07-31T10:14:10Z</time>
      </trkpt>
      <trkpt lat="42.44964" lon="0.02825">
        <ele>995.6</ele>
        <time>2017-07-31T10:14:11Z</time>
      </trkpt>
      <trkpt lat="42.44969" lon="0.02832">
        <ele>995.4</ele>
        <time>2017-07-31T10:14:12Z</time>
      </trkpt>
      <trkpt lat="42.44974" lon="0.02839">
        <ele>994.9</ele>
        <time>2017-07-31T10:14:13Z</time>
      </trkpt>
      <trkpt lat="42.44981" lon="0.02845">
        <ele>994.4</ele>
        <time>2017-07-31T10:14:14Z</time>
      </trkpt>
      <trkpt lat="42.44987" lon="0.02851">
        <ele>993.8</ele>
        <time>2017-07-31T10:14:15Z</time>
      </trkpt>
      <trkpt lat="42.44995" lon="0.02858">
        <ele>993.2</ele>
        <time>2017-07-31T10:14:16Z</time>
      </trkpt>
      <trkpt lat="42.45003" lon="0.02862">
        <ele>992.5</ele>
        <time>2017-07-31T10:14:17Z</time>
      </trkpt>
      <trkpt lat="42.45012" lon="0.02865">
        <ele>991.9</ele>
        <time>2017-07-31T10:14:18Z</time>
      </trkpt>
      <trkpt lat="42.4502" lon="0.0287">
        <ele>991.4</ele>
        <time>2017-07-31T10:14:19Z</time>
      </trkpt>
      <trkpt lat="42.45029" lon="0.02876">
        <ele>990.8</ele>
        <time>2017-07-31T10:14:20Z</time>
      </trkpt>
      <trkpt lat="42.45038" lon="0.02881">
        <ele>990.3</ele>
        <time>2017-07-31T10:14:21Z</time>
      </trkpt>
      <trkpt lat="42.45047" lon="0.02886">
        <ele>989.7</ele>
        <time>2017-07-31T10:14:22Z</time>
      </trkpt>
      <trkpt lat="42.45055" lon="0.0289">
        <ele>989.3</ele>
        <time>2017-07-31T10:14:23Z</time>
      </trkpt>
      <trkpt lat="42.45063" lon="0.02894">
        <ele>988.8</ele>
        <time>2017-07-31T10:14:24Z</time>
      </trkpt>
      <trkpt lat="42.45071" lon="0.02896">
        <ele>988.4</ele>
        <time>2017-07-31T10:14:25Z</time>
      </trkpt>
      <trkpt lat="42.45079" lon="0.02898">
        <ele>988.1</ele>
        <time>2017-07-31T10:14:26Z</time>
      </trkpt>
      <trkpt lat="42.45086" lon="0.02899">
        <ele>987.7</ele>
        <time>2017-07-31T10:14:27Z</time>
      </trkpt>
      <trkpt lat="42.45093" lon="0.02899">
        <ele>987.5</ele>
        <time>2017-07-31T10:14:28Z</time>
      </trkpt>
      <trkpt lat="42.45099" lon="0.02898">
        <ele>987.2</ele>
        <time>2017-07-31T10:14:29Z</time>
      </trkpt>
      <trkpt lat="42.45106" lon="0.02897">
        <ele>987</ele>
        <time>2017-07-31T10:14:30Z</time>
      </trkpt>
      <trkpt lat="42.45112" lon="0.02895">
        <ele>986.8</ele>
        <time>2017-07-31T10:14:31Z</time>
      </trkpt>
      <trkpt lat="42.4512" lon="0.0289">
        <ele>986.6</ele>
        <time>2017-07-31T10:14:32Z</time>
      </trkpt>
      <trkpt lat="42.45126" lon="0.02884">
        <ele>986.4</ele>
        <time>2017-07-31T10:14:33Z</time>
      </trkpt>
      <trkpt lat="42.45132" lon="0.02877">
        <ele>986.1</ele>
        <time>2017-07-31T10:14:34Z</time>
      </trkpt>
      <trkpt lat="42.45137" lon="0.0287">
        <ele>985.8</ele>
        <time>2017-07-31T10:14:35Z</time>
      </trkpt>
      <trkpt lat="42.45142" lon="0.02864">
        <ele>985.6</ele>
        <time>2017-07-31T10:14:36Z</time>
      </trkpt>
      <trkpt lat="42.45146" lon="0.02857">
        <ele>985.4</ele>
        <time>2017-07-31T10:14:37Z</time>
      </trkpt>
      <trkpt lat="42.4515" lon="0.02852">
        <ele>985.3</ele>
        <time>2017-07-31T10:14:38Z</time>
      </trkpt>
      <trkpt lat="42.45153" lon="0.02847">
        <ele>985.3</ele>
        <time>2017-07-31T10:14:39Z</time>
      </trkpt>
      <trkpt lat="42.45157" lon="0.02844">
        <ele>985.2</ele>
        <time>2017-07-31T10:14:40Z</time>
      </trkpt>
      <trkpt lat="42.45161" lon="0.02843">
        <ele>985.2</ele>
        <time>2017-07-31T10:14:41Z</time>
      </trkpt>
      <trkpt lat="42.45165" lon="0.02843">
        <ele>985.2</ele>
        <time>2017-07-31T10:14:42Z</time>
      </trkpt>
      <trkpt lat="42.45169" lon="0.02845">
        <ele>985.3</ele>
        <time>2017-07-31T10:14:43Z</time>
      </trkpt>
      <trkpt lat="42.45174" lon="0.02849">
        <ele>985.3</ele>
        <time>2017-07-31T10:14:44Z</time>
      </trkpt>
      <trkpt lat="42.45178" lon="0.02854">
        <ele>985.3</ele>
        <time>2017-07-31T10:14:45Z</time>
      </trkpt>
      <trkpt lat="42.45181" lon="0.02859">
        <ele>985.3</ele>
        <time>2017-07-31T10:14:46Z</time>
      </trkpt>
      <trkpt lat="42.45184" lon="0.02866">
        <ele>985.2</ele>
        <time>2017-07-31T10:14:47Z</time>
      </trkpt>
      <trkpt lat="42.45185" lon="0.02873">
        <ele>985.2</ele>
        <time>2017-07-31T10:14:48Z</time>
      </trkpt>
      <trkpt lat="42.45186" lon="0.02881">
        <ele>985.1</ele>
        <time>2017-07-31T10:14:49Z</time>
      </trkpt>
      <trkpt lat="42.45188" lon="0.02887">
        <ele>985</ele>
        <time>2017-07-31T10:14:50Z</time>
      </trkpt>
      <trkpt lat="42.4519" lon="0.02894">
        <ele>985</ele>
        <time>2017-07-31T10:14:51Z</time>
      </trkpt>
      <trkpt lat="42.45192" lon="0.02902">
        <ele>985</ele>
        <time>2017-07-31T10:14:52Z</time>
      </trkpt>
      <trkpt lat="42.45194" lon="0.02908">
        <ele>985.2</ele>
        <time>2017-07-31T10:14:53Z</time>
      </trkpt>
      <trkpt lat="42.45195" lon="0.02913">
        <ele>985.2</ele>
        <time>2017-07-31T10:14:54Z</time>
      </trkpt>
      <trkpt lat="42.45197" lon="0.02919">
        <ele>985.3</ele>
        <time>2017-07-31T10:14:55Z</time>
      </trkpt>
      <trkpt lat="42.45197" lon="0.02923">
        <ele>985.4</ele>
        <time>2017-07-31T10:14:56Z</time>
      </trkpt>
      <trkpt lat="42.45198" lon="0.02927">
        <ele>985.5</ele>
        <time>2017-07-31T10:14:57Z</time>
      </trkpt>
      <trkpt lat="42.45198" lon="0.02931">
        <ele>985.5</ele>
        <time>2017-07-31T10:14:58Z</time>
      </trkpt>
      <trkpt lat="42.45199" lon="0.02935">
        <ele>985.7</ele>
        <time>2017-07-31T10:14:59Z</time>
      </trkpt>
      <trkpt lat="42.45201" lon="0.02939">
        <ele>985.9</ele>
        <time>2017-07-31T10:15:00Z</time>
      </trkpt>
      <trkpt lat="42.45204" lon="0.02943">
        <ele>986.4</ele>
        <time>2017-07-31T10:15:01Z</time>
      </trkpt>
      <trkpt lat="42.45207" lon="0.02947">
        <ele>987.2</ele>
        <time>2017-07-31T10:15:02Z</time>
      </trkpt>
      <trkpt lat="42.4521" lon="0.02952">
        <ele>987.6</ele>
        <time>2017-07-31T10:15:03Z</time>
      </trkpt>
      <trkpt lat="42.45215" lon="0.02956">
        <ele>987.9</ele>
        <time>2017-07-31T10:15:04Z</time>
      </trkpt>
      <trkpt lat="42.45219" lon="0.02958">
        <ele>988.1</ele>
        <time>2017-07-31T10:15:05Z</time>
      </trkpt>
      <trkpt lat="42.45223" lon="0.02961">
        <ele>988.3</ele>
        <time>2017-07-31T10:15:06Z</time>
      </trkpt>
      <trkpt lat="42.45227" lon="0.02965">
        <ele>988.5</ele>
        <time>2017-07-31T10:15:07Z</time>
      </trkpt>
      <trkpt lat="42.45231" lon="0.02967">
        <ele>988.6</ele>
        <time>2017-07-31T10:15:08Z</time>
      </trkpt>
      <trkpt lat="42.45236" lon="0.02969">
        <ele>988.7</ele>
        <time>2017-07-31T10:15:09Z</time>
      </trkpt>
      <trkpt lat="42.45239" lon="0.02971">
        <ele>988.8</ele>
        <time>2017-07-31T10:15:10Z</time>
      </trkpt>
      <trkpt lat="42.45242" lon="0.02973">
        <ele>989</ele>
        <time>2017-07-31T10:15:11Z</time>
      </trkpt>
      <trkpt lat="42.45245" lon="0.02974">
        <ele>989.1</ele>
        <time>2017-07-31T10:15:12Z</time>
      </trkpt>
      <trkpt lat="42.45249" lon="0.02976">
        <ele>989.4</ele>
        <time>2017-07-31T10:15:14Z</time>
      </trkpt>
      <trkpt lat="42.45253" lon="0.02979">
        <ele>989.8</ele>
        <time>2017-07-31T10:15:16Z</time>
      </trkpt>
      <trkpt lat="42.45255" lon="0.02981">
        <ele>990.1</ele>
        <time>2017-07-31T10:15:17Z</time>
      </trkpt>
      <trkpt lat="42.45258" lon="0.02984">
        <ele>990.6</ele>
        <time>2017-07-31T10:15:18Z</time>
      </trkpt>
      <trkpt lat="42.45261" lon="0.02986">
        <ele>991.5</ele>
        <time>2017-07-31T10:15:19Z</time>
      </trkpt>
      <trkpt lat="42.45265" lon="0.02988">
        <ele>992.1</ele>
        <time>2017-07-31T10:15:20Z</time>
      </trkpt>
      <trkpt lat="42.45267" lon="0.0299">
        <ele>992.3</ele>
        <time>2017-07-31T10:15:21Z</time>
      </trkpt>
      <trkpt lat="42.4527" lon="0.02991">
        <ele>992.6</ele>
        <time>2017-07-31T10:15:22Z</time>
      </trkpt>
      <trkpt lat="42.45274" lon="0.02994">
        <ele>992.9</ele>
        <time>2017-07-31T10:15:24Z</time>
      </trkpt>
      <trkpt lat="42.45278" lon="0.02996">
        <ele>992.1</ele>
        <time>2017-07-31T10:15:26Z</time>
      </trkpt>
      <trkpt lat="42.45281" lon="0.03001">
        <ele>990.6</ele>
        <time>2017-07-31T10:15:28Z</time>
      </trkpt>
      <trkpt lat="42.45283" lon="0.03003">
        <ele>990</ele>
        <time>2017-07-31T10:15:29Z</time>
      </trkpt>
      <trkpt lat="42.45285" lon="0.03006">
        <ele>989.3</ele>
        <time>2017-07-31T10:15:30Z</time>
      </trkpt>
      <trkpt lat="42.45288" lon="0.0301">
        <ele>988.6</ele>
        <time>2017-07-31T10:15:31Z</time>
      </trkpt>
      <trkpt lat="42.4529" lon="0.03014">
        <ele>988</ele>
        <time>2017-07-31T10:15:32Z</time>
      </trkpt>
      <trkpt lat="42.45292" lon="0.03018">
        <ele>987.5</ele>
        <time>2017-07-31T10:15:33Z</time>
      </trkpt>
      <trkpt lat="42.45294" lon="0.03022">
        <ele>987.1</ele>
        <time>2017-07-31T10:15:34Z</time>
      </trkpt>
      <trkpt lat="42.45296" lon="0.03026">
        <ele>986.9</ele>
        <time>2017-07-31T10:15:35Z</time>
      </trkpt>
      <trkpt lat="42.45299" lon="0.03031">
        <ele>986.6</ele>
        <time>2017-07-31T10:15:36Z</time>
      </trkpt>
      <trkpt lat="42.45301" lon="0.03035">
        <ele>986.1</ele>
        <time>2017-07-31T10:15:37Z</time>
      </trkpt>
      <trkpt lat="42.45302" lon="0.0304">
        <ele>985.6</ele>
        <time>2017-07-31T10:15:38Z</time>
      </trkpt>
      <trkpt lat="42.45303" lon="0.03044">
        <ele>985.1</ele>
        <time>2017-07-31T10:15:39Z</time>
      </trkpt>
      <trkpt lat="42.45304" lon="0.03049">
        <ele>984.6</ele>
        <time>2017-07-31T10:15:40Z</time>
      </trkpt>
      <trkpt lat="42.45304" lon="0.03054">
        <ele>983.9</ele>
        <time>2017-07-31T10:15:41Z</time>
      </trkpt>
      <trkpt lat="42.45305" lon="0.03058">
        <ele>982.9</ele>
        <time>2017-07-31T10:15:42Z</time>
      </trkpt>
      <trkpt lat="42.45305" lon="0.03063">
        <ele>981.9</ele>
        <time>2017-07-31T10:15:43Z</time>
      </trkpt>
      <trkpt lat="42.45305" lon="0.03067">
        <ele>980.9</ele>
        <time>2017-07-31T10:15:44Z</time>
      </trkpt>
      <trkpt lat="42.45305" lon="0.03074">
        <ele>979.5</ele>
        <time>2017-07-31T10:15:46Z</time>
      </trkpt>
      <trkpt lat="42.45305" lon="0.03079">
        <ele>978.4</ele>
        <time>2017-07-31T10:15:48Z</time>
      </trkpt>
      <trkpt lat="42.45306" lon="0.03082">
        <ele>977.5</ele>
        <time>2017-07-31T10:15:51Z</time>
      </trkpt>
      <trkpt lat="42.4531" lon="0.03084">
        <ele>976.2</ele>
        <time>2017-07-31T10:15:54Z</time>
      </trkpt>
      <trkpt lat="42.45313" lon="0.03083">
        <ele>982.8</ele>
        <time>2017-07-31T10:15:56Z</time>
      </trkpt>
      <trkpt lat="42.45316" lon="0.03082">
        <ele>989.5</ele>
        <time>2017-07-31T10:15:58Z</time>
      </trkpt>
      <trkpt lat="42.4532" lon="0.03083">
        <ele>988.9</ele>
        <time>2017-07-31T10:16:00Z</time>
      </trkpt>
      <trkpt lat="42.45323" lon="0.03084">
        <ele>988.5</ele>
        <time>2017-07-31T10:16:02Z</time>
      </trkpt>
      <trkpt lat="42.45326" lon="0.03087">
        <ele>987.9</ele>
        <time>2017-07-31T10:16:04Z</time>
      </trkpt>
      <trkpt lat="42.45328" lon="0.03088">
        <ele>987.4</ele>
        <time>2017-07-31T10:16:06Z</time>
      </trkpt>
      <trkpt lat="42.45331" lon="0.0309">
        <ele>987</ele>
        <time>2017-07-31T10:16:08Z</time>
      </trkpt>
      <trkpt lat="42.45333" lon="0.03092">
        <ele>986.7</ele>
        <time>2017-07-31T10:16:10Z</time>
      </trkpt>
      <trkpt lat="42.45336" lon="0.03095">
        <ele>986.4</ele>
        <time>2017-07-31T10:16:12Z</time>
      </trkpt>
      <trkpt lat="42.45338" lon="0.03099">
        <ele>986.1</ele>
        <time>2017-07-31T10:16:14Z</time>
      </trkpt>
      <trkpt lat="42.4534" lon="0.03103">
        <ele>985.7</ele>
        <time>2017-07-31T10:16:16Z</time>
      </trkpt>
      <trkpt lat="42.45341" lon="0.03106">
        <ele>985.5</ele>
        <time>2017-07-31T10:16:18Z</time>
      </trkpt>
      <trkpt lat="42.45339" lon="0.03103">
        <ele>985.3</ele>
        <time>2017-07-31T10:17:56Z</time>
      </trkpt>
      <trkpt lat="42.45339" lon="0.03111">
        <ele>984.9</ele>
        <time>2017-07-31T10:18:53Z</time>
      </trkpt>
      <trkpt lat="42.45338" lon="0.03117">
        <ele>984.6</ele>
        <time>2017-07-31T10:18:56Z</time>
      </trkpt>
      <trkpt lat="42.45339" lon="0.03122">
        <ele>984.4</ele>
        <time>2017-07-31T10:18:58Z</time>
      </trkpt>
      <trkpt lat="42.4534" lon="0.03129">
        <ele>984</ele>
        <time>2017-07-31T10:19:00Z</time>
      </trkpt>
      <trkpt lat="42.4534" lon="0.03132">
        <ele>983.8</ele>
        <time>2017-07-31T10:19:01Z</time>
      </trkpt>
      <trkpt lat="42.45341" lon="0.03136">
        <ele>983.7</ele>
        <time>2017-07-31T10:19:02Z</time>
      </trkpt>
      <trkpt lat="42.45342" lon="0.03142">
        <ele>983.3</ele>
        <time>2017-07-31T10:19:04Z</time>
      </trkpt>
      <trkpt lat="42.45344" lon="0.03148">
        <ele>982.9</ele>
        <time>2017-07-31T10:19:06Z</time>
      </trkpt>
      <trkpt lat="42.45347" lon="0.03153">
        <ele>982.5</ele>
        <time>2017-07-31T10:19:08Z</time>
      </trkpt>
      <trkpt lat="42.45349" lon="0.0316">
        <ele>982.1</ele>
        <time>2017-07-31T10:19:10Z</time>
      </trkpt>
      <trkpt lat="42.45349" lon="0.03167">
        <ele>981.3</ele>
        <time>2017-07-31T10:19:12Z</time>
      </trkpt>
      <trkpt lat="42.45348" lon="0.03174">
        <ele>979.4</ele>
        <time>2017-07-31T10:19:14Z</time>
      </trkpt>
      <trkpt lat="42.45348" lon="0.03178">
        <ele>978.4</ele>
        <time>2017-07-31T10:19:15Z</time>
      </trkpt>
      <trkpt lat="42.45348" lon="0.03183">
        <ele>978</ele>
        <time>2017-07-31T10:19:17Z</time>
      </trkpt>
      <trkpt lat="42.45351" lon="0.03184">
        <ele>977.6</ele>
        <time>2017-07-31T10:19:20Z</time>
      </trkpt>
      <trkpt lat="42.45355" lon="0.03179">
        <ele>977</ele>
        <time>2017-07-31T10:19:22Z</time>
      </trkpt>
      <trkpt lat="42.45358" lon="0.03174">
        <ele>976.7</ele>
        <time>2017-07-31T10:19:24Z</time>
      </trkpt>
      <trkpt lat="42.45361" lon="0.03172">
        <ele>976.5</ele>
        <time>2017-07-31T10:19:25Z</time>
      </trkpt>
      <trkpt lat="42.45363" lon="0.03169">
        <ele>976.4</ele>
        <time>2017-07-31T10:19:26Z</time>
      </trkpt>
      <trkpt lat="42.45366" lon="0.03167">
        <ele>976.3</ele>
        <time>2017-07-31T10:19:27Z</time>
      </trkpt>
      <trkpt lat="42.45369" lon="0.03164">
        <ele>976</ele>
        <time>2017-07-31T10:19:28Z</time>
      </trkpt>
      <trkpt lat="42.45371" lon="0.03161">
        <ele>975.7</ele>
        <time>2017-07-31T10:19:29Z</time>
      </trkpt>
      <trkpt lat="42.45374" lon="0.03158">
        <ele>975.4</ele>
        <time>2017-07-31T10:19:30Z</time>
      </trkpt>
      <trkpt lat="42.45377" lon="0.03155">
        <ele>975</ele>
        <time>2017-07-31T10:19:31Z</time>
      </trkpt>
      <trkpt lat="42.45379" lon="0.03151">
        <ele>974.7</ele>
        <time>2017-07-31T10:19:32Z</time>
      </trkpt>
      <trkpt lat="42.45382" lon="0.03147">
        <ele>974.4</ele>
        <time>2017-07-31T10:19:33Z</time>
      </trkpt>
      <trkpt lat="42.45385" lon="0.03143">
        <ele>974.2</ele>
        <time>2017-07-31T10:19:34Z</time>
      </trkpt>
      <trkpt lat="42.45389" lon="0.03141">
        <ele>974</ele>
        <time>2017-07-31T10:19:35Z</time>
      </trkpt>
      <trkpt lat="42.45393" lon="0.0314">
        <ele>973.8</ele>
        <time>2017-07-31T10:19:36Z</time>
      </trkpt>
      <trkpt lat="42.45397" lon="0.0314">
        <ele>973.5</ele>
        <time>2017-07-31T10:19:37Z</time>
      </trkpt>
      <trkpt lat="42.45402" lon="0.0314">
        <ele>973.2</ele>
        <time>2017-07-31T10:19:38Z</time>
      </trkpt>
      <trkpt lat="42.45406" lon="0.03138">
        <ele>972.9</ele>
        <time>2017-07-31T10:19:39Z</time>
      </trkpt>
      <trkpt lat="42.4541" lon="0.03136">
        <ele>972.7</ele>
        <time>2017-07-31T10:19:40Z</time>
      </trkpt>
      <trkpt lat="42.45413" lon="0.03133">
        <ele>972.6</ele>
        <time>2017-07-31T10:19:41Z</time>
      </trkpt>
      <trkpt lat="42.45415" lon="0.03129">
        <ele>972.6</ele>
        <time>2017-07-31T10:19:42Z</time>
      </trkpt>
      <trkpt lat="42.45417" lon="0.03124">
        <ele>972.6</ele>
        <time>2017-07-31T10:19:43Z</time>
      </trkpt>
      <trkpt lat="42.45418" lon="0.03118">
        <ele>972.6</ele>
        <time>2017-07-31T10:19:44Z</time>
      </trkpt>
      <trkpt lat="42.45418" lon="0.03113">
        <ele>972.6</ele>
        <time>2017-07-31T10:19:45Z</time>
      </trkpt>
      <trkpt lat="42.45417" lon="0.03108">
        <ele>972.7</ele>
        <time>2017-07-31T10:19:46Z</time>
      </trkpt>
      <trkpt lat="42.45416" lon="0.03104">
        <ele>972.8</ele>
        <time>2017-07-31T10:19:47Z</time>
      </trkpt>
      <trkpt lat="42.45415" lon="0.031">
        <ele>972.9</ele>
        <time>2017-07-31T10:19:48Z</time>
      </trkpt>
      <trkpt lat="42.45413" lon="0.03097">
        <ele>973</ele>
        <time>2017-07-31T10:19:49Z</time>
      </trkpt>
      <trkpt lat="42.45412" lon="0.03094">
        <ele>973.2</ele>
        <time>2017-07-31T10:19:50Z</time>
      </trkpt>
      <trkpt lat="42.4541" lon="0.0309">
        <ele>973.3</ele>
        <time>2017-07-31T10:19:51Z</time>
      </trkpt>
      <trkpt lat="42.45409" lon="0.03087">
        <ele>973.6</ele>
        <time>2017-07-31T10:19:52Z</time>
      </trkpt>
      <trkpt lat="42.45406" lon="0.03081">
        <ele>974.2</ele>
        <time>2017-07-31T10:19:54Z</time>
      </trkpt>
      <trkpt lat="42.45404" lon="0.03075">
        <ele>974.4</ele>
        <time>2017-07-31T10:19:56Z</time>
      </trkpt>
      <trkpt lat="42.45403" lon="0.03071">
        <ele>974.6</ele>
        <time>2017-07-31T10:19:57Z</time>
      </trkpt>
      <trkpt lat="42.45401" lon="0.03068">
        <ele>974.7</ele>
        <time>2017-07-31T10:19:58Z</time>
      </trkpt>
      <trkpt lat="42.454" lon="0.03065">
        <ele>974.7</ele>
        <time>2017-07-31T10:19:59Z</time>
      </trkpt>
      <trkpt lat="42.45398" lon="0.03061">
        <ele>974.8</ele>
        <time>2017-07-31T10:20:00Z</time>
      </trkpt>
      <trkpt lat="42.45397" lon="0.03058">
        <ele>974.8</ele>
        <time>2017-07-31T10:20:01Z</time>
      </trkpt>
      <trkpt lat="42.45394" lon="0.03052">
        <ele>974.9</ele>
        <time>2017-07-31T10:20:03Z</time>
      </trkpt>
      <trkpt lat="42.45393" lon="0.03049">
        <ele>974.9</ele>
        <time>2017-07-31T10:20:04Z</time>
      </trkpt>
      <trkpt lat="42.45391" lon="0.03046">
        <ele>974.9</ele>
        <time>2017-07-31T10:20:05Z</time>
      </trkpt>
      <trkpt lat="42.45389" lon="0.03043">
        <ele>974.9</ele>
        <time>2017-07-31T10:20:06Z</time>
      </trkpt>
      <trkpt lat="42.45386" lon="0.03037">
        <ele>974.9</ele>
        <time>2017-07-31T10:20:08Z</time>
      </trkpt>
      <trkpt lat="42.45384" lon="0.03034">
        <ele>974.9</ele>
        <time>2017-07-31T10:20:09Z</time>
      </trkpt>
      <trkpt lat="42.45383" lon="0.0303">
        <ele>974.9</ele>
        <time>2017-07-31T10:20:10Z</time>
      </trkpt>
      <trkpt lat="42.45381" lon="0.03027">
        <ele>974.9</ele>
        <time>2017-07-31T10:20:11Z</time>
      </trkpt>
      <trkpt lat="42.45379" lon="0.03022">
        <ele>974.9</ele>
        <time>2017-07-31T10:20:12Z</time>
      </trkpt>
      <trkpt lat="42.45377" lon="0.03018">
        <ele>975</ele>
        <time>2017-07-31T10:20:13Z</time>
      </trkpt>
      <trkpt lat="42.45375" lon="0.03013">
        <ele>975</ele>
        <time>2017-07-31T10:20:14Z</time>
      </trkpt>
      <trkpt lat="42.45373" lon="0.03009">
        <ele>975</ele>
        <time>2017-07-31T10:20:15Z</time>
      </trkpt>
      <trkpt lat="42.45371" lon="0.03005">
        <ele>975</ele>
        <time>2017-07-31T10:20:16Z</time>
      </trkpt>
      <trkpt lat="42.45369" lon="0.03">
        <ele>975</ele>
        <time>2017-07-31T10:20:17Z</time>
      </trkpt>
      <trkpt lat="42.45367" lon="0.02995">
        <ele>975</ele>
        <time>2017-07-31T10:20:18Z</time>
      </trkpt>
      <trkpt lat="42.45365" lon="0.0299">
        <ele>975</ele>
        <time>2017-07-31T10:20:19Z</time>
      </trkpt>
      <trkpt lat="42.45363" lon="0.02985">
        <ele>975</ele>
        <time>2017-07-31T10:20:20Z</time>
      </trkpt>
      <trkpt lat="42.45361" lon="0.0298">
        <ele>974.8</ele>
        <time>2017-07-31T10:20:21Z</time>
      </trkpt>
      <trkpt lat="42.4536" lon="0.02975">
        <ele>974.7</ele>
        <time>2017-07-31T10:20:22Z</time>
      </trkpt>
      <trkpt lat="42.45359" lon="0.0297">
        <ele>974.6</ele>
        <time>2017-07-31T10:20:23Z</time>
      </trkpt>
      <trkpt lat="42.45358" lon="0.02963">
        <ele>974.4</ele>
        <time>2017-07-31T10:20:25Z</time>
      </trkpt>
      <trkpt lat="42.45359" lon="0.0296">
        <ele>974.1</ele>
        <time>2017-07-31T10:20:26Z</time>
      </trkpt>
      <trkpt lat="42.4536" lon="0.02956">
        <ele>973.9</ele>
        <time>2017-07-31T10:20:27Z</time>
      </trkpt>
      <trkpt lat="42.45362" lon="0.02952">
        <ele>973.6</ele>
        <time>2017-07-31T10:20:28Z</time>
      </trkpt>
      <trkpt lat="42.45364" lon="0.02949">
        <ele>973.4</ele>
        <time>2017-07-31T10:20:29Z</time>
      </trkpt>
      <trkpt lat="42.45366" lon="0.02946">
        <ele>973.2</ele>
        <time>2017-07-31T10:20:30Z</time>
      </trkpt>
      <trkpt lat="42.45367" lon="0.02941">
        <ele>973.1</ele>
        <time>2017-07-31T10:20:31Z</time>
      </trkpt>
      <trkpt lat="42.45368" lon="0.02937">
        <ele>973</ele>
        <time>2017-07-31T10:20:32Z</time>
      </trkpt>
      <trkpt lat="42.45368" lon="0.02933">
        <ele>973</ele>
        <time>2017-07-31T10:20:33Z</time>
      </trkpt>
      <trkpt lat="42.45368" lon="0.02929">
        <ele>973</ele>
        <time>2017-07-31T10:20:34Z</time>
      </trkpt>
      <trkpt lat="42.45368" lon="0.02925">
        <ele>972.9</ele>
        <time>2017-07-31T10:20:35Z</time>
      </trkpt>
      <trkpt lat="42.45368" lon="0.0292">
        <ele>972.9</ele>
        <time>2017-07-31T10:20:36Z</time>
      </trkpt>
      <trkpt lat="42.45369" lon="0.02916">
        <ele>972.9</ele>
        <time>2017-07-31T10:20:37Z</time>
      </trkpt>
      <trkpt lat="42.4537" lon="0.02911">
        <ele>972.9</ele>
        <time>2017-07-31T10:20:38Z</time>
      </trkpt>
      <trkpt lat="42.45371" lon="0.02907">
        <ele>972.9</ele>
        <time>2017-07-31T10:20:39Z</time>
      </trkpt>
      <trkpt lat="42.45372" lon="0.02903">
        <ele>973</ele>
        <time>2017-07-31T10:20:40Z</time>
      </trkpt>
      <trkpt lat="42.45372" lon="0.02898">
        <ele>973</ele>
        <time>2017-07-31T10:20:41Z</time>
      </trkpt>
      <trkpt lat="42.45373" lon="0.02894">
        <ele>973</ele>
        <time>2017-07-31T10:20:42Z</time>
      </trkpt>
      <trkpt lat="42.45374" lon="0.02889">
        <ele>973.1</ele>
        <time>2017-07-31T10:20:43Z</time>
      </trkpt>
      <trkpt lat="42.45375" lon="0.02885">
        <ele>973.2</ele>
        <time>2017-07-31T10:20:44Z</time>
      </trkpt>
      <trkpt lat="42.45375" lon="0.02881">
        <ele>973.3</ele>
        <time>2017-07-31T10:20:45Z</time>
      </trkpt>
      <trkpt lat="42.45376" lon="0.02877">
        <ele>973.4</ele>
        <time>2017-07-31T10:20:46Z</time>
      </trkpt>
      <trkpt lat="42.45377" lon="0.02874">
        <ele>973.7</ele>
        <time>2017-07-31T10:20:47Z</time>
      </trkpt>
      <trkpt lat="42.45377" lon="0.0287">
        <ele>974.2</ele>
        <time>2017-07-31T10:20:48Z</time>
      </trkpt>
      <trkpt lat="42.45379" lon="0.02863">
        <ele>975</ele>
        <time>2017-07-31T10:20:50Z</time>
      </trkpt>
      <trkpt lat="42.4538" lon="0.02857">
        <ele>975.3</ele>
        <time>2017-07-31T10:20:52Z</time>
      </trkpt>
      <trkpt lat="42.45382" lon="0.02851">
        <ele>975.6</ele>
        <time>2017-07-31T10:20:54Z</time>
      </trkpt>
      <trkpt lat="42.45384" lon="0.02845">
        <ele>976.7</ele>
        <time>2017-07-31T10:20:56Z</time>
      </trkpt>
      <trkpt lat="42.45386" lon="0.02841">
        <ele>977.2</ele>
        <time>2017-07-31T10:20:58Z</time>
      </trkpt>
      <trkpt lat="42.4539" lon="0.02838">
        <ele>977.5</ele>
        <time>2017-07-31T10:21:00Z</time>
      </trkpt>
      <trkpt lat="42.45394" lon="0.02836">
        <ele>977.9</ele>
        <time>2017-07-31T10:21:02Z</time>
      </trkpt>
      <trkpt lat="42.45397" lon="0.02836">
        <ele>978.5</ele>
        <time>2017-07-31T10:21:04Z</time>
      </trkpt>
      <trkpt lat="42.45401" lon="0.02838">
        <ele>978.9</ele>
        <time>2017-07-31T10:21:06Z</time>
      </trkpt>
      <trkpt lat="42.45404" lon="0.0284">
        <ele>979.1</ele>
        <time>2017-07-31T10:21:08Z</time>
      </trkpt>
      <trkpt lat="42.45407" lon="0.02842">
        <ele>979.2</ele>
        <time>2017-07-31T10:21:10Z</time>
      </trkpt>
      <trkpt lat="42.4541" lon="0.02845">
        <ele>979.3</ele>
        <time>2017-07-31T10:21:12Z</time>
      </trkpt>
      <trkpt lat="42.45414" lon="0.02848">
        <ele>979.4</ele>
        <time>2017-07-31T10:21:14Z</time>
      </trkpt>
      <trkpt lat="42.45419" lon="0.02851">
        <ele>979.4</ele>
        <time>2017-07-31T10:21:16Z</time>
      </trkpt>
      <trkpt lat="42.45423" lon="0.02853">
        <ele>979.5</ele>
        <time>2017-07-31T10:21:18Z</time>
      </trkpt>
      <trkpt lat="42.45428" lon="0.02853">
        <ele>979.6</ele>
        <time>2017-07-31T10:21:20Z</time>
      </trkpt>
      <trkpt lat="42.45432" lon="0.02853">
        <ele>979.7</ele>
        <time>2017-07-31T10:21:22Z</time>
      </trkpt>
      <trkpt lat="42.45438" lon="0.02854">
        <ele>979.8</ele>
        <time>2017-07-31T10:21:24Z</time>
      </trkpt>
      <trkpt lat="42.45441" lon="0.02854">
        <ele>979.9</ele>
        <time>2017-07-31T10:21:25Z</time>
      </trkpt>
      <trkpt lat="42.45444" lon="0.02855">
        <ele>980</ele>
        <time>2017-07-31T10:21:26Z</time>
      </trkpt>
      <trkpt lat="42.45447" lon="0.02856">
        <ele>980</ele>
        <time>2017-07-31T10:21:27Z</time>
      </trkpt>
      <trkpt lat="42.45451" lon="0.02858">
        <ele>980.1</ele>
        <time>2017-07-31T10:21:28Z</time>
      </trkpt>
      <trkpt lat="42.45454" lon="0.02859">
        <ele>980.3</ele>
        <time>2017-07-31T10:21:29Z</time>
      </trkpt>
      <trkpt lat="42.45457" lon="0.0286">
        <ele>980.4</ele>
        <time>2017-07-31T10:21:30Z</time>
      </trkpt>
      <trkpt lat="42.4546" lon="0.0286">
        <ele>980.7</ele>
        <time>2017-07-31T10:21:31Z</time>
      </trkpt>
      <trkpt lat="42.45463" lon="0.0286">
        <ele>981</ele>
        <time>2017-07-31T10:21:32Z</time>
      </trkpt>
      <trkpt lat="42.45465" lon="0.02859">
        <ele>981.1</ele>
        <time>2017-07-31T10:21:33Z</time>
      </trkpt>
      <trkpt lat="42.45468" lon="0.02859">
        <ele>981.2</ele>
        <time>2017-07-31T10:21:34Z</time>
      </trkpt>
      <trkpt lat="42.45471" lon="0.02858">
        <ele>981.2</ele>
        <time>2017-07-31T10:21:35Z</time>
      </trkpt>
      <trkpt lat="42.45474" lon="0.02858">
        <ele>981.2</ele>
        <time>2017-07-31T10:21:36Z</time>
      </trkpt>
      <trkpt lat="42.45477" lon="0.02857">
        <ele>981.2</ele>
        <time>2017-07-31T10:21:37Z</time>
      </trkpt>
      <trkpt lat="42.4548" lon="0.02857">
        <ele>981.2</ele>
        <time>2017-07-31T10:21:38Z</time>
      </trkpt>
      <trkpt lat="42.45484" lon="0.02857">
        <ele>981.2</ele>
        <time>2017-07-31T10:21:39Z</time>
      </trkpt>
      <trkpt lat="42.45488" lon="0.02857">
        <ele>981.2</ele>
        <time>2017-07-31T10:21:40Z</time>
      </trkpt>
      <trkpt lat="42.45492" lon="0.02856">
        <ele>981.1</ele>
        <time>2017-07-31T10:21:41Z</time>
      </trkpt>
      <trkpt lat="42.45496" lon="0.02855">
        <ele>980.9</ele>
        <time>2017-07-31T10:21:42Z</time>
      </trkpt>
      <trkpt lat="42.45501" lon="0.02854">
        <ele>980.6</ele>
        <time>2017-07-31T10:21:43Z</time>
      </trkpt>
      <trkpt lat="42.45506" lon="0.02854">
        <ele>980.3</ele>
        <time>2017-07-31T10:21:44Z</time>
      </trkpt>
      <trkpt lat="42.45511" lon="0.02853">
        <ele>979.8</ele>
        <time>2017-07-31T10:21:45Z</time>
      </trkpt>
      <trkpt lat="42.45516" lon="0.02853">
        <ele>979.5</ele>
        <time>2017-07-31T10:21:46Z</time>
      </trkpt>
      <trkpt lat="42.45519" lon="0.02854">
        <ele>979.3</ele>
        <time>2017-07-31T10:21:47Z</time>
      </trkpt>
      <trkpt lat="42.45522" lon="0.02855">
        <ele>979.1</ele>
        <time>2017-07-31T10:21:48Z</time>
      </trkpt>
      <trkpt lat="42.45526" lon="0.0286">
        <ele>978.5</ele>
        <time>2017-07-31T10:21:50Z</time>
      </trkpt>
      <trkpt lat="42.45528" lon="0.02864">
        <ele>978.1</ele>
        <time>2017-07-31T10:21:51Z</time>
      </trkpt>
      <trkpt lat="42.45529" lon="0.0287">
        <ele>977.5</ele>
        <time>2017-07-31T10:21:52Z</time>
      </trkpt>
      <trkpt lat="42.4553" lon="0.02875">
        <ele>976.9</ele>
        <time>2017-07-31T10:21:53Z</time>
      </trkpt>
      <trkpt lat="42.45531" lon="0.02881">
        <ele>976.2</ele>
        <time>2017-07-31T10:21:54Z</time>
      </trkpt>
      <trkpt lat="42.45533" lon="0.02886">
        <ele>975.5</ele>
        <time>2017-07-31T10:21:55Z</time>
      </trkpt>
      <trkpt lat="42.45534" lon="0.02891">
        <ele>974.7</ele>
        <time>2017-07-31T10:21:56Z</time>
      </trkpt>
      <trkpt lat="42.45536" lon="0.02895">
        <ele>974</ele>
        <time>2017-07-31T10:21:57Z</time>
      </trkpt>
      <trkpt lat="42.45538" lon="0.02898">
        <ele>973.5</ele>
        <time>2017-07-31T10:21:58Z</time>
      </trkpt>
      <trkpt lat="42.4554" lon="0.029">
        <ele>973.1</ele>
        <time>2017-07-31T10:21:59Z</time>
      </trkpt>
      <trkpt lat="42.45545" lon="0.02904">
        <ele>972.6</ele>
        <time>2017-07-31T10:22:01Z</time>
      </trkpt>
      <trkpt lat="42.45547" lon="0.02906">
        <ele>972.3</ele>
        <time>2017-07-31T10:22:02Z</time>
      </trkpt>
      <trkpt lat="42.45551" lon="0.02908">
        <ele>971.8</ele>
        <time>2017-07-31T10:22:03Z</time>
      </trkpt>
      <trkpt lat="42.45554" lon="0.0291">
        <ele>971.3</ele>
        <time>2017-07-31T10:22:04Z</time>
      </trkpt>
      <trkpt lat="42.45558" lon="0.02912">
        <ele>970.8</ele>
        <time>2017-07-31T10:22:05Z</time>
      </trkpt>
      <trkpt lat="42.45561" lon="0.02914">
        <ele>970.3</ele>
        <time>2017-07-31T10:22:06Z</time>
      </trkpt>
      <trkpt lat="42.45565" lon="0.02917">
        <ele>969.8</ele>
        <time>2017-07-31T10:22:07Z</time>
      </trkpt>
      <trkpt lat="42.45568" lon="0.02919">
        <ele>969.3</ele>
        <time>2017-07-31T10:22:08Z</time>
      </trkpt>
      <trkpt lat="42.45571" lon="0.02922">
        <ele>968.9</ele>
        <time>2017-07-31T10:22:09Z</time>
      </trkpt>
      <trkpt lat="42.45574" lon="0.02925">
        <ele>968.5</ele>
        <time>2017-07-31T10:22:10Z</time>
      </trkpt>
      <trkpt lat="42.45578" lon="0.02929">
        <ele>968</ele>
        <time>2017-07-31T10:22:11Z</time>
      </trkpt>
      <trkpt lat="42.45581" lon="0.02932">
        <ele>967.5</ele>
        <time>2017-07-31T10:22:12Z</time>
      </trkpt>
      <trkpt lat="42.45584" lon="0.02936">
        <ele>967.1</ele>
        <time>2017-07-31T10:22:13Z</time>
      </trkpt>
      <trkpt lat="42.45588" lon="0.02939">
        <ele>966.8</ele>
        <time>2017-07-31T10:22:14Z</time>
      </trkpt>
      <trkpt lat="42.4559" lon="0.02941">
        <ele>966.4</ele>
        <time>2017-07-31T10:22:15Z</time>
      </trkpt>
      <trkpt lat="42.45593" lon="0.02943">
        <ele>966</ele>
        <time>2017-07-31T10:22:16Z</time>
      </trkpt>
      <trkpt lat="42.45596" lon="0.02946">
        <ele>965.6</ele>
        <time>2017-07-31T10:22:17Z</time>
      </trkpt>
      <trkpt lat="42.45599" lon="0.0295">
        <ele>965.1</ele>
        <time>2017-07-31T10:22:18Z</time>
      </trkpt>
      <trkpt lat="42.45603" lon="0.02953">
        <ele>964.7</ele>
        <time>2017-07-31T10:22:19Z</time>
      </trkpt>
      <trkpt lat="42.45607" lon="0.02956">
        <ele>964.3</ele>
        <time>2017-07-31T10:22:20Z</time>
      </trkpt>
      <trkpt lat="42.45611" lon="0.02958">
        <ele>963.9</ele>
        <time>2017-07-31T10:22:21Z</time>
      </trkpt>
      <trkpt lat="42.45615" lon="0.0296">
        <ele>963.7</ele>
        <time>2017-07-31T10:22:22Z</time>
      </trkpt>
      <trkpt lat="42.4562" lon="0.02962">
        <ele>963.5</ele>
        <time>2017-07-31T10:22:23Z</time>
      </trkpt>
      <trkpt lat="42.45624" lon="0.02963">
        <ele>963.4</ele>
        <time>2017-07-31T10:22:24Z</time>
      </trkpt>
      <trkpt lat="42.45629" lon="0.02964">
        <ele>963.2</ele>
        <time>2017-07-31T10:22:25Z</time>
      </trkpt>
      <trkpt lat="42.45633" lon="0.02965">
        <ele>963</ele>
        <time>2017-07-31T10:22:26Z</time>
      </trkpt>
      <trkpt lat="42.45636" lon="0.02965">
        <ele>962.7</ele>
        <time>2017-07-31T10:22:27Z</time>
      </trkpt>
      <trkpt lat="42.45639" lon="0.02966">
        <ele>962.3</ele>
        <time>2017-07-31T10:22:28Z</time>
      </trkpt>
      <trkpt lat="42.45644" lon="0.02969">
        <ele>961.5</ele>
        <time>2017-07-31T10:22:30Z</time>
      </trkpt>
      <trkpt lat="42.45648" lon="0.02974">
        <ele>961</ele>
        <time>2017-07-31T10:22:32Z</time>
      </trkpt>
      <trkpt lat="42.4565" lon="0.02977">
        <ele>960.5</ele>
        <time>2017-07-31T10:22:33Z</time>
      </trkpt>
      <trkpt lat="42.45655" lon="0.02978">
        <ele>959.7</ele>
        <time>2017-07-31T10:22:35Z</time>
      </trkpt>
      <trkpt lat="42.45659" lon="0.02975">
        <ele>959</ele>
        <time>2017-07-31T10:22:37Z</time>
      </trkpt>
      <trkpt lat="42.45661" lon="0.02968">
        <ele>958.1</ele>
        <time>2017-07-31T10:22:39Z</time>
      </trkpt>
      <trkpt lat="42.45662" lon="0.02963">
        <ele>957.4</ele>
        <time>2017-07-31T10:22:40Z</time>
      </trkpt>
      <trkpt lat="42.45663" lon="0.02956">
        <ele>956.9</ele>
        <time>2017-07-31T10:22:41Z</time>
      </trkpt>
      <trkpt lat="42.45664" lon="0.02951">
        <ele>956.5</ele>
        <time>2017-07-31T10:22:42Z</time>
      </trkpt>
      <trkpt lat="42.45665" lon="0.02948">
        <ele>956.2</ele>
        <time>2017-07-31T10:22:43Z</time>
      </trkpt>
      <trkpt lat="42.4567" lon="0.02946">
        <ele>955.6</ele>
        <time>2017-07-31T10:22:45Z</time>
      </trkpt>
      <trkpt lat="42.45673" lon="0.02949">
        <ele>955.2</ele>
        <time>2017-07-31T10:22:46Z</time>
      </trkpt>
      <trkpt lat="42.45675" lon="0.02955">
        <ele>954.4</ele>
        <time>2017-07-31T10:22:47Z</time>
      </trkpt>
      <trkpt lat="42.45677" lon="0.02962">
        <ele>953.5</ele>
        <time>2017-07-31T10:22:48Z</time>
      </trkpt>
      <trkpt lat="42.45678" lon="0.02969">
        <ele>952.7</ele>
        <time>2017-07-31T10:22:49Z</time>
      </trkpt>
      <trkpt lat="42.45679" lon="0.02974">
        <ele>952</ele>
        <time>2017-07-31T10:22:50Z</time>
      </trkpt>
      <trkpt lat="42.4568" lon="0.02979">
        <ele>951.3</ele>
        <time>2017-07-31T10:22:51Z</time>
      </trkpt>
      <trkpt lat="42.45681" lon="0.02985">
        <ele>950.6</ele>
        <time>2017-07-31T10:22:52Z</time>
      </trkpt>
      <trkpt lat="42.45682" lon="0.0299">
        <ele>949.9</ele>
        <time>2017-07-31T10:22:53Z</time>
      </trkpt>
      <trkpt lat="42.45684" lon="0.02995">
        <ele>949.1</ele>
        <time>2017-07-31T10:22:54Z</time>
      </trkpt>
      <trkpt lat="42.45685" lon="0.03">
        <ele>948.3</ele>
        <time>2017-07-31T10:22:55Z</time>
      </trkpt>
      <trkpt lat="42.45686" lon="0.03003">
        <ele>947.7</ele>
        <time>2017-07-31T10:22:56Z</time>
      </trkpt>
      <trkpt lat="42.45688" lon="0.03009">
        <ele>946.7</ele>
        <time>2017-07-31T10:22:58Z</time>
      </trkpt>
      <trkpt lat="42.45689" lon="0.03013">
        <ele>946.1</ele>
        <time>2017-07-31T10:22:59Z</time>
      </trkpt>
      <trkpt lat="42.4569" lon="0.03017">
        <ele>945.4</ele>
        <time>2017-07-31T10:23:00Z</time>
      </trkpt>
      <trkpt lat="42.45691" lon="0.03021">
        <ele>944.9</ele>
        <time>2017-07-31T10:23:01Z</time>
      </trkpt>
      <trkpt lat="42.45693" lon="0.03024">
        <ele>944.3</ele>
        <time>2017-07-31T10:23:02Z</time>
      </trkpt>
      <trkpt lat="42.45694" lon="0.03028">
        <ele>943.7</ele>
        <time>2017-07-31T10:23:03Z</time>
      </trkpt>
      <trkpt lat="42.45696" lon="0.03032">
        <ele>943</ele>
        <time>2017-07-31T10:23:04Z</time>
      </trkpt>
      <trkpt lat="42.45697" lon="0.03037">
        <ele>942.2</ele>
        <time>2017-07-31T10:23:05Z</time>
      </trkpt>
      <trkpt lat="42.45698" lon="0.03042">
        <ele>941.4</ele>
        <time>2017-07-31T10:23:06Z</time>
      </trkpt>
      <trkpt lat="42.45698" lon="0.03048">
        <ele>940.6</ele>
        <time>2017-07-31T10:23:07Z</time>
      </trkpt>
      <trkpt lat="42.45697" lon="0.03053">
        <ele>939.9</ele>
        <time>2017-07-31T10:23:08Z</time>
      </trkpt>
      <trkpt lat="42.45697" lon="0.03059">
        <ele>939.4</ele>
        <time>2017-07-31T10:23:09Z</time>
      </trkpt>
      <trkpt lat="42.45695" lon="0.03064">
        <ele>938.9</ele>
        <time>2017-07-31T10:23:10Z</time>
      </trkpt>
      <trkpt lat="42.45693" lon="0.03069">
        <ele>938.4</ele>
        <time>2017-07-31T10:23:11Z</time>
      </trkpt>
      <trkpt lat="42.45691" lon="0.03074">
        <ele>937.9</ele>
        <time>2017-07-31T10:23:12Z</time>
      </trkpt>
      <trkpt lat="42.45688" lon="0.03079">
        <ele>937.5</ele>
        <time>2017-07-31T10:23:13Z</time>
      </trkpt>
      <trkpt lat="42.45685" lon="0.03082">
        <ele>937.2</ele>
        <time>2017-07-31T10:23:14Z</time>
      </trkpt>
      <trkpt lat="42.45681" lon="0.03084">
        <ele>936.9</ele>
        <time>2017-07-31T10:23:15Z</time>
      </trkpt>
      <trkpt lat="42.45678" lon="0.03084">
        <ele>936.6</ele>
        <time>2017-07-31T10:23:16Z</time>
      </trkpt>
      <trkpt lat="42.45675" lon="0.03084">
        <ele>936.4</ele>
        <time>2017-07-31T10:23:17Z</time>
      </trkpt>
      <trkpt lat="42.45671" lon="0.03078">
        <ele>935.9</ele>
        <time>2017-07-31T10:23:36Z</time>
      </trkpt>
      <trkpt lat="42.45667" lon="0.03077">
        <ele>935.6</ele>
        <time>2017-07-31T10:23:39Z</time>
      </trkpt>
      <trkpt lat="42.45663" lon="0.03078">
        <ele>935.2</ele>
        <time>2017-07-31T10:23:41Z</time>
      </trkpt>
      <trkpt lat="42.4566" lon="0.03081">
        <ele>934.9</ele>
        <time>2017-07-31T10:23:43Z</time>
      </trkpt>
      <trkpt lat="42.4566" lon="0.03086">
        <ele>934.7</ele>
        <time>2017-07-31T10:23:45Z</time>
      </trkpt>
      <trkpt lat="42.45661" lon="0.0309">
        <ele>934.4</ele>
        <time>2017-07-31T10:23:47Z</time>
      </trkpt>
      <trkpt lat="42.45663" lon="0.03095">
        <ele>934</ele>
        <time>2017-07-31T10:23:49Z</time>
      </trkpt>
      <trkpt lat="42.45667" lon="0.031">
        <ele>933.6</ele>
        <time>2017-07-31T10:23:51Z</time>
      </trkpt>
      <trkpt lat="42.4567" lon="0.03102">
        <ele>933.3</ele>
        <time>2017-07-31T10:23:52Z</time>
      </trkpt>
      <trkpt lat="42.45672" lon="0.03105">
        <ele>933</ele>
        <time>2017-07-31T10:23:53Z</time>
      </trkpt>
      <trkpt lat="42.45674" lon="0.03108">
        <ele>932.8</ele>
        <time>2017-07-31T10:23:54Z</time>
      </trkpt>
      <trkpt lat="42.45676" lon="0.03111">
        <ele>932.6</ele>
        <time>2017-07-31T10:23:55Z</time>
      </trkpt>
      <trkpt lat="42.45679" lon="0.03114">
        <ele>932.3</ele>
        <time>2017-07-31T10:23:56Z</time>
      </trkpt>
      <trkpt lat="42.45681" lon="0.03117">
        <ele>932</ele>
        <time>2017-07-31T10:23:57Z</time>
      </trkpt>
      <trkpt lat="42.45684" lon="0.03121">
        <ele>931.6</ele>
        <time>2017-07-31T10:23:58Z</time>
      </trkpt>
      <trkpt lat="42.45686" lon="0.03125">
        <ele>931.1</ele>
        <time>2017-07-31T10:23:59Z</time>
      </trkpt>
      <trkpt lat="42.45689" lon="0.0313">
        <ele>930.7</ele>
        <time>2017-07-31T10:24:00Z</time>
      </trkpt>
      <trkpt lat="42.45692" lon="0.03134">
        <ele>930.4</ele>
        <time>2017-07-31T10:24:01Z</time>
      </trkpt>
      <trkpt lat="42.45694" lon="0.03138">
        <ele>930</ele>
        <time>2017-07-31T10:24:02Z</time>
      </trkpt>
      <trkpt lat="42.45697" lon="0.03141">
        <ele>929.6</ele>
        <time>2017-07-31T10:24:03Z</time>
      </trkpt>
      <trkpt lat="42.457" lon="0.03144">
        <ele>929.2</ele>
        <time>2017-07-31T10:24:04Z</time>
      </trkpt>
      <trkpt lat="42.45703" lon="0.03146">
        <ele>928.8</ele>
        <time>2017-07-31T10:24:05Z</time>
      </trkpt>
      <trkpt lat="42.45706" lon="0.03149">
        <ele>928.3</ele>
        <time>2017-07-31T10:24:06Z</time>
      </trkpt>
      <trkpt lat="42.45708" lon="0.03153">
        <ele>927.8</ele>
        <time>2017-07-31T10:24:07Z</time>
      </trkpt>
      <trkpt lat="42.4571" lon="0.03157">
        <ele>927.2</ele>
        <time>2017-07-31T10:24:08Z</time>
      </trkpt>
      <trkpt lat="42.45712" lon="0.03161">
        <ele>926.7</ele>
        <time>2017-07-31T10:24:09Z</time>
      </trkpt>
      <trkpt lat="42.45714" lon="0.03166">
        <ele>926.2</ele>
        <time>2017-07-31T10:24:10Z</time>
      </trkpt>
      <trkpt lat="42.45715" lon="0.03169">
        <ele>925.7</ele>
        <time>2017-07-31T10:24:11Z</time>
      </trkpt>
      <trkpt lat="42.45716" lon="0.03173">
        <ele>925.2</ele>
        <time>2017-07-31T10:24:12Z</time>
      </trkpt>
      <trkpt lat="42.45718" lon="0.03177">
        <ele>924.7</ele>
        <time>2017-07-31T10:24:13Z</time>
      </trkpt>
      <trkpt lat="42.4572" lon="0.03181">
        <ele>924</ele>
        <time>2017-07-31T10:24:14Z</time>
      </trkpt>
      <trkpt lat="42.45723" lon="0.03185">
        <ele>923.4</ele>
        <time>2017-07-31T10:24:15Z</time>
      </trkpt>
      <trkpt lat="42.45725" lon="0.03189">
        <ele>922.8</ele>
        <time>2017-07-31T10:24:16Z</time>
      </trkpt>
      <trkpt lat="42.45728" lon="0.03193">
        <ele>922.3</ele>
        <time>2017-07-31T10:24:17Z</time>
      </trkpt>
      <trkpt lat="42.45729" lon="0.03197">
        <ele>921.9</ele>
        <time>2017-07-31T10:24:18Z</time>
      </trkpt>
      <trkpt lat="42.45731" lon="0.03201">
        <ele>921.4</ele>
        <time>2017-07-31T10:24:19Z</time>
      </trkpt>
      <trkpt lat="42.45732" lon="0.03206">
        <ele>920.9</ele>
        <time>2017-07-31T10:24:20Z</time>
      </trkpt>
      <trkpt lat="42.45733" lon="0.0321">
        <ele>920.6</ele>
        <time>2017-07-31T10:24:21Z</time>
      </trkpt>
      <trkpt lat="42.45734" lon="0.03215">
        <ele>920.3</ele>
        <time>2017-07-31T10:24:22Z</time>
      </trkpt>
      <trkpt lat="42.45736" lon="0.03219">
        <ele>920.1</ele>
        <time>2017-07-31T10:24:23Z</time>
      </trkpt>
      <trkpt lat="42.45738" lon="0.03222">
        <ele>919.9</ele>
        <time>2017-07-31T10:24:24Z</time>
      </trkpt>
      <trkpt lat="42.4574" lon="0.03225">
        <ele>919.7</ele>
        <time>2017-07-31T10:24:25Z</time>
      </trkpt>
      <trkpt lat="42.45744" lon="0.03227">
        <ele>919.4</ele>
        <time>2017-07-31T10:24:26Z</time>
      </trkpt>
      <trkpt lat="42.45749" lon="0.0323">
        <ele>918.9</ele>
        <time>2017-07-31T10:24:27Z</time>
      </trkpt>
      <trkpt lat="42.45754" lon="0.03235">
        <ele>918.4</ele>
        <time>2017-07-31T10:24:28Z</time>
      </trkpt>
      <trkpt lat="42.45758" lon="0.0324">
        <ele>917.7</ele>
        <time>2017-07-31T10:24:29Z</time>
      </trkpt>
      <trkpt lat="42.45763" lon="0.03246">
        <ele>917</ele>
        <time>2017-07-31T10:24:30Z</time>
      </trkpt>
      <trkpt lat="42.45767" lon="0.03252">
        <ele>916.2</ele>
        <time>2017-07-31T10:24:31Z</time>
      </trkpt>
      <trkpt lat="42.4577" lon="0.03258">
        <ele>915.4</ele>
        <time>2017-07-31T10:24:32Z</time>
      </trkpt>
      <trkpt lat="42.45774" lon="0.03263">
        <ele>914.7</ele>
        <time>2017-07-31T10:24:33Z</time>
      </trkpt>
      <trkpt lat="42.45777" lon="0.03268">
        <ele>913.9</ele>
        <time>2017-07-31T10:24:34Z</time>
      </trkpt>
      <trkpt lat="42.4578" lon="0.03273">
        <ele>913.1</ele>
        <time>2017-07-31T10:24:35Z</time>
      </trkpt>
      <trkpt lat="42.45782" lon="0.03276">
        <ele>912.6</ele>
        <time>2017-07-31T10:24:36Z</time>
      </trkpt>
      <trkpt lat="42.45785" lon="0.03279">
        <ele>912</ele>
        <time>2017-07-31T10:24:37Z</time>
      </trkpt>
      <trkpt lat="42.45789" lon="0.0328">
        <ele>911.6</ele>
        <time>2017-07-31T10:24:38Z</time>
      </trkpt>
      <trkpt lat="42.45792" lon="0.03281">
        <ele>911.2</ele>
        <time>2017-07-31T10:24:39Z</time>
      </trkpt>
      <trkpt lat="42.45795" lon="0.03286">
        <ele>910.6</ele>
        <time>2017-07-31T10:24:41Z</time>
      </trkpt>
      <trkpt lat="42.45797" lon="0.03289">
        <ele>910.2</ele>
        <time>2017-07-31T10:24:42Z</time>
      </trkpt>
      <trkpt lat="42.458" lon="0.03294">
        <ele>909.4</ele>
        <time>2017-07-31T10:24:44Z</time>
      </trkpt>
      <trkpt lat="42.45803" lon="0.03297">
        <ele>908.9</ele>
        <time>2017-07-31T10:24:45Z</time>
      </trkpt>
      <trkpt lat="42.45806" lon="0.03301">
        <ele>908.2</ele>
        <time>2017-07-31T10:24:46Z</time>
      </trkpt>
      <trkpt lat="42.45809" lon="0.03306">
        <ele>907.4</ele>
        <time>2017-07-31T10:24:47Z</time>
      </trkpt>
      <trkpt lat="42.45812" lon="0.0331">
        <ele>906.5</ele>
        <time>2017-07-31T10:24:48Z</time>
      </trkpt>
      <trkpt lat="42.45814" lon="0.03314">
        <ele>905.6</ele>
        <time>2017-07-31T10:24:49Z</time>
      </trkpt>
      <trkpt lat="42.45817" lon="0.03318">
        <ele>904.9</ele>
        <time>2017-07-31T10:24:50Z</time>
      </trkpt>
      <trkpt lat="42.4582" lon="0.03322">
        <ele>904.2</ele>
        <time>2017-07-31T10:24:51Z</time>
      </trkpt>
      <trkpt lat="42.45823" lon="0.03326">
        <ele>903.5</ele>
        <time>2017-07-31T10:24:52Z</time>
      </trkpt>
      <trkpt lat="42.45825" lon="0.03329">
        <ele>902.8</ele>
        <time>2017-07-31T10:24:53Z</time>
      </trkpt>
      <trkpt lat="42.45828" lon="0.03334">
        <ele>902.1</ele>
        <time>2017-07-31T10:24:55Z</time>
      </trkpt>
      <trkpt lat="42.45829" lon="0.03338">
        <ele>901.5</ele>
        <time>2017-07-31T10:24:57Z</time>
      </trkpt>
      <trkpt lat="42.45834" lon="0.03341">
        <ele>900.7</ele>
        <time>2017-07-31T10:24:59Z</time>
      </trkpt>
      <trkpt lat="42.45837" lon="0.03344">
        <ele>900.1</ele>
        <time>2017-07-31T10:25:01Z</time>
      </trkpt>
      <trkpt lat="42.4584" lon="0.03349">
        <ele>899.3</ele>
        <time>2017-07-31T10:25:03Z</time>
      </trkpt>
      <trkpt lat="42.45844" lon="0.03352">
        <ele>898.5</ele>
        <time>2017-07-31T10:25:05Z</time>
      </trkpt>
      <trkpt lat="42.45846" lon="0.03354">
        <ele>897.8</ele>
        <time>2017-07-31T10:25:06Z</time>
      </trkpt>
      <trkpt lat="42.4585" lon="0.03356">
        <ele>897.1</ele>
        <time>2017-07-31T10:25:07Z</time>
      </trkpt>
      <trkpt lat="42.45854" lon="0.03358">
        <ele>896.3</ele>
        <time>2017-07-31T10:25:08Z</time>
      </trkpt>
      <trkpt lat="42.45857" lon="0.0336">
        <ele>895.6</ele>
        <time>2017-07-31T10:25:09Z</time>
      </trkpt>
      <trkpt lat="42.4586" lon="0.03362">
        <ele>895</ele>
        <time>2017-07-31T10:25:10Z</time>
      </trkpt>
      <trkpt lat="42.45864" lon="0.03364">
        <ele>894.2</ele>
        <time>2017-07-31T10:25:12Z</time>
      </trkpt>
      <trkpt lat="42.45867" lon="0.03367">
        <ele>893.7</ele>
        <time>2017-07-31T10:25:14Z</time>
      </trkpt>
      <trkpt lat="42.45869" lon="0.03374">
        <ele>892.8</ele>
        <time>2017-07-31T10:25:16Z</time>
      </trkpt>
      <trkpt lat="42.4587" lon="0.03378">
        <ele>892.4</ele>
        <time>2017-07-31T10:25:17Z</time>
      </trkpt>
      <trkpt lat="42.45872" lon="0.03381">
        <ele>892.1</ele>
        <time>2017-07-31T10:25:18Z</time>
      </trkpt>
      <trkpt lat="42.45875" lon="0.03383">
        <ele>891.8</ele>
        <time>2017-07-31T10:25:19Z</time>
      </trkpt>
      <trkpt lat="42.45878" lon="0.03384">
        <ele>891.5</ele>
        <time>2017-07-31T10:25:20Z</time>
      </trkpt>
      <trkpt lat="42.45881" lon="0.03385">
        <ele>891.3</ele>
        <time>2017-07-31T10:25:21Z</time>
      </trkpt>
      <trkpt lat="42.45883" lon="0.03387">
        <ele>890.9</ele>
        <time>2017-07-31T10:25:22Z</time>
      </trkpt>
      <trkpt lat="42.45886" lon="0.0339">
        <ele>890.5</ele>
        <time>2017-07-31T10:25:23Z</time>
      </trkpt>
      <trkpt lat="42.45889" lon="0.03393">
        <ele>890</ele>
        <time>2017-07-31T10:25:24Z</time>
      </trkpt>
      <trkpt lat="42.45892" lon="0.03395">
        <ele>889.5</ele>
        <time>2017-07-31T10:25:25Z</time>
      </trkpt>
      <trkpt lat="42.45896" lon="0.03397">
        <ele>889</ele>
        <time>2017-07-31T10:25:26Z</time>
      </trkpt>
      <trkpt lat="42.45899" lon="0.03399">
        <ele>888.5</ele>
        <time>2017-07-31T10:25:27Z</time>
      </trkpt>
      <trkpt lat="42.45902" lon="0.03401">
        <ele>888</ele>
        <time>2017-07-31T10:25:28Z</time>
      </trkpt>
      <trkpt lat="42.45906" lon="0.03404">
        <ele>887.5</ele>
        <time>2017-07-31T10:25:29Z</time>
      </trkpt>
      <trkpt lat="42.45908" lon="0.03407">
        <ele>887</ele>
        <time>2017-07-31T10:25:30Z</time>
      </trkpt>
      <trkpt lat="42.45911" lon="0.0341">
        <ele>886.4</ele>
        <time>2017-07-31T10:25:31Z</time>
      </trkpt>
      <trkpt lat="42.45914" lon="0.03412">
        <ele>885.8</ele>
        <time>2017-07-31T10:25:32Z</time>
      </trkpt>
      <trkpt lat="42.45917" lon="0.03414">
        <ele>885.2</ele>
        <time>2017-07-31T10:25:33Z</time>
      </trkpt>
      <trkpt lat="42.4592" lon="0.03416">
        <ele>884.7</ele>
        <time>2017-07-31T10:25:34Z</time>
      </trkpt>
      <trkpt lat="42.45924" lon="0.03419">
        <ele>884.1</ele>
        <time>2017-07-31T10:25:36Z</time>
      </trkpt>
      <trkpt lat="42.45927" lon="0.03425">
        <ele>883.5</ele>
        <time>2017-07-31T10:25:38Z</time>
      </trkpt>
      <trkpt lat="42.45929" lon="0.0343">
        <ele>882.9</ele>
        <time>2017-07-31T10:25:39Z</time>
      </trkpt>
      <trkpt lat="42.45932" lon="0.03436">
        <ele>882.2</ele>
        <time>2017-07-31T10:25:40Z</time>
      </trkpt>
      <trkpt lat="42.45935" lon="0.03441">
        <ele>881.5</ele>
        <time>2017-07-31T10:25:41Z</time>
      </trkpt>
      <trkpt lat="42.45937" lon="0.03446">
        <ele>881</ele>
        <time>2017-07-31T10:25:42Z</time>
      </trkpt>
      <trkpt lat="42.45939" lon="0.03449">
        <ele>880.6</ele>
        <time>2017-07-31T10:25:43Z</time>
      </trkpt>
      <trkpt lat="42.45942" lon="0.03451">
        <ele>880.4</ele>
        <time>2017-07-31T10:25:44Z</time>
      </trkpt>
      <trkpt lat="42.45947" lon="0.03452">
        <ele>879.8</ele>
        <time>2017-07-31T10:25:46Z</time>
      </trkpt>
      <trkpt lat="42.4595" lon="0.03453">
        <ele>879.5</ele>
        <time>2017-07-31T10:25:47Z</time>
      </trkpt>
      <trkpt lat="42.45953" lon="0.03455">
        <ele>879.2</ele>
        <time>2017-07-31T10:25:48Z</time>
      </trkpt>
      <trkpt lat="42.45956" lon="0.03459">
        <ele>878.8</ele>
        <time>2017-07-31T10:25:49Z</time>
      </trkpt>
      <trkpt lat="42.45958" lon="0.03462">
        <ele>878.4</ele>
        <time>2017-07-31T10:25:50Z</time>
      </trkpt>
      <trkpt lat="42.45961" lon="0.03465">
        <ele>878</ele>
        <time>2017-07-31T10:25:51Z</time>
      </trkpt>
      <trkpt lat="42.45965" lon="0.03467">
        <ele>877.4</ele>
        <time>2017-07-31T10:25:52Z</time>
      </trkpt>
      <trkpt lat="42.45969" lon="0.03469">
        <ele>876.8</ele>
        <time>2017-07-31T10:25:53Z</time>
      </trkpt>
      <trkpt lat="42.45974" lon="0.03471">
        <ele>876.3</ele>
        <time>2017-07-31T10:25:54Z</time>
      </trkpt>
      <trkpt lat="42.45977" lon="0.03471">
        <ele>875.9</ele>
        <time>2017-07-31T10:25:55Z</time>
      </trkpt>
      <trkpt lat="42.45981" lon="0.03472">
        <ele>874.2</ele>
        <time>2017-07-31T10:25:57Z</time>
      </trkpt>
      <trkpt lat="42.45983" lon="0.03472">
        <ele>872.7</ele>
        <time>2017-07-31T10:25:59Z</time>
      </trkpt>
      <trkpt lat="42.45986" lon="0.03467">
        <ele>871.8</ele>
        <time>2017-07-31T10:26:01Z</time>
      </trkpt>
      <trkpt lat="42.45987" lon="0.03463">
        <ele>871.3</ele>
        <time>2017-07-31T10:26:02Z</time>
      </trkpt>
      <trkpt lat="42.45987" lon="0.03459">
        <ele>870.7</ele>
        <time>2017-07-31T10:26:03Z</time>
      </trkpt>
      <trkpt lat="42.45986" lon="0.03452">
        <ele>868.7</ele>
        <time>2017-07-31T10:26:05Z</time>
      </trkpt>
      <trkpt lat="42.45986" lon="0.03446">
        <ele>868</ele>
        <time>2017-07-31T10:26:07Z</time>
      </trkpt>
      <trkpt lat="42.45986" lon="0.03441">
        <ele>867.3</ele>
        <time>2017-07-31T10:26:09Z</time>
      </trkpt>
      <trkpt lat="42.45987" lon="0.03435">
        <ele>865.9</ele>
        <time>2017-07-31T10:26:11Z</time>
      </trkpt>
      <trkpt lat="42.4599" lon="0.03433">
        <ele>864.4</ele>
        <time>2017-07-31T10:26:13Z</time>
      </trkpt>
      <trkpt lat="42.45994" lon="0.03433">
        <ele>862.6</ele>
        <time>2017-07-31T10:26:15Z</time>
      </trkpt>
      <trkpt lat="42.45997" lon="0.03432">
        <ele>862.3</ele>
        <time>2017-07-31T10:26:17Z</time>
      </trkpt>
      <trkpt lat="42.45998" lon="0.03428">
        <ele>862.1</ele>
        <time>2017-07-31T10:26:19Z</time>
      </trkpt>
      <trkpt lat="42.45998" lon="0.03423">
        <ele>861.8</ele>
        <time>2017-07-31T10:26:21Z</time>
      </trkpt>
      <trkpt lat="42.45998" lon="0.03419">
        <ele>861.4</ele>
        <time>2017-07-31T10:26:23Z</time>
      </trkpt>
      <trkpt lat="42.45997" lon="0.03414">
        <ele>861</ele>
        <time>2017-07-31T10:26:24Z</time>
      </trkpt>
      <trkpt lat="42.45997" lon="0.0341">
        <ele>860.5</ele>
        <time>2017-07-31T10:26:25Z</time>
      </trkpt>
      <trkpt lat="42.45996" lon="0.03405">
        <ele>859.8</ele>
        <time>2017-07-31T10:26:26Z</time>
      </trkpt>
      <trkpt lat="42.45995" lon="0.03401">
        <ele>859.2</ele>
        <time>2017-07-31T10:26:27Z</time>
      </trkpt>
      <trkpt lat="42.45993" lon="0.03397">
        <ele>858.7</ele>
        <time>2017-07-31T10:26:28Z</time>
      </trkpt>
      <trkpt lat="42.45991" lon="0.03393">
        <ele>858</ele>
        <time>2017-07-31T10:26:29Z</time>
      </trkpt>
      <trkpt lat="42.4599" lon="0.03388">
        <ele>857.4</ele>
        <time>2017-07-31T10:26:30Z</time>
      </trkpt>
      <trkpt lat="42.45989" lon="0.03384">
        <ele>856.8</ele>
        <time>2017-07-31T10:26:31Z</time>
      </trkpt>
      <trkpt lat="42.45987" lon="0.03379">
        <ele>856.1</ele>
        <time>2017-07-31T10:26:32Z</time>
      </trkpt>
      <trkpt lat="42.45987" lon="0.03374">
        <ele>855.3</ele>
        <time>2017-07-31T10:26:33Z</time>
      </trkpt>
      <trkpt lat="42.45986" lon="0.0337">
        <ele>854.6</ele>
        <time>2017-07-31T10:26:34Z</time>
      </trkpt>
      <trkpt lat="42.45985" lon="0.03366">
        <ele>853.6</ele>
        <time>2017-07-31T10:26:35Z</time>
      </trkpt>
      <trkpt lat="42.45984" lon="0.03361">
        <ele>852.6</ele>
        <time>2017-07-31T10:26:36Z</time>
      </trkpt>
      <trkpt lat="42.45982" lon="0.03357">
        <ele>851.7</ele>
        <time>2017-07-31T10:26:37Z</time>
      </trkpt>
      <trkpt lat="42.45981" lon="0.03354">
        <ele>851</ele>
        <time>2017-07-31T10:26:38Z</time>
      </trkpt>
      <trkpt lat="42.45979" lon="0.03346">
        <ele>849.9</ele>
        <time>2017-07-31T10:26:40Z</time>
      </trkpt>
      <trkpt lat="42.45977" lon="0.03341">
        <ele>849</ele>
        <time>2017-07-31T10:26:42Z</time>
      </trkpt>
      <trkpt lat="42.45976" lon="0.03336">
        <ele>848.4</ele>
        <time>2017-07-31T10:26:44Z</time>
      </trkpt>
      <trkpt lat="42.45975" lon="0.03331">
        <ele>847.9</ele>
        <time>2017-07-31T10:26:46Z</time>
      </trkpt>
      <trkpt lat="42.45974" lon="0.03328">
        <ele>847.5</ele>
        <time>2017-07-31T10:26:47Z</time>
      </trkpt>
      <trkpt lat="42.45973" lon="0.03324">
        <ele>847.2</ele>
        <time>2017-07-31T10:26:48Z</time>
      </trkpt>
      <trkpt lat="42.45973" lon="0.03319">
        <ele>846.9</ele>
        <time>2017-07-31T10:26:49Z</time>
      </trkpt>
      <trkpt lat="42.45971" lon="0.03315">
        <ele>846.7</ele>
        <time>2017-07-31T10:26:50Z</time>
      </trkpt>
      <trkpt lat="42.4597" lon="0.0331">
        <ele>846.2</ele>
        <time>2017-07-31T10:26:51Z</time>
      </trkpt>
      <trkpt lat="42.45968" lon="0.03306">
        <ele>845.8</ele>
        <time>2017-07-31T10:26:52Z</time>
      </trkpt>
      <trkpt lat="42.45967" lon="0.03301">
        <ele>845.4</ele>
        <time>2017-07-31T10:26:53Z</time>
      </trkpt>
      <trkpt lat="42.45965" lon="0.03297">
        <ele>844.9</ele>
        <time>2017-07-31T10:26:54Z</time>
      </trkpt>
      <trkpt lat="42.45963" lon="0.03293">
        <ele>842.8</ele>
        <time>2017-07-31T10:26:55Z</time>
      </trkpt>
      <trkpt lat="42.45962" lon="0.03289">
        <ele>841.2</ele>
        <time>2017-07-31T10:26:56Z</time>
      </trkpt>
      <trkpt lat="42.45961" lon="0.03286">
        <ele>840.8</ele>
        <time>2017-07-31T10:26:57Z</time>
      </trkpt>
      <trkpt lat="42.4596" lon="0.0328">
        <ele>840.2</ele>
        <time>2017-07-31T10:26:59Z</time>
      </trkpt>
      <trkpt lat="42.45959" lon="0.03277">
        <ele>839.8</ele>
        <time>2017-07-31T10:27:01Z</time>
      </trkpt>
      <trkpt lat="42.45957" lon="0.03273">
        <ele>838.8</ele>
        <time>2017-07-31T10:27:04Z</time>
      </trkpt>
      <trkpt lat="42.45952" lon="0.03263">
        <ele>837.4</ele>
        <time>2017-07-31T10:27:36Z</time>
      </trkpt>
      <trkpt lat="42.45951" lon="0.03259">
        <ele>836.9</ele>
        <time>2017-07-31T10:27:40Z</time>
      </trkpt>
      <trkpt lat="42.45951" lon="0.03254">
        <ele>836.3</ele>
        <time>2017-07-31T10:27:42Z</time>
      </trkpt>
      <trkpt lat="42.45951" lon="0.03249">
        <ele>835.7</ele>
        <time>2017-07-31T10:27:44Z</time>
      </trkpt>
      <trkpt lat="42.45951" lon="0.03244">
        <ele>835.1</ele>
        <time>2017-07-31T10:27:46Z</time>
      </trkpt>
      <trkpt lat="42.45952" lon="0.03238">
        <ele>834.4</ele>
        <time>2017-07-31T10:27:48Z</time>
      </trkpt>
      <trkpt lat="42.45951" lon="0.03234">
        <ele>833.9</ele>
        <time>2017-07-31T10:27:49Z</time>
      </trkpt>
      <trkpt lat="42.45951" lon="0.03231">
        <ele>833.2</ele>
        <time>2017-07-31T10:27:50Z</time>
      </trkpt>
      <trkpt lat="42.4595" lon="0.03227">
        <ele>832.8</ele>
        <time>2017-07-31T10:27:51Z</time>
      </trkpt>
      <trkpt lat="42.45949" lon="0.03224">
        <ele>832.5</ele>
        <time>2017-07-31T10:27:52Z</time>
      </trkpt>
      <trkpt lat="42.45948" lon="0.0322">
        <ele>832.3</ele>
        <time>2017-07-31T10:27:53Z</time>
      </trkpt>
      <trkpt lat="42.45946" lon="0.03214">
        <ele>831.2</ele>
        <time>2017-07-31T10:27:55Z</time>
      </trkpt>
      <trkpt lat="42.45944" lon="0.03209">
        <ele>830.8</ele>
        <time>2017-07-31T10:27:57Z</time>
      </trkpt>
      <trkpt lat="42.45944" lon="0.03204">
        <ele>830.4</ele>
        <time>2017-07-31T10:27:59Z</time>
      </trkpt>
      <trkpt lat="42.45944" lon="0.032">
        <ele>830.1</ele>
        <time>2017-07-31T10:28:00Z</time>
      </trkpt>
      <trkpt lat="42.45944" lon="0.03195">
        <ele>829.7</ele>
        <time>2017-07-31T10:28:01Z</time>
      </trkpt>
      <trkpt lat="42.45944" lon="0.03189">
        <ele>829.2</ele>
        <time>2017-07-31T10:28:02Z</time>
      </trkpt>
      <trkpt lat="42.45943" lon="0.03184">
        <ele>828.5</ele>
        <time>2017-07-31T10:28:03Z</time>
      </trkpt>
      <trkpt lat="42.45942" lon="0.03179">
        <ele>827.6</ele>
        <time>2017-07-31T10:28:04Z</time>
      </trkpt>
      <trkpt lat="42.45941" lon="0.03174">
        <ele>826.8</ele>
        <time>2017-07-31T10:28:05Z</time>
      </trkpt>
      <trkpt lat="42.4594" lon="0.0317">
        <ele>826.3</ele>
        <time>2017-07-31T10:28:06Z</time>
      </trkpt>
      <trkpt lat="42.45939" lon="0.03165">
        <ele>825.8</ele>
        <time>2017-07-31T10:28:07Z</time>
      </trkpt>
      <trkpt lat="42.45938" lon="0.03161">
        <ele>825.3</ele>
        <time>2017-07-31T10:28:08Z</time>
      </trkpt>
      <trkpt lat="42.45937" lon="0.03157">
        <ele>824.8</ele>
        <time>2017-07-31T10:28:09Z</time>
      </trkpt>
      <trkpt lat="42.45936" lon="0.03151">
        <ele>824.1</ele>
        <time>2017-07-31T10:28:11Z</time>
      </trkpt>
      <trkpt lat="42.45936" lon="0.03145">
        <ele>823.4</ele>
        <time>2017-07-31T10:28:13Z</time>
      </trkpt>
      <trkpt lat="42.45936" lon="0.03139">
        <ele>822.5</ele>
        <time>2017-07-31T10:28:15Z</time>
      </trkpt>
      <trkpt lat="42.45936" lon="0.03132">
        <ele>821.7</ele>
        <time>2017-07-31T10:28:17Z</time>
      </trkpt>
      <trkpt lat="42.45936" lon="0.03128">
        <ele>821.1</ele>
        <time>2017-07-31T10:28:18Z</time>
      </trkpt>
      <trkpt lat="42.45935" lon="0.03123">
        <ele>820.4</ele>
        <time>2017-07-31T10:28:19Z</time>
      </trkpt>
      <trkpt lat="42.45934" lon="0.03118">
        <ele>819.6</ele>
        <time>2017-07-31T10:28:20Z</time>
      </trkpt>
      <trkpt lat="42.45932" lon="0.03112">
        <ele>818.6</ele>
        <time>2017-07-31T10:28:21Z</time>
      </trkpt>
      <trkpt lat="42.4593" lon="0.03106">
        <ele>817.9</ele>
        <time>2017-07-31T10:28:22Z</time>
      </trkpt>
      <trkpt lat="42.45928" lon="0.03101">
        <ele>817.5</ele>
        <time>2017-07-31T10:28:23Z</time>
      </trkpt>
      <trkpt lat="42.45926" lon="0.03096">
        <ele>816.9</ele>
        <time>2017-07-31T10:28:24Z</time>
      </trkpt>
      <trkpt lat="42.45925" lon="0.0309">
        <ele>816</ele>
        <time>2017-07-31T10:28:25Z</time>
      </trkpt>
      <trkpt lat="42.45924" lon="0.03085">
        <ele>815.2</ele>
        <time>2017-07-31T10:28:26Z</time>
      </trkpt>
      <trkpt lat="42.45924" lon="0.0308">
        <ele>814.4</ele>
        <time>2017-07-31T10:28:27Z</time>
      </trkpt>
      <trkpt lat="42.45923" lon="0.03075">
        <ele>813.7</ele>
        <time>2017-07-31T10:28:28Z</time>
      </trkpt>
      <trkpt lat="42.45923" lon="0.03069">
        <ele>812.6</ele>
        <time>2017-07-31T10:28:30Z</time>
      </trkpt>
      <trkpt lat="42.45923" lon="0.03064">
        <ele>811.9</ele>
        <time>2017-07-31T10:28:32Z</time>
      </trkpt>
      <trkpt lat="42.45926" lon="0.03063">
        <ele>811.2</ele>
        <time>2017-07-31T10:28:38Z</time>
      </trkpt>
      <trkpt lat="42.4593" lon="0.03063">
        <ele>810.4</ele>
        <time>2017-07-31T10:28:40Z</time>
      </trkpt>
      <trkpt lat="42.45933" lon="0.03064">
        <ele>809.7</ele>
        <time>2017-07-31T10:28:42Z</time>
      </trkpt>
      <trkpt lat="42.45935" lon="0.03067">
        <ele>809.1</ele>
        <time>2017-07-31T10:28:44Z</time>
      </trkpt>
      <trkpt lat="42.45939" lon="0.03072">
        <ele>808.2</ele>
        <time>2017-07-31T10:28:46Z</time>
      </trkpt>
      <trkpt lat="42.45941" lon="0.03075">
        <ele>807.6</ele>
        <time>2017-07-31T10:28:47Z</time>
      </trkpt>
      <trkpt lat="42.45944" lon="0.03079">
        <ele>807</ele>
        <time>2017-07-31T10:28:48Z</time>
      </trkpt>
      <trkpt lat="42.45947" lon="0.03083">
        <ele>806.2</ele>
        <time>2017-07-31T10:28:49Z</time>
      </trkpt>
      <trkpt lat="42.45949" lon="0.03087">
        <ele>805.6</ele>
        <time>2017-07-31T10:28:50Z</time>
      </trkpt>
      <trkpt lat="42.45952" lon="0.03091">
        <ele>805.1</ele>
        <time>2017-07-31T10:28:51Z</time>
      </trkpt>
      <trkpt lat="42.45954" lon="0.03094">
        <ele>804.6</ele>
        <time>2017-07-31T10:28:52Z</time>
      </trkpt>
      <trkpt lat="42.45956" lon="0.03097">
        <ele>804.1</ele>
        <time>2017-07-31T10:28:53Z</time>
      </trkpt>
      <trkpt lat="42.45958" lon="0.031">
        <ele>803.8</ele>
        <time>2017-07-31T10:28:54Z</time>
      </trkpt>
      <trkpt lat="42.4596" lon="0.03103">
        <ele>803.4</ele>
        <time>2017-07-31T10:28:55Z</time>
      </trkpt>
      <trkpt lat="42.45963" lon="0.03106">
        <ele>803.1</ele>
        <time>2017-07-31T10:28:56Z</time>
      </trkpt>
      <trkpt lat="42.45966" lon="0.03111">
        <ele>802.7</ele>
        <time>2017-07-31T10:28:58Z</time>
      </trkpt>
      <trkpt lat="42.4597" lon="0.03116">
        <ele>802.1</ele>
        <time>2017-07-31T10:29:00Z</time>
      </trkpt>
      <trkpt lat="42.45973" lon="0.0312">
        <ele>801.6</ele>
        <time>2017-07-31T10:29:01Z</time>
      </trkpt>
      <trkpt lat="42.45975" lon="0.03125">
        <ele>801</ele>
        <time>2017-07-31T10:29:02Z</time>
      </trkpt>
      <trkpt lat="42.45978" lon="0.0313">
        <ele>800.3</ele>
        <time>2017-07-31T10:29:03Z</time>
      </trkpt>
      <trkpt lat="42.45981" lon="0.03135">
        <ele>799.5</ele>
        <time>2017-07-31T10:29:04Z</time>
      </trkpt>
      <trkpt lat="42.45983" lon="0.0314">
        <ele>798.7</ele>
        <time>2017-07-31T10:29:05Z</time>
      </trkpt>
      <trkpt lat="42.45985" lon="0.03144">
        <ele>797.9</ele>
        <time>2017-07-31T10:29:06Z</time>
      </trkpt>
      <trkpt lat="42.45987" lon="0.03148">
        <ele>797.3</ele>
        <time>2017-07-31T10:29:07Z</time>
      </trkpt>
      <trkpt lat="42.45989" lon="0.03151">
        <ele>796.7</ele>
        <time>2017-07-31T10:29:08Z</time>
      </trkpt>
      <trkpt lat="42.45991" lon="0.03154">
        <ele>796.2</ele>
        <time>2017-07-31T10:29:09Z</time>
      </trkpt>
      <trkpt lat="42.45993" lon="0.03157">
        <ele>795.7</ele>
        <time>2017-07-31T10:29:10Z</time>
      </trkpt>
      <trkpt lat="42.45996" lon="0.0316">
        <ele>795.1</ele>
        <time>2017-07-31T10:29:11Z</time>
      </trkpt>
      <trkpt lat="42.45998" lon="0.03163">
        <ele>794.6</ele>
        <time>2017-07-31T10:29:12Z</time>
      </trkpt>
      <trkpt lat="42.46001" lon="0.03167">
        <ele>794.1</ele>
        <time>2017-07-31T10:29:13Z</time>
      </trkpt>
      <trkpt lat="42.46003" lon="0.03171">
        <ele>793.5</ele>
        <time>2017-07-31T10:29:14Z</time>
      </trkpt>
      <trkpt lat="42.46006" lon="0.03176">
        <ele>792.8</ele>
        <time>2017-07-31T10:29:15Z</time>
      </trkpt>
      <trkpt lat="42.46008" lon="0.03181">
        <ele>792.3</ele>
        <time>2017-07-31T10:29:16Z</time>
      </trkpt>
      <trkpt lat="42.4601" lon="0.03185">
        <ele>791.9</ele>
        <time>2017-07-31T10:29:17Z</time>
      </trkpt>
      <trkpt lat="42.46012" lon="0.0319">
        <ele>791.7</ele>
        <time>2017-07-31T10:29:18Z</time>
      </trkpt>
      <trkpt lat="42.46014" lon="0.03194">
        <ele>791.4</ele>
        <time>2017-07-31T10:29:19Z</time>
      </trkpt>
      <trkpt lat="42.46016" lon="0.03198">
        <ele>791</ele>
        <time>2017-07-31T10:29:20Z</time>
      </trkpt>
      <trkpt lat="42.46018" lon="0.03202">
        <ele>790.6</ele>
        <time>2017-07-31T10:29:21Z</time>
      </trkpt>
      <trkpt lat="42.46021" lon="0.03206">
        <ele>790.1</ele>
        <time>2017-07-31T10:29:22Z</time>
      </trkpt>
      <trkpt lat="42.46023" lon="0.0321">
        <ele>789.7</ele>
        <time>2017-07-31T10:29:23Z</time>
      </trkpt>
      <trkpt lat="42.46026" lon="0.03215">
        <ele>789.1</ele>
        <time>2017-07-31T10:29:24Z</time>
      </trkpt>
      <trkpt lat="42.46029" lon="0.03219">
        <ele>788.5</ele>
        <time>2017-07-31T10:29:25Z</time>
      </trkpt>
      <trkpt lat="42.46031" lon="0.03223">
        <ele>788.1</ele>
        <time>2017-07-31T10:29:26Z</time>
      </trkpt>
      <trkpt lat="42.46033" lon="0.03226">
        <ele>787.7</ele>
        <time>2017-07-31T10:29:27Z</time>
      </trkpt>
      <trkpt lat="42.46035" lon="0.0323">
        <ele>787.4</ele>
        <time>2017-07-31T10:29:28Z</time>
      </trkpt>
      <trkpt lat="42.46039" lon="0.03234">
        <ele>787</ele>
        <time>2017-07-31T10:29:29Z</time>
      </trkpt>
      <trkpt lat="42.46042" lon="0.03238">
        <ele>786.5</ele>
        <time>2017-07-31T10:29:30Z</time>
      </trkpt>
      <trkpt lat="42.46045" lon="0.03242">
        <ele>786.1</ele>
        <time>2017-07-31T10:29:31Z</time>
      </trkpt>
      <trkpt lat="42.46048" lon="0.03246">
        <ele>785.6</ele>
        <time>2017-07-31T10:29:32Z</time>
      </trkpt>
      <trkpt lat="42.4605" lon="0.03249">
        <ele>785.4</ele>
        <time>2017-07-31T10:29:33Z</time>
      </trkpt>
      <trkpt lat="42.46052" lon="0.03251">
        <ele>785.2</ele>
        <time>2017-07-31T10:29:34Z</time>
      </trkpt>
      <trkpt lat="42.46055" lon="0.03253">
        <ele>785</ele>
        <time>2017-07-31T10:29:35Z</time>
      </trkpt>
      <trkpt lat="42.46058" lon="0.03254">
        <ele>784.6</ele>
        <time>2017-07-31T10:29:36Z</time>
      </trkpt>
      <trkpt lat="42.46062" lon="0.03256">
        <ele>784.2</ele>
        <time>2017-07-31T10:29:37Z</time>
      </trkpt>
      <trkpt lat="42.46065" lon="0.03258">
        <ele>783.7</ele>
        <time>2017-07-31T10:29:38Z</time>
      </trkpt>
      <trkpt lat="42.46069" lon="0.03261">
        <ele>783.4</ele>
        <time>2017-07-31T10:29:39Z</time>
      </trkpt>
      <trkpt lat="42.46072" lon="0.03263">
        <ele>783</ele>
        <time>2017-07-31T10:29:40Z</time>
      </trkpt>
      <trkpt lat="42.46075" lon="0.03264">
        <ele>782.7</ele>
        <time>2017-07-31T10:29:41Z</time>
      </trkpt>
      <trkpt lat="42.46078" lon="0.03266">
        <ele>782.3</ele>
        <time>2017-07-31T10:29:42Z</time>
      </trkpt>
      <trkpt lat="42.46081" lon="0.03268">
        <ele>782</ele>
        <time>2017-07-31T10:29:43Z</time>
      </trkpt>
      <trkpt lat="42.46085" lon="0.0327">
        <ele>781.6</ele>
        <time>2017-07-31T10:29:44Z</time>
      </trkpt>
      <trkpt lat="42.46088" lon="0.03272">
        <ele>781.4</ele>
        <time>2017-07-31T10:29:45Z</time>
      </trkpt>
      <trkpt lat="42.46093" lon="0.03274">
        <ele>781.1</ele>
        <time>2017-07-31T10:29:46Z</time>
      </trkpt>
      <trkpt lat="42.46097" lon="0.03275">
        <ele>780.8</ele>
        <time>2017-07-31T10:29:47Z</time>
      </trkpt>
      <trkpt lat="42.46101" lon="0.03277">
        <ele>780.4</ele>
        <time>2017-07-31T10:29:48Z</time>
      </trkpt>
      <trkpt lat="42.46104" lon="0.03279">
        <ele>780</ele>
        <time>2017-07-31T10:29:49Z</time>
      </trkpt>
      <trkpt lat="42.46108" lon="0.03282">
        <ele>779.8</ele>
        <time>2017-07-31T10:29:50Z</time>
      </trkpt>
      <trkpt lat="42.46112" lon="0.03284">
        <ele>779.6</ele>
        <time>2017-07-31T10:29:51Z</time>
      </trkpt>
      <trkpt lat="42.46116" lon="0.03286">
        <ele>779.4</ele>
        <time>2017-07-31T10:29:52Z</time>
      </trkpt>
      <trkpt lat="42.46119" lon="0.03287">
        <ele>779.2</ele>
        <time>2017-07-31T10:29:53Z</time>
      </trkpt>
      <trkpt lat="42.46123" lon="0.03288">
        <ele>779</ele>
        <time>2017-07-31T10:29:54Z</time>
      </trkpt>
      <trkpt lat="42.46126" lon="0.03289">
        <ele>778.8</ele>
        <time>2017-07-31T10:29:55Z</time>
      </trkpt>
      <trkpt lat="42.46129" lon="0.03292">
        <ele>778.5</ele>
        <time>2017-07-31T10:29:56Z</time>
      </trkpt>
      <trkpt lat="42.46131" lon="0.03294">
        <ele>778.3</ele>
        <time>2017-07-31T10:29:57Z</time>
      </trkpt>
      <trkpt lat="42.46134" lon="0.03298">
        <ele>778</ele>
        <time>2017-07-31T10:29:59Z</time>
      </trkpt>
      <trkpt lat="42.46135" lon="0.03301">
        <ele>777.8</ele>
        <time>2017-07-31T10:31:48Z</time>
      </trkpt>
      <trkpt lat="42.46136" lon="0.03306">
        <ele>777.6</ele>
        <time>2017-07-31T10:31:50Z</time>
      </trkpt>
      <trkpt lat="42.46138" lon="0.0331">
        <ele>777.4</ele>
        <time>2017-07-31T10:31:52Z</time>
      </trkpt>
      <trkpt lat="42.46139" lon="0.03314">
        <ele>777.1</ele>
        <time>2017-07-31T10:31:54Z</time>
      </trkpt>
      <trkpt lat="42.4614" lon="0.03321">
        <ele>776.7</ele>
        <time>2017-07-31T10:31:56Z</time>
      </trkpt>
      <trkpt lat="42.46141" lon="0.03327">
        <ele>775.9</ele>
        <time>2017-07-31T10:31:58Z</time>
      </trkpt>
      <trkpt lat="42.46142" lon="0.03333">
        <ele>775.2</ele>
        <time>2017-07-31T10:32:00Z</time>
      </trkpt>
      <trkpt lat="42.46142" lon="0.03337">
        <ele>774.8</ele>
        <time>2017-07-31T10:32:01Z</time>
      </trkpt>
      <trkpt lat="42.46143" lon="0.03343">
        <ele>773.8</ele>
        <time>2017-07-31T10:32:03Z</time>
      </trkpt>
      <trkpt lat="42.46144" lon="0.03349">
        <ele>772.8</ele>
        <time>2017-07-31T10:32:05Z</time>
      </trkpt>
      <trkpt lat="42.46144" lon="0.03356">
        <ele>771.8</ele>
        <time>2017-07-31T10:32:07Z</time>
      </trkpt>
      <trkpt lat="42.46145" lon="0.03359">
        <ele>771.3</ele>
        <time>2017-07-31T10:32:08Z</time>
      </trkpt>
      <trkpt lat="42.46146" lon="0.03364">
        <ele>770.7</ele>
        <time>2017-07-31T10:32:09Z</time>
      </trkpt>
      <trkpt lat="42.46146" lon="0.03368">
        <ele>770.2</ele>
        <time>2017-07-31T10:32:10Z</time>
      </trkpt>
      <trkpt lat="42.46146" lon="0.03372">
        <ele>769.6</ele>
        <time>2017-07-31T10:32:11Z</time>
      </trkpt>
      <trkpt lat="42.46146" lon="0.03378">
        <ele>769</ele>
        <time>2017-07-31T10:32:12Z</time>
      </trkpt>
      <trkpt lat="42.46147" lon="0.03382">
        <ele>768.4</ele>
        <time>2017-07-31T10:32:13Z</time>
      </trkpt>
      <trkpt lat="42.46147" lon="0.03387">
        <ele>768</ele>
        <time>2017-07-31T10:32:14Z</time>
      </trkpt>
      <trkpt lat="42.46147" lon="0.03391">
        <ele>767.6</ele>
        <time>2017-07-31T10:32:15Z</time>
      </trkpt>
      <trkpt lat="42.46147" lon="0.03395">
        <ele>767.1</ele>
        <time>2017-07-31T10:32:16Z</time>
      </trkpt>
      <trkpt lat="42.46148" lon="0.03399">
        <ele>766.7</ele>
        <time>2017-07-31T10:32:17Z</time>
      </trkpt>
      <trkpt lat="42.46149" lon="0.03403">
        <ele>766.3</ele>
        <time>2017-07-31T10:32:18Z</time>
      </trkpt>
      <trkpt lat="42.4615" lon="0.03407">
        <ele>765.8</ele>
        <time>2017-07-31T10:32:19Z</time>
      </trkpt>
      <trkpt lat="42.46151" lon="0.03411">
        <ele>765.4</ele>
        <time>2017-07-31T10:32:20Z</time>
      </trkpt>
      <trkpt lat="42.46151" lon="0.03415">
        <ele>764.9</ele>
        <time>2017-07-31T10:32:21Z</time>
      </trkpt>
      <trkpt lat="42.46152" lon="0.03421">
        <ele>763.8</ele>
        <time>2017-07-31T10:32:23Z</time>
      </trkpt>
      <trkpt lat="42.46154" lon="0.03426">
        <ele>762.6</ele>
        <time>2017-07-31T10:32:25Z</time>
      </trkpt>
      <trkpt lat="42.46157" lon="0.03433">
        <ele>761.9</ele>
        <time>2017-07-31T10:32:27Z</time>
      </trkpt>
      <trkpt lat="42.46159" lon="0.03438">
        <ele>761.5</ele>
        <time>2017-07-31T10:32:28Z</time>
      </trkpt>
      <trkpt lat="42.46162" lon="0.03444">
        <ele>760.4</ele>
        <time>2017-07-31T10:32:29Z</time>
      </trkpt>
      <trkpt lat="42.46165" lon="0.03449">
        <ele>759.2</ele>
        <time>2017-07-31T10:32:30Z</time>
      </trkpt>
      <trkpt lat="42.46168" lon="0.03454">
        <ele>758</ele>
        <time>2017-07-31T10:32:31Z</time>
      </trkpt>
      <trkpt lat="42.46171" lon="0.03458">
        <ele>756.9</ele>
        <time>2017-07-31T10:32:32Z</time>
      </trkpt>
      <trkpt lat="42.46174" lon="0.03462">
        <ele>755.9</ele>
        <time>2017-07-31T10:32:33Z</time>
      </trkpt>
      <trkpt lat="42.46176" lon="0.03467">
        <ele>755.2</ele>
        <time>2017-07-31T10:32:34Z</time>
      </trkpt>
      <trkpt lat="42.46177" lon="0.03471">
        <ele>754.7</ele>
        <time>2017-07-31T10:32:35Z</time>
      </trkpt>
      <trkpt lat="42.46178" lon="0.03474">
        <ele>754.2</ele>
        <time>2017-07-31T10:32:36Z</time>
      </trkpt>
      <trkpt lat="42.4618" lon="0.03478">
        <ele>753.8</ele>
        <time>2017-07-31T10:32:37Z</time>
      </trkpt>
      <trkpt lat="42.46182" lon="0.03481">
        <ele>753.3</ele>
        <time>2017-07-31T10:32:38Z</time>
      </trkpt>
      <trkpt lat="42.46185" lon="0.03484">
        <ele>752.7</ele>
        <time>2017-07-31T10:32:39Z</time>
      </trkpt>
      <trkpt lat="42.46187" lon="0.03488">
        <ele>752.2</ele>
        <time>2017-07-31T10:32:40Z</time>
      </trkpt>
      <trkpt lat="42.4619" lon="0.03491">
        <ele>751.8</ele>
        <time>2017-07-31T10:32:41Z</time>
      </trkpt>
      <trkpt lat="42.46192" lon="0.03494">
        <ele>751.3</ele>
        <time>2017-07-31T10:32:42Z</time>
      </trkpt>
      <trkpt lat="42.46194" lon="0.03497">
        <ele>750.9</ele>
        <time>2017-07-31T10:32:43Z</time>
      </trkpt>
      <trkpt lat="42.46196" lon="0.03501">
        <ele>750.5</ele>
        <time>2017-07-31T10:32:44Z</time>
      </trkpt>
      <trkpt lat="42.46197" lon="0.03504">
        <ele>750.2</ele>
        <time>2017-07-31T10:32:45Z</time>
      </trkpt>
      <trkpt lat="42.46199" lon="0.0351">
        <ele>749.6</ele>
        <time>2017-07-31T10:32:47Z</time>
      </trkpt>
      <trkpt lat="42.462" lon="0.03516">
        <ele>749</ele>
        <time>2017-07-31T10:32:49Z</time>
      </trkpt>
      <trkpt lat="42.46201" lon="0.0352">
        <ele>748.4</ele>
        <time>2017-07-31T10:32:51Z</time>
      </trkpt>
      <trkpt lat="42.46201" lon="0.03524">
        <ele>748</ele>
        <time>2017-07-31T10:32:52Z</time>
      </trkpt>
      <trkpt lat="42.46202" lon="0.03528">
        <ele>747.7</ele>
        <time>2017-07-31T10:32:53Z</time>
      </trkpt>
      <trkpt lat="42.46203" lon="0.03531">
        <ele>747.2</ele>
        <time>2017-07-31T10:32:54Z</time>
      </trkpt>
      <trkpt lat="42.46206" lon="0.03535">
        <ele>746.7</ele>
        <time>2017-07-31T10:32:55Z</time>
      </trkpt>
      <trkpt lat="42.46208" lon="0.03537">
        <ele>746.2</ele>
        <time>2017-07-31T10:32:56Z</time>
      </trkpt>
      <trkpt lat="42.46211" lon="0.0354">
        <ele>745.8</ele>
        <time>2017-07-31T10:32:57Z</time>
      </trkpt>
      <trkpt lat="42.46215" lon="0.03543">
        <ele>745.2</ele>
        <time>2017-07-31T10:32:59Z</time>
      </trkpt>
      <trkpt lat="42.46216" lon="0.03546">
        <ele>744.8</ele>
        <time>2017-07-31T10:33:00Z</time>
      </trkpt>
      <trkpt lat="42.46218" lon="0.0355">
        <ele>744.4</ele>
        <time>2017-07-31T10:33:01Z</time>
      </trkpt>
      <trkpt lat="42.46219" lon="0.03555">
        <ele>743.9</ele>
        <time>2017-07-31T10:33:02Z</time>
      </trkpt>
      <trkpt lat="42.46221" lon="0.03561">
        <ele>743.3</ele>
        <time>2017-07-31T10:33:03Z</time>
      </trkpt>
      <trkpt lat="42.46223" lon="0.03567">
        <ele>742.6</ele>
        <time>2017-07-31T10:33:04Z</time>
      </trkpt>
      <trkpt lat="42.46224" lon="0.03574">
        <ele>742</ele>
        <time>2017-07-31T10:33:05Z</time>
      </trkpt>
      <trkpt lat="42.46225" lon="0.03581">
        <ele>741.6</ele>
        <time>2017-07-31T10:33:06Z</time>
      </trkpt>
      <trkpt lat="42.46225" lon="0.03587">
        <ele>741.4</ele>
        <time>2017-07-31T10:33:07Z</time>
      </trkpt>
      <trkpt lat="42.46225" lon="0.03595">
        <ele>741.1</ele>
        <time>2017-07-31T10:33:08Z</time>
      </trkpt>
      <trkpt lat="42.46225" lon="0.03602">
        <ele>740.5</ele>
        <time>2017-07-31T10:33:09Z</time>
      </trkpt>
      <trkpt lat="42.46225" lon="0.03609">
        <ele>739.9</ele>
        <time>2017-07-31T10:33:10Z</time>
      </trkpt>
      <trkpt lat="42.46226" lon="0.03616">
        <ele>739.3</ele>
        <time>2017-07-31T10:33:11Z</time>
      </trkpt>
      <trkpt lat="42.46226" lon="0.03623">
        <ele>738.7</ele>
        <time>2017-07-31T10:33:12Z</time>
      </trkpt>
      <trkpt lat="42.46226" lon="0.03629">
        <ele>738.2</ele>
        <time>2017-07-31T10:33:13Z</time>
      </trkpt>
      <trkpt lat="42.46225" lon="0.03636">
        <ele>737.7</ele>
        <time>2017-07-31T10:33:14Z</time>
      </trkpt>
      <trkpt lat="42.46225" lon="0.03642">
        <ele>737.2</ele>
        <time>2017-07-31T10:33:15Z</time>
      </trkpt>
      <trkpt lat="42.46224" lon="0.0365">
        <ele>736.7</ele>
        <time>2017-07-31T10:33:16Z</time>
      </trkpt>
      <trkpt lat="42.46223" lon="0.03658">
        <ele>736.5</ele>
        <time>2017-07-31T10:33:17Z</time>
      </trkpt>
      <trkpt lat="42.46223" lon="0.03665">
        <ele>736.3</ele>
        <time>2017-07-31T10:33:18Z</time>
      </trkpt>
      <trkpt lat="42.46221" lon="0.03671">
        <ele>736.2</ele>
        <time>2017-07-31T10:33:19Z</time>
      </trkpt>
      <trkpt lat="42.4622" lon="0.03676">
        <ele>736.1</ele>
        <time>2017-07-31T10:33:20Z</time>
      </trkpt>
      <trkpt lat="42.46218" lon="0.0368">
        <ele>736.1</ele>
        <time>2017-07-31T10:33:21Z</time>
      </trkpt>
      <trkpt lat="42.46217" lon="0.03684">
        <ele>736</ele>
        <time>2017-07-31T10:33:22Z</time>
      </trkpt>
      <trkpt lat="42.46215" lon="0.03689">
        <ele>735.9</ele>
        <time>2017-07-31T10:33:23Z</time>
      </trkpt>
      <trkpt lat="42.46214" lon="0.03693">
        <ele>735.9</ele>
        <time>2017-07-31T10:33:24Z</time>
      </trkpt>
      <trkpt lat="42.46213" lon="0.03698">
        <ele>735.8</ele>
        <time>2017-07-31T10:33:25Z</time>
      </trkpt>
      <trkpt lat="42.46212" lon="0.03703">
        <ele>735.8</ele>
        <time>2017-07-31T10:33:26Z</time>
      </trkpt>
      <trkpt lat="42.46212" lon="0.03708">
        <ele>735.6</ele>
        <time>2017-07-31T10:33:27Z</time>
      </trkpt>
      <trkpt lat="42.46211" lon="0.03713">
        <ele>735.5</ele>
        <time>2017-07-31T10:33:28Z</time>
      </trkpt>
      <trkpt lat="42.4621" lon="0.03717">
        <ele>735.3</ele>
        <time>2017-07-31T10:33:29Z</time>
      </trkpt>
      <trkpt lat="42.4621" lon="0.03721">
        <ele>735.2</ele>
        <time>2017-07-31T10:33:30Z</time>
      </trkpt>
      <trkpt lat="42.4621" lon="0.03725">
        <ele>735.1</ele>
        <time>2017-07-31T10:33:31Z</time>
      </trkpt>
      <trkpt lat="42.4621" lon="0.03731">
        <ele>734.8</ele>
        <time>2017-07-31T10:33:32Z</time>
      </trkpt>
      <trkpt lat="42.46209" lon="0.03738">
        <ele>734.4</ele>
        <time>2017-07-31T10:33:33Z</time>
      </trkpt>
      <trkpt lat="42.46209" lon="0.03744">
        <ele>734</ele>
        <time>2017-07-31T10:33:34Z</time>
      </trkpt>
      <trkpt lat="42.46208" lon="0.03751">
        <ele>733.5</ele>
        <time>2017-07-31T10:33:35Z</time>
      </trkpt>
      <trkpt lat="42.46207" lon="0.03756">
        <ele>733.3</ele>
        <time>2017-07-31T10:33:36Z</time>
      </trkpt>
      <trkpt lat="42.46206" lon="0.03761">
        <ele>733.2</ele>
        <time>2017-07-31T10:33:37Z</time>
      </trkpt>
      <trkpt lat="42.46204" lon="0.03766">
        <ele>733.1</ele>
        <time>2017-07-31T10:33:38Z</time>
      </trkpt>
      <trkpt lat="42.46203" lon="0.03771">
        <ele>732.9</ele>
        <time>2017-07-31T10:33:39Z</time>
      </trkpt>
      <trkpt lat="42.46201" lon="0.03774">
        <ele>732.9</ele>
        <time>2017-07-31T10:33:40Z</time>
      </trkpt>
      <trkpt lat="42.46199" lon="0.03777">
        <ele>733.1</ele>
        <time>2017-07-31T10:33:42Z</time>
      </trkpt>
      <trkpt lat="42.46196" lon="0.03778">
        <ele>733.4</ele>
        <time>2017-07-31T10:33:47Z</time>
      </trkpt>
      <trkpt lat="42.46193" lon="0.03781">
        <ele>733.7</ele>
        <time>2017-07-31T10:33:50Z</time>
      </trkpt>
      <trkpt lat="42.46191" lon="0.03784">
        <ele>733.9</ele>
        <time>2017-07-31T10:33:52Z</time>
      </trkpt>
      <trkpt lat="42.46189" lon="0.03788">
        <ele>734.1</ele>
        <time>2017-07-31T10:33:54Z</time>
      </trkpt>
      <trkpt lat="42.46188" lon="0.03792">
        <ele>734.3</ele>
        <time>2017-07-31T10:33:57Z</time>
      </trkpt>
      <trkpt lat="42.46186" lon="0.03796">
        <ele>734.8</ele>
        <time>2017-07-31T10:34:01Z</time>
      </trkpt>
      <trkpt lat="42.46185" lon="0.038">
        <ele>734.8</ele>
        <time>2017-07-31T10:34:05Z</time>
      </trkpt>
      <trkpt lat="42.46188" lon="0.03802">
        <ele>734.9</ele>
        <time>2017-07-31T10:34:08Z</time>
      </trkpt>
      <trkpt lat="42.46191" lon="0.03804">
        <ele>734.9</ele>
        <time>2017-07-31T10:34:12Z</time>
      </trkpt>
      <trkpt lat="42.46192" lon="0.03808">
        <ele>734.9</ele>
        <time>2017-07-31T10:34:15Z</time>
      </trkpt>
      <trkpt lat="42.46195" lon="0.03813">
        <ele>734.9</ele>
        <time>2017-07-31T10:34:17Z</time>
      </trkpt>
      <trkpt lat="42.46196" lon="0.03819">
        <ele>734.8</ele>
        <time>2017-07-31T10:34:19Z</time>
      </trkpt>
      <trkpt lat="42.46195" lon="0.03823">
        <ele>734.8</ele>
        <time>2017-07-31T10:34:20Z</time>
      </trkpt>
      <trkpt lat="42.46193" lon="0.03829">
        <ele>734.7</ele>
        <time>2017-07-31T10:34:22Z</time>
      </trkpt>
      <trkpt lat="42.46191" lon="0.03833">
        <ele>734.7</ele>
        <time>2017-07-31T10:34:24Z</time>
      </trkpt>
      <trkpt lat="42.4619" lon="0.03838">
        <ele>734.6</ele>
        <time>2017-07-31T10:34:26Z</time>
      </trkpt>
      <trkpt lat="42.46191" lon="0.03843">
        <ele>734.5</ele>
        <time>2017-07-31T10:34:28Z</time>
      </trkpt>
      <trkpt lat="42.46193" lon="0.03848">
        <ele>734.3</ele>
        <time>2017-07-31T10:34:30Z</time>
      </trkpt>
      <trkpt lat="42.46195" lon="0.03851">
        <ele>734.3</ele>
        <time>2017-07-31T10:34:31Z</time>
      </trkpt>
      <trkpt lat="42.46196" lon="0.03855">
        <ele>734.2</ele>
        <time>2017-07-31T10:34:32Z</time>
      </trkpt>
      <trkpt lat="42.46198" lon="0.03858">
        <ele>734</ele>
        <time>2017-07-31T10:34:33Z</time>
      </trkpt>
      <trkpt lat="42.46199" lon="0.03861">
        <ele>733.8</ele>
        <time>2017-07-31T10:34:34Z</time>
      </trkpt>
      <trkpt lat="42.462" lon="0.03865">
        <ele>733.5</ele>
        <time>2017-07-31T10:34:35Z</time>
      </trkpt>
      <trkpt lat="42.46201" lon="0.03868">
        <ele>733.2</ele>
        <time>2017-07-31T10:34:36Z</time>
      </trkpt>
      <trkpt lat="42.46202" lon="0.03872">
        <ele>733</ele>
        <time>2017-07-31T10:34:37Z</time>
      </trkpt>
      <trkpt lat="42.46203" lon="0.03876">
        <ele>732.8</ele>
        <time>2017-07-31T10:34:38Z</time>
      </trkpt>
      <trkpt lat="42.46205" lon="0.0388">
        <ele>732.3</ele>
        <time>2017-07-31T10:34:39Z</time>
      </trkpt>
      <trkpt lat="42.46205" lon="0.03885">
        <ele>731.8</ele>
        <time>2017-07-31T10:34:40Z</time>
      </trkpt>
      <trkpt lat="42.46206" lon="0.03891">
        <ele>731.3</ele>
        <time>2017-07-31T10:34:41Z</time>
      </trkpt>
      <trkpt lat="42.46206" lon="0.03896">
        <ele>730.9</ele>
        <time>2017-07-31T10:34:42Z</time>
      </trkpt>
      <trkpt lat="42.46206" lon="0.03901">
        <ele>730.7</ele>
        <time>2017-07-31T10:34:43Z</time>
      </trkpt>
      <trkpt lat="42.46206" lon="0.03905">
        <ele>730.5</ele>
        <time>2017-07-31T10:34:44Z</time>
      </trkpt>
      <trkpt lat="42.46206" lon="0.03909">
        <ele>730.3</ele>
        <time>2017-07-31T10:34:45Z</time>
      </trkpt>
      <trkpt lat="42.46206" lon="0.03913">
        <ele>730.1</ele>
        <time>2017-07-31T10:34:46Z</time>
      </trkpt>
      <trkpt lat="42.46206" lon="0.03918">
        <ele>729.4</ele>
        <time>2017-07-31T10:34:47Z</time>
      </trkpt>
      <trkpt lat="42.46206" lon="0.03922">
        <ele>728.8</ele>
        <time>2017-07-31T10:34:48Z</time>
      </trkpt>
      <trkpt lat="42.46206" lon="0.03928">
        <ele>728.4</ele>
        <time>2017-07-31T10:34:50Z</time>
      </trkpt>
      <trkpt lat="42.46206" lon="0.03932">
        <ele>728.2</ele>
        <time>2017-07-31T10:34:51Z</time>
      </trkpt>
      <trkpt lat="42.46206" lon="0.03937">
        <ele>727.9</ele>
        <time>2017-07-31T10:34:52Z</time>
      </trkpt>
      <trkpt lat="42.46207" lon="0.03942">
        <ele>727.3</ele>
        <time>2017-07-31T10:34:53Z</time>
      </trkpt>
      <trkpt lat="42.46207" lon="0.03946">
        <ele>726.7</ele>
        <time>2017-07-31T10:34:54Z</time>
      </trkpt>
      <trkpt lat="42.46208" lon="0.03952">
        <ele>725.9</ele>
        <time>2017-07-31T10:34:55Z</time>
      </trkpt>
      <trkpt lat="42.46209" lon="0.03957">
        <ele>724.9</ele>
        <time>2017-07-31T10:34:56Z</time>
      </trkpt>
      <trkpt lat="42.46211" lon="0.03963">
        <ele>724.1</ele>
        <time>2017-07-31T10:34:57Z</time>
      </trkpt>
      <trkpt lat="42.46213" lon="0.03969">
        <ele>723.5</ele>
        <time>2017-07-31T10:34:58Z</time>
      </trkpt>
      <trkpt lat="42.46214" lon="0.03975">
        <ele>723.3</ele>
        <time>2017-07-31T10:34:59Z</time>
      </trkpt>
      <trkpt lat="42.46215" lon="0.03981">
        <ele>723.2</ele>
        <time>2017-07-31T10:35:00Z</time>
      </trkpt>
      <trkpt lat="42.46215" lon="0.03987">
        <ele>723.1</ele>
        <time>2017-07-31T10:35:01Z</time>
      </trkpt>
      <trkpt lat="42.46215" lon="0.03993">
        <ele>723</ele>
        <time>2017-07-31T10:35:02Z</time>
      </trkpt>
      <trkpt lat="42.46214" lon="0.03998">
        <ele>722.9</ele>
        <time>2017-07-31T10:35:03Z</time>
      </trkpt>
      <trkpt lat="42.46213" lon="0.04004">
        <ele>722.8</ele>
        <time>2017-07-31T10:35:04Z</time>
      </trkpt>
      <trkpt lat="42.46213" lon="0.04009">
        <ele>722.7</ele>
        <time>2017-07-31T10:35:05Z</time>
      </trkpt>
      <trkpt lat="42.46212" lon="0.04015">
        <ele>722.7</ele>
        <time>2017-07-31T10:35:06Z</time>
      </trkpt>
      <trkpt lat="42.46212" lon="0.0402">
        <ele>722.6</ele>
        <time>2017-07-31T10:35:07Z</time>
      </trkpt>
      <trkpt lat="42.46212" lon="0.04025">
        <ele>722.6</ele>
        <time>2017-07-31T10:35:08Z</time>
      </trkpt>
      <trkpt lat="42.46212" lon="0.04031">
        <ele>722.6</ele>
        <time>2017-07-31T10:35:09Z</time>
      </trkpt>
      <trkpt lat="42.46212" lon="0.04036">
        <ele>722.5</ele>
        <time>2017-07-31T10:35:10Z</time>
      </trkpt>
      <trkpt lat="42.46211" lon="0.04042">
        <ele>722.5</ele>
        <time>2017-07-31T10:35:11Z</time>
      </trkpt>
      <trkpt lat="42.46211" lon="0.04048">
        <ele>722.5</ele>
        <time>2017-07-31T10:35:12Z</time>
      </trkpt>
      <trkpt lat="42.46212" lon="0.04054">
        <ele>722.4</ele>
        <time>2017-07-31T10:35:13Z</time>
      </trkpt>
      <trkpt lat="42.46212" lon="0.0406">
        <ele>722.4</ele>
        <time>2017-07-31T10:35:14Z</time>
      </trkpt>
      <trkpt lat="42.46213" lon="0.04065">
        <ele>722.4</ele>
        <time>2017-07-31T10:35:15Z</time>
      </trkpt>
      <trkpt lat="42.46213" lon="0.04069">
        <ele>722.3</ele>
        <time>2017-07-31T10:35:16Z</time>
      </trkpt>
      <trkpt lat="42.46211" lon="0.04075">
        <ele>722.3</ele>
        <time>2017-07-31T10:35:18Z</time>
      </trkpt>
      <trkpt lat="42.46209" lon="0.04079">
        <ele>722.2</ele>
        <time>2017-07-31T10:35:20Z</time>
      </trkpt>
      <trkpt lat="42.46208" lon="0.04084">
        <ele>722.2</ele>
        <time>2017-07-31T10:35:22Z</time>
      </trkpt>
      <trkpt lat="42.46208" lon="0.04092">
        <ele>722.1</ele>
        <time>2017-07-31T10:35:24Z</time>
      </trkpt>
      <trkpt lat="42.46208" lon="0.04096">
        <ele>722.1</ele>
        <time>2017-07-31T10:35:25Z</time>
      </trkpt>
      <trkpt lat="42.46209" lon="0.04099">
        <ele>722.1</ele>
        <time>2017-07-31T10:35:26Z</time>
      </trkpt>
      <trkpt lat="42.46209" lon="0.04103">
        <ele>722.1</ele>
        <time>2017-07-31T10:35:27Z</time>
      </trkpt>
      <trkpt lat="42.4621" lon="0.04107">
        <ele>722</ele>
        <time>2017-07-31T10:35:28Z</time>
      </trkpt>
      <trkpt lat="42.4621" lon="0.04111">
        <ele>721.9</ele>
        <time>2017-07-31T10:35:29Z</time>
      </trkpt>
      <trkpt lat="42.4621" lon="0.04116">
        <ele>721.9</ele>
        <time>2017-07-31T10:35:30Z</time>
      </trkpt>
      <trkpt lat="42.46211" lon="0.04121">
        <ele>721.8</ele>
        <time>2017-07-31T10:35:31Z</time>
      </trkpt>
      <trkpt lat="42.46211" lon="0.04126">
        <ele>721.8</ele>
        <time>2017-07-31T10:35:32Z</time>
      </trkpt>
      <trkpt lat="42.46211" lon="0.04132">
        <ele>721.8</ele>
        <time>2017-07-31T10:35:33Z</time>
      </trkpt>
      <trkpt lat="42.46211" lon="0.04137">
        <ele>721.7</ele>
        <time>2017-07-31T10:35:34Z</time>
      </trkpt>
      <trkpt lat="42.46212" lon="0.04142">
        <ele>721.7</ele>
        <time>2017-07-31T10:35:35Z</time>
      </trkpt>
      <trkpt lat="42.46212" lon="0.04147">
        <ele>721.7</ele>
        <time>2017-07-31T10:35:36Z</time>
      </trkpt>
      <trkpt lat="42.46212" lon="0.04152">
        <ele>721.7</ele>
        <time>2017-07-31T10:35:37Z</time>
      </trkpt>
      <trkpt lat="42.46213" lon="0.04157">
        <ele>721.6</ele>
        <time>2017-07-31T10:35:38Z</time>
      </trkpt>
      <trkpt lat="42.46213" lon="0.04161">
        <ele>721.6</ele>
        <time>2017-07-31T10:35:39Z</time>
      </trkpt>
      <trkpt lat="42.46214" lon="0.04166">
        <ele>721.6</ele>
        <time>2017-07-31T10:35:40Z</time>
      </trkpt>
      <trkpt lat="42.46214" lon="0.04171">
        <ele>721.5</ele>
        <time>2017-07-31T10:35:41Z</time>
      </trkpt>
      <trkpt lat="42.46213" lon="0.04177">
        <ele>721.5</ele>
        <time>2017-07-31T10:35:43Z</time>
      </trkpt>
      <trkpt lat="42.46213" lon="0.04181">
        <ele>721.5</ele>
        <time>2017-07-31T10:35:45Z</time>
      </trkpt>
      <trkpt lat="42.46213" lon="0.04188">
        <ele>721.4</ele>
        <time>2017-07-31T10:35:47Z</time>
      </trkpt>
      <trkpt lat="42.46213" lon="0.04193">
        <ele>721.4</ele>
        <time>2017-07-31T10:35:49Z</time>
      </trkpt>
      <trkpt lat="42.46213" lon="0.04197">
        <ele>721.4</ele>
        <time>2017-07-31T10:35:56Z</time>
      </trkpt>
      <trkpt lat="42.46215" lon="0.04201">
        <ele>721.4</ele>
        <time>2017-07-31T10:36:01Z</time>
      </trkpt>
      <trkpt lat="42.46215" lon="0.04206">
        <ele>721.5</ele>
        <time>2017-07-31T10:36:05Z</time>
      </trkpt>
      <trkpt lat="42.46216" lon="0.0421">
        <ele>722</ele>
        <time>2017-07-31T10:36:09Z</time>
      </trkpt>
      <trkpt lat="42.46217" lon="0.04214">
        <ele>722.2</ele>
        <time>2017-07-31T10:36:15Z</time>
      </trkpt>
      <trkpt lat="42.46217" lon="0.0422">
        <ele>722.3</ele>
        <time>2017-07-31T10:36:17Z</time>
      </trkpt>
      <trkpt lat="42.46217" lon="0.04225">
        <ele>722.2</ele>
        <time>2017-07-31T10:36:19Z</time>
      </trkpt>
      <trkpt lat="42.46217" lon="0.04229">
        <ele>722.2</ele>
        <time>2017-07-31T10:36:21Z</time>
      </trkpt>
      <trkpt lat="42.46217" lon="0.04234">
        <ele>722.2</ele>
        <time>2017-07-31T10:36:23Z</time>
      </trkpt>
      <trkpt lat="42.46216" lon="0.0424">
        <ele>722.1</ele>
        <time>2017-07-31T10:36:25Z</time>
      </trkpt>
      <trkpt lat="42.46216" lon="0.04246">
        <ele>722</ele>
        <time>2017-07-31T10:36:27Z</time>
      </trkpt>
      <trkpt lat="42.46216" lon="0.04254">
        <ele>721.9</ele>
        <time>2017-07-31T10:36:29Z</time>
      </trkpt>
      <trkpt lat="42.46217" lon="0.04258">
        <ele>721.8</ele>
        <time>2017-07-31T10:36:30Z</time>
      </trkpt>
      <trkpt lat="42.46217" lon="0.04262">
        <ele>721.7</ele>
        <time>2017-07-31T10:36:31Z</time>
      </trkpt>
      <trkpt lat="42.46217" lon="0.04267">
        <ele>721.7</ele>
        <time>2017-07-31T10:36:32Z</time>
      </trkpt>
      <trkpt lat="42.46217" lon="0.04272">
        <ele>721.7</ele>
        <time>2017-07-31T10:36:33Z</time>
      </trkpt>
      <trkpt lat="42.46217" lon="0.04277">
        <ele>721.6</ele>
        <time>2017-07-31T10:36:34Z</time>
      </trkpt>
      <trkpt lat="42.46218" lon="0.04283">
        <ele>721.6</ele>
        <time>2017-07-31T10:36:35Z</time>
      </trkpt>
      <trkpt lat="42.46218" lon="0.04287">
        <ele>721.5</ele>
        <time>2017-07-31T10:36:36Z</time>
      </trkpt>
      <trkpt lat="42.4622" lon="0.0429">
        <ele>721.5</ele>
        <time>2017-07-31T10:36:43Z</time>
      </trkpt>
      <trkpt lat="42.4622" lon="0.04294">
        <ele>721.4</ele>
        <time>2017-07-31T10:36:49Z</time>
      </trkpt>
      <trkpt lat="42.46221" lon="0.04299">
        <ele>721.4</ele>
        <time>2017-07-31T10:36:53Z</time>
      </trkpt>
      <trkpt lat="42.46223" lon="0.04305">
        <ele>721.2</ele>
        <time>2017-07-31T10:36:55Z</time>
      </trkpt>
      <trkpt lat="42.46225" lon="0.04309">
        <ele>721.1</ele>
        <time>2017-07-31T10:36:56Z</time>
      </trkpt>
      <trkpt lat="42.46226" lon="0.04313">
        <ele>720.8</ele>
        <time>2017-07-31T10:36:57Z</time>
      </trkpt>
      <trkpt lat="42.46226" lon="0.04317">
        <ele>720.8</ele>
        <time>2017-07-31T10:36:58Z</time>
      </trkpt>
      <trkpt lat="42.46226" lon="0.04322">
        <ele>720.7</ele>
        <time>2017-07-31T10:37:00Z</time>
      </trkpt>
      <trkpt lat="42.46223" lon="0.04326">
        <ele>720.6</ele>
        <time>2017-07-31T10:37:02Z</time>
      </trkpt>
      <trkpt lat="42.4622" lon="0.04326">
        <ele>720.6</ele>
        <time>2017-07-31T10:37:07Z</time>
      </trkpt>
      <trkpt lat="42.46217" lon="0.04326">
        <ele>720.5</ele>
        <time>2017-07-31T10:37:11Z</time>
      </trkpt>
      <trkpt lat="42.46214" lon="0.04327">
        <ele>720.4</ele>
        <time>2017-07-31T10:37:15Z</time>
      </trkpt>
      <trkpt lat="42.46211" lon="0.04328">
        <ele>720.2</ele>
        <time>2017-07-31T10:37:20Z</time>
      </trkpt>
      <trkpt lat="42.46208" lon="0.04329">
        <ele>720.1</ele>
        <time>2017-07-31T10:37:27Z</time>
      </trkpt>
      <trkpt lat="42.46205" lon="0.04329">
        <ele>719.9</ele>
        <time>2017-07-31T10:37:31Z</time>
      </trkpt>
      <trkpt lat="42.46202" lon="0.04327">
        <ele>719.7</ele>
        <time>2017-07-31T10:37:38Z</time>
      </trkpt>
      <trkpt lat="42.46199" lon="0.04327">
        <ele>719.5</ele>
        <time>2017-07-31T10:37:40Z</time>
      </trkpt>
      <trkpt lat="42.46195" lon="0.04327">
        <ele>719.1</ele>
        <time>2017-07-31T10:37:42Z</time>
      </trkpt>
      <trkpt lat="42.46191" lon="0.04327">
        <ele>718.6</ele>
        <time>2017-07-31T10:37:44Z</time>
      </trkpt>
      <trkpt lat="42.46189" lon="0.04328">
        <ele>718.2</ele>
        <time>2017-07-31T10:37:49Z</time>
      </trkpt>
      <trkpt lat="42.46186" lon="0.0433">
        <ele>717.7</ele>
        <time>2017-07-31T10:38:55Z</time>
      </trkpt>
      <trkpt lat="42.46184" lon="0.04333">
        <ele>717.2</ele>
        <time>2017-07-31T10:38:57Z</time>
      </trkpt>
      <trkpt lat="42.46182" lon="0.04336">
        <ele>717</ele>
        <time>2017-07-31T10:39:02Z</time>
      </trkpt>
      <trkpt lat="42.46181" lon="0.0434">
        <ele>716.8</ele>
        <time>2017-07-31T10:39:06Z</time>
      </trkpt>
      <trkpt lat="42.4618" lon="0.04343">
        <ele>716.5</ele>
        <time>2017-07-31T10:39:09Z</time>
      </trkpt>
      <trkpt lat="42.46177" lon="0.04347">
        <ele>716.2</ele>
        <time>2017-07-31T10:39:13Z</time>
      </trkpt>
      <trkpt lat="42.46174" lon="0.04349">
        <ele>715.9</ele>
        <time>2017-07-31T10:39:16Z</time>
      </trkpt>
      <trkpt lat="42.46172" lon="0.04351">
        <ele>715.1</ele>
        <time>2017-07-31T10:39:19Z</time>
      </trkpt>
      <trkpt lat="42.46168" lon="0.04353">
        <ele>714.3</ele>
        <time>2017-07-31T10:39:22Z</time>
      </trkpt>
      <trkpt lat="42.46165" lon="0.04353">
        <ele>713.7</ele>
        <time>2017-07-31T10:39:25Z</time>
      </trkpt>
      <trkpt lat="42.46162" lon="0.04352">
        <ele>713.1</ele>
        <time>2017-07-31T10:39:29Z</time>
      </trkpt>
      <trkpt lat="42.46159" lon="0.04352">
        <ele>712.5</ele>
        <time>2017-07-31T10:39:32Z</time>
      </trkpt>
      <trkpt lat="42.46156" lon="0.04349">
        <ele>712</ele>
        <time>2017-07-31T10:39:36Z</time>
      </trkpt>
      <trkpt lat="42.46153" lon="0.04347">
        <ele>711.8</ele>
        <time>2017-07-31T10:39:40Z</time>
      </trkpt>
      <trkpt lat="42.4615" lon="0.04346">
        <ele>711.6</ele>
        <time>2017-07-31T10:39:44Z</time>
      </trkpt>
      <trkpt lat="42.46147" lon="0.04345">
        <ele>711.4</ele>
        <time>2017-07-31T10:40:30Z</time>
      </trkpt>
      <trkpt lat="42.46144" lon="0.04342">
        <ele>711</ele>
        <time>2017-07-31T10:40:34Z</time>
      </trkpt>
      <trkpt lat="42.46142" lon="0.04339">
        <ele>710.7</ele>
        <time>2017-07-31T10:40:43Z</time>
      </trkpt>
      <trkpt lat="42.4614" lon="0.04336">
        <ele>710.4</ele>
        <time>2017-07-31T10:40:51Z</time>
      </trkpt>
      <trkpt lat="42.46136" lon="0.04336">
        <ele>709.9</ele>
        <time>2017-07-31T10:40:56Z</time>
      </trkpt>
      <trkpt lat="42.46133" lon="0.04335">
        <ele>709</ele>
        <time>2017-07-31T10:41:00Z</time>
      </trkpt>
      <trkpt lat="42.4613" lon="0.04335">
        <ele>708.7</ele>
        <time>2017-07-31T10:41:04Z</time>
      </trkpt>
      <trkpt lat="42.46126" lon="0.04333">
        <ele>708.4</ele>
        <time>2017-07-31T10:41:08Z</time>
      </trkpt>
      <trkpt lat="42.46121" lon="0.04332">
        <ele>708.3</ele>
        <time>2017-07-31T10:41:10Z</time>
      </trkpt>
      <trkpt lat="42.46116" lon="0.04331">
        <ele>708</ele>
        <time>2017-07-31T10:41:12Z</time>
      </trkpt>
      <trkpt lat="42.46113" lon="0.04332">
        <ele>707.8</ele>
        <time>2017-07-31T10:41:13Z</time>
      </trkpt>
      <trkpt lat="42.4611" lon="0.04332">
        <ele>707.5</ele>
        <time>2017-07-31T10:41:14Z</time>
      </trkpt>
      <trkpt lat="42.46107" lon="0.04333">
        <ele>707.3</ele>
        <time>2017-07-31T10:41:15Z</time>
      </trkpt>
      <trkpt lat="42.46104" lon="0.04334">
        <ele>707.1</ele>
        <time>2017-07-31T10:41:16Z</time>
      </trkpt>
      <trkpt lat="42.46101" lon="0.04335">
        <ele>706.8</ele>
        <time>2017-07-31T10:41:17Z</time>
      </trkpt>
      <trkpt lat="42.46098" lon="0.04337">
        <ele>706.6</ele>
        <time>2017-07-31T10:41:18Z</time>
      </trkpt>
      <trkpt lat="42.46093" lon="0.04339">
        <ele>706</ele>
        <time>2017-07-31T10:41:20Z</time>
      </trkpt>
      <trkpt lat="42.46091" lon="0.04343">
        <ele>705.5</ele>
        <time>2017-07-31T10:41:22Z</time>
      </trkpt>
      <trkpt lat="42.46091" lon="0.04349">
        <ele>705</ele>
        <time>2017-07-31T10:41:24Z</time>
      </trkpt>
      <trkpt lat="42.46092" lon="0.04354">
        <ele>704.4</ele>
        <time>2017-07-31T10:41:26Z</time>
      </trkpt>
      <trkpt lat="42.46093" lon="0.04357">
        <ele>704</ele>
        <time>2017-07-31T10:41:30Z</time>
      </trkpt>
      <trkpt lat="42.46093" lon="0.04361">
        <ele>703.5</ele>
        <time>2017-07-31T10:41:33Z</time>
      </trkpt>
      <trkpt lat="42.46093" lon="0.04365">
        <ele>703</ele>
        <time>2017-07-31T10:41:38Z</time>
      </trkpt>
      <trkpt lat="42.46093" lon="0.04369">
        <ele>702.8</ele>
        <time>2017-07-31T10:41:50Z</time>
      </trkpt>
      <trkpt lat="42.46092" lon="0.04374">
        <ele>702.4</ele>
        <time>2017-07-31T10:41:57Z</time>
      </trkpt>
      <trkpt lat="42.4609" lon="0.04378">
        <ele>701.9</ele>
        <time>2017-07-31T10:41:59Z</time>
      </trkpt>
      <trkpt lat="42.46088" lon="0.04383">
        <ele>701.5</ele>
        <time>2017-07-31T10:42:01Z</time>
      </trkpt>
      <trkpt lat="42.46085" lon="0.04388">
        <ele>699.9</ele>
        <time>2017-07-31T10:42:03Z</time>
      </trkpt>
      <trkpt lat="42.46082" lon="0.04392">
        <ele>699.2</ele>
        <time>2017-07-31T10:42:05Z</time>
      </trkpt>
      <trkpt lat="42.46077" lon="0.04393">
        <ele>698.9</ele>
        <time>2017-07-31T10:42:07Z</time>
      </trkpt>
      <trkpt lat="42.46072" lon="0.04392">
        <ele>698.5</ele>
        <time>2017-07-31T10:42:09Z</time>
      </trkpt>
      <trkpt lat="42.46067" lon="0.04392">
        <ele>697.8</ele>
        <time>2017-07-31T10:42:11Z</time>
      </trkpt>
      <trkpt lat="42.46063" lon="0.04393">
        <ele>697.3</ele>
        <time>2017-07-31T10:42:12Z</time>
      </trkpt>
      <trkpt lat="42.4606" lon="0.04394">
        <ele>696.9</ele>
        <time>2017-07-31T10:42:13Z</time>
      </trkpt>
      <trkpt lat="42.46057" lon="0.04395">
        <ele>696.6</ele>
        <time>2017-07-31T10:42:14Z</time>
      </trkpt>
      <trkpt lat="42.46053" lon="0.04396">
        <ele>696.2</ele>
        <time>2017-07-31T10:42:16Z</time>
      </trkpt>
      <trkpt lat="42.46049" lon="0.04395">
        <ele>696</ele>
        <time>2017-07-31T10:42:20Z</time>
      </trkpt>
      <trkpt lat="42.46045" lon="0.04395">
        <ele>695.7</ele>
        <time>2017-07-31T10:42:22Z</time>
      </trkpt>
      <trkpt lat="42.46042" lon="0.04395">
        <ele>695.5</ele>
        <time>2017-07-31T10:42:23Z</time>
      </trkpt>
      <trkpt lat="42.46038" lon="0.04395">
        <ele>695</ele>
        <time>2017-07-31T10:42:24Z</time>
      </trkpt>
      <trkpt lat="42.46035" lon="0.04396">
        <ele>694.5</ele>
        <time>2017-07-31T10:42:25Z</time>
      </trkpt>
      <trkpt lat="42.46032" lon="0.04397">
        <ele>694</ele>
        <time>2017-07-31T10:42:26Z</time>
      </trkpt>
      <trkpt lat="42.4603" lon="0.04398">
        <ele>693.6</ele>
        <time>2017-07-31T10:42:27Z</time>
      </trkpt>
      <trkpt lat="42.46024" lon="0.04401">
        <ele>692.6</ele>
        <time>2017-07-31T10:42:29Z</time>
      </trkpt>
      <trkpt lat="42.4602" lon="0.04402">
        <ele>692</ele>
        <time>2017-07-31T10:42:30Z</time>
      </trkpt>
      <trkpt lat="42.46016" lon="0.04403">
        <ele>691.4</ele>
        <time>2017-07-31T10:42:31Z</time>
      </trkpt>
      <trkpt lat="42.46012" lon="0.04404">
        <ele>690.8</ele>
        <time>2017-07-31T10:42:32Z</time>
      </trkpt>
      <trkpt lat="42.46009" lon="0.04405">
        <ele>690.6</ele>
        <time>2017-07-31T10:42:33Z</time>
      </trkpt>
      <trkpt lat="42.46004" lon="0.04405">
        <ele>690.3</ele>
        <time>2017-07-31T10:42:35Z</time>
      </trkpt>
      <trkpt lat="42.46001" lon="0.04405">
        <ele>690.1</ele>
        <time>2017-07-31T10:42:36Z</time>
      </trkpt>
      <trkpt lat="42.45998" lon="0.04405">
        <ele>689.9</ele>
        <time>2017-07-31T10:42:37Z</time>
      </trkpt>
      <trkpt lat="42.45995" lon="0.04405">
        <ele>689.6</ele>
        <time>2017-07-31T10:42:38Z</time>
      </trkpt>
      <trkpt lat="42.45991" lon="0.04405">
        <ele>689.3</ele>
        <time>2017-07-31T10:42:39Z</time>
      </trkpt>
      <trkpt lat="42.45988" lon="0.04405">
        <ele>689</ele>
        <time>2017-07-31T10:42:40Z</time>
      </trkpt>
      <trkpt lat="42.45984" lon="0.04404">
        <ele>688.6</ele>
        <time>2017-07-31T10:42:41Z</time>
      </trkpt>
      <trkpt lat="42.45981" lon="0.04404">
        <ele>688.3</ele>
        <time>2017-07-31T10:42:42Z</time>
      </trkpt>
      <trkpt lat="42.45978" lon="0.04403">
        <ele>688.1</ele>
        <time>2017-07-31T10:42:43Z</time>
      </trkpt>
      <trkpt lat="42.45974" lon="0.04402">
        <ele>687.9</ele>
        <time>2017-07-31T10:42:44Z</time>
      </trkpt>
      <trkpt lat="42.45972" lon="0.04401">
        <ele>687.8</ele>
        <time>2017-07-31T10:42:45Z</time>
      </trkpt>
      <trkpt lat="42.45967" lon="0.04399">
        <ele>687.7</ele>
        <time>2017-07-31T10:42:47Z</time>
      </trkpt>
      <trkpt lat="42.45962" lon="0.04398">
        <ele>687.5</ele>
        <time>2017-07-31T10:42:49Z</time>
      </trkpt>
      <trkpt lat="42.45959" lon="0.04397">
        <ele>687.5</ele>
        <time>2017-07-31T10:42:51Z</time>
      </trkpt>
      <trkpt lat="42.45957" lon="0.044">
        <ele>687.4</ele>
        <time>2017-07-31T10:43:08Z</time>
      </trkpt>
      <trkpt lat="42.45954" lon="0.04401">
        <ele>687.3</ele>
        <time>2017-07-31T10:43:19Z</time>
      </trkpt>
      <trkpt lat="42.45952" lon="0.04403">
        <ele>687.3</ele>
        <time>2017-07-31T10:43:23Z</time>
      </trkpt>
      <trkpt lat="42.45953" lon="0.04407">
        <ele>687.2</ele>
        <time>2017-07-31T10:43:29Z</time>
      </trkpt>
      <trkpt lat="42.45955" lon="0.0441">
        <ele>687.1</ele>
        <time>2017-07-31T10:43:33Z</time>
      </trkpt>
      <trkpt lat="42.45957" lon="0.04412">
        <ele>687</ele>
        <time>2017-07-31T10:43:37Z</time>
      </trkpt>
      <trkpt lat="42.4596" lon="0.04414">
        <ele>687</ele>
        <time>2017-07-31T10:43:43Z</time>
      </trkpt>
      <trkpt lat="42.45959" lon="0.04418">
        <ele>686.9</ele>
        <time>2017-07-31T10:43:46Z</time>
      </trkpt>
      <trkpt lat="42.45955" lon="0.04418">
        <ele>686.8</ele>
        <time>2017-07-31T10:43:53Z</time>
      </trkpt>
      <trkpt lat="42.45951" lon="0.04415">
        <ele>686.8</ele>
        <time>2017-07-31T10:43:55Z</time>
      </trkpt>
      <trkpt lat="42.45949" lon="0.04413">
        <ele>686.7</ele>
        <time>2017-07-31T10:43:56Z</time>
      </trkpt>
      <trkpt lat="42.45946" lon="0.04411">
        <ele>686.7</ele>
        <time>2017-07-31T10:43:57Z</time>
      </trkpt>
      <trkpt lat="42.45944" lon="0.04409">
        <ele>686.7</ele>
        <time>2017-07-31T10:43:58Z</time>
      </trkpt>
      <trkpt lat="42.45941" lon="0.04408">
        <ele>686.6</ele>
        <time>2017-07-31T10:43:59Z</time>
      </trkpt>
      <trkpt lat="42.45937" lon="0.04407">
        <ele>686.5</ele>
        <time>2017-07-31T10:44:00Z</time>
      </trkpt>
      <trkpt lat="42.45934" lon="0.04407">
        <ele>686.4</ele>
        <time>2017-07-31T10:44:01Z</time>
      </trkpt>
      <trkpt lat="42.45931" lon="0.04408">
        <ele>686.3</ele>
        <time>2017-07-31T10:44:02Z</time>
      </trkpt>
      <trkpt lat="42.45928" lon="0.04409">
        <ele>686.1</ele>
        <time>2017-07-31T10:44:03Z</time>
      </trkpt>
      <trkpt lat="42.45924" lon="0.0441">
        <ele>686.1</ele>
        <time>2017-07-31T10:44:04Z</time>
      </trkpt>
      <trkpt lat="42.45921" lon="0.04411">
        <ele>686</ele>
        <time>2017-07-31T10:44:05Z</time>
      </trkpt>
      <trkpt lat="42.45918" lon="0.04412">
        <ele>685.9</ele>
        <time>2017-07-31T10:44:06Z</time>
      </trkpt>
      <trkpt lat="42.45915" lon="0.04413">
        <ele>685.9</ele>
        <time>2017-07-31T10:44:07Z</time>
      </trkpt>
      <trkpt lat="42.45912" lon="0.04413">
        <ele>685.8</ele>
        <time>2017-07-31T10:44:08Z</time>
      </trkpt>
      <trkpt lat="42.45909" lon="0.04414">
        <ele>685.7</ele>
        <time>2017-07-31T10:44:09Z</time>
      </trkpt>
      <trkpt lat="42.45904" lon="0.04415">
        <ele>685.6</ele>
        <time>2017-07-31T10:44:11Z</time>
      </trkpt>
      <trkpt lat="42.45899" lon="0.04415">
        <ele>685.5</ele>
        <time>2017-07-31T10:44:13Z</time>
      </trkpt>
      <trkpt lat="42.45894" lon="0.04416">
        <ele>685.3</ele>
        <time>2017-07-31T10:44:15Z</time>
      </trkpt>
      <trkpt lat="42.4589" lon="0.04417">
        <ele>685.1</ele>
        <time>2017-07-31T10:44:16Z</time>
      </trkpt>
      <trkpt lat="42.45886" lon="0.04417">
        <ele>684.9</ele>
        <time>2017-07-31T10:44:17Z</time>
      </trkpt>
      <trkpt lat="42.45881" lon="0.04417">
        <ele>684.6</ele>
        <time>2017-07-31T10:44:18Z</time>
      </trkpt>
      <trkpt lat="42.45876" lon="0.04417">
        <ele>684.2</ele>
        <time>2017-07-31T10:44:19Z</time>
      </trkpt>
      <trkpt lat="42.4587" lon="0.04416">
        <ele>683.7</ele>
        <time>2017-07-31T10:44:20Z</time>
      </trkpt>
      <trkpt lat="42.45864" lon="0.04413">
        <ele>683.2</ele>
        <time>2017-07-31T10:44:21Z</time>
      </trkpt>
      <trkpt lat="42.45858" lon="0.0441">
        <ele>682.6</ele>
        <time>2017-07-31T10:44:22Z</time>
      </trkpt>
      <trkpt lat="42.45853" lon="0.04407">
        <ele>682.1</ele>
        <time>2017-07-31T10:44:23Z</time>
      </trkpt>
      <trkpt lat="42.45848" lon="0.04404">
        <ele>681.8</ele>
        <time>2017-07-31T10:44:24Z</time>
      </trkpt>
      <trkpt lat="42.45844" lon="0.04402">
        <ele>681.7</ele>
        <time>2017-07-31T10:44:25Z</time>
      </trkpt>
      <trkpt lat="42.45841" lon="0.044">
        <ele>681.6</ele>
        <time>2017-07-31T10:44:26Z</time>
      </trkpt>
      <trkpt lat="42.45838" lon="0.04397">
        <ele>681.7</ele>
        <time>2017-07-31T10:44:27Z</time>
      </trkpt>
      <trkpt lat="42.45836" lon="0.04396">
        <ele>681.7</ele>
        <time>2017-07-31T10:44:28Z</time>
      </trkpt>
      <trkpt lat="42.45831" lon="0.04392">
        <ele>681.8</ele>
        <time>2017-07-31T10:44:30Z</time>
      </trkpt>
      <trkpt lat="42.45827" lon="0.04388">
        <ele>681.9</ele>
        <time>2017-07-31T10:44:32Z</time>
      </trkpt>
      <trkpt lat="42.45823" lon="0.04384">
        <ele>681.8</ele>
        <time>2017-07-31T10:44:34Z</time>
      </trkpt>
      <trkpt lat="42.45818" lon="0.04382">
        <ele>681.6</ele>
        <time>2017-07-31T10:44:36Z</time>
      </trkpt>
      <trkpt lat="42.45814" lon="0.04385">
        <ele>681.5</ele>
        <time>2017-07-31T10:44:38Z</time>
      </trkpt>
      <trkpt lat="42.45813" lon="0.04389">
        <ele>681.4</ele>
        <time>2017-07-31T10:44:39Z</time>
      </trkpt>
      <trkpt lat="42.45813" lon="0.04393">
        <ele>681.4</ele>
        <time>2017-07-31T10:44:40Z</time>
      </trkpt>
      <trkpt lat="42.45813" lon="0.04398">
        <ele>681.3</ele>
        <time>2017-07-31T10:44:41Z</time>
      </trkpt>
      <trkpt lat="42.45814" lon="0.04402">
        <ele>681.2</ele>
        <time>2017-07-31T10:44:42Z</time>
      </trkpt>
      <trkpt lat="42.45815" lon="0.04406">
        <ele>681.2</ele>
        <time>2017-07-31T10:44:43Z</time>
      </trkpt>
      <trkpt lat="42.45816" lon="0.04409">
        <ele>681.1</ele>
        <time>2017-07-31T10:44:44Z</time>
      </trkpt>
      <trkpt lat="42.45818" lon="0.04416">
        <ele>681</ele>
        <time>2017-07-31T10:44:46Z</time>
      </trkpt>
      <trkpt lat="42.4582" lon="0.04423">
        <ele>680.8</ele>
        <time>2017-07-31T10:44:48Z</time>
      </trkpt>
      <trkpt lat="42.45821" lon="0.04426">
        <ele>680.8</ele>
        <time>2017-07-31T10:44:49Z</time>
      </trkpt>
      <trkpt lat="42.45823" lon="0.0443">
        <ele>680.7</ele>
        <time>2017-07-31T10:44:50Z</time>
      </trkpt>
      <trkpt lat="42.45824" lon="0.04434">
        <ele>680.6</ele>
        <time>2017-07-31T10:44:51Z</time>
      </trkpt>
      <trkpt lat="42.45826" lon="0.04438">
        <ele>680.4</ele>
        <time>2017-07-31T10:44:52Z</time>
      </trkpt>
      <trkpt lat="42.45827" lon="0.04442">
        <ele>680.4</ele>
        <time>2017-07-31T10:44:53Z</time>
      </trkpt>
      <trkpt lat="42.45829" lon="0.04446">
        <ele>680.3</ele>
        <time>2017-07-31T10:44:54Z</time>
      </trkpt>
      <trkpt lat="42.4583" lon="0.04449">
        <ele>680.2</ele>
        <time>2017-07-31T10:44:55Z</time>
      </trkpt>
      <trkpt lat="42.45833" lon="0.04454">
        <ele>680.1</ele>
        <time>2017-07-31T10:44:57Z</time>
      </trkpt>
      <trkpt lat="42.45835" lon="0.04459">
        <ele>680</ele>
        <time>2017-07-31T10:44:59Z</time>
      </trkpt>
      <trkpt lat="42.45837" lon="0.04463">
        <ele>680.1</ele>
        <time>2017-07-31T10:45:02Z</time>
      </trkpt>
      <trkpt lat="42.45839" lon="0.04465">
        <ele>680.1</ele>
        <time>2017-07-31T10:45:10Z</time>
      </trkpt>
      <trkpt lat="42.45837" lon="0.04468">
        <ele>680.1</ele>
        <time>2017-07-31T10:45:14Z</time>
      </trkpt>
      <trkpt lat="42.45836" lon="0.04473">
        <ele>680.1</ele>
        <time>2017-07-31T10:45:17Z</time>
      </trkpt>
      <trkpt lat="42.45833" lon="0.04478">
        <ele>680.2</ele>
        <time>2017-07-31T10:45:19Z</time>
      </trkpt>
      <trkpt lat="42.45832" lon="0.04481">
        <ele>680.2</ele>
        <time>2017-07-31T10:45:20Z</time>
      </trkpt>
      <trkpt lat="42.45831" lon="0.04485">
        <ele>680.2</ele>
        <time>2017-07-31T10:45:21Z</time>
      </trkpt>
      <trkpt lat="42.4583" lon="0.0449">
        <ele>680.3</ele>
        <time>2017-07-31T10:45:22Z</time>
      </trkpt>
      <trkpt lat="42.4583" lon="0.04494">
        <ele>680.3</ele>
        <time>2017-07-31T10:45:23Z</time>
      </trkpt>
      <trkpt lat="42.4583" lon="0.04499">
        <ele>680.3</ele>
        <time>2017-07-31T10:45:24Z</time>
      </trkpt>
      <trkpt lat="42.4583" lon="0.04504">
        <ele>680.3</ele>
        <time>2017-07-31T10:45:25Z</time>
      </trkpt>
      <trkpt lat="42.4583" lon="0.04508">
        <ele>680.3</ele>
        <time>2017-07-31T10:45:26Z</time>
      </trkpt>
      <trkpt lat="42.4583" lon="0.04512">
        <ele>680.3</ele>
        <time>2017-07-31T10:45:27Z</time>
      </trkpt>
      <trkpt lat="42.4583" lon="0.04516">
        <ele>680.4</ele>
        <time>2017-07-31T10:45:28Z</time>
      </trkpt>
      <trkpt lat="42.45831" lon="0.0452">
        <ele>680.4</ele>
        <time>2017-07-31T10:45:29Z</time>
      </trkpt>
      <trkpt lat="42.45831" lon="0.04525">
        <ele>680.4</ele>
        <time>2017-07-31T10:45:30Z</time>
      </trkpt>
      <trkpt lat="42.45831" lon="0.0453">
        <ele>680.4</ele>
        <time>2017-07-31T10:45:31Z</time>
      </trkpt>
      <trkpt lat="42.45831" lon="0.04536">
        <ele>680.4</ele>
        <time>2017-07-31T10:45:32Z</time>
      </trkpt>
      <trkpt lat="42.45831" lon="0.04542">
        <ele>680.4</ele>
        <time>2017-07-31T10:45:33Z</time>
      </trkpt>
      <trkpt lat="42.45832" lon="0.04549">
        <ele>680.3</ele>
        <time>2017-07-31T10:45:34Z</time>
      </trkpt>
      <trkpt lat="42.45832" lon="0.04556">
        <ele>680.2</ele>
        <time>2017-07-31T10:45:35Z</time>
      </trkpt>
      <trkpt lat="42.45832" lon="0.04563">
        <ele>680.1</ele>
        <time>2017-07-31T10:45:36Z</time>
      </trkpt>
      <trkpt lat="42.45833" lon="0.0457">
        <ele>680</ele>
        <time>2017-07-31T10:45:37Z</time>
      </trkpt>
      <trkpt lat="42.45833" lon="0.04577">
        <ele>679.9</ele>
        <time>2017-07-31T10:45:38Z</time>
      </trkpt>
      <trkpt lat="42.45832" lon="0.04583">
        <ele>679.6</ele>
        <time>2017-07-31T10:45:39Z</time>
      </trkpt>
      <trkpt lat="42.45832" lon="0.04589">
        <ele>679.2</ele>
        <time>2017-07-31T10:45:40Z</time>
      </trkpt>
      <trkpt lat="42.45831" lon="0.04595">
        <ele>678.8</ele>
        <time>2017-07-31T10:45:41Z</time>
      </trkpt>
      <trkpt lat="42.4583" lon="0.04599">
        <ele>678.6</ele>
        <time>2017-07-31T10:45:42Z</time>
      </trkpt>
      <trkpt lat="42.45829" lon="0.04603">
        <ele>678.4</ele>
        <time>2017-07-31T10:45:43Z</time>
      </trkpt>
      <trkpt lat="42.45826" lon="0.04606">
        <ele>678.2</ele>
        <time>2017-07-31T10:45:44Z</time>
      </trkpt>
      <trkpt lat="42.45823" lon="0.04608">
        <ele>678</ele>
        <time>2017-07-31T10:45:45Z</time>
      </trkpt>
      <trkpt lat="42.45819" lon="0.04609">
        <ele>677.6</ele>
        <time>2017-07-31T10:45:46Z</time>
      </trkpt>
      <trkpt lat="42.45815" lon="0.04609">
        <ele>677.3</ele>
        <time>2017-07-31T10:45:47Z</time>
      </trkpt>
      <trkpt lat="42.4581" lon="0.04607">
        <ele>676.9</ele>
        <time>2017-07-31T10:45:48Z</time>
      </trkpt>
      <trkpt lat="42.45804" lon="0.04605">
        <ele>676.5</ele>
        <time>2017-07-31T10:45:49Z</time>
      </trkpt>
      <trkpt lat="42.458" lon="0.04603">
        <ele>676.1</ele>
        <time>2017-07-31T10:45:50Z</time>
      </trkpt>
      <trkpt lat="42.45795" lon="0.04602">
        <ele>675.7</ele>
        <time>2017-07-31T10:45:51Z</time>
      </trkpt>
      <trkpt lat="42.4579" lon="0.04603">
        <ele>675.4</ele>
        <time>2017-07-31T10:45:52Z</time>
      </trkpt>
      <trkpt lat="42.45787" lon="0.04605">
        <ele>675</ele>
        <time>2017-07-31T10:45:53Z</time>
      </trkpt>
      <trkpt lat="42.45784" lon="0.04609">
        <ele>674.8</ele>
        <time>2017-07-31T10:45:54Z</time>
      </trkpt>
      <trkpt lat="42.45784" lon="0.04613">
        <ele>674.7</ele>
        <time>2017-07-31T10:45:55Z</time>
      </trkpt>
      <trkpt lat="42.45784" lon="0.04617">
        <ele>674.6</ele>
        <time>2017-07-31T10:45:56Z</time>
      </trkpt>
      <trkpt lat="42.45786" lon="0.04622">
        <ele>674.5</ele>
        <time>2017-07-31T10:45:57Z</time>
      </trkpt>
      <trkpt lat="42.45788" lon="0.04627">
        <ele>674.5</ele>
        <time>2017-07-31T10:45:58Z</time>
      </trkpt>
      <trkpt lat="42.4579" lon="0.04631">
        <ele>674.4</ele>
        <time>2017-07-31T10:45:59Z</time>
      </trkpt>
      <trkpt lat="42.45793" lon="0.04636">
        <ele>674.4</ele>
        <time>2017-07-31T10:46:00Z</time>
      </trkpt>
      <trkpt lat="42.45795" lon="0.04641">
        <ele>674.3</ele>
        <time>2017-07-31T10:46:01Z</time>
      </trkpt>
      <trkpt lat="42.45796" lon="0.04647">
        <ele>674.3</ele>
        <time>2017-07-31T10:46:02Z</time>
      </trkpt>
      <trkpt lat="42.45796" lon="0.04652">
        <ele>674.1</ele>
        <time>2017-07-31T10:46:03Z</time>
      </trkpt>
      <trkpt lat="42.45796" lon="0.04658">
        <ele>674</ele>
        <time>2017-07-31T10:46:04Z</time>
      </trkpt>
      <trkpt lat="42.45794" lon="0.04665">
        <ele>673.8</ele>
        <time>2017-07-31T10:46:05Z</time>
      </trkpt>
      <trkpt lat="42.45792" lon="0.04673">
        <ele>673.4</ele>
        <time>2017-07-31T10:46:06Z</time>
      </trkpt>
      <trkpt lat="42.45789" lon="0.0468">
        <ele>673</ele>
        <time>2017-07-31T10:46:07Z</time>
      </trkpt>
      <trkpt lat="42.45786" lon="0.04687">
        <ele>672.4</ele>
        <time>2017-07-31T10:46:08Z</time>
      </trkpt>
      <trkpt lat="42.45783" lon="0.04693">
        <ele>671.9</ele>
        <time>2017-07-31T10:46:09Z</time>
      </trkpt>
      <trkpt lat="42.4578" lon="0.04698">
        <ele>671.5</ele>
        <time>2017-07-31T10:46:10Z</time>
      </trkpt>
      <trkpt lat="42.45777" lon="0.04702">
        <ele>671.1</ele>
        <time>2017-07-31T10:46:11Z</time>
      </trkpt>
      <trkpt lat="42.45773" lon="0.04706">
        <ele>670.7</ele>
        <time>2017-07-31T10:46:12Z</time>
      </trkpt>
      <trkpt lat="42.45769" lon="0.04708">
        <ele>670.3</ele>
        <time>2017-07-31T10:46:13Z</time>
      </trkpt>
      <trkpt lat="42.45765" lon="0.0471">
        <ele>670</ele>
        <time>2017-07-31T10:46:14Z</time>
      </trkpt>
      <trkpt lat="42.45759" lon="0.04711">
        <ele>669.6</ele>
        <time>2017-07-31T10:46:15Z</time>
      </trkpt>
      <trkpt lat="42.45754" lon="0.04709">
        <ele>669.2</ele>
        <time>2017-07-31T10:46:16Z</time>
      </trkpt>
      <trkpt lat="42.45749" lon="0.04707">
        <ele>668.9</ele>
        <time>2017-07-31T10:46:17Z</time>
      </trkpt>
      <trkpt lat="42.45745" lon="0.04704">
        <ele>668.6</ele>
        <time>2017-07-31T10:46:18Z</time>
      </trkpt>
      <trkpt lat="42.4574" lon="0.047">
        <ele>668.5</ele>
        <time>2017-07-31T10:46:19Z</time>
      </trkpt>
      <trkpt lat="42.45735" lon="0.04697">
        <ele>668.3</ele>
        <time>2017-07-31T10:46:20Z</time>
      </trkpt>
      <trkpt lat="42.45731" lon="0.04694">
        <ele>668.3</ele>
        <time>2017-07-31T10:46:21Z</time>
      </trkpt>
      <trkpt lat="42.45726" lon="0.04691">
        <ele>668.2</ele>
        <time>2017-07-31T10:46:22Z</time>
      </trkpt>
      <trkpt lat="42.45722" lon="0.04689">
        <ele>668.1</ele>
        <time>2017-07-31T10:46:23Z</time>
      </trkpt>
      <trkpt lat="42.45717" lon="0.04687">
        <ele>667.9</ele>
        <time>2017-07-31T10:46:24Z</time>
      </trkpt>
      <trkpt lat="42.45713" lon="0.04687">
        <ele>667.8</ele>
        <time>2017-07-31T10:46:25Z</time>
      </trkpt>
      <trkpt lat="42.45708" lon="0.04689">
        <ele>667.6</ele>
        <time>2017-07-31T10:46:26Z</time>
      </trkpt>
      <trkpt lat="42.45703" lon="0.04693">
        <ele>667.4</ele>
        <time>2017-07-31T10:46:27Z</time>
      </trkpt>
      <trkpt lat="42.45701" lon="0.04698">
        <ele>667.1</ele>
        <time>2017-07-31T10:46:28Z</time>
      </trkpt>
      <trkpt lat="42.45701" lon="0.04704">
        <ele>666.8</ele>
        <time>2017-07-31T10:46:29Z</time>
      </trkpt>
      <trkpt lat="42.45703" lon="0.04709">
        <ele>666.5</ele>
        <time>2017-07-31T10:46:30Z</time>
      </trkpt>
      <trkpt lat="42.45704" lon="0.04715">
        <ele>666.2</ele>
        <time>2017-07-31T10:46:31Z</time>
      </trkpt>
      <trkpt lat="42.45704" lon="0.0472">
        <ele>665.8</ele>
        <time>2017-07-31T10:46:32Z</time>
      </trkpt>
      <trkpt lat="42.45703" lon="0.04726">
        <ele>665.5</ele>
        <time>2017-07-31T10:46:33Z</time>
      </trkpt>
      <trkpt lat="42.45702" lon="0.04732">
        <ele>665.2</ele>
        <time>2017-07-31T10:46:34Z</time>
      </trkpt>
      <trkpt lat="42.45699" lon="0.04737">
        <ele>664.7</ele>
        <time>2017-07-31T10:46:35Z</time>
      </trkpt>
      <trkpt lat="42.45695" lon="0.04743">
        <ele>664.1</ele>
        <time>2017-07-31T10:46:36Z</time>
      </trkpt>
      <trkpt lat="42.45689" lon="0.04749">
        <ele>663.3</ele>
        <time>2017-07-31T10:46:37Z</time>
      </trkpt>
      <trkpt lat="42.45684" lon="0.04756">
        <ele>662.5</ele>
        <time>2017-07-31T10:46:38Z</time>
      </trkpt>
      <trkpt lat="42.45677" lon="0.04763">
        <ele>661.5</ele>
        <time>2017-07-31T10:46:39Z</time>
      </trkpt>
      <trkpt lat="42.4567" lon="0.04769">
        <ele>660.6</ele>
        <time>2017-07-31T10:46:40Z</time>
      </trkpt>
      <trkpt lat="42.45663" lon="0.04775">
        <ele>659.8</ele>
        <time>2017-07-31T10:46:41Z</time>
      </trkpt>
      <trkpt lat="42.45656" lon="0.04781">
        <ele>659.1</ele>
        <time>2017-07-31T10:46:42Z</time>
      </trkpt>
      <trkpt lat="42.4565" lon="0.04786">
        <ele>658.6</ele>
        <time>2017-07-31T10:46:43Z</time>
      </trkpt>
      <trkpt lat="42.45645" lon="0.04792">
        <ele>658.5</ele>
        <time>2017-07-31T10:46:44Z</time>
      </trkpt>
      <trkpt lat="42.45639" lon="0.04797">
        <ele>658.4</ele>
        <time>2017-07-31T10:46:45Z</time>
      </trkpt>
      <trkpt lat="42.45634" lon="0.048">
        <ele>658.6</ele>
        <time>2017-07-31T10:46:46Z</time>
      </trkpt>
      <trkpt lat="42.45631" lon="0.04803">
        <ele>658.7</ele>
        <time>2017-07-31T10:46:47Z</time>
      </trkpt>
      <trkpt lat="42.45627" lon="0.04806">
        <ele>659</ele>
        <time>2017-07-31T10:46:48Z</time>
      </trkpt>
      <trkpt lat="42.45624" lon="0.0481">
        <ele>659.5</ele>
        <time>2017-07-31T10:46:49Z</time>
      </trkpt>
      <trkpt lat="42.4562" lon="0.04814">
        <ele>660</ele>
        <time>2017-07-31T10:46:50Z</time>
      </trkpt>
      <trkpt lat="42.45617" lon="0.04819">
        <ele>660.3</ele>
        <time>2017-07-31T10:46:51Z</time>
      </trkpt>
      <trkpt lat="42.45614" lon="0.04824">
        <ele>660.5</ele>
        <time>2017-07-31T10:46:52Z</time>
      </trkpt>
      <trkpt lat="42.4561" lon="0.04829">
        <ele>660.6</ele>
        <time>2017-07-31T10:46:53Z</time>
      </trkpt>
      <trkpt lat="42.45606" lon="0.04836">
        <ele>660.6</ele>
        <time>2017-07-31T10:46:54Z</time>
      </trkpt>
      <trkpt lat="42.45602" lon="0.04843">
        <ele>660.5</ele>
        <time>2017-07-31T10:46:55Z</time>
      </trkpt>
      <trkpt lat="42.45597" lon="0.04849">
        <ele>660.3</ele>
        <time>2017-07-31T10:46:56Z</time>
      </trkpt>
      <trkpt lat="42.45593" lon="0.04856">
        <ele>660.1</ele>
        <time>2017-07-31T10:46:57Z</time>
      </trkpt>
      <trkpt lat="42.4559" lon="0.04864">
        <ele>659.8</ele>
        <time>2017-07-31T10:46:58Z</time>
      </trkpt>
      <trkpt lat="42.45588" lon="0.04871">
        <ele>659.3</ele>
        <time>2017-07-31T10:46:59Z</time>
      </trkpt>
      <trkpt lat="42.45587" lon="0.04879">
        <ele>658.8</ele>
        <time>2017-07-31T10:47:00Z</time>
      </trkpt>
      <trkpt lat="42.45586" lon="0.04885">
        <ele>658.2</ele>
        <time>2017-07-31T10:47:01Z</time>
      </trkpt>
      <trkpt lat="42.45586" lon="0.04892">
        <ele>657.7</ele>
        <time>2017-07-31T10:47:02Z</time>
      </trkpt>
      <trkpt lat="42.45584" lon="0.04898">
        <ele>657.2</ele>
        <time>2017-07-31T10:47:03Z</time>
      </trkpt>
      <trkpt lat="42.45583" lon="0.04904">
        <ele>656.8</ele>
        <time>2017-07-31T10:47:04Z</time>
      </trkpt>
      <trkpt lat="42.45583" lon="0.0491">
        <ele>656.3</ele>
        <time>2017-07-31T10:47:05Z</time>
      </trkpt>
      <trkpt lat="42.45582" lon="0.04915">
        <ele>655.9</ele>
        <time>2017-07-31T10:47:06Z</time>
      </trkpt>
      <trkpt lat="42.45583" lon="0.04919">
        <ele>655.5</ele>
        <time>2017-07-31T10:47:07Z</time>
      </trkpt>
      <trkpt lat="42.45586" lon="0.04923">
        <ele>655</ele>
        <time>2017-07-31T10:47:09Z</time>
      </trkpt>
      <trkpt lat="42.4559" lon="0.04921">
        <ele>654.4</ele>
        <time>2017-07-31T10:47:11Z</time>
      </trkpt>
      <trkpt lat="42.45593" lon="0.04918">
        <ele>654.1</ele>
        <time>2017-07-31T10:47:12Z</time>
      </trkpt>
      <trkpt lat="42.45596" lon="0.04914">
        <ele>653.6</ele>
        <time>2017-07-31T10:47:14Z</time>
      </trkpt>
      <trkpt lat="42.456" lon="0.0491">
        <ele>653.1</ele>
        <time>2017-07-31T10:47:16Z</time>
      </trkpt>
      <trkpt lat="42.45604" lon="0.04909">
        <ele>652.6</ele>
        <time>2017-07-31T10:47:18Z</time>
      </trkpt>
      <trkpt lat="42.45607" lon="0.0491">
        <ele>652.3</ele>
        <time>2017-07-31T10:47:19Z</time>
      </trkpt>
      <trkpt lat="42.4561" lon="0.04912">
        <ele>651.9</ele>
        <time>2017-07-31T10:47:20Z</time>
      </trkpt>
      <trkpt lat="42.45612" lon="0.04915">
        <ele>651.6</ele>
        <time>2017-07-31T10:47:21Z</time>
      </trkpt>
      <trkpt lat="42.45614" lon="0.04919">
        <ele>651.2</ele>
        <time>2017-07-31T10:47:22Z</time>
      </trkpt>
      <trkpt lat="42.45614" lon="0.04924">
        <ele>650.9</ele>
        <time>2017-07-31T10:47:23Z</time>
      </trkpt>
      <trkpt lat="42.45614" lon="0.0493">
        <ele>650.4</ele>
        <time>2017-07-31T10:47:24Z</time>
      </trkpt>
      <trkpt lat="42.45609" lon="0.04938">
        <ele>649.7</ele>
        <time>2017-07-31T10:47:25Z</time>
      </trkpt>
      <trkpt lat="42.45607" lon="0.04944">
        <ele>649.1</ele>
        <time>2017-07-31T10:47:26Z</time>
      </trkpt>
      <trkpt lat="42.45603" lon="0.0495">
        <ele>648.6</ele>
        <time>2017-07-31T10:47:27Z</time>
      </trkpt>
      <trkpt lat="42.45598" lon="0.04956">
        <ele>647.9</ele>
        <time>2017-07-31T10:47:28Z</time>
      </trkpt>
      <trkpt lat="42.45594" lon="0.04964">
        <ele>647.2</ele>
        <time>2017-07-31T10:47:29Z</time>
      </trkpt>
      <trkpt lat="42.4559" lon="0.04971">
        <ele>646.5</ele>
        <time>2017-07-31T10:47:30Z</time>
      </trkpt>
      <trkpt lat="42.45585" lon="0.0498">
        <ele>645.7</ele>
        <time>2017-07-31T10:47:31Z</time>
      </trkpt>
      <trkpt lat="42.4558" lon="0.04987">
        <ele>644.9</ele>
        <time>2017-07-31T10:47:32Z</time>
      </trkpt>
      <trkpt lat="42.45577" lon="0.04996">
        <ele>644.1</ele>
        <time>2017-07-31T10:47:33Z</time>
      </trkpt>
      <trkpt lat="42.45575" lon="0.05006">
        <ele>643.2</ele>
        <time>2017-07-31T10:47:34Z</time>
      </trkpt>
      <trkpt lat="42.45572" lon="0.05014">
        <ele>642.5</ele>
        <time>2017-07-31T10:47:35Z</time>
      </trkpt>
      <trkpt lat="42.45571" lon="0.05024">
        <ele>641.7</ele>
        <time>2017-07-31T10:47:36Z</time>
      </trkpt>
      <trkpt lat="42.45569" lon="0.05033">
        <ele>641.1</ele>
        <time>2017-07-31T10:47:37Z</time>
      </trkpt>
      <trkpt lat="42.45568" lon="0.05042">
        <ele>640.5</ele>
        <time>2017-07-31T10:47:38Z</time>
      </trkpt>
      <trkpt lat="42.45566" lon="0.05049">
        <ele>640</ele>
        <time>2017-07-31T10:47:39Z</time>
      </trkpt>
      <trkpt lat="42.45564" lon="0.05056">
        <ele>639.7</ele>
        <time>2017-07-31T10:47:40Z</time>
      </trkpt>
      <trkpt lat="42.45561" lon="0.05061">
        <ele>639.6</ele>
        <time>2017-07-31T10:47:41Z</time>
      </trkpt>
      <trkpt lat="42.45557" lon="0.05065">
        <ele>639.5</ele>
        <time>2017-07-31T10:47:42Z</time>
      </trkpt>
      <trkpt lat="42.45552" lon="0.05068">
        <ele>639.6</ele>
        <time>2017-07-31T10:47:43Z</time>
      </trkpt>
      <trkpt lat="42.45548" lon="0.05072">
        <ele>639.7</ele>
        <time>2017-07-31T10:47:44Z</time>
      </trkpt>
      <trkpt lat="42.45544" lon="0.05076">
        <ele>640</ele>
        <time>2017-07-31T10:47:45Z</time>
      </trkpt>
      <trkpt lat="42.45541" lon="0.05081">
        <ele>640.3</ele>
        <time>2017-07-31T10:47:46Z</time>
      </trkpt>
      <trkpt lat="42.45539" lon="0.05085">
        <ele>640.6</ele>
        <time>2017-07-31T10:47:47Z</time>
      </trkpt>
      <trkpt lat="42.45538" lon="0.0509">
        <ele>641</ele>
        <time>2017-07-31T10:47:48Z</time>
      </trkpt>
      <trkpt lat="42.45536" lon="0.05095">
        <ele>641.5</ele>
        <time>2017-07-31T10:47:49Z</time>
      </trkpt>
      <trkpt lat="42.45534" lon="0.05099">
        <ele>641.9</ele>
        <time>2017-07-31T10:47:50Z</time>
      </trkpt>
      <trkpt lat="42.45531" lon="0.05103">
        <ele>642.4</ele>
        <time>2017-07-31T10:47:51Z</time>
      </trkpt>
      <trkpt lat="42.45528" lon="0.05108">
        <ele>643</ele>
        <time>2017-07-31T10:47:52Z</time>
      </trkpt>
      <trkpt lat="42.45525" lon="0.05113">
        <ele>643.4</ele>
        <time>2017-07-31T10:47:53Z</time>
      </trkpt>
      <trkpt lat="42.45521" lon="0.0512">
        <ele>643.6</ele>
        <time>2017-07-31T10:47:54Z</time>
      </trkpt>
      <trkpt lat="42.45519" lon="0.05125">
        <ele>643.7</ele>
        <time>2017-07-31T10:47:55Z</time>
      </trkpt>
      <trkpt lat="42.45517" lon="0.05131">
        <ele>643.8</ele>
        <time>2017-07-31T10:47:56Z</time>
      </trkpt>
      <trkpt lat="42.45516" lon="0.05136">
        <ele>643.9</ele>
        <time>2017-07-31T10:47:57Z</time>
      </trkpt>
      <trkpt lat="42.45514" lon="0.05141">
        <ele>643.8</ele>
        <time>2017-07-31T10:47:58Z</time>
      </trkpt>
      <trkpt lat="42.45512" lon="0.05145">
        <ele>643.6</ele>
        <time>2017-07-31T10:47:59Z</time>
      </trkpt>
      <trkpt lat="42.45509" lon="0.05149">
        <ele>643.4</ele>
        <time>2017-07-31T10:48:00Z</time>
      </trkpt>
      <trkpt lat="42.45506" lon="0.05152">
        <ele>643.1</ele>
        <time>2017-07-31T10:48:01Z</time>
      </trkpt>
      <trkpt lat="42.45502" lon="0.05156">
        <ele>642.7</ele>
        <time>2017-07-31T10:48:02Z</time>
      </trkpt>
      <trkpt lat="42.45498" lon="0.05157">
        <ele>642.4</ele>
        <time>2017-07-31T10:48:03Z</time>
      </trkpt>
      <trkpt lat="42.45491" lon="0.05158">
        <ele>641.8</ele>
        <time>2017-07-31T10:48:04Z</time>
      </trkpt>
      <trkpt lat="42.45485" lon="0.05158">
        <ele>641.3</ele>
        <time>2017-07-31T10:48:05Z</time>
      </trkpt>
      <trkpt lat="42.45477" lon="0.05159">
        <ele>640.6</ele>
        <time>2017-07-31T10:48:06Z</time>
      </trkpt>
      <trkpt lat="42.45469" lon="0.05158">
        <ele>639.8</ele>
        <time>2017-07-31T10:48:07Z</time>
      </trkpt>
      <trkpt lat="42.45462" lon="0.05157">
        <ele>638.9</ele>
        <time>2017-07-31T10:48:08Z</time>
      </trkpt>
      <trkpt lat="42.45455" lon="0.05156">
        <ele>638.3</ele>
        <time>2017-07-31T10:48:09Z</time>
      </trkpt>
      <trkpt lat="42.45449" lon="0.05155">
        <ele>637.9</ele>
        <time>2017-07-31T10:48:10Z</time>
      </trkpt>
      <trkpt lat="42.45443" lon="0.05154">
        <ele>637.6</ele>
        <time>2017-07-31T10:48:11Z</time>
      </trkpt>
      <trkpt lat="42.45438" lon="0.05156">
        <ele>637.2</ele>
        <time>2017-07-31T10:48:12Z</time>
      </trkpt>
      <trkpt lat="42.45435" lon="0.0516">
        <ele>636.9</ele>
        <time>2017-07-31T10:48:13Z</time>
      </trkpt>
      <trkpt lat="42.45432" lon="0.05165">
        <ele>636.6</ele>
        <time>2017-07-31T10:48:14Z</time>
      </trkpt>
      <trkpt lat="42.4543" lon="0.0517">
        <ele>636.3</ele>
        <time>2017-07-31T10:48:15Z</time>
      </trkpt>
      <trkpt lat="42.45428" lon="0.05175">
        <ele>636.2</ele>
        <time>2017-07-31T10:48:16Z</time>
      </trkpt>
      <trkpt lat="42.45426" lon="0.0518">
        <ele>636.1</ele>
        <time>2017-07-31T10:48:17Z</time>
      </trkpt>
      <trkpt lat="42.45424" lon="0.05186">
        <ele>636</ele>
        <time>2017-07-31T10:48:18Z</time>
      </trkpt>
      <trkpt lat="42.45421" lon="0.05192">
        <ele>635.9</ele>
        <time>2017-07-31T10:48:19Z</time>
      </trkpt>
      <trkpt lat="42.45419" lon="0.05198">
        <ele>635.7</ele>
        <time>2017-07-31T10:48:20Z</time>
      </trkpt>
      <trkpt lat="42.45417" lon="0.05204">
        <ele>635.5</ele>
        <time>2017-07-31T10:48:21Z</time>
      </trkpt>
      <trkpt lat="42.45414" lon="0.05211">
        <ele>635.3</ele>
        <time>2017-07-31T10:48:22Z</time>
      </trkpt>
      <trkpt lat="42.45411" lon="0.05218">
        <ele>634.9</ele>
        <time>2017-07-31T10:48:23Z</time>
      </trkpt>
      <trkpt lat="42.45407" lon="0.05227">
        <ele>634.5</ele>
        <time>2017-07-31T10:48:24Z</time>
      </trkpt>
      <trkpt lat="42.45402" lon="0.05232">
        <ele>634</ele>
        <time>2017-07-31T10:48:25Z</time>
      </trkpt>
      <trkpt lat="42.45397" lon="0.05238">
        <ele>633.6</ele>
        <time>2017-07-31T10:48:26Z</time>
      </trkpt>
      <trkpt lat="42.45392" lon="0.05246">
        <ele>633</ele>
        <time>2017-07-31T10:48:27Z</time>
      </trkpt>
      <trkpt lat="42.45387" lon="0.05253">
        <ele>632.5</ele>
        <time>2017-07-31T10:48:28Z</time>
      </trkpt>
      <trkpt lat="42.45382" lon="0.05259">
        <ele>632</ele>
        <time>2017-07-31T10:48:29Z</time>
      </trkpt>
      <trkpt lat="42.45377" lon="0.05265">
        <ele>631.4</ele>
        <time>2017-07-31T10:48:30Z</time>
      </trkpt>
      <trkpt lat="42.45372" lon="0.05273">
        <ele>630.7</ele>
        <time>2017-07-31T10:48:31Z</time>
      </trkpt>
      <trkpt lat="42.45368" lon="0.05283">
        <ele>630</ele>
        <time>2017-07-31T10:48:32Z</time>
      </trkpt>
      <trkpt lat="42.45363" lon="0.05291">
        <ele>629.2</ele>
        <time>2017-07-31T10:48:33Z</time>
      </trkpt>
      <trkpt lat="42.45358" lon="0.05301">
        <ele>628.4</ele>
        <time>2017-07-31T10:48:34Z</time>
      </trkpt>
      <trkpt lat="42.45354" lon="0.05311">
        <ele>627.5</ele>
        <time>2017-07-31T10:48:35Z</time>
      </trkpt>
      <trkpt lat="42.45349" lon="0.0532">
        <ele>626.5</ele>
        <time>2017-07-31T10:48:36Z</time>
      </trkpt>
      <trkpt lat="42.45344" lon="0.05329">
        <ele>625.6</ele>
        <time>2017-07-31T10:48:37Z</time>
      </trkpt>
      <trkpt lat="42.45337" lon="0.05333">
        <ele>624.8</ele>
        <time>2017-07-31T10:48:38Z</time>
      </trkpt>
      <trkpt lat="42.45331" lon="0.05337">
        <ele>624.4</ele>
        <time>2017-07-31T10:48:39Z</time>
      </trkpt>
      <trkpt lat="42.45326" lon="0.05344">
        <ele>624</ele>
        <time>2017-07-31T10:48:40Z</time>
      </trkpt>
      <trkpt lat="42.4532" lon="0.05347">
        <ele>624</ele>
        <time>2017-07-31T10:48:41Z</time>
      </trkpt>
      <trkpt lat="42.45314" lon="0.05351">
        <ele>624.2</ele>
        <time>2017-07-31T10:48:42Z</time>
      </trkpt>
      <trkpt lat="42.45309" lon="0.05355">
        <ele>624.5</ele>
        <time>2017-07-31T10:48:43Z</time>
      </trkpt>
      <trkpt lat="42.45304" lon="0.05358">
        <ele>624.7</ele>
        <time>2017-07-31T10:48:44Z</time>
      </trkpt>
      <trkpt lat="42.453" lon="0.05362">
        <ele>625</ele>
        <time>2017-07-31T10:48:45Z</time>
      </trkpt>
      <trkpt lat="42.45295" lon="0.05362">
        <ele>625.5</ele>
        <time>2017-07-31T10:48:46Z</time>
      </trkpt>
      <trkpt lat="42.45291" lon="0.05363">
        <ele>626.1</ele>
        <time>2017-07-31T10:48:47Z</time>
      </trkpt>
      <trkpt lat="42.45286" lon="0.05365">
        <ele>626.8</ele>
        <time>2017-07-31T10:48:48Z</time>
      </trkpt>
      <trkpt lat="42.45281" lon="0.05366">
        <ele>627.3</ele>
        <time>2017-07-31T10:48:49Z</time>
      </trkpt>
      <trkpt lat="42.45277" lon="0.05368">
        <ele>628</ele>
        <time>2017-07-31T10:48:50Z</time>
      </trkpt>
      <trkpt lat="42.45272" lon="0.0537">
        <ele>628.5</ele>
        <time>2017-07-31T10:48:51Z</time>
      </trkpt>
      <trkpt lat="42.45269" lon="0.05373">
        <ele>628.7</ele>
        <time>2017-07-31T10:48:52Z</time>
      </trkpt>
      <trkpt lat="42.45266" lon="0.05375">
        <ele>628.7</ele>
        <time>2017-07-31T10:48:53Z</time>
      </trkpt>
      <trkpt lat="42.45262" lon="0.05377">
        <ele>628.8</ele>
        <time>2017-07-31T10:48:54Z</time>
      </trkpt>
      <trkpt lat="42.45257" lon="0.05381">
        <ele>628.9</ele>
        <time>2017-07-31T10:48:55Z</time>
      </trkpt>
      <trkpt lat="42.45254" lon="0.05385">
        <ele>628.9</ele>
        <time>2017-07-31T10:48:56Z</time>
      </trkpt>
      <trkpt lat="42.45251" lon="0.0539">
        <ele>628.9</ele>
        <time>2017-07-31T10:48:57Z</time>
      </trkpt>
      <trkpt lat="42.45248" lon="0.05396">
        <ele>628.9</ele>
        <time>2017-07-31T10:48:58Z</time>
      </trkpt>
      <trkpt lat="42.45245" lon="0.05402">
        <ele>628.8</ele>
        <time>2017-07-31T10:48:59Z</time>
      </trkpt>
      <trkpt lat="42.45242" lon="0.05408">
        <ele>628.8</ele>
        <time>2017-07-31T10:49:00Z</time>
      </trkpt>
      <trkpt lat="42.45237" lon="0.05415">
        <ele>628.7</ele>
        <time>2017-07-31T10:49:01Z</time>
      </trkpt>
      <trkpt lat="42.45232" lon="0.05421">
        <ele>628.4</ele>
        <time>2017-07-31T10:49:02Z</time>
      </trkpt>
      <trkpt lat="42.45227" lon="0.05428">
        <ele>628.2</ele>
        <time>2017-07-31T10:49:03Z</time>
      </trkpt>
      <trkpt lat="42.45223" lon="0.05433">
        <ele>627.9</ele>
        <time>2017-07-31T10:49:04Z</time>
      </trkpt>
      <trkpt lat="42.45218" lon="0.05438">
        <ele>627.7</ele>
        <time>2017-07-31T10:49:05Z</time>
      </trkpt>
      <trkpt lat="42.45213" lon="0.05443">
        <ele>627.6</ele>
        <time>2017-07-31T10:49:06Z</time>
      </trkpt>
      <trkpt lat="42.45209" lon="0.05446">
        <ele>627.5</ele>
        <time>2017-07-31T10:49:07Z</time>
      </trkpt>
      <trkpt lat="42.45204" lon="0.0545">
        <ele>627.4</ele>
        <time>2017-07-31T10:49:08Z</time>
      </trkpt>
      <trkpt lat="42.452" lon="0.05454">
        <ele>627.3</ele>
        <time>2017-07-31T10:49:09Z</time>
      </trkpt>
      <trkpt lat="42.45194" lon="0.05456">
        <ele>627.1</ele>
        <time>2017-07-31T10:49:10Z</time>
      </trkpt>
      <trkpt lat="42.45188" lon="0.05457">
        <ele>626.9</ele>
        <time>2017-07-31T10:49:11Z</time>
      </trkpt>
      <trkpt lat="42.45181" lon="0.0546">
        <ele>626.6</ele>
        <time>2017-07-31T10:49:12Z</time>
      </trkpt>
      <trkpt lat="42.45175" lon="0.05462">
        <ele>626.2</ele>
        <time>2017-07-31T10:49:13Z</time>
      </trkpt>
      <trkpt lat="42.4517" lon="0.05465">
        <ele>625.8</ele>
        <time>2017-07-31T10:49:14Z</time>
      </trkpt>
      <trkpt lat="42.45164" lon="0.0547">
        <ele>625.3</ele>
        <time>2017-07-31T10:49:15Z</time>
      </trkpt>
      <trkpt lat="42.45158" lon="0.05474">
        <ele>624.8</ele>
        <time>2017-07-31T10:49:16Z</time>
      </trkpt>
      <trkpt lat="42.45152" lon="0.05481">
        <ele>624.3</ele>
        <time>2017-07-31T10:49:17Z</time>
      </trkpt>
      <trkpt lat="42.45146" lon="0.05487">
        <ele>623.7</ele>
        <time>2017-07-31T10:49:18Z</time>
      </trkpt>
      <trkpt lat="42.4514" lon="0.05492">
        <ele>623.1</ele>
        <time>2017-07-31T10:49:19Z</time>
      </trkpt>
      <trkpt lat="42.45135" lon="0.05496">
        <ele>622.7</ele>
        <time>2017-07-31T10:49:20Z</time>
      </trkpt>
      <trkpt lat="42.45129" lon="0.05498">
        <ele>622.2</ele>
        <time>2017-07-31T10:49:21Z</time>
      </trkpt>
      <trkpt lat="42.45123" lon="0.05499">
        <ele>621.9</ele>
        <time>2017-07-31T10:49:22Z</time>
      </trkpt>
      <trkpt lat="42.45116" lon="0.055">
        <ele>621.7</ele>
        <time>2017-07-31T10:49:23Z</time>
      </trkpt>
      <trkpt lat="42.45111" lon="0.05501">
        <ele>621.6</ele>
        <time>2017-07-31T10:49:24Z</time>
      </trkpt>
      <trkpt lat="42.45106" lon="0.05504">
        <ele>621.5</ele>
        <time>2017-07-31T10:49:25Z</time>
      </trkpt>
      <trkpt lat="42.45102" lon="0.05506">
        <ele>621.5</ele>
        <time>2017-07-31T10:49:26Z</time>
      </trkpt>
      <trkpt lat="42.45096" lon="0.05511">
        <ele>621.5</ele>
        <time>2017-07-31T10:49:27Z</time>
      </trkpt>
      <trkpt lat="42.4509" lon="0.05514">
        <ele>621.5</ele>
        <time>2017-07-31T10:49:28Z</time>
      </trkpt>
      <trkpt lat="42.45084" lon="0.05519">
        <ele>621.6</ele>
        <time>2017-07-31T10:49:29Z</time>
      </trkpt>
      <trkpt lat="42.45077" lon="0.05522">
        <ele>621.6</ele>
        <time>2017-07-31T10:49:30Z</time>
      </trkpt>
      <trkpt lat="42.4507" lon="0.05527">
        <ele>621.6</ele>
        <time>2017-07-31T10:49:31Z</time>
      </trkpt>
      <trkpt lat="42.45062" lon="0.05533">
        <ele>621.7</ele>
        <time>2017-07-31T10:49:32Z</time>
      </trkpt>
      <trkpt lat="42.45055" lon="0.05538">
        <ele>621.7</ele>
        <time>2017-07-31T10:49:33Z</time>
      </trkpt>
      <trkpt lat="42.45049" lon="0.05542">
        <ele>621.8</ele>
        <time>2017-07-31T10:49:34Z</time>
      </trkpt>
      <trkpt lat="42.45043" lon="0.05546">
        <ele>621.8</ele>
        <time>2017-07-31T10:49:35Z</time>
      </trkpt>
      <trkpt lat="42.45035" lon="0.05549">
        <ele>621.9</ele>
        <time>2017-07-31T10:49:36Z</time>
      </trkpt>
      <trkpt lat="42.45029" lon="0.05553">
        <ele>621.9</ele>
        <time>2017-07-31T10:49:37Z</time>
      </trkpt>
      <trkpt lat="42.45023" lon="0.05557">
        <ele>622</ele>
        <time>2017-07-31T10:49:38Z</time>
      </trkpt>
      <trkpt lat="42.45017" lon="0.05562">
        <ele>622</ele>
        <time>2017-07-31T10:49:39Z</time>
      </trkpt>
      <trkpt lat="42.45012" lon="0.05567">
        <ele>622.1</ele>
        <time>2017-07-31T10:49:40Z</time>
      </trkpt>
      <trkpt lat="42.45006" lon="0.05571">
        <ele>622.2</ele>
        <time>2017-07-31T10:49:41Z</time>
      </trkpt>
      <trkpt lat="42.45001" lon="0.05574">
        <ele>622.3</ele>
        <time>2017-07-31T10:49:42Z</time>
      </trkpt>
      <trkpt lat="42.44996" lon="0.05578">
        <ele>622.6</ele>
        <time>2017-07-31T10:49:43Z</time>
      </trkpt>
      <trkpt lat="42.44992" lon="0.0558">
        <ele>622.8</ele>
        <time>2017-07-31T10:49:44Z</time>
      </trkpt>
      <trkpt lat="42.44988" lon="0.05583">
        <ele>623.1</ele>
        <time>2017-07-31T10:49:45Z</time>
      </trkpt>
      <trkpt lat="42.44985" lon="0.05584">
        <ele>623.6</ele>
        <time>2017-07-31T10:49:46Z</time>
      </trkpt>
      <trkpt lat="42.44982" lon="0.05587">
        <ele>624.1</ele>
        <time>2017-07-31T10:49:48Z</time>
      </trkpt>
      <trkpt lat="42.44981" lon="0.05592">
        <ele>624.4</ele>
        <time>2017-07-31T10:49:50Z</time>
      </trkpt>
      <trkpt lat="42.44982" lon="0.05598">
        <ele>625</ele>
        <time>2017-07-31T10:49:52Z</time>
      </trkpt>
      <trkpt lat="42.44983" lon="0.05602">
        <ele>625</ele>
        <time>2017-07-31T10:49:53Z</time>
      </trkpt>
      <trkpt lat="42.44983" lon="0.05605">
        <ele>625</ele>
        <time>2017-07-31T10:49:54Z</time>
      </trkpt>
      <trkpt lat="42.44984" lon="0.0561">
        <ele>625</ele>
        <time>2017-07-31T10:49:55Z</time>
      </trkpt>
      <trkpt lat="42.44986" lon="0.05616">
        <ele>625</ele>
        <time>2017-07-31T10:49:56Z</time>
      </trkpt>
      <trkpt lat="42.44989" lon="0.05623">
        <ele>625</ele>
        <time>2017-07-31T10:49:57Z</time>
      </trkpt>
      <trkpt lat="42.44991" lon="0.0563">
        <ele>625</ele>
        <time>2017-07-31T10:49:58Z</time>
      </trkpt>
      <trkpt lat="42.44993" lon="0.05637">
        <ele>625</ele>
        <time>2017-07-31T10:49:59Z</time>
      </trkpt>
      <trkpt lat="42.44994" lon="0.05645">
        <ele>624.6</ele>
        <time>2017-07-31T10:50:00Z</time>
      </trkpt>
      <trkpt lat="42.44996" lon="0.05653">
        <ele>622.8</ele>
        <time>2017-07-31T10:50:01Z</time>
      </trkpt>
      <trkpt lat="42.44998" lon="0.05663">
        <ele>620.6</ele>
        <time>2017-07-31T10:50:02Z</time>
      </trkpt>
      <trkpt lat="42.45001" lon="0.05672">
        <ele>618.3</ele>
        <time>2017-07-31T10:50:03Z</time>
      </trkpt>
      <trkpt lat="42.45004" lon="0.0568">
        <ele>616.1</ele>
        <time>2017-07-31T10:50:04Z</time>
      </trkpt>
      <trkpt lat="42.45006" lon="0.05689">
        <ele>613.9</ele>
        <time>2017-07-31T10:50:05Z</time>
      </trkpt>
      <trkpt lat="42.45008" lon="0.05697">
        <ele>611.4</ele>
        <time>2017-07-31T10:50:06Z</time>
      </trkpt>
      <trkpt lat="42.4501" lon="0.05706">
        <ele>609.1</ele>
        <time>2017-07-31T10:50:07Z</time>
      </trkpt>
      <trkpt lat="42.45012" lon="0.05714">
        <ele>606.5</ele>
        <time>2017-07-31T10:50:08Z</time>
      </trkpt>
      <trkpt lat="42.45014" lon="0.05723">
        <ele>603.6</ele>
        <time>2017-07-31T10:50:09Z</time>
      </trkpt>
      <trkpt lat="42.45015" lon="0.0573">
        <ele>601.2</ele>
        <time>2017-07-31T10:50:10Z</time>
      </trkpt>
      <trkpt lat="42.45016" lon="0.05736">
        <ele>600.9</ele>
        <time>2017-07-31T10:50:11Z</time>
      </trkpt>
      <trkpt lat="42.45015" lon="0.05743">
        <ele>602.7</ele>
        <time>2017-07-31T10:50:12Z</time>
      </trkpt>
      <trkpt lat="42.45013" lon="0.05749">
        <ele>606.2</ele>
        <time>2017-07-31T10:50:13Z</time>
      </trkpt>
      <trkpt lat="42.4501" lon="0.05755">
        <ele>605.7</ele>
        <time>2017-07-31T10:50:14Z</time>
      </trkpt>
      <trkpt lat="42.45008" lon="0.05761">
        <ele>605.3</ele>
        <time>2017-07-31T10:50:15Z</time>
      </trkpt>
      <trkpt lat="42.45005" lon="0.05768">
        <ele>604.8</ele>
        <time>2017-07-31T10:50:16Z</time>
      </trkpt>
      <trkpt lat="42.45002" lon="0.05773">
        <ele>604.4</ele>
        <time>2017-07-31T10:50:17Z</time>
      </trkpt>
      <trkpt lat="42.44998" lon="0.05778">
        <ele>604</ele>
        <time>2017-07-31T10:50:18Z</time>
      </trkpt>
      <trkpt lat="42.44994" lon="0.05782">
        <ele>603.7</ele>
        <time>2017-07-31T10:50:19Z</time>
      </trkpt>
      <trkpt lat="42.4499" lon="0.0579">
        <ele>603.3</ele>
        <time>2017-07-31T10:50:20Z</time>
      </trkpt>
      <trkpt lat="42.44986" lon="0.05795">
        <ele>603.1</ele>
        <time>2017-07-31T10:50:21Z</time>
      </trkpt>
      <trkpt lat="42.44981" lon="0.05799">
        <ele>603</ele>
        <time>2017-07-31T10:50:22Z</time>
      </trkpt>
      <trkpt lat="42.44976" lon="0.05799">
        <ele>602.9</ele>
        <time>2017-07-31T10:50:23Z</time>
      </trkpt>
      <trkpt lat="42.44972" lon="0.05803">
        <ele>602.8</ele>
        <time>2017-07-31T10:50:24Z</time>
      </trkpt>
      <trkpt lat="42.44967" lon="0.05808">
        <ele>602.7</ele>
        <time>2017-07-31T10:50:25Z</time>
      </trkpt>
      <trkpt lat="42.44964" lon="0.05813">
        <ele>602.6</ele>
        <time>2017-07-31T10:50:26Z</time>
      </trkpt>
      <trkpt lat="42.4496" lon="0.05817">
        <ele>602.5</ele>
        <time>2017-07-31T10:50:27Z</time>
      </trkpt>
      <trkpt lat="42.44956" lon="0.05822">
        <ele>602.4</ele>
        <time>2017-07-31T10:50:28Z</time>
      </trkpt>
      <trkpt lat="42.44954" lon="0.05827">
        <ele>602.3</ele>
        <time>2017-07-31T10:50:29Z</time>
      </trkpt>
      <trkpt lat="42.44949" lon="0.05832">
        <ele>602.2</ele>
        <time>2017-07-31T10:50:30Z</time>
      </trkpt>
      <trkpt lat="42.44945" lon="0.05836">
        <ele>602.1</ele>
        <time>2017-07-31T10:50:31Z</time>
      </trkpt>
      <trkpt lat="42.44942" lon="0.05842">
        <ele>602</ele>
        <time>2017-07-31T10:50:32Z</time>
      </trkpt>
      <trkpt lat="42.44938" lon="0.05849">
        <ele>602</ele>
        <time>2017-07-31T10:50:33Z</time>
      </trkpt>
      <trkpt lat="42.44934" lon="0.05854">
        <ele>602</ele>
        <time>2017-07-31T10:50:34Z</time>
      </trkpt>
      <trkpt lat="42.44931" lon="0.05859">
        <ele>602</ele>
        <time>2017-07-31T10:50:35Z</time>
      </trkpt>
      <trkpt lat="42.44927" lon="0.05865">
        <ele>601.9</ele>
        <time>2017-07-31T10:50:36Z</time>
      </trkpt>
      <trkpt lat="42.44924" lon="0.0587">
        <ele>601.9</ele>
        <time>2017-07-31T10:50:37Z</time>
      </trkpt>
      <trkpt lat="42.4492" lon="0.05877">
        <ele>601.9</ele>
        <time>2017-07-31T10:50:38Z</time>
      </trkpt>
      <trkpt lat="42.44917" lon="0.05883">
        <ele>601.9</ele>
        <time>2017-07-31T10:50:39Z</time>
      </trkpt>
      <trkpt lat="42.44912" lon="0.05889">
        <ele>601.9</ele>
        <time>2017-07-31T10:50:40Z</time>
      </trkpt>
      <trkpt lat="42.44908" lon="0.05894">
        <ele>601.9</ele>
        <time>2017-07-31T10:50:41Z</time>
      </trkpt>
      <trkpt lat="42.44904" lon="0.05901">
        <ele>601.9</ele>
        <time>2017-07-31T10:50:42Z</time>
      </trkpt>
      <trkpt lat="42.44901" lon="0.05907">
        <ele>601.9</ele>
        <time>2017-07-31T10:50:43Z</time>
      </trkpt>
      <trkpt lat="42.44897" lon="0.05913">
        <ele>601.8</ele>
        <time>2017-07-31T10:50:44Z</time>
      </trkpt>
      <trkpt lat="42.44894" lon="0.05919">
        <ele>601.8</ele>
        <time>2017-07-31T10:50:45Z</time>
      </trkpt>
      <trkpt lat="42.4489" lon="0.05926">
        <ele>601.8</ele>
        <time>2017-07-31T10:50:46Z</time>
      </trkpt>
      <trkpt lat="42.44886" lon="0.05932">
        <ele>601.8</ele>
        <time>2017-07-31T10:50:47Z</time>
      </trkpt>
      <trkpt lat="42.44882" lon="0.05938">
        <ele>601.8</ele>
        <time>2017-07-31T10:50:48Z</time>
      </trkpt>
      <trkpt lat="42.44878" lon="0.05944">
        <ele>601.8</ele>
        <time>2017-07-31T10:50:49Z</time>
      </trkpt>
      <trkpt lat="42.44874" lon="0.0595">
        <ele>601.8</ele>
        <time>2017-07-31T10:50:50Z</time>
      </trkpt>
      <trkpt lat="42.4487" lon="0.05957">
        <ele>601.7</ele>
        <time>2017-07-31T10:50:51Z</time>
      </trkpt>
      <trkpt lat="42.44866" lon="0.05962">
        <ele>601.7</ele>
        <time>2017-07-31T10:50:52Z</time>
      </trkpt>
      <trkpt lat="42.44863" lon="0.05969">
        <ele>601.7</ele>
        <time>2017-07-31T10:50:53Z</time>
      </trkpt>
      <trkpt lat="42.44859" lon="0.05974">
        <ele>601.7</ele>
        <time>2017-07-31T10:50:54Z</time>
      </trkpt>
      <trkpt lat="42.44855" lon="0.05981">
        <ele>601.7</ele>
        <time>2017-07-31T10:50:55Z</time>
      </trkpt>
      <trkpt lat="42.44851" lon="0.05987">
        <ele>601.7</ele>
        <time>2017-07-31T10:50:56Z</time>
      </trkpt>
      <trkpt lat="42.44847" lon="0.05993">
        <ele>601.6</ele>
        <time>2017-07-31T10:50:57Z</time>
      </trkpt>
      <trkpt lat="42.44843" lon="0.05998">
        <ele>601.6</ele>
        <time>2017-07-31T10:50:58Z</time>
      </trkpt>
      <trkpt lat="42.44839" lon="0.06006">
        <ele>601.6</ele>
        <time>2017-07-31T10:50:59Z</time>
      </trkpt>
      <trkpt lat="42.44836" lon="0.06012">
        <ele>601.6</ele>
        <time>2017-07-31T10:51:00Z</time>
      </trkpt>
      <trkpt lat="42.44833" lon="0.06018">
        <ele>601.6</ele>
        <time>2017-07-31T10:51:01Z</time>
      </trkpt>
      <trkpt lat="42.4483" lon="0.06026">
        <ele>601.5</ele>
        <time>2017-07-31T10:51:02Z</time>
      </trkpt>
      <trkpt lat="42.44826" lon="0.06031">
        <ele>601.5</ele>
        <time>2017-07-31T10:51:03Z</time>
      </trkpt>
      <trkpt lat="42.44824" lon="0.06039">
        <ele>601.5</ele>
        <time>2017-07-31T10:51:04Z</time>
      </trkpt>
      <trkpt lat="42.4482" lon="0.06044">
        <ele>601.4</ele>
        <time>2017-07-31T10:51:05Z</time>
      </trkpt>
      <trkpt lat="42.44817" lon="0.0605">
        <ele>601.4</ele>
        <time>2017-07-31T10:51:06Z</time>
      </trkpt>
      <trkpt lat="42.44814" lon="0.06056">
        <ele>601.4</ele>
        <time>2017-07-31T10:51:07Z</time>
      </trkpt>
      <trkpt lat="42.44811" lon="0.06062">
        <ele>601.3</ele>
        <time>2017-07-31T10:51:08Z</time>
      </trkpt>
      <trkpt lat="42.44806" lon="0.06066">
        <ele>601.3</ele>
        <time>2017-07-31T10:51:09Z</time>
      </trkpt>
      <trkpt lat="42.44802" lon="0.06072">
        <ele>601.2</ele>
        <time>2017-07-31T10:51:10Z</time>
      </trkpt>
      <trkpt lat="42.44798" lon="0.06077">
        <ele>601.1</ele>
        <time>2017-07-31T10:51:11Z</time>
      </trkpt>
      <trkpt lat="42.44793" lon="0.06083">
        <ele>600.8</ele>
        <time>2017-07-31T10:51:12Z</time>
      </trkpt>
      <trkpt lat="42.4479" lon="0.06092">
        <ele>600.4</ele>
        <time>2017-07-31T10:51:13Z</time>
      </trkpt>
      <trkpt lat="42.44787" lon="0.06098">
        <ele>600</ele>
        <time>2017-07-31T10:51:14Z</time>
      </trkpt>
      <trkpt lat="42.44783" lon="0.06103">
        <ele>599.7</ele>
        <time>2017-07-31T10:51:15Z</time>
      </trkpt>
      <trkpt lat="42.4478" lon="0.06109">
        <ele>599.6</ele>
        <time>2017-07-31T10:51:16Z</time>
      </trkpt>
      <trkpt lat="42.44775" lon="0.06115">
        <ele>599.5</ele>
        <time>2017-07-31T10:51:17Z</time>
      </trkpt>
      <trkpt lat="42.44772" lon="0.06121">
        <ele>599.4</ele>
        <time>2017-07-31T10:51:18Z</time>
      </trkpt>
      <trkpt lat="42.44769" lon="0.06127">
        <ele>599.3</ele>
        <time>2017-07-31T10:51:19Z</time>
      </trkpt>
      <trkpt lat="42.44764" lon="0.06133">
        <ele>599.2</ele>
        <time>2017-07-31T10:51:20Z</time>
      </trkpt>
      <trkpt lat="42.44761" lon="0.06138">
        <ele>599.1</ele>
        <time>2017-07-31T10:51:21Z</time>
      </trkpt>
      <trkpt lat="42.44756" lon="0.06144">
        <ele>599</ele>
        <time>2017-07-31T10:51:22Z</time>
      </trkpt>
      <trkpt lat="42.44752" lon="0.0615">
        <ele>598.9</ele>
        <time>2017-07-31T10:51:23Z</time>
      </trkpt>
      <trkpt lat="42.44748" lon="0.06156">
        <ele>598.8</ele>
        <time>2017-07-31T10:51:24Z</time>
      </trkpt>
      <trkpt lat="42.44744" lon="0.06163">
        <ele>598.6</ele>
        <time>2017-07-31T10:51:25Z</time>
      </trkpt>
      <trkpt lat="42.4474" lon="0.0617">
        <ele>598.3</ele>
        <time>2017-07-31T10:51:26Z</time>
      </trkpt>
      <trkpt lat="42.44736" lon="0.06176">
        <ele>597.9</ele>
        <time>2017-07-31T10:51:27Z</time>
      </trkpt>
      <trkpt lat="42.44732" lon="0.06181">
        <ele>597.5</ele>
        <time>2017-07-31T10:51:28Z</time>
      </trkpt>
      <trkpt lat="42.44728" lon="0.06187">
        <ele>597.2</ele>
        <time>2017-07-31T10:51:29Z</time>
      </trkpt>
      <trkpt lat="42.44725" lon="0.06192">
        <ele>596.8</ele>
        <time>2017-07-31T10:51:30Z</time>
      </trkpt>
      <trkpt lat="42.44721" lon="0.06199">
        <ele>596.7</ele>
        <time>2017-07-31T10:51:31Z</time>
      </trkpt>
      <trkpt lat="42.44716" lon="0.06207">
        <ele>596.6</ele>
        <time>2017-07-31T10:51:32Z</time>
      </trkpt>
      <trkpt lat="42.44713" lon="0.06213">
        <ele>596.5</ele>
        <time>2017-07-31T10:51:33Z</time>
      </trkpt>
      <trkpt lat="42.44709" lon="0.06219">
        <ele>596.4</ele>
        <time>2017-07-31T10:51:34Z</time>
      </trkpt>
      <trkpt lat="42.44706" lon="0.06223">
        <ele>596.3</ele>
        <time>2017-07-31T10:51:35Z</time>
      </trkpt>
      <trkpt lat="42.44702" lon="0.0623">
        <ele>596.2</ele>
        <time>2017-07-31T10:51:36Z</time>
      </trkpt>
      <trkpt lat="42.44698" lon="0.06237">
        <ele>596</ele>
        <time>2017-07-31T10:51:37Z</time>
      </trkpt>
      <trkpt lat="42.44694" lon="0.06243">
        <ele>595.7</ele>
        <time>2017-07-31T10:51:38Z</time>
      </trkpt>
      <trkpt lat="42.44689" lon="0.0625">
        <ele>595.3</ele>
        <time>2017-07-31T10:51:39Z</time>
      </trkpt>
      <trkpt lat="42.44685" lon="0.06257">
        <ele>594.8</ele>
        <time>2017-07-31T10:51:40Z</time>
      </trkpt>
      <trkpt lat="42.4468" lon="0.06263">
        <ele>594.4</ele>
        <time>2017-07-31T10:51:41Z</time>
      </trkpt>
      <trkpt lat="42.44676" lon="0.0627">
        <ele>594.2</ele>
        <time>2017-07-31T10:51:42Z</time>
      </trkpt>
      <trkpt lat="42.44672" lon="0.06277">
        <ele>594.1</ele>
        <time>2017-07-31T10:51:43Z</time>
      </trkpt>
      <trkpt lat="42.44668" lon="0.06283">
        <ele>594.1</ele>
        <time>2017-07-31T10:51:44Z</time>
      </trkpt>
      <trkpt lat="42.44663" lon="0.0629">
        <ele>594</ele>
        <time>2017-07-31T10:51:45Z</time>
      </trkpt>
      <trkpt lat="42.44658" lon="0.06297">
        <ele>593.9</ele>
        <time>2017-07-31T10:51:46Z</time>
      </trkpt>
      <trkpt lat="42.44653" lon="0.06303">
        <ele>593.8</ele>
        <time>2017-07-31T10:51:47Z</time>
      </trkpt>
      <trkpt lat="42.44649" lon="0.06309">
        <ele>593.7</ele>
        <time>2017-07-31T10:51:48Z</time>
      </trkpt>
      <trkpt lat="42.44644" lon="0.06318">
        <ele>593.7</ele>
        <time>2017-07-31T10:51:49Z</time>
      </trkpt>
      <trkpt lat="42.4464" lon="0.06324">
        <ele>593.6</ele>
        <time>2017-07-31T10:51:50Z</time>
      </trkpt>
      <trkpt lat="42.44636" lon="0.0633">
        <ele>593.6</ele>
        <time>2017-07-31T10:51:51Z</time>
      </trkpt>
      <trkpt lat="42.44632" lon="0.06336">
        <ele>593.6</ele>
        <time>2017-07-31T10:51:52Z</time>
      </trkpt>
      <trkpt lat="42.44627" lon="0.06343">
        <ele>593.6</ele>
        <time>2017-07-31T10:51:53Z</time>
      </trkpt>
      <trkpt lat="42.44624" lon="0.06351">
        <ele>593.5</ele>
        <time>2017-07-31T10:51:54Z</time>
      </trkpt>
      <trkpt lat="42.44619" lon="0.06359">
        <ele>593.5</ele>
        <time>2017-07-31T10:51:55Z</time>
      </trkpt>
      <trkpt lat="42.44615" lon="0.06366">
        <ele>593.5</ele>
        <time>2017-07-31T10:51:56Z</time>
      </trkpt>
      <trkpt lat="42.44611" lon="0.06373">
        <ele>593.5</ele>
        <time>2017-07-31T10:51:57Z</time>
      </trkpt>
      <trkpt lat="42.44607" lon="0.0638">
        <ele>593.5</ele>
        <time>2017-07-31T10:51:58Z</time>
      </trkpt>
      <trkpt lat="42.44603" lon="0.06388">
        <ele>593.5</ele>
        <time>2017-07-31T10:51:59Z</time>
      </trkpt>
      <trkpt lat="42.44598" lon="0.06395">
        <ele>593.4</ele>
        <time>2017-07-31T10:52:00Z</time>
      </trkpt>
      <trkpt lat="42.44593" lon="0.06402">
        <ele>593.4</ele>
        <time>2017-07-31T10:52:01Z</time>
      </trkpt>
      <trkpt lat="42.44588" lon="0.06408">
        <ele>593.4</ele>
        <time>2017-07-31T10:52:02Z</time>
      </trkpt>
      <trkpt lat="42.44584" lon="0.06416">
        <ele>593.4</ele>
        <time>2017-07-31T10:52:03Z</time>
      </trkpt>
      <trkpt lat="42.44579" lon="0.06422">
        <ele>593.4</ele>
        <time>2017-07-31T10:52:04Z</time>
      </trkpt>
      <trkpt lat="42.44575" lon="0.06429">
        <ele>593.3</ele>
        <time>2017-07-31T10:52:05Z</time>
      </trkpt>
      <trkpt lat="42.44571" lon="0.06438">
        <ele>593.3</ele>
        <time>2017-07-31T10:52:06Z</time>
      </trkpt>
      <trkpt lat="42.44567" lon="0.06445">
        <ele>593.3</ele>
        <time>2017-07-31T10:52:07Z</time>
      </trkpt>
      <trkpt lat="42.44563" lon="0.06453">
        <ele>593.3</ele>
        <time>2017-07-31T10:52:08Z</time>
      </trkpt>
      <trkpt lat="42.4456" lon="0.06459">
        <ele>593.3</ele>
        <time>2017-07-31T10:52:09Z</time>
      </trkpt>
      <trkpt lat="42.44555" lon="0.06465">
        <ele>593.2</ele>
        <time>2017-07-31T10:52:10Z</time>
      </trkpt>
      <trkpt lat="42.44551" lon="0.06471">
        <ele>593.2</ele>
        <time>2017-07-31T10:52:11Z</time>
      </trkpt>
      <trkpt lat="42.44547" lon="0.06478">
        <ele>593.2</ele>
        <time>2017-07-31T10:52:12Z</time>
      </trkpt>
      <trkpt lat="42.44543" lon="0.06484">
        <ele>593.2</ele>
        <time>2017-07-31T10:52:13Z</time>
      </trkpt>
      <trkpt lat="42.44539" lon="0.0649">
        <ele>593.2</ele>
        <time>2017-07-31T10:52:14Z</time>
      </trkpt>
      <trkpt lat="42.44535" lon="0.06495">
        <ele>593.1</ele>
        <time>2017-07-31T10:52:15Z</time>
      </trkpt>
      <trkpt lat="42.44531" lon="0.06501">
        <ele>593.1</ele>
        <time>2017-07-31T10:52:16Z</time>
      </trkpt>
      <trkpt lat="42.44527" lon="0.06506">
        <ele>593.1</ele>
        <time>2017-07-31T10:52:17Z</time>
      </trkpt>
      <trkpt lat="42.44524" lon="0.06511">
        <ele>593.1</ele>
        <time>2017-07-31T10:52:18Z</time>
      </trkpt>
      <trkpt lat="42.4452" lon="0.06517">
        <ele>593.1</ele>
        <time>2017-07-31T10:52:19Z</time>
      </trkpt>
      <trkpt lat="42.44517" lon="0.06523">
        <ele>593.1</ele>
        <time>2017-07-31T10:52:20Z</time>
      </trkpt>
      <trkpt lat="42.44513" lon="0.06528">
        <ele>593.1</ele>
        <time>2017-07-31T10:52:21Z</time>
      </trkpt>
      <trkpt lat="42.44509" lon="0.06534">
        <ele>593.1</ele>
        <time>2017-07-31T10:52:22Z</time>
      </trkpt>
      <trkpt lat="42.44505" lon="0.06539">
        <ele>593.1</ele>
        <time>2017-07-31T10:52:23Z</time>
      </trkpt>
      <trkpt lat="42.44501" lon="0.06544">
        <ele>593.1</ele>
        <time>2017-07-31T10:52:24Z</time>
      </trkpt>
      <trkpt lat="42.44498" lon="0.0655">
        <ele>593</ele>
        <time>2017-07-31T10:52:25Z</time>
      </trkpt>
      <trkpt lat="42.44494" lon="0.06555">
        <ele>593</ele>
        <time>2017-07-31T10:52:26Z</time>
      </trkpt>
      <trkpt lat="42.4449" lon="0.06561">
        <ele>593</ele>
        <time>2017-07-31T10:52:27Z</time>
      </trkpt>
      <trkpt lat="42.44486" lon="0.06567">
        <ele>593</ele>
        <time>2017-07-31T10:52:28Z</time>
      </trkpt>
      <trkpt lat="42.44483" lon="0.06572">
        <ele>593</ele>
        <time>2017-07-31T10:52:29Z</time>
      </trkpt>
      <trkpt lat="42.4448" lon="0.06578">
        <ele>592.8</ele>
        <time>2017-07-31T10:52:30Z</time>
      </trkpt>
      <trkpt lat="42.44476" lon="0.06584">
        <ele>592.5</ele>
        <time>2017-07-31T10:52:31Z</time>
      </trkpt>
      <trkpt lat="42.44473" lon="0.06589">
        <ele>592.3</ele>
        <time>2017-07-31T10:52:32Z</time>
      </trkpt>
      <trkpt lat="42.44469" lon="0.06595">
        <ele>592.1</ele>
        <time>2017-07-31T10:52:33Z</time>
      </trkpt>
      <trkpt lat="42.44465" lon="0.066">
        <ele>591.8</ele>
        <time>2017-07-31T10:52:34Z</time>
      </trkpt>
      <trkpt lat="42.44461" lon="0.06605">
        <ele>591.6</ele>
        <time>2017-07-31T10:52:35Z</time>
      </trkpt>
      <trkpt lat="42.44458" lon="0.06609">
        <ele>591.4</ele>
        <time>2017-07-31T10:52:36Z</time>
      </trkpt>
      <trkpt lat="42.44456" lon="0.06613">
        <ele>591.3</ele>
        <time>2017-07-31T10:52:37Z</time>
      </trkpt>
      <trkpt lat="42.44454" lon="0.06619">
        <ele>591.1</ele>
        <time>2017-07-31T10:52:38Z</time>
      </trkpt>
      <trkpt lat="42.44451" lon="0.06624">
        <ele>590.8</ele>
        <time>2017-07-31T10:52:39Z</time>
      </trkpt>
      <trkpt lat="42.44449" lon="0.06628">
        <ele>590.6</ele>
        <time>2017-07-31T10:52:40Z</time>
      </trkpt>
      <trkpt lat="42.44445" lon="0.0663">
        <ele>590.4</ele>
        <time>2017-07-31T10:52:41Z</time>
      </trkpt>
      <trkpt lat="42.4444" lon="0.06632">
        <ele>590</ele>
        <time>2017-07-31T10:52:42Z</time>
      </trkpt>
      <trkpt lat="42.44437" lon="0.06629">
        <ele>590</ele>
        <time>2017-07-31T10:52:43Z</time>
      </trkpt>
      <trkpt lat="42.44432" lon="0.06626">
        <ele>590</ele>
        <time>2017-07-31T10:52:44Z</time>
      </trkpt>
      <trkpt lat="42.44429" lon="0.06621">
        <ele>590.4</ele>
        <time>2017-07-31T10:52:45Z</time>
      </trkpt>
      <trkpt lat="42.44425" lon="0.06614">
        <ele>591.5</ele>
        <time>2017-07-31T10:52:46Z</time>
      </trkpt>
      <trkpt lat="42.44423" lon="0.0661">
        <ele>592.4</ele>
        <time>2017-07-31T10:52:47Z</time>
      </trkpt>
      <trkpt lat="42.4442" lon="0.06604">
        <ele>593.3</ele>
        <time>2017-07-31T10:52:49Z</time>
      </trkpt>
      <trkpt lat="42.44417" lon="0.06599">
        <ele>594.1</ele>
        <time>2017-07-31T10:52:51Z</time>
      </trkpt>
      <trkpt lat="42.44416" lon="0.06595">
        <ele>595.4</ele>
        <time>2017-07-31T10:52:52Z</time>
      </trkpt>
      <trkpt lat="42.44414" lon="0.06591">
        <ele>596.4</ele>
        <time>2017-07-31T10:52:53Z</time>
      </trkpt>
      <trkpt lat="42.44413" lon="0.06587">
        <ele>597.3</ele>
        <time>2017-07-31T10:52:54Z</time>
      </trkpt>
      <trkpt lat="42.44411" lon="0.06584">
        <ele>598</ele>
        <time>2017-07-31T10:52:55Z</time>
      </trkpt>
      <trkpt lat="42.44409" lon="0.06581">
        <ele>598.7</ele>
        <time>2017-07-31T10:52:56Z</time>
      </trkpt>
      <trkpt lat="42.44407" lon="0.06577">
        <ele>599.4</ele>
        <time>2017-07-31T10:52:57Z</time>
      </trkpt>
      <trkpt lat="42.44405" lon="0.06574">
        <ele>600.1</ele>
        <time>2017-07-31T10:52:58Z</time>
      </trkpt>
      <trkpt lat="42.44404" lon="0.0657">
        <ele>600.8</ele>
        <time>2017-07-31T10:52:59Z</time>
      </trkpt>
      <trkpt lat="42.44402" lon="0.06567">
        <ele>601.5</ele>
        <time>2017-07-31T10:53:00Z</time>
      </trkpt>
      <trkpt lat="42.444" lon="0.06562">
        <ele>602</ele>
        <time>2017-07-31T10:53:01Z</time>
      </trkpt>
      <trkpt lat="42.44398" lon="0.06558">
        <ele>602</ele>
        <time>2017-07-31T10:53:02Z</time>
      </trkpt>
      <trkpt lat="42.44396" lon="0.06554">
        <ele>602</ele>
        <time>2017-07-31T10:53:03Z</time>
      </trkpt>
      <trkpt lat="42.44393" lon="0.06549">
        <ele>602</ele>
        <time>2017-07-31T10:53:04Z</time>
      </trkpt>
      <trkpt lat="42.44389" lon="0.06546">
        <ele>602</ele>
        <time>2017-07-31T10:53:05Z</time>
      </trkpt>
      <trkpt lat="42.44384" lon="0.06545">
        <ele>602</ele>
        <time>2017-07-31T10:53:06Z</time>
      </trkpt>
      <trkpt lat="42.44379" lon="0.06542">
        <ele>602.1</ele>
        <time>2017-07-31T10:53:07Z</time>
      </trkpt>
      <trkpt lat="42.44374" lon="0.06541">
        <ele>602.5</ele>
        <time>2017-07-31T10:53:08Z</time>
      </trkpt>
      <trkpt lat="42.4437" lon="0.06542">
        <ele>602.9</ele>
        <time>2017-07-31T10:53:09Z</time>
      </trkpt>
      <trkpt lat="42.44366" lon="0.06542">
        <ele>603.3</ele>
        <time>2017-07-31T10:53:10Z</time>
      </trkpt>
      <trkpt lat="42.44363" lon="0.06544">
        <ele>603.7</ele>
        <time>2017-07-31T10:53:11Z</time>
      </trkpt>
      <trkpt lat="42.44359" lon="0.06547">
        <ele>604.1</ele>
        <time>2017-07-31T10:53:12Z</time>
      </trkpt>
      <trkpt lat="42.44356" lon="0.06549">
        <ele>604.5</ele>
        <time>2017-07-31T10:53:13Z</time>
      </trkpt>
      <trkpt lat="42.44352" lon="0.06551">
        <ele>604.9</ele>
        <time>2017-07-31T10:53:14Z</time>
      </trkpt>
      <trkpt lat="42.44348" lon="0.06553">
        <ele>605.4</ele>
        <time>2017-07-31T10:53:15Z</time>
      </trkpt>
      <trkpt lat="42.44345" lon="0.06555">
        <ele>605.8</ele>
        <time>2017-07-31T10:53:16Z</time>
      </trkpt>
      <trkpt lat="42.44342" lon="0.06557">
        <ele>606.1</ele>
        <time>2017-07-31T10:53:17Z</time>
      </trkpt>
      <trkpt lat="42.44339" lon="0.06558">
        <ele>606.5</ele>
        <time>2017-07-31T10:53:18Z</time>
      </trkpt>
      <trkpt lat="42.44335" lon="0.06561">
        <ele>607</ele>
        <time>2017-07-31T10:53:20Z</time>
      </trkpt>
      <trkpt lat="42.44332" lon="0.06562">
        <ele>607.4</ele>
        <time>2017-07-31T10:53:22Z</time>
      </trkpt>
      <trkpt lat="42.4433" lon="0.06566">
        <ele>607.7</ele>
        <time>2017-07-31T10:53:44Z</time>
      </trkpt>
    </trkseg>
  </trk>
</gpx>